<?xml version='1.0' encoding='UTF-8'?><gpx version="1.1" creator="JPX - https://github.com/jenetics/jpx" xmlns="http://www.topografix.com/GPX/1/1"><trk><trkseg><trkpt lat="48.40074276901881" lon="-4.466710988638649"><ele>98.0</ele><time>2026-04-18T15:15:08.999Z</time></trkpt><trkpt lat="48.40072157061687" lon="-4.466814395567181"><ele>98.0</ele><time>2026-04-18T15:15:12.999Z</time></trkpt><trkpt lat="48.40069246763796" lon="-4.466903548336685"><ele>98.0</ele><time>2026-04-18T15:16:17Z</time></trkpt><trkpt lat="48.400758971849214" lon="-4.466948161424988"><ele>98.0</ele><time>2026-04-18T15:16:22Z</time></trkpt><trkpt lat="48.40082186646886" lon="-4.466974537860917"><ele>98.0</ele><time>2026-04-18T15:16:25Z</time></trkpt><trkpt lat="48.400888065847695" lon="-4.46700151753255"><ele>98.0</ele><time>2026-04-18T15:16:29Z</time></trkpt><trkpt lat="48.400951957381054" lon="-4.467024318413473"><ele>98.0</ele><time>2026-04-18T15:16:32Z</time></trkpt><trkpt lat="48.40103414148546" lon="-4.467033275489243"><ele>97.99999999999999</ele><time>2026-04-18T15:16:34.999Z</time></trkpt><trkpt lat="48.401113706099636" lon="-4.467049534303816"><ele>98.0</ele><time>2026-04-18T15:16:38.999Z</time></trkpt><trkpt lat="48.40117991713998" lon="-4.467047332690203"><ele>98.0</ele><time>2026-04-18T15:16:42.999Z</time></trkpt><trkpt lat="48.401243789014366" lon="-4.467065132000114"><ele>98.0</ele><time>2026-04-18T15:16:45.999Z</time></trkpt><trkpt lat="48.40132844701679" lon="-4.467094304913486"><ele>97.99999999999999</ele><time>2026-04-18T15:16:49.999Z</time></trkpt><trkpt lat="48.401426656522474" lon="-4.467091623616098"><ele>98.0</ele><time>2026-04-18T15:16:53.999Z</time></trkpt><trkpt lat="48.40149106862504" lon="-4.467075224545225"><ele>98.66666666666666</ele><time>2026-04-18T15:16:56.999Z</time></trkpt><trkpt lat="48.40156895572208" lon="-4.467082358008188"><ele>99.33333333333333</ele><time>2026-04-18T15:16:59.999Z</time></trkpt><trkpt lat="48.40164926281912" lon="-4.467077701469369"><ele>100.0</ele><time>2026-04-18T15:17:02.999Z</time></trkpt><trkpt lat="48.40175174847906" lon="-4.466998956304326"><ele>100.66666666666666</ele><time>2026-04-18T15:17:05.999Z</time></trkpt><trkpt lat="48.40183720694182" lon="-4.466964107723789"><ele>101.33333333333333</ele><time>2026-04-18T15:17:07.999Z</time></trkpt><trkpt lat="48.40190944997939" lon="-4.466953524810875"><ele>102.0</ele><time>2026-04-18T15:17:10.999Z</time></trkpt><trkpt lat="48.40198499837289" lon="-4.466918998724322"><ele>102.0</ele><time>2026-04-18T15:17:12.999Z</time></trkpt><trkpt lat="48.40207082484511" lon="-4.466845081167761"><ele>102.0</ele><time>2026-04-18T15:17:15.999Z</time></trkpt><trkpt lat="48.40211869609553" lon="-4.466759430394371"><ele>102.0</ele><time>2026-04-18T15:17:17.999Z</time></trkpt><trkpt lat="48.40217209482039" lon="-4.466686193693342"><ele>102.0</ele><time>2026-04-18T15:17:19.999Z</time></trkpt><trkpt lat="48.402234441242605" lon="-4.466651584609258"><ele>102.0</ele><time>2026-04-18T15:17:21.999Z</time></trkpt><trkpt lat="48.40229731965441" lon="-4.466659401524094"><ele>102.0</ele><time>2026-04-18T15:17:23.999Z</time></trkpt><trkpt lat="48.40235626797322" lon="-4.466698382410561"><ele>102.0</ele><time>2026-04-18T15:17:25.999Z</time></trkpt><trkpt lat="48.40245321573413" lon="-4.46675131132014"><ele>102.14285714285714</ele><time>2026-04-18T15:17:29Z</time></trkpt><trkpt lat="48.40251672258685" lon="-4.466771538970724"><ele>102.28571428571429</ele><time>2026-04-18T15:17:30Z</time></trkpt><trkpt lat="48.40258158537467" lon="-4.466815151512296"><ele>102.42857142857142</ele><time>2026-04-18T15:17:32Z</time></trkpt><trkpt lat="48.40265817437899" lon="-4.466881099473808"><ele>102.57142857142857</ele><time>2026-04-18T15:17:34Z</time></trkpt><trkpt lat="48.40272037602045" lon="-4.466949416246905"><ele>102.71428571428571</ele><time>2026-04-18T15:17:36Z</time></trkpt><trkpt lat="48.402750949571875" lon="-4.467047325445493"><ele>102.85714285714285</ele><time>2026-04-18T15:17:38Z</time></trkpt><trkpt lat="48.402789108964235" lon="-4.467135392827991"><ele>103.0</ele><time>2026-04-18T15:17:40Z</time></trkpt><trkpt lat="48.40284737114882" lon="-4.467201992892386"><ele>103.0</ele><time>2026-04-18T15:17:43Z</time></trkpt><trkpt lat="48.40290998384902" lon="-4.4672617396120335"><ele>103.0</ele><time>2026-04-18T15:17:48Z</time></trkpt><trkpt lat="48.40304111790562" lon="-4.467246699802618"><ele>103.0</ele><time>2026-04-18T15:21:14Z</time></trkpt><trkpt lat="48.4031117924288" lon="-4.4673275507131445"><ele>103.0</ele><time>2026-04-18T15:21:19Z</time></trkpt><trkpt lat="48.40320245074526" lon="-4.467375650672818"><ele>103.0</ele><time>2026-04-18T15:21:21Z</time></trkpt><trkpt lat="48.40329273194878" lon="-4.467410410388095"><ele>103.0</ele><time>2026-04-18T15:21:23Z</time></trkpt><trkpt lat="48.403383214448404" lon="-4.467451863965504"><ele>103.0</ele><time>2026-04-18T15:21:25Z</time></trkpt><trkpt lat="48.40347378241162" lon="-4.467488434001449"><ele>103.0</ele><time>2026-04-18T15:21:27Z</time></trkpt><trkpt lat="48.4035683594485" lon="-4.467511848240074"><ele>103.0</ele><time>2026-04-18T15:21:29Z</time></trkpt><trkpt lat="48.40366055002404" lon="-4.467518063922905"><ele>103.0</ele><time>2026-04-18T15:21:31Z</time></trkpt><trkpt lat="48.40374659409838" lon="-4.467540329449704"><ele>103.00000000000001</ele><time>2026-04-18T15:21:33Z</time></trkpt><trkpt lat="48.40383230671651" lon="-4.467557154718103"><ele>103.0</ele><time>2026-04-18T15:21:35Z</time></trkpt><trkpt lat="48.403894435773424" lon="-4.467591245631009"><ele>103.0</ele><time>2026-04-18T15:21:37Z</time></trkpt><trkpt lat="48.403954077688006" lon="-4.467626541075041"><ele>103.0</ele><time>2026-04-18T15:21:40Z</time></trkpt><trkpt lat="48.40403366531009" lon="-4.467655903425066"><ele>103.00000000000001</ele><time>2026-04-18T15:21:44Z</time></trkpt><trkpt lat="48.404114310240715" lon="-4.46767422848392"><ele>103.0</ele><time>2026-04-18T15:21:46Z</time></trkpt><trkpt lat="48.40419623965372" lon="-4.467683965622324"><ele>103.00000000000001</ele><time>2026-04-18T15:21:48Z</time></trkpt><trkpt lat="48.40429224962641" lon="-4.467696051301496"><ele>103.0</ele><time>2026-04-18T15:21:50Z</time></trkpt><trkpt lat="48.404355760277866" lon="-4.467686593972569"><ele>103.0</ele><time>2026-04-18T15:21:52Z</time></trkpt><trkpt lat="48.40436164654428" lon="-4.467581919025108"><ele>103.0</ele><time>2026-04-18T15:21:57Z</time></trkpt><trkpt lat="48.40441131320301" lon="-4.46751309180518"><ele>103.00000000000001</ele><time>2026-04-18T15:22:03Z</time></trkpt><trkpt lat="48.40448399362045" lon="-4.467551838556992"><ele>103.0</ele><time>2026-04-18T15:22:23Z</time></trkpt><trkpt lat="48.40462998845877" lon="-4.467545686685876"><ele>102.4</ele><time>2026-04-18T15:22:27Z</time></trkpt><trkpt lat="48.404735266314106" lon="-4.467564240156338"><ele>101.80000000000001</ele><time>2026-04-18T15:22:29Z</time></trkpt><trkpt lat="48.404857676136096" lon="-4.467498182483563"><ele>101.2</ele><time>2026-04-18T15:22:31Z</time></trkpt><trkpt lat="48.404926796161526" lon="-4.467507485061938"><ele>100.6</ele><time>2026-04-18T15:22:32Z</time></trkpt><trkpt lat="48.404999077874436" lon="-4.467517437917403"><ele>100.0</ele><time>2026-04-18T15:22:33Z</time></trkpt><trkpt lat="48.405075229030594" lon="-4.467527923574793"><ele>100.00000000000001</ele><time>2026-04-18T15:22:34Z</time></trkpt><trkpt lat="48.40514890126152" lon="-4.467536192182359"><ele>100.0</ele><time>2026-04-18T15:22:35Z</time></trkpt><trkpt lat="48.40522577356227" lon="-4.4675335294581"><ele>100.0</ele><time>2026-04-18T15:22:36Z</time></trkpt><trkpt lat="48.40530571157949" lon="-4.4675450668188175"><ele>100.0</ele><time>2026-04-18T15:22:37Z</time></trkpt><trkpt lat="48.405383995449" lon="-4.4675690159853945"><ele>100.00000000000001</ele><time>2026-04-18T15:22:38Z</time></trkpt><trkpt lat="48.40546983984628" lon="-4.4675884278705205"><ele>100.0</ele><time>2026-04-18T15:22:39Z</time></trkpt><trkpt lat="48.40555661864965" lon="-4.467600486323378"><ele>99.0</ele><time>2026-04-18T15:22:40Z</time></trkpt><trkpt lat="48.4056477438957" lon="-4.467613148738613"><ele>98.0</ele><time>2026-04-18T15:22:41Z</time></trkpt><trkpt lat="48.40574606031763" lon="-4.467626810414519"><ele>97.0</ele><time>2026-04-18T15:22:42Z</time></trkpt><trkpt lat="48.405842343939774" lon="-4.46764018961948"><ele>96.0</ele><time>2026-04-18T15:22:42.999Z</time></trkpt><trkpt lat="48.40595518534241" lon="-4.467654900209707"><ele>95.0</ele><time>2026-04-18T15:22:43.999Z</time></trkpt><trkpt lat="48.40604886495906" lon="-4.467665380234244"><ele>95.0</ele><time>2026-04-18T15:22:44.999Z</time></trkpt><trkpt lat="48.406147037482036" lon="-4.467674183284704"><ele>95.0</ele><time>2026-04-18T15:22:45.999Z</time></trkpt><trkpt lat="48.40624870351122" lon="-4.467665142854505"><ele>95.0</ele><time>2026-04-18T15:22:46.999Z</time></trkpt><trkpt lat="48.40635164655973" lon="-4.467661988274986"><ele>95.0</ele><time>2026-04-18T15:22:47.999Z</time></trkpt><trkpt lat="48.40645213448638" lon="-4.467652124093359"><ele>95.0</ele><time>2026-04-18T15:22:48.999Z</time></trkpt><trkpt lat="48.40654860101358" lon="-4.467675276580011"><ele>93.2</ele><time>2026-04-18T15:22:49.999Z</time></trkpt><trkpt lat="48.40665181767981" lon="-4.467685982781305"><ele>91.4</ele><time>2026-04-18T15:22:50.999Z</time></trkpt><trkpt lat="48.406761400536794" lon="-4.467688298925199"><ele>89.6</ele><time>2026-04-18T15:22:51.999Z</time></trkpt><trkpt lat="48.40685888958531" lon="-4.467701899423431"><ele>87.8</ele><time>2026-04-18T15:22:52.999Z</time></trkpt><trkpt lat="48.4069516299165" lon="-4.4677375476686745"><ele>86.0</ele><time>2026-04-18T15:22:53.999Z</time></trkpt><trkpt lat="48.40705177421767" lon="-4.467728624650885"><ele>86.0</ele><time>2026-04-18T15:22:54.999Z</time></trkpt><trkpt lat="48.40716039873881" lon="-4.467754749626822"><ele>86.0</ele><time>2026-04-18T15:22:55.999Z</time></trkpt><trkpt lat="48.407260117904606" lon="-4.467800707727823"><ele>86.0</ele><time>2026-04-18T15:22:56.999Z</time></trkpt><trkpt lat="48.40736474547015" lon="-4.46782198836138"><ele>86.0</ele><time>2026-04-18T15:22:57.999Z</time></trkpt><trkpt lat="48.407453354129956" lon="-4.467875060767869"><ele>86.0</ele><time>2026-04-18T15:22:58.999Z</time></trkpt><trkpt lat="48.407553721650245" lon="-4.467837907466867"><ele>84.5</ele><time>2026-04-18T15:22:59.999Z</time></trkpt><trkpt lat="48.407633583426154" lon="-4.467870414943621"><ele>83.0</ele><time>2026-04-18T15:23:00.999Z</time></trkpt><trkpt lat="48.40770152936838" lon="-4.467861420955971"><ele>81.5</ele><time>2026-04-18T15:23:01.999Z</time></trkpt><trkpt lat="48.40781477291358" lon="-4.467904674363139"><ele>80.0</ele><time>2026-04-18T15:23:03.999Z</time></trkpt><trkpt lat="48.407904415492425" lon="-4.467916236034391"><ele>78.5</ele><time>2026-04-18T15:23:05.999Z</time></trkpt><trkpt lat="48.40798024300089" lon="-4.467928863880649"><ele>77.0</ele><time>2026-04-18T15:23:07.999Z</time></trkpt><trkpt lat="48.40804611629783" lon="-4.467942878712266"><ele>76.57142857142857</ele><time>2026-04-18T15:23:10Z</time></trkpt><trkpt lat="48.408130403759266" lon="-4.467963589108717"><ele>76.14285714285714</ele><time>2026-04-18T15:23:12Z</time></trkpt><trkpt lat="48.40821170437589" lon="-4.467971326945907"><ele>75.71428571428572</ele><time>2026-04-18T15:23:14Z</time></trkpt><trkpt lat="48.40827853035474" lon="-4.4679600037582965"><ele>75.28571428571428</ele><time>2026-04-18T15:23:42Z</time></trkpt><trkpt lat="48.40834512908858" lon="-4.467948130964771"><ele>74.85714285714286</ele><time>2026-04-18T15:23:48Z</time></trkpt><trkpt lat="48.408415833910624" lon="-4.467956399896493"><ele>74.42857142857143</ele><time>2026-04-18T15:25:51Z</time></trkpt><trkpt lat="48.40847605095715" lon="-4.46799802708654"><ele>74.0</ele><time>2026-04-18T15:26:03Z</time></trkpt><trkpt lat="48.408564093874865" lon="-4.468023624922134"><ele>74.0</ele><time>2026-04-18T15:26:08Z</time></trkpt><trkpt lat="48.4086372734305" lon="-4.467980033662666"><ele>74.0</ele><time>2026-04-18T15:26:10Z</time></trkpt><trkpt lat="48.40870921508425" lon="-4.467988186731698"><ele>74.0</ele><time>2026-04-18T15:26:12Z</time></trkpt><trkpt lat="48.40878353626851" lon="-4.468060967959115"><ele>74.0</ele><time>2026-04-18T15:26:14Z</time></trkpt><trkpt lat="48.40885056813266" lon="-4.468145878859171"><ele>74.0</ele><time>2026-04-18T15:26:16Z</time></trkpt><trkpt lat="48.40892794267601" lon="-4.468192651598298"><ele>74.0</ele><time>2026-04-18T15:26:18Z</time></trkpt><trkpt lat="48.40900488364236" lon="-4.468244306481762"><ele>74.0</ele><time>2026-04-18T15:26:20Z</time></trkpt><trkpt lat="48.40909312339386" lon="-4.468255383071108"><ele>74.0</ele><time>2026-04-18T15:26:22Z</time></trkpt><trkpt lat="48.40917620380587" lon="-4.468285012394144"><ele>74.0</ele><time>2026-04-18T15:26:24Z</time></trkpt><trkpt lat="48.40918298220831" lon="-4.468419787253166"><ele>74.0</ele><time>2026-04-18T15:26:26Z</time></trkpt><trkpt lat="48.40914280756567" lon="-4.468538293601302"><ele>74.0</ele><time>2026-04-18T15:26:28Z</time></trkpt><trkpt lat="48.409129095247486" lon="-4.468637257658243"><ele>74.0</ele><time>2026-04-18T15:26:30Z</time></trkpt><trkpt lat="48.40912185583787" lon="-4.468766708039165"><ele>73.4</ele><time>2026-04-18T15:26:43Z</time></trkpt><trkpt lat="48.40909613775451" lon="-4.468893083441376"><ele>72.80000000000001</ele><time>2026-04-18T15:26:45Z</time></trkpt><trkpt lat="48.40908180836063" lon="-4.469043965127354"><ele>72.19999999999999</ele><time>2026-04-18T15:26:47Z</time></trkpt><trkpt lat="48.40911875441202" lon="-4.469201045610299"><ele>71.6</ele><time>2026-04-18T15:26:49Z</time></trkpt><trkpt lat="48.40916167256484" lon="-4.469371282967048"><ele>71.0</ele><time>2026-04-18T15:26:51Z</time></trkpt><trkpt lat="48.409218032200144" lon="-4.469516400756351"><ele>70.6</ele><time>2026-04-18T15:26:53Z</time></trkpt><trkpt lat="48.409265418713225" lon="-4.469627605564018"><ele>70.19999999999999</ele><time>2026-04-18T15:26:55Z</time></trkpt><trkpt lat="48.409324026507555" lon="-4.4698190643155495"><ele>69.80000000000001</ele><time>2026-04-18T15:26:58Z</time></trkpt><trkpt lat="48.409375491062775" lon="-4.469924589843476"><ele>69.4</ele><time>2026-04-18T15:27:00Z</time></trkpt><trkpt lat="48.409418521141966" lon="-4.470010040431959"><ele>69.0</ele><time>2026-04-18T15:27:02Z</time></trkpt><trkpt lat="48.40948999976377" lon="-4.470118099893638"><ele>69.0</ele><time>2026-04-18T15:27:05Z</time></trkpt><trkpt lat="48.409537781529465" lon="-4.470199159921209"><ele>69.0</ele><time>2026-04-18T15:27:07Z</time></trkpt><trkpt lat="48.40952514250466" lon="-4.470316782770161"><ele>69.0</ele><time>2026-04-18T15:27:09Z</time></trkpt><trkpt lat="48.40960025081388" lon="-4.4703556935733415"><ele>69.0</ele><time>2026-04-18T15:27:11Z</time></trkpt><trkpt lat="48.40966739451505" lon="-4.470402670607744"><ele>69.0</ele><time>2026-04-18T15:27:13.999Z</time></trkpt><trkpt lat="48.40972996654232" lon="-4.47046750383681"><ele>69.0</ele><time>2026-04-18T15:27:16.999Z</time></trkpt><trkpt lat="48.40981366871813" lon="-4.470519311396033"><ele>68.2</ele><time>2026-04-18T15:27:18.999Z</time></trkpt><trkpt lat="48.409918345142955" lon="-4.470577530312531"><ele>67.4</ele><time>2026-04-18T15:27:21Z</time></trkpt><trkpt lat="48.41000959457562" lon="-4.470629988105726"><ele>66.6</ele><time>2026-04-18T15:27:23Z</time></trkpt><trkpt lat="48.41010073020757" lon="-4.47069407781512"><ele>65.8</ele><time>2026-04-18T15:27:25Z</time></trkpt><trkpt lat="48.41019518986007" lon="-4.470751663662047"><ele>65.0</ele><time>2026-04-18T15:27:27Z</time></trkpt><trkpt lat="48.41028990328686" lon="-4.470795564255573"><ele>65.0</ele><time>2026-04-18T15:27:29Z</time></trkpt><trkpt lat="48.41036728426111" lon="-4.470851317398829"><ele>65.0</ele><time>2026-04-18T15:27:31Z</time></trkpt><trkpt lat="48.41043679542965" lon="-4.470893528543861"><ele>65.0</ele><time>2026-04-18T15:27:33Z</time></trkpt><trkpt lat="48.410488004490084" lon="-4.470957322579144"><ele>65.0</ele><time>2026-04-18T15:27:35Z</time></trkpt><trkpt lat="48.41053795218315" lon="-4.471038115922401"><ele>65.0</ele><time>2026-04-18T15:27:39Z</time></trkpt><trkpt lat="48.41059263280317" lon="-4.4711081404245006"><ele>65.0</ele><time>2026-04-18T15:27:56Z</time></trkpt><trkpt lat="48.410654857015665" lon="-4.471191977461876"><ele>66.33333333333334</ele><time>2026-04-18T15:27:59Z</time></trkpt><trkpt lat="48.41071439143444" lon="-4.471303638068092"><ele>67.66666666666667</ele><time>2026-04-18T15:28:02Z</time></trkpt><trkpt lat="48.41076137649706" lon="-4.47137698541926"><ele>69.0</ele><time>2026-04-18T15:28:04Z</time></trkpt><trkpt lat="48.41080710490719" lon="-4.4714719507106135"><ele>70.33333333333333</ele><time>2026-04-18T15:28:06Z</time></trkpt><trkpt lat="48.41086542783346" lon="-4.471571419418115"><ele>71.66666666666666</ele><time>2026-04-18T15:28:08Z</time></trkpt><trkpt lat="48.41091947230092" lon="-4.4716727062871655"><ele>73.0</ele><time>2026-04-18T15:28:10Z</time></trkpt><trkpt lat="48.41096754347082" lon="-4.471784964470225"><ele>73.0</ele><time>2026-04-18T15:28:12Z</time></trkpt><trkpt lat="48.411031106304264" lon="-4.471884585133255"><ele>73.0</ele><time>2026-04-18T15:28:14Z</time></trkpt><trkpt lat="48.411097667560504" lon="-4.471986514372885"><ele>73.0</ele><time>2026-04-18T15:28:16Z</time></trkpt><trkpt lat="48.41117828233827" lon="-4.4721307460819455"><ele>73.0</ele><time>2026-04-18T15:28:19Z</time></trkpt><trkpt lat="48.41122859537636" lon="-4.472231681134258"><ele>73.0</ele><time>2026-04-18T15:28:21Z</time></trkpt><trkpt lat="48.411277807904206" lon="-4.472344853788395"><ele>73.8</ele><time>2026-04-18T15:28:23Z</time></trkpt><trkpt lat="48.41133563155414" lon="-4.472447245728888"><ele>74.6</ele><time>2026-04-18T15:28:25Z</time></trkpt><trkpt lat="48.411418446995384" lon="-4.472610029411133"><ele>75.4</ele><time>2026-04-18T15:28:28Z</time></trkpt><trkpt lat="48.41147395703532" lon="-4.472729073854658"><ele>76.2</ele><time>2026-04-18T15:28:30Z</time></trkpt><trkpt lat="48.41152147800427" lon="-4.472853929790224"><ele>77.0</ele><time>2026-04-18T15:28:32Z</time></trkpt><trkpt lat="48.41157373426623" lon="-4.47296691989497"><ele>77.0</ele><time>2026-04-18T15:28:34Z</time></trkpt><trkpt lat="48.41161804539338" lon="-4.473087879822097"><ele>77.0</ele><time>2026-04-18T15:28:36Z</time></trkpt><trkpt lat="48.41166006587634" lon="-4.473208734917567"><ele>77.0</ele><time>2026-04-18T15:28:38Z</time></trkpt><trkpt lat="48.4117017921006" lon="-4.473339629654718"><ele>77.0</ele><time>2026-04-18T15:28:40Z</time></trkpt><trkpt lat="48.41175161832112" lon="-4.473452084107748"><ele>77.0</ele><time>2026-04-18T15:28:42Z</time></trkpt><trkpt lat="48.41179693414537" lon="-4.473577707059347"><ele>77.0</ele><time>2026-04-18T15:28:44Z</time></trkpt><trkpt lat="48.41183881706945" lon="-4.473702733025211"><ele>77.0</ele><time>2026-04-18T15:28:46Z</time></trkpt><trkpt lat="48.41188241187209" lon="-4.473837476022651"><ele>77.0</ele><time>2026-04-18T15:28:48Z</time></trkpt><trkpt lat="48.41193294448291" lon="-4.473961934424904"><ele>77.0</ele><time>2026-04-18T15:28:50Z</time></trkpt><trkpt lat="48.411982582691635" lon="-4.474094407447274"><ele>77.0</ele><time>2026-04-18T15:28:52Z</time></trkpt><trkpt lat="48.41203366252439" lon="-4.474231849021399"><ele>76.8</ele><time>2026-04-18T15:28:54Z</time></trkpt><trkpt lat="48.4120861993423" lon="-4.474383459597574"><ele>76.6</ele><time>2026-04-18T15:28:56Z</time></trkpt><trkpt lat="48.412143032160905" lon="-4.474525531061461"><ele>76.39999999999999</ele><time>2026-04-18T15:28:58Z</time></trkpt><trkpt lat="48.41218574757618" lon="-4.474678261888277"><ele>76.2</ele><time>2026-04-18T15:28:59.999Z</time></trkpt><trkpt lat="48.41223719548634" lon="-4.474822242027678"><ele>76.0</ele><time>2026-04-18T15:29:01.999Z</time></trkpt><trkpt lat="48.41229332180239" lon="-4.4749793149564825"><ele>75.39999999999999</ele><time>2026-04-18T15:29:03.999Z</time></trkpt><trkpt lat="48.41235823394572" lon="-4.475126837461239"><ele>74.8</ele><time>2026-04-18T15:29:05.999Z</time></trkpt><trkpt lat="48.412416052277656" lon="-4.475274301642753"><ele>74.19999999999999</ele><time>2026-04-18T15:29:07.999Z</time></trkpt><trkpt lat="48.41245412491804" lon="-4.475414140382036"><ele>73.6</ele><time>2026-04-18T15:29:09.999Z</time></trkpt><trkpt lat="48.41250222781912" lon="-4.475551308150446"><ele>73.0</ele><time>2026-04-18T15:29:11.999Z</time></trkpt><trkpt lat="48.41256357072941" lon="-4.475675141586189"><ele>71.75</ele><time>2026-04-18T15:29:13.999Z</time></trkpt><trkpt lat="48.412620134726865" lon="-4.475798582349398"><ele>70.5</ele><time>2026-04-18T15:29:15.999Z</time></trkpt><trkpt lat="48.41261047840064" lon="-4.475972310595145"><ele>69.25</ele><time>2026-04-18T15:29:17.999Z</time></trkpt><trkpt lat="48.41264996852436" lon="-4.4761153988659075"><ele>68.0</ele><time>2026-04-18T15:29:19.999Z</time></trkpt><trkpt lat="48.41271250765668" lon="-4.476296852538151"><ele>67.66666666666667</ele><time>2026-04-18T15:29:22.999Z</time></trkpt><trkpt lat="48.41275127529321" lon="-4.476421320942786"><ele>67.33333333333334</ele><time>2026-04-18T15:29:24.999Z</time></trkpt><trkpt lat="48.412780691654135" lon="-4.476544293947145"><ele>67.0</ele><time>2026-04-18T15:29:27Z</time></trkpt><trkpt lat="48.412819519444575" lon="-4.476666973651458"><ele>66.66666666666667</ele><time>2026-04-18T15:29:29Z</time></trkpt><trkpt lat="48.412851270201166" lon="-4.47678323331158"><ele>66.33333333333333</ele><time>2026-04-18T15:29:31Z</time></trkpt><trkpt lat="48.41289261534456" lon="-4.476898836930234"><ele>66.0</ele><time>2026-04-18T15:29:33Z</time></trkpt><trkpt lat="48.41292577126525" lon="-4.477000381398281"><ele>66.28571428571428</ele><time>2026-04-18T15:29:35Z</time></trkpt><trkpt lat="48.412945910560296" lon="-4.477111545684114"><ele>66.57142857142857</ele><time>2026-04-18T15:29:37Z</time></trkpt><trkpt lat="48.412974824746094" lon="-4.4772099900522875"><ele>66.85714285714286</ele><time>2026-04-18T15:29:39Z</time></trkpt><trkpt lat="48.41301329611361" lon="-4.477300689354052"><ele>67.14285714285714</ele><time>2026-04-18T15:29:41Z</time></trkpt><trkpt lat="48.41304542918185" lon="-4.477388012754573"><ele>67.42857142857143</ele><time>2026-04-18T15:29:43Z</time></trkpt><trkpt lat="48.41308291900796" lon="-4.477475716855191"><ele>67.71428571428571</ele><time>2026-04-18T15:29:45Z</time></trkpt><trkpt lat="48.41311441875519" lon="-4.477561920061498"><ele>68.0</ele><time>2026-04-18T15:29:47Z</time></trkpt><trkpt lat="48.41315520970954" lon="-4.477660878690618"><ele>68.85714285714285</ele><time>2026-04-18T15:29:49Z</time></trkpt><trkpt lat="48.41318973404516" lon="-4.4777671805901145"><ele>69.71428571428571</ele><time>2026-04-18T15:29:52Z</time></trkpt><trkpt lat="48.41321922804028" lon="-4.477867231791729"><ele>70.57142857142857</ele><time>2026-04-18T15:29:55Z</time></trkpt><trkpt lat="48.41324038277146" lon="-4.477973549051371"><ele>71.42857142857142</ele><time>2026-04-18T15:29:57Z</time></trkpt><trkpt lat="48.4132960703553" lon="-4.478053916826945"><ele>72.28571428571428</ele><time>2026-04-18T15:29:59Z</time></trkpt><trkpt lat="48.41334349705172" lon="-4.478140462751104"><ele>73.14285714285714</ele><time>2026-04-18T15:30:01Z</time></trkpt><trkpt lat="48.413322900404154" lon="-4.4782426847201515"><ele>74.0</ele><time>2026-04-18T15:30:03Z</time></trkpt><trkpt lat="48.41327609454846" lon="-4.478355338173376"><ele>74.0</ele><time>2026-04-18T15:30:06Z</time></trkpt><trkpt lat="48.41324817498323" lon="-4.478445072243137"><ele>74.0</ele><time>2026-04-18T15:30:09Z</time></trkpt><trkpt lat="48.41322603952299" lon="-4.478537355145644"><ele>74.0</ele><time>2026-04-18T15:30:12Z</time></trkpt><trkpt lat="48.41318744418576" lon="-4.478645465608338"><ele>74.0</ele><time>2026-04-18T15:30:16Z</time></trkpt><trkpt lat="48.413159866385804" lon="-4.47875056982124"><ele>74.0</ele><time>2026-04-18T15:30:20Z</time></trkpt><trkpt lat="48.41313182237458" lon="-4.478837872379757"><ele>74.0</ele><time>2026-04-18T15:30:22Z</time></trkpt><trkpt lat="48.41311338015401" lon="-4.4789315776206475"><ele>74.0</ele><time>2026-04-18T15:30:24Z</time></trkpt><trkpt lat="48.41307201025156" lon="-4.479075280726002"><ele>74.16666666666667</ele><time>2026-04-18T15:30:27Z</time></trkpt><trkpt lat="48.41305942979993" lon="-4.479178199120608"><ele>74.33333333333334</ele><time>2026-04-18T15:30:29Z</time></trkpt><trkpt lat="48.41302646414423" lon="-4.479289653092871"><ele>74.5</ele><time>2026-04-18T15:30:31Z</time></trkpt><trkpt lat="48.41298198335717" lon="-4.479407872290763"><ele>74.66666666666667</ele><time>2026-04-18T15:30:33Z</time></trkpt><trkpt lat="48.41292729500097" lon="-4.479524439419794"><ele>74.83333333333333</ele><time>2026-04-18T15:30:35Z</time></trkpt><trkpt lat="48.41286228524556" lon="-4.479655228799975"><ele>75.0</ele><time>2026-04-18T15:30:37Z</time></trkpt><trkpt lat="48.41276385633117" lon="-4.479776509249727"><ele>74.28571428571428</ele><time>2026-04-18T15:30:39Z</time></trkpt><trkpt lat="48.41270715527464" lon="-4.479835716087399"><ele>73.57142857142857</ele><time>2026-04-18T15:30:40Z</time></trkpt><trkpt lat="48.41265105780968" lon="-4.479896997246002"><ele>72.85714285714286</ele><time>2026-04-18T15:30:41Z</time></trkpt><trkpt lat="48.41259540045911" lon="-4.479975829879314"><ele>72.14285714285714</ele><time>2026-04-18T15:30:42Z</time></trkpt><trkpt lat="48.41255200741378" lon="-4.48006501379033"><ele>71.42857142857143</ele><time>2026-04-18T15:30:43Z</time></trkpt><trkpt lat="48.412509615923085" lon="-4.480146523502077"><ele>70.71428571428571</ele><time>2026-04-18T15:30:44Z</time></trkpt><trkpt lat="48.41247099664408" lon="-4.480224985514067"><ele>70.0</ele><time>2026-04-18T15:30:45Z</time></trkpt><trkpt lat="48.41244408666733" lon="-4.480323996139179"><ele>70.0</ele><time>2026-04-18T15:30:47Z</time></trkpt><trkpt lat="48.412531106391164" lon="-4.480378368408837"><ele>70.0</ele><time>2026-04-18T15:30:48Z</time></trkpt><trkpt lat="48.4125720284052" lon="-4.480469815168839"><ele>70.0</ele><time>2026-04-18T15:30:50Z</time></trkpt><trkpt lat="48.41264171438287" lon="-4.480517052372977"><ele>70.0</ele><time>2026-04-18T15:30:54.999Z</time></trkpt><trkpt lat="48.4125692733375" lon="-4.480534182302664"><ele>70.0</ele><time>2026-04-18T15:31:24.999Z</time></trkpt><trkpt lat="48.41252722874934" lon="-4.48042233852062"><ele>70.0</ele><time>2026-04-18T15:31:28.999Z</time></trkpt><trkpt lat="48.412465745370106" lon="-4.480316702162919"><ele>70.0</ele><time>2026-04-18T15:31:31.999Z</time></trkpt><trkpt lat="48.41241182207294" lon="-4.480232727197367"><ele>70.0</ele><time>2026-04-18T15:31:34Z</time></trkpt><trkpt lat="48.412326042126786" lon="-4.480161387450979"><ele>70.0</ele><time>2026-04-18T15:31:36Z</time></trkpt><trkpt lat="48.41225461465415" lon="-4.480113986658341"><ele>70.0</ele><time>2026-04-18T15:31:39Z</time></trkpt><trkpt lat="48.41219151504376" lon="-4.480141429786224"><ele>70.0</ele><time>2026-04-18T15:31:59Z</time></trkpt><trkpt lat="48.41212031210479" lon="-4.4800958758542695"><ele>70.0</ele><time>2026-04-18T15:32:02Z</time></trkpt><trkpt lat="48.412037089737666" lon="-4.480065537752059"><ele>69.4</ele><time>2026-04-18T15:32:05Z</time></trkpt><trkpt lat="48.41194565272988" lon="-4.480018754087514"><ele>68.8</ele><time>2026-04-18T15:32:08Z</time></trkpt><trkpt lat="48.41184690724683" lon="-4.479952225563178"><ele>68.2</ele><time>2026-04-18T15:32:10Z</time></trkpt><trkpt lat="48.41173085784283" lon="-4.47989485497577"><ele>67.6</ele><time>2026-04-18T15:32:12Z</time></trkpt><trkpt lat="48.411663400053946" lon="-4.479914902721005"><ele>67.0</ele><time>2026-04-18T15:32:13Z</time></trkpt><trkpt lat="48.4115437458905" lon="-4.4798629832502534"><ele>67.0</ele><time>2026-04-18T15:32:15Z</time></trkpt><trkpt lat="48.41147707260159" lon="-4.479818809492989"><ele>67.0</ele><time>2026-04-18T15:32:16Z</time></trkpt><trkpt lat="48.411420738023295" lon="-4.4797477356165105"><ele>67.0</ele><time>2026-04-18T15:32:17Z</time></trkpt><trkpt lat="48.41136103009117" lon="-4.479676060637654"><ele>67.0</ele><time>2026-04-18T15:32:18Z</time></trkpt><trkpt lat="48.41130009613674" lon="-4.479586748395451"><ele>67.0</ele><time>2026-04-18T15:32:19Z</time></trkpt><trkpt lat="48.41124241721767" lon="-4.479518762670742"><ele>67.0</ele><time>2026-04-18T15:32:20Z</time></trkpt><trkpt lat="48.41119806735327" lon="-4.479447664432751"><ele>67.0</ele><time>2026-04-18T15:32:21Z</time></trkpt><trkpt lat="48.41110188803572" lon="-4.479342016710909"><ele>66.0</ele><time>2026-04-18T15:32:23Z</time></trkpt><trkpt lat="48.41102503509615" lon="-4.479422995526684"><ele>65.0</ele><time>2026-04-18T15:32:24Z</time></trkpt><trkpt lat="48.41101103333386" lon="-4.4795850241966555"><ele>64.0</ele><time>2026-04-18T15:32:25Z</time></trkpt><trkpt lat="48.410964334809826" lon="-4.47969102771497"><ele>63.0</ele><time>2026-04-18T15:32:26Z</time></trkpt><trkpt lat="48.410908336521516" lon="-4.479780264455853"><ele>61.99999999999999</ele><time>2026-04-18T15:32:27Z</time></trkpt><trkpt lat="48.41086053194754" lon="-4.4798775400139235"><ele>61.0</ele><time>2026-04-18T15:32:28Z</time></trkpt><trkpt lat="48.41081189354579" lon="-4.479975177293986"><ele>61.0</ele><time>2026-04-18T15:32:29Z</time></trkpt><trkpt lat="48.410781831913106" lon="-4.480088582289848"><ele>60.99999999999999</ele><time>2026-04-18T15:32:30Z</time></trkpt><trkpt lat="48.410737658573034" lon="-4.480191636855276"><ele>60.99999999999999</ele><time>2026-04-18T15:32:31Z</time></trkpt><trkpt lat="48.41069153358339" lon="-4.480293388932052"><ele>61.0</ele><time>2026-04-18T15:32:32Z</time></trkpt><trkpt lat="48.41060360258528" lon="-4.480459147289464"><ele>61.0</ele><time>2026-04-18T15:32:34Z</time></trkpt><trkpt lat="48.410549487582934" lon="-4.480605501525672"><ele>59.99999999999999</ele><time>2026-04-18T15:32:36Z</time></trkpt><trkpt lat="48.41048907281979" lon="-4.480735547179159"><ele>59.0</ele><time>2026-04-18T15:32:38Z</time></trkpt><trkpt lat="48.41041216099219" lon="-4.480835927124897"><ele>58.0</ele><time>2026-04-18T15:32:40Z</time></trkpt><trkpt lat="48.41034138929947" lon="-4.480808637662723"><ele>57.0</ele><time>2026-04-18T15:32:41Z</time></trkpt><trkpt lat="48.41025854846353" lon="-4.480794225052736"><ele>55.99999999999999</ele><time>2026-04-18T15:32:43Z</time></trkpt><trkpt lat="48.41019346997761" lon="-4.480765931650849"><ele>55.0</ele><time>2026-04-18T15:32:45Z</time></trkpt><trkpt lat="48.4101056646129" lon="-4.48074509399083"><ele>54.99999999999999</ele><time>2026-04-18T15:32:47.999Z</time></trkpt><trkpt lat="48.4100059874302" lon="-4.480658808683278"><ele>55.0</ele><time>2026-04-18T15:32:50.999Z</time></trkpt><trkpt lat="48.4099328897389" lon="-4.480622854265548"><ele>55.0</ele><time>2026-04-18T15:32:53.999Z</time></trkpt><trkpt lat="48.40985766350911" lon="-4.480610925577043"><ele>55.0</ele><time>2026-04-18T15:32:56.999Z</time></trkpt><trkpt lat="48.40977678794876" lon="-4.480580467736527"><ele>54.99999999999999</ele><time>2026-04-18T15:32:59.999Z</time></trkpt><trkpt lat="48.409689627868" lon="-4.480613855896657"><ele>55.0</ele><time>2026-04-18T15:33:02.999Z</time></trkpt><trkpt lat="48.40963125624993" lon="-4.4806553167547865"><ele>55.166666666666664</ele><time>2026-04-18T15:33:04.999Z</time></trkpt><trkpt lat="48.4095622119015" lon="-4.480720302522848"><ele>55.33333333333333</ele><time>2026-04-18T15:33:06.999Z</time></trkpt><trkpt lat="48.40950032396905" lon="-4.480802056334425"><ele>55.5</ele><time>2026-04-18T15:33:08.999Z</time></trkpt><trkpt lat="48.40943333069161" lon="-4.480890357549233"><ele>55.66666666666667</ele><time>2026-04-18T15:33:10.999Z</time></trkpt><trkpt lat="48.40936260907713" lon="-4.480948805945679"><ele>55.833333333333336</ele><time>2026-04-18T15:33:12.999Z</time></trkpt><trkpt lat="48.40932320162363" lon="-4.481059599263682"><ele>56.0</ele><time>2026-04-18T15:33:20.999Z</time></trkpt><trkpt lat="48.40933700370911" lon="-4.481157750646515"><ele>55.833333333333336</ele><time>2026-04-18T15:33:23.999Z</time></trkpt><trkpt lat="48.40931938724301" lon="-4.481270998202429"><ele>55.66666666666667</ele><time>2026-04-18T15:33:45Z</time></trkpt><trkpt lat="48.40932365893982" lon="-4.481374779490524"><ele>55.5</ele><time>2026-04-18T15:33:47Z</time></trkpt><trkpt lat="48.40932222185449" lon="-4.481494361559144"><ele>55.33333333333333</ele><time>2026-04-18T15:33:49Z</time></trkpt><trkpt lat="48.40927434441855" lon="-4.4816219222669265"><ele>55.166666666666664</ele><time>2026-04-18T15:33:51Z</time></trkpt><trkpt lat="48.409282279142346" lon="-4.481789697596161"><ele>55.0</ele><time>2026-04-18T15:33:53Z</time></trkpt><trkpt lat="48.40932123348534" lon="-4.481972786825234"><ele>54.99999999999999</ele><time>2026-04-18T15:33:55Z</time></trkpt><trkpt lat="48.40932023681414" lon="-4.482071581675429"><ele>55.0</ele><time>2026-04-18T15:33:56Z</time></trkpt><trkpt lat="48.409311761890066" lon="-4.482170647826908"><ele>55.0</ele><time>2026-04-18T15:33:57Z</time></trkpt><trkpt lat="48.40931141006644" lon="-4.482276771132566"><ele>55.0</ele><time>2026-04-18T15:33:58Z</time></trkpt><trkpt lat="48.40931118697337" lon="-4.482388179887985"><ele>55.0</ele><time>2026-04-18T15:33:59Z</time></trkpt><trkpt lat="48.40933404727765" lon="-4.482494631549479"><ele>54.99999999999999</ele><time>2026-04-18T15:34:00Z</time></trkpt><trkpt lat="48.4093858683387" lon="-4.482591386095159"><ele>55.0</ele><time>2026-04-18T15:34:01Z</time></trkpt><trkpt lat="48.40946140600049" lon="-4.482660353890895"><ele>54.666666666666664</ele><time>2026-04-18T15:34:02Z</time></trkpt><trkpt lat="48.40952740223767" lon="-4.482735092709241"><ele>54.33333333333333</ele><time>2026-04-18T15:34:03Z</time></trkpt><trkpt lat="48.409568749884755" lon="-4.482831598030304"><ele>54.0</ele><time>2026-04-18T15:34:04Z</time></trkpt><trkpt lat="48.40958466706856" lon="-4.482943982828868"><ele>53.66666666666667</ele><time>2026-04-18T15:34:05Z</time></trkpt><trkpt lat="48.40956998907639" lon="-4.483066172080118"><ele>53.333333333333336</ele><time>2026-04-18T15:34:06Z</time></trkpt><trkpt lat="48.40953395956998" lon="-4.483169423672139"><ele>53.0</ele><time>2026-04-18T15:34:07Z</time></trkpt><trkpt lat="48.40947421754514" lon="-4.483251399406659"><ele>52.833333333333336</ele><time>2026-04-18T15:34:08Z</time></trkpt><trkpt lat="48.409406073796895" lon="-4.483311788818037"><ele>52.66666666666667</ele><time>2026-04-18T15:34:09Z</time></trkpt><trkpt lat="48.40934035129565" lon="-4.483367542549607"><ele>52.5</ele><time>2026-04-18T15:34:10Z</time></trkpt><trkpt lat="48.40928977016694" lon="-4.483575194535658"><ele>52.33333333333333</ele><time>2026-04-18T15:34:12Z</time></trkpt><trkpt lat="48.40929932921164" lon="-4.483684286664233"><ele>52.166666666666664</ele><time>2026-04-18T15:34:13Z</time></trkpt><trkpt lat="48.40930654196993" lon="-4.483787163417078"><ele>52.0</ele><time>2026-04-18T15:34:14Z</time></trkpt><trkpt lat="48.40931181573312" lon="-4.483957096389611"><ele>51.99999999999999</ele><time>2026-04-18T15:34:16Z</time></trkpt><trkpt lat="48.40930162376338" lon="-4.484117579202681"><ele>52.0</ele><time>2026-04-18T15:34:18Z</time></trkpt><trkpt lat="48.40929918122128" lon="-4.484265963559433"><ele>52.0</ele><time>2026-04-18T15:34:20Z</time></trkpt><trkpt lat="48.40929719775783" lon="-4.484386458673403"><ele>52.0</ele><time>2026-04-18T15:34:22Z</time></trkpt><trkpt lat="48.40933788077705" lon="-4.484477963115513"><ele>51.99999999999999</ele><time>2026-04-18T15:34:24Z</time></trkpt><trkpt lat="48.40936886390844" lon="-4.484606514048266"><ele>52.0</ele><time>2026-04-18T15:34:27Z</time></trkpt><trkpt lat="48.40940342846245" lon="-4.484724760596349"><ele>51.83333333333333</ele><time>2026-04-18T15:34:30Z</time></trkpt><trkpt lat="48.409450165586094" lon="-4.484803212498567"><ele>51.666666666666664</ele><time>2026-04-18T15:34:33Z</time></trkpt><trkpt lat="48.40948914458854" lon="-4.484947155570046"><ele>51.5</ele><time>2026-04-18T15:34:39Z</time></trkpt><trkpt lat="48.40955021741265" lon="-4.485031602835126"><ele>51.33333333333333</ele><time>2026-04-18T15:34:41Z</time></trkpt><trkpt lat="48.40959833373194" lon="-4.485130339737247"><ele>51.166666666666664</ele><time>2026-04-18T15:34:43Z</time></trkpt><trkpt lat="48.40965649321582" lon="-4.485227713055832"><ele>51.0</ele><time>2026-04-18T15:34:45Z</time></trkpt><trkpt lat="48.40971717258456" lon="-4.48531705199753"><ele>51.833333333333336</ele><time>2026-04-18T15:34:47Z</time></trkpt><trkpt lat="48.4097896018641" lon="-4.485389950901542"><ele>52.66666666666667</ele><time>2026-04-18T15:34:49Z</time></trkpt><trkpt lat="48.40985618314856" lon="-4.485455467445138"><ele>53.5</ele><time>2026-04-18T15:34:51Z</time></trkpt><trkpt lat="48.409924464089634" lon="-4.485526642771063"><ele>54.333333333333336</ele><time>2026-04-18T15:34:53Z</time></trkpt><trkpt lat="48.41000023559838" lon="-4.485561480057076"><ele>55.16666666666667</ele><time>2026-04-18T15:34:55Z</time></trkpt><trkpt lat="48.410080238987845" lon="-4.485580842200875"><ele>56.0</ele><time>2026-04-18T15:34:56.999Z</time></trkpt><trkpt lat="48.41015451662076" lon="-4.485645085622863"><ele>56.00000000000001</ele><time>2026-04-18T15:34:58.999Z</time></trkpt><trkpt lat="48.41022360151237" lon="-4.4857065269988485"><ele>56.0</ele><time>2026-04-18T15:35:00.999Z</time></trkpt><trkpt lat="48.41029429141281" lon="-4.485766490197604"><ele>56.0</ele><time>2026-04-18T15:35:03.999Z</time></trkpt><trkpt lat="48.41036887142658" lon="-4.485835808989159"><ele>56.0</ele><time>2026-04-18T15:35:05.999Z</time></trkpt><trkpt lat="48.410437440570824" lon="-4.485904201241045"><ele>56.00000000000001</ele><time>2026-04-18T15:35:07.999Z</time></trkpt><trkpt lat="48.41050146107489" lon="-4.485965404125404"><ele>56.0</ele><time>2026-04-18T15:35:09.999Z</time></trkpt><trkpt lat="48.410571779215864" lon="-4.486023521833964"><ele>56.50000000000001</ele><time>2026-04-18T15:35:11.999Z</time></trkpt><trkpt lat="48.41063816072756" lon="-4.486077029544741"><ele>57.0</ele><time>2026-04-18T15:35:13.999Z</time></trkpt><trkpt lat="48.4107081911782" lon="-4.48613368130343"><ele>57.5</ele><time>2026-04-18T15:35:15.999Z</time></trkpt><trkpt lat="48.410780120991525" lon="-4.486207832278535"><ele>58.0</ele><time>2026-04-18T15:35:18.999Z</time></trkpt><trkpt lat="48.41081592393628" lon="-4.486288258689539"><ele>58.50000000000001</ele><time>2026-04-18T15:35:20.999Z</time></trkpt><trkpt lat="48.41089939539402" lon="-4.48634771579616"><ele>59.0</ele><time>2026-04-18T15:35:22.999Z</time></trkpt><trkpt lat="48.41096775934782" lon="-4.486441181129942"><ele>59.0</ele><time>2026-04-18T15:35:24.999Z</time></trkpt><trkpt lat="48.41099180824908" lon="-4.486587468668265"><ele>59.00000000000001</ele><time>2026-04-18T15:35:26.999Z</time></trkpt><trkpt lat="48.411017738444414" lon="-4.48674316947886"><ele>59.00000000000001</ele><time>2026-04-18T15:35:28.999Z</time></trkpt><trkpt lat="48.41104874273931" lon="-4.486904596519379"><ele>59.0</ele><time>2026-04-18T15:35:30.999Z</time></trkpt><trkpt lat="48.4110855569715" lon="-4.487069640812221"><ele>59.0</ele><time>2026-04-18T15:35:32.999Z</time></trkpt><trkpt lat="48.41111897562656" lon="-4.487253792372966"><ele>59.00000000000001</ele><time>2026-04-18T15:35:34.999Z</time></trkpt><trkpt lat="48.4111466342814" lon="-4.487341321301063"><ele>59.0</ele><time>2026-04-18T15:35:35.999Z</time></trkpt><trkpt lat="48.41115081427848" lon="-4.487441744119829"><ele>59.0</ele><time>2026-04-18T15:35:36.999Z</time></trkpt><trkpt lat="48.41117249982503" lon="-4.487534884613513"><ele>59.0</ele><time>2026-04-18T15:35:37.999Z</time></trkpt><trkpt lat="48.411209976845214" lon="-4.487699979417339"><ele>59.00000000000001</ele><time>2026-04-18T15:35:39.999Z</time></trkpt><trkpt lat="48.411239849787876" lon="-4.487863500385975"><ele>59.0</ele><time>2026-04-18T15:35:41.999Z</time></trkpt><trkpt lat="48.41128661806481" lon="-4.488009196619505"><ele>59.0</ele><time>2026-04-18T15:35:43.999Z</time></trkpt><trkpt lat="48.411319957945025" lon="-4.4881456286342765"><ele>59.00000000000001</ele><time>2026-04-18T15:35:46Z</time></trkpt><trkpt lat="48.41136177753121" lon="-4.488274090204416"><ele>59.00000000000001</ele><time>2026-04-18T15:35:48Z</time></trkpt><trkpt lat="48.41140023975738" lon="-4.48838931985676"><ele>59.0</ele><time>2026-04-18T15:35:50Z</time></trkpt><trkpt lat="48.41146231971891" lon="-4.488507332539593"><ele>59.0</ele><time>2026-04-18T15:35:52Z</time></trkpt><trkpt lat="48.41150871578377" lon="-4.488629355625156"><ele>59.66666666666667</ele><time>2026-04-18T15:35:54Z</time></trkpt><trkpt lat="48.411554431983085" lon="-4.488749196795933"><ele>60.333333333333336</ele><time>2026-04-18T15:35:56Z</time></trkpt><trkpt lat="48.41159033529777" lon="-4.488872815913744"><ele>61.0</ele><time>2026-04-18T15:35:58Z</time></trkpt><trkpt lat="48.41162306499294" lon="-4.488982206704055"><ele>61.66666666666667</ele><time>2026-04-18T15:36:00Z</time></trkpt><trkpt lat="48.41166204284562" lon="-4.489073764870248"><ele>62.333333333333336</ele><time>2026-04-18T15:36:02Z</time></trkpt><trkpt lat="48.41171293086307" lon="-4.489164389950944"><ele>63.0</ele><time>2026-04-18T15:36:04Z</time></trkpt><trkpt lat="48.411754814415225" lon="-4.4892609278729605"><ele>63.0</ele><time>2026-04-18T15:36:06Z</time></trkpt><trkpt lat="48.41180586611879" lon="-4.489345641764911"><ele>63.0</ele><time>2026-04-18T15:36:08Z</time></trkpt><trkpt lat="48.41185530928175" lon="-4.489454541659489"><ele>63.0</ele><time>2026-04-18T15:36:10Z</time></trkpt><trkpt lat="48.411908290034376" lon="-4.489548594796025"><ele>63.0</ele><time>2026-04-18T15:36:12Z</time></trkpt><trkpt lat="48.41196603274192" lon="-4.4896576227026905"><ele>63.0</ele><time>2026-04-18T15:36:14Z</time></trkpt><trkpt lat="48.412023905814586" lon="-4.4897491588375775"><ele>63.0</ele><time>2026-04-18T15:36:16Z</time></trkpt><trkpt lat="48.41208535812988" lon="-4.489842020209664"><ele>63.0</ele><time>2026-04-18T15:36:18Z</time></trkpt><trkpt lat="48.41213853812425" lon="-4.4899322756365025"><ele>63.0</ele><time>2026-04-18T15:36:20Z</time></trkpt><trkpt lat="48.41219245843652" lon="-4.490016245008197"><ele>63.0</ele><time>2026-04-18T15:36:22Z</time></trkpt><trkpt lat="48.4122406257542" lon="-4.490099784954111"><ele>63.0</ele><time>2026-04-18T15:36:24Z</time></trkpt><trkpt lat="48.41229820207825" lon="-4.490182962816648"><ele>63.0</ele><time>2026-04-18T15:36:26Z</time></trkpt><trkpt lat="48.412348253389354" lon="-4.490271231453927"><ele>63.0</ele><time>2026-04-18T15:36:28Z</time></trkpt><trkpt lat="48.41239601541504" lon="-4.490354627524091"><ele>64.0</ele><time>2026-04-18T15:36:30Z</time></trkpt><trkpt lat="48.41243115332294" lon="-4.490445020926986"><ele>65.0</ele><time>2026-04-18T15:36:32Z</time></trkpt><trkpt lat="48.41246365217737" lon="-4.490576367034406"><ele>66.0</ele><time>2026-04-18T15:36:35Z</time></trkpt><trkpt lat="48.412470668646804" lon="-4.490686012763279"><ele>67.0</ele><time>2026-04-18T15:36:38Z</time></trkpt><trkpt lat="48.41249840659893" lon="-4.490775705632566"><ele>68.0</ele><time>2026-04-18T15:37:12.999Z</time></trkpt><trkpt lat="48.4124874975286" lon="-4.490909408863001"><ele>69.0</ele><time>2026-04-18T15:37:16.999Z</time></trkpt><trkpt lat="48.41250011335609" lon="-4.491019086457891"><ele>69.0</ele><time>2026-04-18T15:37:18.999Z</time></trkpt><trkpt lat="48.41249693479284" lon="-4.4911636977680605"><ele>69.0</ele><time>2026-04-18T15:37:21.999Z</time></trkpt><trkpt lat="48.41250327078931" lon="-4.491297022606681"><ele>69.0</ele><time>2026-04-18T15:37:23.999Z</time></trkpt><trkpt lat="48.41250193630938" lon="-4.491420440793447"><ele>69.0</ele><time>2026-04-18T15:37:25.999Z</time></trkpt><trkpt lat="48.41250596590055" lon="-4.4915385125620295"><ele>69.0</ele><time>2026-04-18T15:37:27.999Z</time></trkpt><trkpt lat="48.41251150514094" lon="-4.491665903330896"><ele>69.0</ele><time>2026-04-18T15:37:29.999Z</time></trkpt><trkpt lat="48.41250388523972" lon="-4.491798328967166"><ele>68.8</ele><time>2026-04-18T15:37:31.999Z</time></trkpt><trkpt lat="48.41248659855186" lon="-4.491928196883575"><ele>68.60000000000001</ele><time>2026-04-18T15:37:33.999Z</time></trkpt><trkpt lat="48.412471218063665" lon="-4.4920604715458365"><ele>68.4</ele><time>2026-04-18T15:37:35.999Z</time></trkpt><trkpt lat="48.412462586603795" lon="-4.492186497209643"><ele>68.2</ele><time>2026-04-18T15:37:37.999Z</time></trkpt><trkpt lat="48.412446449987335" lon="-4.492333541699357"><ele>68.0</ele><time>2026-04-18T15:37:39.999Z</time></trkpt><trkpt lat="48.412406062970774" lon="-4.492521157468943"><ele>67.85714285714285</ele><time>2026-04-18T15:37:42.999Z</time></trkpt><trkpt lat="48.41240468739709" lon="-4.492647628560648"><ele>67.71428571428571</ele><time>2026-04-18T15:37:43.999Z</time></trkpt><trkpt lat="48.41240495508908" lon="-4.492744512326755"><ele>67.57142857142857</ele><time>2026-04-18T15:37:44.999Z</time></trkpt><trkpt lat="48.41246625690739" lon="-4.492846175223236"><ele>67.42857142857142</ele><time>2026-04-18T15:37:45.999Z</time></trkpt><trkpt lat="48.41246080939184" lon="-4.492945004815423"><ele>67.28571428571428</ele><time>2026-04-18T15:37:46.999Z</time></trkpt><trkpt lat="48.412455200734556" lon="-4.493044799801461"><ele>67.14285714285714</ele><time>2026-04-18T15:37:47.999Z</time></trkpt><trkpt lat="48.41245133909523" lon="-4.493152496566705"><ele>67.0</ele><time>2026-04-18T15:37:48.999Z</time></trkpt><trkpt lat="48.41244815114761" lon="-4.493256772322318"><ele>67.0</ele><time>2026-04-18T15:37:49.999Z</time></trkpt><trkpt lat="48.41244616960778" lon="-4.493365147313909"><ele>67.0</ele><time>2026-04-18T15:37:51Z</time></trkpt><trkpt lat="48.412446195716136" lon="-4.493476468148344"><ele>67.0</ele><time>2026-04-18T15:37:52Z</time></trkpt><trkpt lat="48.41244629490981" lon="-4.493591383069361"><ele>67.0</ele><time>2026-04-18T15:37:53Z</time></trkpt><trkpt lat="48.412446396242046" lon="-4.493708777287238"><ele>67.0</ele><time>2026-04-18T15:37:54Z</time></trkpt><trkpt lat="48.41244650120139" lon="-4.493830371836201"><ele>67.0</ele><time>2026-04-18T15:37:55Z</time></trkpt><trkpt lat="48.412446606371965" lon="-4.493952212875681"><ele>67.0</ele><time>2026-04-18T15:37:56Z</time></trkpt><trkpt lat="48.41244671074665" lon="-4.494073130230798"><ele>67.0</ele><time>2026-04-18T15:37:57Z</time></trkpt><trkpt lat="48.41244681286136" lon="-4.494191431789484"><ele>67.0</ele><time>2026-04-18T15:37:58Z</time></trkpt><trkpt lat="48.41244691831816" lon="-4.49431360452138"><ele>67.0</ele><time>2026-04-18T15:37:59Z</time></trkpt><trkpt lat="48.412447548434685" lon="-4.494441542050101"><ele>67.0</ele><time>2026-04-18T15:38:00Z</time></trkpt><trkpt lat="48.41244824135257" lon="-4.494562360112287"><ele>67.0</ele><time>2026-04-18T15:38:01Z</time></trkpt><trkpt lat="48.41244893033799" lon="-4.494682492467397"><ele>66.83333333333333</ele><time>2026-04-18T15:38:02Z</time></trkpt><trkpt lat="48.412449627391226" lon="-4.49480403141803"><ele>66.66666666666666</ele><time>2026-04-18T15:38:03Z</time></trkpt><trkpt lat="48.41243869241752" lon="-4.49492248479992"><ele>66.5</ele><time>2026-04-18T15:38:04Z</time></trkpt><trkpt lat="48.41243587742151" lon="-4.495041357114897"><ele>66.33333333333333</ele><time>2026-04-18T15:38:05Z</time></trkpt><trkpt lat="48.412434645697374" lon="-4.495158707558977"><ele>66.16666666666667</ele><time>2026-04-18T15:38:06Z</time></trkpt><trkpt lat="48.41245053677566" lon="-4.495274202944932"><ele>66.0</ele><time>2026-04-18T15:38:07Z</time></trkpt><trkpt lat="48.4124505367774" lon="-4.495388952344473"><ele>66.14285714285714</ele><time>2026-04-18T15:38:08Z</time></trkpt><trkpt lat="48.41245053677817" lon="-4.495499158621337"><ele>66.28571428571429</ele><time>2026-04-18T15:38:09Z</time></trkpt><trkpt lat="48.412450536778636" lon="-4.495601740384828"><ele>66.42857142857143</ele><time>2026-04-18T15:38:10Z</time></trkpt><trkpt lat="48.412450536778636" lon="-4.495697733270413"><ele>66.57142857142857</ele><time>2026-04-18T15:38:11Z</time></trkpt><trkpt lat="48.412430056005505" lon="-4.495790414865953"><ele>66.71428571428571</ele><time>2026-04-18T15:38:12Z</time></trkpt><trkpt lat="48.41241999781082" lon="-4.495929054523024"><ele>66.85714285714286</ele><time>2026-04-18T15:38:14Z</time></trkpt><trkpt lat="48.412467425525655" lon="-4.496023030584433"><ele>67.0</ele><time>2026-04-18T15:38:16Z</time></trkpt><trkpt lat="48.41256170504017" lon="-4.496020676102101"><ele>67.0</ele><time>2026-04-18T15:38:18Z</time></trkpt><trkpt lat="48.41263980242321" lon="-4.496024310686575"><ele>67.0</ele><time>2026-04-18T15:38:20Z</time></trkpt><trkpt lat="48.412704811081134" lon="-4.496042110372153"><ele>67.0</ele><time>2026-04-18T15:38:22Z</time></trkpt><trkpt lat="48.412774728588325" lon="-4.496037575882504"><ele>67.0</ele><time>2026-04-18T15:38:24Z</time></trkpt><trkpt lat="48.41285095141383" lon="-4.4960395947858585"><ele>67.0</ele><time>2026-04-18T15:38:26Z</time></trkpt><trkpt lat="48.41292559833377" lon="-4.496049099148161"><ele>67.0</ele><time>2026-04-18T15:38:28Z</time></trkpt><trkpt lat="48.41301782423237" lon="-4.496053576888906"><ele>67.33333333333333</ele><time>2026-04-18T15:38:32Z</time></trkpt><trkpt lat="48.41308903364569" lon="-4.496055049389853"><ele>67.66666666666666</ele><time>2026-04-18T15:39:24.999Z</time></trkpt><trkpt lat="48.41316035183556" lon="-4.496105094321561"><ele>68.0</ele><time>2026-04-18T15:39:27.999Z</time></trkpt><trkpt lat="48.413159193189465" lon="-4.496237244441378"><ele>68.33333333333333</ele><time>2026-04-18T15:39:30.999Z</time></trkpt><trkpt lat="48.41314974072693" lon="-4.496365323827218"><ele>68.66666666666667</ele><time>2026-04-18T15:39:33.999Z</time></trkpt><trkpt lat="48.41315158259158" lon="-4.496460930877502"><ele>69.0</ele><time>2026-04-18T15:39:35.999Z</time></trkpt><trkpt lat="48.41315196054278" lon="-4.496561962566812"><ele>69.0</ele><time>2026-04-18T15:39:37.999Z</time></trkpt><trkpt lat="48.413148662615214" lon="-4.49666705785543"><ele>69.0</ele><time>2026-04-18T15:39:39.999Z</time></trkpt><trkpt lat="48.413144359687536" lon="-4.4967824811406185"><ele>69.0</ele><time>2026-04-18T15:39:41.999Z</time></trkpt><trkpt lat="48.41314159943654" lon="-4.496895208735336"><ele>69.0</ele><time>2026-04-18T15:39:43.999Z</time></trkpt><trkpt lat="48.41313952989887" lon="-4.497026693606414"><ele>69.0</ele><time>2026-04-18T15:39:45.999Z</time></trkpt><trkpt lat="48.41313955961008" lon="-4.497151069371952"><ele>69.0</ele><time>2026-04-18T15:39:47.999Z</time></trkpt><trkpt lat="48.41314403867906" lon="-4.497289262855449"><ele>69.0</ele><time>2026-04-18T15:39:49.999Z</time></trkpt><trkpt lat="48.41316430243543" lon="-4.4974348628608425"><ele>69.0</ele><time>2026-04-18T15:39:51.999Z</time></trkpt><trkpt lat="48.41317274887768" lon="-4.49759248652436"><ele>69.0</ele><time>2026-04-18T15:39:53.999Z</time></trkpt><trkpt lat="48.413162585653915" lon="-4.497750761590152"><ele>69.0</ele><time>2026-04-18T15:39:55.999Z</time></trkpt><trkpt lat="48.41314968559148" lon="-4.497934042836563"><ele>69.0</ele><time>2026-04-18T15:39:58Z</time></trkpt><trkpt lat="48.41314932868521" lon="-4.498030435619026"><ele>68.8</ele><time>2026-04-18T15:39:59Z</time></trkpt><trkpt lat="48.413133412220745" lon="-4.498216016654666"><ele>68.60000000000001</ele><time>2026-04-18T15:40:01Z</time></trkpt><trkpt lat="48.41312800251581" lon="-4.498404508291023"><ele>68.4</ele><time>2026-04-18T15:40:03Z</time></trkpt><trkpt lat="48.41312482992365" lon="-4.498499725269906"><ele>68.2</ele><time>2026-04-18T15:40:04Z</time></trkpt><trkpt lat="48.41310998309329" lon="-4.498682867353333"><ele>68.0</ele><time>2026-04-18T15:40:06Z</time></trkpt><trkpt lat="48.41310110948138" lon="-4.498864440815021"><ele>68.0</ele><time>2026-04-18T15:40:08Z</time></trkpt><trkpt lat="48.41309858889582" lon="-4.499052814193995"><ele>68.0</ele><time>2026-04-18T15:40:10Z</time></trkpt><trkpt lat="48.41308885080915" lon="-4.4993023187026955"><ele>68.0</ele><time>2026-04-18T15:40:13Z</time></trkpt><trkpt lat="48.413081694576164" lon="-4.499454435291445"><ele>68.0</ele><time>2026-04-18T15:40:15Z</time></trkpt><trkpt lat="48.41307680729913" lon="-4.499609483051221"><ele>68.33333333333334</ele><time>2026-04-18T15:40:17Z</time></trkpt><trkpt lat="48.413081819317576" lon="-4.499763743999554"><ele>68.66666666666667</ele><time>2026-04-18T15:40:19Z</time></trkpt><trkpt lat="48.413076979863966" lon="-4.499859294645843"><ele>69.0</ele><time>2026-04-18T15:40:20Z</time></trkpt><trkpt lat="48.41306430779944" lon="-4.500047204236183"><ele>69.33333333333333</ele><time>2026-04-18T15:40:22Z</time></trkpt><trkpt lat="48.41305864636305" lon="-4.500146061520597"><ele>69.66666666666666</ele><time>2026-04-18T15:40:23Z</time></trkpt><trkpt lat="48.41305836598092" lon="-4.500245240179925"><ele>70.0</ele><time>2026-04-18T15:40:24Z</time></trkpt><trkpt lat="48.41305652825476" lon="-4.500343770258412"><ele>69.57142857142857</ele><time>2026-04-18T15:40:25Z</time></trkpt><trkpt lat="48.41305721967384" lon="-4.500447794263359"><ele>69.14285714285714</ele><time>2026-04-18T15:40:26Z</time></trkpt><trkpt lat="48.413048372372764" lon="-4.500547496396238"><ele>68.71428571428572</ele><time>2026-04-18T15:40:27Z</time></trkpt><trkpt lat="48.413044915360054" lon="-4.5006558691300045"><ele>68.28571428571428</ele><time>2026-04-18T15:40:28Z</time></trkpt><trkpt lat="48.413043306123704" lon="-4.500760754083926"><ele>67.85714285714286</ele><time>2026-04-18T15:40:29Z</time></trkpt><trkpt lat="48.41303048196206" lon="-4.5008579745958555"><ele>67.42857142857143</ele><time>2026-04-18T15:40:30Z</time></trkpt><trkpt lat="48.41302724174056" lon="-4.500956779691692"><ele>67.0</ele><time>2026-04-18T15:40:31Z</time></trkpt><trkpt lat="48.41303186959624" lon="-4.501138972253752"><ele>66.5</ele><time>2026-04-18T15:40:33Z</time></trkpt><trkpt lat="48.413023001514155" lon="-4.501325397411423"><ele>66.0</ele><time>2026-04-18T15:40:35Z</time></trkpt><trkpt lat="48.41302506984267" lon="-4.501511546400926"><ele>65.5</ele><time>2026-04-18T15:40:37Z</time></trkpt><trkpt lat="48.41301317245456" lon="-4.501697610951505"><ele>65.0</ele><time>2026-04-18T15:40:39Z</time></trkpt><trkpt lat="48.41302018106509" lon="-4.501887294243848"><ele>65.00000000000001</ele><time>2026-04-18T15:40:41Z</time></trkpt><trkpt lat="48.413015966719456" lon="-4.501991055672415"><ele>65.0</ele><time>2026-04-18T15:40:42Z</time></trkpt><trkpt lat="48.41301562881127" lon="-4.5020891645540635"><ele>65.0</ele><time>2026-04-18T15:40:43Z</time></trkpt><trkpt lat="48.41301500795176" lon="-4.502190802807054"><ele>65.0</ele><time>2026-04-18T15:40:44Z</time></trkpt><trkpt lat="48.41301037006704" lon="-4.502289695807008"><ele>65.0</ele><time>2026-04-18T15:40:45Z</time></trkpt><trkpt lat="48.413001713855074" lon="-4.5023981134559365"><ele>65.00000000000001</ele><time>2026-04-18T15:40:46Z</time></trkpt><trkpt lat="48.41300133687724" lon="-4.5025058637855775"><ele>65.0</ele><time>2026-04-18T15:40:47Z</time></trkpt><trkpt lat="48.41299408551685" lon="-4.502610193874597"><ele>64.83333333333334</ele><time>2026-04-18T15:40:48Z</time></trkpt><trkpt lat="48.4129930357088" lon="-4.502720521909885"><ele>64.66666666666667</ele><time>2026-04-18T15:40:49Z</time></trkpt><trkpt lat="48.41298883713025" lon="-4.502842648273561"><ele>64.5</ele><time>2026-04-18T15:40:50Z</time></trkpt><trkpt lat="48.41298483170203" lon="-4.502953921743882"><ele>64.33333333333333</ele><time>2026-04-18T15:40:51Z</time></trkpt><trkpt lat="48.41297561055099" lon="-4.503062718319026"><ele>64.16666666666666</ele><time>2026-04-18T15:40:52Z</time></trkpt><trkpt lat="48.41298346612593" lon="-4.503174049074139"><ele>64.0</ele><time>2026-04-18T15:40:53Z</time></trkpt><trkpt lat="48.41298018337257" lon="-4.5032882382804535"><ele>63.49999999999999</ele><time>2026-04-18T15:40:54Z</time></trkpt><trkpt lat="48.412969340987786" lon="-4.503410165115739"><ele>63.0</ele><time>2026-04-18T15:40:55Z</time></trkpt><trkpt lat="48.41296184497321" lon="-4.503537487932933"><ele>62.5</ele><time>2026-04-18T15:40:56Z</time></trkpt><trkpt lat="48.412966141526645" lon="-4.50365673846081"><ele>62.0</ele><time>2026-04-18T15:40:57Z</time></trkpt><trkpt lat="48.41296371060878" lon="-4.503779928397912"><ele>61.49999999999999</ele><time>2026-04-18T15:40:58Z</time></trkpt><trkpt lat="48.412961511253066" lon="-4.5039053233336075"><ele>61.0</ele><time>2026-04-18T15:40:59Z</time></trkpt><trkpt lat="48.41296350189805" lon="-4.504033663213839"><ele>60.99999999999999</ele><time>2026-04-18T15:41:00Z</time></trkpt><trkpt lat="48.4129596082827" lon="-4.504160843358293"><ele>61.0</ele><time>2026-04-18T15:41:01Z</time></trkpt><trkpt lat="48.412948113790165" lon="-4.5042923552751555"><ele>61.0</ele><time>2026-04-18T15:41:02Z</time></trkpt><trkpt lat="48.41294187689818" lon="-4.504432108590309"><ele>61.0</ele><time>2026-04-18T15:41:03Z</time></trkpt><trkpt lat="48.41293655482855" lon="-4.504569709316059"><ele>60.99999999999999</ele><time>2026-04-18T15:41:04Z</time></trkpt><trkpt lat="48.41293070257995" lon="-4.504705697098064"><ele>61.0</ele><time>2026-04-18T15:41:05Z</time></trkpt><trkpt lat="48.41292193951407" lon="-4.5048416833223754"><ele>60.83333333333333</ele><time>2026-04-18T15:41:06Z</time></trkpt><trkpt lat="48.41291973624832" lon="-4.504975326388489"><ele>60.666666666666664</ele><time>2026-04-18T15:41:07Z</time></trkpt><trkpt lat="48.412921090234896" lon="-4.505103249854285"><ele>60.5</ele><time>2026-04-18T15:41:08Z</time></trkpt><trkpt lat="48.41291514783715" lon="-4.505233607518903"><ele>60.33333333333333</ele><time>2026-04-18T15:41:09Z</time></trkpt><trkpt lat="48.41290105631064" lon="-4.505367358251203"><ele>60.166666666666664</ele><time>2026-04-18T15:41:10Z</time></trkpt><trkpt lat="48.41289007840982" lon="-4.505496109350784"><ele>60.0</ele><time>2026-04-18T15:41:11Z</time></trkpt><trkpt lat="48.412887744772206" lon="-4.505618554964073"><ele>59.333333333333336</ele><time>2026-04-18T15:41:12Z</time></trkpt><trkpt lat="48.41288546632576" lon="-4.505740494318551"><ele>58.66666666666667</ele><time>2026-04-18T15:41:13Z</time></trkpt><trkpt lat="48.412883846518284" lon="-4.505857173726726"><ele>58.0</ele><time>2026-04-18T15:41:14Z</time></trkpt><trkpt lat="48.41288351546902" lon="-4.5059732480505605"><ele>57.333333333333336</ele><time>2026-04-18T15:41:15Z</time></trkpt><trkpt lat="48.41288575445825" lon="-4.506086040228306"><ele>56.66666666666667</ele><time>2026-04-18T15:41:16Z</time></trkpt><trkpt lat="48.41288442459963" lon="-4.506196274932712"><ele>56.0</ele><time>2026-04-18T15:41:17Z</time></trkpt><trkpt lat="48.412882049593456" lon="-4.506307919895602"><ele>55.599999999999994</ele><time>2026-04-18T15:41:18Z</time></trkpt><trkpt lat="48.412886673182655" lon="-4.506420021267724"><ele>55.199999999999996</ele><time>2026-04-18T15:41:19Z</time></trkpt><trkpt lat="48.41288361903772" lon="-4.506606736775139"><ele>54.800000000000004</ele><time>2026-04-18T15:41:21Z</time></trkpt><trkpt lat="48.412854101231815" lon="-4.50672700426838"><ele>54.400000000000006</ele><time>2026-04-18T15:41:22Z</time></trkpt><trkpt lat="48.41287311020011" lon="-4.506887218941707"><ele>54.0</ele><time>2026-04-18T15:41:24Z</time></trkpt><trkpt lat="48.412886188764745" lon="-4.506997450120106"><ele>53.5</ele><time>2026-04-18T15:41:26Z</time></trkpt><trkpt lat="48.412899457894326" lon="-4.507109287532793"><ele>53.0</ele><time>2026-04-18T15:41:28.999Z</time></trkpt><trkpt lat="48.412913760975" lon="-4.507233272452234"><ele>52.5</ele><time>2026-04-18T15:41:31.999Z</time></trkpt><trkpt lat="48.41292558814069" lon="-4.507349507316961"><ele>52.0</ele><time>2026-04-18T15:41:34.999Z</time></trkpt><trkpt lat="48.41297539158083" lon="-4.507447010532419"><ele>51.5</ele><time>2026-04-18T15:42:01.999Z</time></trkpt><trkpt lat="48.41303051655208" lon="-4.507536904211967"><ele>51.0</ele><time>2026-04-18T15:42:05Z</time></trkpt><trkpt lat="48.41309657467131" lon="-4.507586264235449"><ele>50.85714285714286</ele><time>2026-04-18T15:42:07Z</time></trkpt><trkpt lat="48.41316187568512" lon="-4.50764125995498"><ele>50.714285714285715</ele><time>2026-04-18T15:42:09Z</time></trkpt><trkpt lat="48.41321353802578" lon="-4.507717537941991"><ele>50.57142857142857</ele><time>2026-04-18T15:42:11Z</time></trkpt><trkpt lat="48.413252324268164" lon="-4.507810864005179"><ele>50.42857142857143</ele><time>2026-04-18T15:42:13Z</time></trkpt><trkpt lat="48.413297298404046" lon="-4.507909714266357"><ele>50.285714285714285</ele><time>2026-04-18T15:42:15Z</time></trkpt><trkpt lat="48.41334284078675" lon="-4.507985693191114"><ele>50.142857142857146</ele><time>2026-04-18T15:42:18Z</time></trkpt><trkpt lat="48.413379898611716" lon="-4.508066499152328"><ele>50.0</ele><time>2026-04-18T15:42:24Z</time></trkpt><trkpt lat="48.413339538404465" lon="-4.508151063839693"><ele>49.66666666666667</ele><time>2026-04-18T15:42:26Z</time></trkpt><trkpt lat="48.4133023354937" lon="-4.508253673176475"><ele>49.333333333333336</ele><time>2026-04-18T15:42:28Z</time></trkpt><trkpt lat="48.41327350232673" lon="-4.508355855223406"><ele>49.0</ele><time>2026-04-18T15:42:30Z</time></trkpt><trkpt lat="48.413197195890085" lon="-4.508418180937546"><ele>48.66666666666667</ele><time>2026-04-18T15:42:33Z</time></trkpt><trkpt lat="48.4131825547917" lon="-4.508527475371915"><ele>48.333333333333336</ele><time>2026-04-18T15:42:35Z</time></trkpt><trkpt lat="48.413119835305736" lon="-4.508602708997826"><ele>48.0</ele><time>2026-04-18T15:42:39Z</time></trkpt><trkpt lat="48.41302815882647" lon="-4.508635895157933"><ele>48.333333333333336</ele><time>2026-04-18T15:42:41Z</time></trkpt><trkpt lat="48.41295865789489" lon="-4.508600056038706"><ele>48.66666666666667</ele><time>2026-04-18T15:42:43Z</time></trkpt><trkpt lat="48.41286630862387" lon="-4.508578926519792"><ele>49.0</ele><time>2026-04-18T15:42:46Z</time></trkpt><trkpt lat="48.41279804327167" lon="-4.508591757906303"><ele>49.333333333333336</ele><time>2026-04-18T15:42:48Z</time></trkpt><trkpt lat="48.41271945334209" lon="-4.50864637247021"><ele>49.66666666666667</ele><time>2026-04-18T15:42:50Z</time></trkpt><trkpt lat="48.41262624851307" lon="-4.508726638289311"><ele>50.0</ele><time>2026-04-18T15:42:52Z</time></trkpt><trkpt lat="48.41257475580296" lon="-4.508803575451761"><ele>50.0</ele><time>2026-04-18T15:42:53Z</time></trkpt><trkpt lat="48.41253392834021" lon="-4.508908899139477"><ele>50.0</ele><time>2026-04-18T15:42:54Z</time></trkpt><trkpt lat="48.412485719155995" lon="-4.509048186140572"><ele>50.0</ele><time>2026-04-18T15:42:55Z</time></trkpt><trkpt lat="48.41244305127061" lon="-4.5091715960448395"><ele>50.0</ele><time>2026-04-18T15:42:56Z</time></trkpt><trkpt lat="48.41240036888137" lon="-4.509298127249309"><ele>50.0</ele><time>2026-04-18T15:42:57Z</time></trkpt><trkpt lat="48.412350136838896" lon="-4.509440983813441"><ele>49.5</ele><time>2026-04-18T15:42:58Z</time></trkpt><trkpt lat="48.41230076977443" lon="-4.509589780909919"><ele>49.0</ele><time>2026-04-18T15:42:59Z</time></trkpt><trkpt lat="48.41225178215956" lon="-4.5097498198673875"><ele>48.5</ele><time>2026-04-18T15:43:00Z</time></trkpt><trkpt lat="48.412200729965605" lon="-4.5099170902211325"><ele>48.0</ele><time>2026-04-18T15:43:01Z</time></trkpt><trkpt lat="48.41212974549199" lon="-4.510068697268412"><ele>47.25</ele><time>2026-04-18T15:43:02Z</time></trkpt><trkpt lat="48.41205777806822" lon="-4.510235111861507"><ele>46.5</ele><time>2026-04-18T15:43:03Z</time></trkpt><trkpt lat="48.41200024027372" lon="-4.510415729605551"><ele>45.75</ele><time>2026-04-18T15:43:04Z</time></trkpt><trkpt lat="48.41191880859878" lon="-4.510568235378807"><ele>45.0</ele><time>2026-04-18T15:43:05Z</time></trkpt><trkpt lat="48.411840701781166" lon="-4.510732010772372"><ele>44.25</ele><time>2026-04-18T15:43:06Z</time></trkpt><trkpt lat="48.41176532503746" lon="-4.510890628253993"><ele>43.5</ele><time>2026-04-18T15:43:07Z</time></trkpt><trkpt lat="48.411688702657464" lon="-4.511054301616695"><ele>42.75</ele><time>2026-04-18T15:43:08Z</time></trkpt><trkpt lat="48.41160921507093" lon="-4.5112311459045085"><ele>42.0</ele><time>2026-04-18T15:43:09Z</time></trkpt><trkpt lat="48.4115254617436" lon="-4.51140787418711"><ele>41.75</ele><time>2026-04-18T15:43:10Z</time></trkpt><trkpt lat="48.411434377948154" lon="-4.511572263714076"><ele>41.5</ele><time>2026-04-18T15:43:11Z</time></trkpt><trkpt lat="48.41134890149023" lon="-4.511740098787002"><ele>41.25</ele><time>2026-04-18T15:43:12Z</time></trkpt><trkpt lat="48.411277212223936" lon="-4.511918057538157"><ele>41.0</ele><time>2026-04-18T15:43:13Z</time></trkpt><trkpt lat="48.41121176168228" lon="-4.512081215346171"><ele>39.25</ele><time>2026-04-18T15:43:14Z</time></trkpt><trkpt lat="48.41114144308127" lon="-4.512246854578318"><ele>37.5</ele><time>2026-04-18T15:43:15Z</time></trkpt><trkpt lat="48.411073869261244" lon="-4.512403784638927"><ele>35.75</ele><time>2026-04-18T15:43:16Z</time></trkpt><trkpt lat="48.41100698051101" lon="-4.512559972214749"><ele>34.0</ele><time>2026-04-18T15:43:17Z</time></trkpt><trkpt lat="48.41093572630569" lon="-4.51271492489675"><ele>34.0</ele><time>2026-04-18T15:43:18Z</time></trkpt><trkpt lat="48.41086333743557" lon="-4.512864538321656"><ele>34.0</ele><time>2026-04-18T15:43:19Z</time></trkpt><trkpt lat="48.410796911177556" lon="-4.513013896140644"><ele>34.0</ele><time>2026-04-18T15:43:20Z</time></trkpt><trkpt lat="48.41073081179892" lon="-4.5131687962385785"><ele>34.0</ele><time>2026-04-18T15:43:20.999Z</time></trkpt><trkpt lat="48.41066561766974" lon="-4.51331524366769"><ele>34.0</ele><time>2026-04-18T15:43:21.999Z</time></trkpt><trkpt lat="48.4106058754773" lon="-4.513439359424841"><ele>34.0</ele><time>2026-04-18T15:43:22.999Z</time></trkpt><trkpt lat="48.410560560344045" lon="-4.5135401621388445"><ele>34.0</ele><time>2026-04-18T15:43:23.999Z</time></trkpt><trkpt lat="48.41052391368241" lon="-4.5136224872296395"><ele>34.0</ele><time>2026-04-18T15:43:24.999Z</time></trkpt><trkpt lat="48.410479289164506" lon="-4.513702688199313"><ele>34.0</ele><time>2026-04-18T15:43:25.999Z</time></trkpt><trkpt lat="48.41042606003691" lon="-4.5137752210218824"><ele>34.0</ele><time>2026-04-18T15:43:26.999Z</time></trkpt><trkpt lat="48.410384873158485" lon="-4.513855326978508"><ele>34.0</ele><time>2026-04-18T15:43:27.999Z</time></trkpt><trkpt lat="48.41029578985489" lon="-4.514061032206149"><ele>34.0</ele><time>2026-04-18T15:43:30.999Z</time></trkpt><trkpt lat="48.41024266411963" lon="-4.514197323843385"><ele>34.0</ele><time>2026-04-18T15:43:32.999Z</time></trkpt><trkpt lat="48.4102029750349" lon="-4.514306742402654"><ele>34.0</ele><time>2026-04-18T15:43:34.999Z</time></trkpt><trkpt lat="48.410209635857406" lon="-4.5144260463808745"><ele>34.0</ele><time>2026-04-18T15:44:01.999Z</time></trkpt><trkpt lat="48.41017389531739" lon="-4.514555430195589"><ele>34.0</ele><time>2026-04-18T15:44:04.999Z</time></trkpt><trkpt lat="48.41016211680025" lon="-4.514667107869282"><ele>34.0</ele><time>2026-04-18T15:44:06.999Z</time></trkpt><trkpt lat="48.410168623689415" lon="-4.514804386529955"><ele>34.0</ele><time>2026-04-18T15:44:09Z</time></trkpt><trkpt lat="48.41018280115245" lon="-4.514951128336955"><ele>34.0</ele><time>2026-04-18T15:44:11Z</time></trkpt><trkpt lat="48.410211335941675" lon="-4.515042016544638"><ele>34.0</ele><time>2026-04-18T15:44:13Z</time></trkpt><trkpt lat="48.4102560108703" lon="-4.515143645893138"><ele>34.0</ele><time>2026-04-18T15:44:17Z</time></trkpt><trkpt lat="48.41028600722529" lon="-4.515239868050839"><ele>34.0</ele><time>2026-04-18T15:44:19Z</time></trkpt><trkpt lat="48.41033621420425" lon="-4.515365722886177"><ele>34.0</ele><time>2026-04-18T15:44:21Z</time></trkpt><trkpt lat="48.41038133468901" lon="-4.515496311958895"><ele>34.0</ele><time>2026-04-18T15:44:23Z</time></trkpt><trkpt lat="48.41041737272534" lon="-4.515638388525237"><ele>34.0</ele><time>2026-04-18T15:44:25Z</time></trkpt><trkpt lat="48.410463780018056" lon="-4.515795572175056"><ele>34.0</ele><time>2026-04-18T15:44:27Z</time></trkpt><trkpt lat="48.410507638520095" lon="-4.515942740039829"><ele>32.66666666666667</ele><time>2026-04-18T15:44:29Z</time></trkpt><trkpt lat="48.41054110985355" lon="-4.51612223309191"><ele>31.333333333333336</ele><time>2026-04-18T15:44:31Z</time></trkpt><trkpt lat="48.41055935417608" lon="-4.516219940059498"><ele>30.0</ele><time>2026-04-18T15:44:32Z</time></trkpt><trkpt lat="48.41057183584338" lon="-4.516327753711364"><ele>28.666666666666664</ele><time>2026-04-18T15:44:33Z</time></trkpt><trkpt lat="48.41058706015011" lon="-4.516440573508446"><ele>27.333333333333332</ele><time>2026-04-18T15:44:34Z</time></trkpt><trkpt lat="48.41060083668131" lon="-4.516556773736044"><ele>26.0</ele><time>2026-04-18T15:44:35Z</time></trkpt><trkpt lat="48.410607176289304" lon="-4.516680615540784"><ele>26.0</ele><time>2026-04-18T15:44:36Z</time></trkpt><trkpt lat="48.41062205633926" lon="-4.516804676334591"><ele>26.0</ele><time>2026-04-18T15:44:37Z</time></trkpt><trkpt lat="48.410634492778684" lon="-4.5169382183852544"><ele>26.0</ele><time>2026-04-18T15:44:38Z</time></trkpt><trkpt lat="48.41063636383044" lon="-4.5170740236140805"><ele>26.0</ele><time>2026-04-18T15:44:39Z</time></trkpt><trkpt lat="48.41063895667233" lon="-4.517210858916506"><ele>26.0</ele><time>2026-04-18T15:44:40Z</time></trkpt><trkpt lat="48.410625917000615" lon="-4.517355384929185"><ele>25.4</ele><time>2026-04-18T15:44:41Z</time></trkpt><trkpt lat="48.410610724158914" lon="-4.517495072585362"><ele>24.8</ele><time>2026-04-18T15:44:42Z</time></trkpt><trkpt lat="48.41059767787294" lon="-4.517645359384478"><ele>24.2</ele><time>2026-04-18T15:44:43Z</time></trkpt><trkpt lat="48.410593852844556" lon="-4.517808471468107"><ele>23.599999999999998</ele><time>2026-04-18T15:44:44Z</time></trkpt><trkpt lat="48.41058666233017" lon="-4.517973297199204"><ele>23.0</ele><time>2026-04-18T15:44:45Z</time></trkpt><trkpt lat="48.41057094104901" lon="-4.518156514359366"><ele>23.0</ele><time>2026-04-18T15:44:46Z</time></trkpt><trkpt lat="48.410540300712334" lon="-4.51835510193535"><ele>23.0</ele><time>2026-04-18T15:44:47Z</time></trkpt><trkpt lat="48.410518774609535" lon="-4.51856088130907"><ele>23.0</ele><time>2026-04-18T15:44:48Z</time></trkpt><trkpt lat="48.4105031013244" lon="-4.518775393074693"><ele>23.0</ele><time>2026-04-18T15:44:49Z</time></trkpt><trkpt lat="48.410487240464505" lon="-4.518990541469194"><ele>23.0</ele><time>2026-04-18T15:44:50Z</time></trkpt><trkpt lat="48.410475957694715" lon="-4.5192052736062776"><ele>23.0</ele><time>2026-04-18T15:44:51Z</time></trkpt><trkpt lat="48.41047225785724" lon="-4.519425115754864"><ele>23.0</ele><time>2026-04-18T15:44:52Z</time></trkpt><trkpt lat="48.410448154588494" lon="-4.519654657412937"><ele>23.0</ele><time>2026-04-18T15:44:53Z</time></trkpt><trkpt lat="48.410432634217734" lon="-4.519873392891869"><ele>21.75</ele><time>2026-04-18T15:44:54Z</time></trkpt><trkpt lat="48.41040970239028" lon="-4.520097476501261"><ele>20.5</ele><time>2026-04-18T15:44:55Z</time></trkpt><trkpt lat="48.41039251185696" lon="-4.520322889715933"><ele>19.25</ele><time>2026-04-18T15:44:56Z</time></trkpt><trkpt lat="48.4103758577176" lon="-4.520538081942875"><ele>18.0</ele><time>2026-04-18T15:44:57Z</time></trkpt><trkpt lat="48.410363348285806" lon="-4.520735292228619"><ele>17.0</ele><time>2026-04-18T15:44:58Z</time></trkpt><trkpt lat="48.41035368661842" lon="-4.52091628393931"><ele>16.0</ele><time>2026-04-18T15:44:59Z</time></trkpt><trkpt lat="48.4103367618619" lon="-4.521077112644945"><ele>15.0</ele><time>2026-04-18T15:45:00Z</time></trkpt><trkpt lat="48.41032762320317" lon="-4.521230941609487"><ele>14.0</ele><time>2026-04-18T15:45:01Z</time></trkpt><trkpt lat="48.41031998273519" lon="-4.521373027703487"><ele>13.0</ele><time>2026-04-18T15:45:02Z</time></trkpt><trkpt lat="48.410315848408736" lon="-4.521492023600371"><ele>12.857142857142856</ele><time>2026-04-18T15:45:03Z</time></trkpt><trkpt lat="48.410317441103636" lon="-4.521594104116916"><ele>12.714285714285715</ele><time>2026-04-18T15:45:04Z</time></trkpt><trkpt lat="48.410305705999114" lon="-4.5217448347869285"><ele>12.571428571428571</ele><time>2026-04-18T15:45:06Z</time></trkpt><trkpt lat="48.410272019572524" lon="-4.521839939541828"><ele>12.428571428571427</ele><time>2026-04-18T15:45:23.999Z</time></trkpt><trkpt lat="48.41027940640522" lon="-4.521946191966063"><ele>12.285714285714285</ele><time>2026-04-18T15:45:26.999Z</time></trkpt><trkpt lat="48.41027638509583" lon="-4.522042628957795"><ele>12.142857142857142</ele><time>2026-04-18T15:45:28.999Z</time></trkpt><trkpt lat="48.410270262837855" lon="-4.522151457784151"><ele>12.0</ele><time>2026-04-18T15:45:30.999Z</time></trkpt><trkpt lat="48.4102597056361" lon="-4.522278521417922"><ele>11.2</ele><time>2026-04-18T15:45:32.999Z</time></trkpt><trkpt lat="48.41024926247472" lon="-4.522430371207808"><ele>10.399999999999999</ele><time>2026-04-18T15:45:34.999Z</time></trkpt><trkpt lat="48.410240238200885" lon="-4.522571622892405"><ele>9.600000000000001</ele><time>2026-04-18T15:45:36.999Z</time></trkpt><trkpt lat="48.410225095244954" lon="-4.522730265263655"><ele>8.8</ele><time>2026-04-18T15:45:38.999Z</time></trkpt><trkpt lat="48.41021663930407" lon="-4.522881005039368"><ele>8.0</ele><time>2026-04-18T15:45:40.999Z</time></trkpt><trkpt lat="48.410195157430074" lon="-4.523059880954263"><ele>7.833333333333333</ele><time>2026-04-18T15:45:42.999Z</time></trkpt><trkpt lat="48.41019047674705" lon="-4.523156426507563"><ele>7.666666666666666</ele><time>2026-04-18T15:45:43.999Z</time></trkpt><trkpt lat="48.41018235234062" lon="-4.523253410354966"><ele>7.5</ele><time>2026-04-18T15:45:44.999Z</time></trkpt><trkpt lat="48.4101747659527" lon="-4.523351157532246"><ele>7.333333333333334</ele><time>2026-04-18T15:45:45.999Z</time></trkpt><trkpt lat="48.41017043153236" lon="-4.523447073800302"><ele>7.166666666666667</ele><time>2026-04-18T15:45:46.999Z</time></trkpt><trkpt lat="48.41015796183743" lon="-4.523624830626015"><ele>7.0</ele><time>2026-04-18T15:45:48.999Z</time></trkpt><trkpt lat="48.41014165812507" lon="-4.523800564125617"><ele>7.5</ele><time>2026-04-18T15:45:50.999Z</time></trkpt><trkpt lat="48.41013099819139" lon="-4.523977083399682"><ele>8.0</ele><time>2026-04-18T15:45:52.999Z</time></trkpt><trkpt lat="48.41012015298482" lon="-4.524155774092341"><ele>8.5</ele><time>2026-04-18T15:45:54.999Z</time></trkpt><trkpt lat="48.410125324250735" lon="-4.524327740687604"><ele>9.0</ele><time>2026-04-18T15:45:56.999Z</time></trkpt><trkpt lat="48.4101276015139" lon="-4.5245042381819705"><ele>9.4</ele><time>2026-04-18T15:45:58.999Z</time></trkpt><trkpt lat="48.410146155162835" lon="-4.524672533994201"><ele>9.8</ele><time>2026-04-18T15:46:00.999Z</time></trkpt><trkpt lat="48.41017463800476" lon="-4.524830017602278"><ele>10.200000000000001</ele><time>2026-04-18T15:46:02.999Z</time></trkpt><trkpt lat="48.410215999542" lon="-4.524990238160413"><ele>10.600000000000001</ele><time>2026-04-18T15:46:04.999Z</time></trkpt><trkpt lat="48.410263503256694" lon="-4.525142707962564"><ele>11.0</ele><time>2026-04-18T15:46:06.999Z</time></trkpt><trkpt lat="48.41031901862957" lon="-4.525286671759209"><ele>11.4</ele><time>2026-04-18T15:46:08.999Z</time></trkpt><trkpt lat="48.41038684323124" lon="-4.525436781641908"><ele>11.8</ele><time>2026-04-18T15:46:10.999Z</time></trkpt><trkpt lat="48.410466849903635" lon="-4.525571418360652"><ele>12.200000000000001</ele><time>2026-04-18T15:46:12.999Z</time></trkpt><trkpt lat="48.41050809942265" lon="-4.525647951777112"><ele>12.600000000000001</ele><time>2026-04-18T15:46:13.999Z</time></trkpt><trkpt lat="48.41055268122889" lon="-4.525721743174487"><ele>13.0</ele><time>2026-04-18T15:46:15Z</time></trkpt><trkpt lat="48.41063650291096" lon="-4.5258563589858465"><ele>13.0</ele><time>2026-04-18T15:46:17Z</time></trkpt><trkpt lat="48.4106814504468" lon="-4.525923734084074"><ele>13.0</ele><time>2026-04-18T15:46:18Z</time></trkpt><trkpt lat="48.410729397222696" lon="-4.525994006850654"><ele>13.0</ele><time>2026-04-18T15:46:19Z</time></trkpt><trkpt lat="48.4107713641439" lon="-4.526070995130175"><ele>13.0</ele><time>2026-04-18T15:46:20Z</time></trkpt><trkpt lat="48.4108133817968" lon="-4.526143231772922"><ele>13.0</ele><time>2026-04-18T15:46:21Z</time></trkpt><trkpt lat="48.410856168890774" lon="-4.526216572965867"><ele>13.0</ele><time>2026-04-18T15:46:22Z</time></trkpt><trkpt lat="48.41090512070426" lon="-4.526277706236162"><ele>13.0</ele><time>2026-04-18T15:46:23Z</time></trkpt><trkpt lat="48.41095131576535" lon="-4.526349895057823"><ele>12.571428571428571</ele><time>2026-04-18T15:46:24Z</time></trkpt><trkpt lat="48.41099455247431" lon="-4.526422168532707"><ele>12.142857142857144</ele><time>2026-04-18T15:46:25Z</time></trkpt><trkpt lat="48.4110379794315" lon="-4.5264962905807264"><ele>11.714285714285715</ele><time>2026-04-18T15:46:26Z</time></trkpt><trkpt lat="48.411085327985326" lon="-4.526572617491215"><ele>11.285714285714285</ele><time>2026-04-18T15:46:27Z</time></trkpt><trkpt lat="48.41112623013325" lon="-4.5266515423100575"><ele>10.857142857142858</ele><time>2026-04-18T15:46:28Z</time></trkpt><trkpt lat="48.41117033225695" lon="-4.526729721115161"><ele>10.428571428571429</ele><time>2026-04-18T15:46:29Z</time></trkpt><trkpt lat="48.41120659144378" lon="-4.526816821081847"><ele>10.0</ele><time>2026-04-18T15:46:30Z</time></trkpt><trkpt lat="48.41123854637223" lon="-4.52690626346002"><ele>10.0</ele><time>2026-04-18T15:46:31Z</time></trkpt><trkpt lat="48.41127352294745" lon="-4.526989326490181"><ele>10.0</ele><time>2026-04-18T15:46:32Z</time></trkpt><trkpt lat="48.41129921487039" lon="-4.527077599024932"><ele>10.0</ele><time>2026-04-18T15:46:33Z</time></trkpt><trkpt lat="48.4113497625812" lon="-4.527243306094561"><ele>10.0</ele><time>2026-04-18T15:46:35Z</time></trkpt><trkpt lat="48.41139115556279" lon="-4.527406388912393"><ele>10.0</ele><time>2026-04-18T15:46:37Z</time></trkpt><trkpt lat="48.41142298879028" lon="-4.527595181059829"><ele>10.0</ele><time>2026-04-18T15:46:39Z</time></trkpt><trkpt lat="48.411455482298386" lon="-4.5277647021335765"><ele>10.0</ele><time>2026-04-18T15:46:41Z</time></trkpt><trkpt lat="48.411483178445295" lon="-4.527912923008954"><ele>10.0</ele><time>2026-04-18T15:46:43Z</time></trkpt><trkpt lat="48.41150015356313" lon="-4.528052032845744"><ele>10.0</ele><time>2026-04-18T15:46:45Z</time></trkpt><trkpt lat="48.4115242395193" lon="-4.5281912924792405"><ele>10.0</ele><time>2026-04-18T15:46:47Z</time></trkpt><trkpt lat="48.411536469803956" lon="-4.528321042759458"><ele>10.5</ele><time>2026-04-18T15:46:49Z</time></trkpt><trkpt lat="48.41154197535626" lon="-4.5284520379804905"><ele>11.0</ele><time>2026-04-18T15:46:51Z</time></trkpt><trkpt lat="48.41155474049864" lon="-4.528579518821986"><ele>11.5</ele><time>2026-04-18T15:46:53Z</time></trkpt><trkpt lat="48.41156347950599" lon="-4.528701976806935"><ele>12.0</ele><time>2026-04-18T15:46:55Z</time></trkpt><trkpt lat="48.411570233824456" lon="-4.528818747137142"><ele>12.499999999999998</ele><time>2026-04-18T15:46:57Z</time></trkpt><trkpt lat="48.411577130636886" lon="-4.528916175217269"><ele>13.0</ele><time>2026-04-18T15:46:59Z</time></trkpt><trkpt lat="48.4115681106016" lon="-4.52901277240343"><ele>13.499999999999998</ele><time>2026-04-18T15:47:01Z</time></trkpt><trkpt lat="48.41156508693135" lon="-4.529117980451236"><ele>14.0</ele><time>2026-04-18T15:47:03Z</time></trkpt><trkpt lat="48.41156593826632" lon="-4.52921939425678"><ele>14.5</ele><time>2026-04-18T15:47:05Z</time></trkpt><trkpt lat="48.41155761752827" lon="-4.529363049559159"><ele>15.0</ele><time>2026-04-18T15:47:08Z</time></trkpt><trkpt lat="48.4115386933498" lon="-4.529463684217111"><ele>15.499999999999998</ele><time>2026-04-18T15:47:10Z</time></trkpt><trkpt lat="48.41152199795503" lon="-4.529613319746712"><ele>16.0</ele><time>2026-04-18T15:47:14Z</time></trkpt><trkpt lat="48.41150365326088" lon="-4.529740460265008"><ele>16.333333333333332</ele><time>2026-04-18T15:47:16Z</time></trkpt><trkpt lat="48.41149265318455" lon="-4.529839732553747"><ele>16.666666666666664</ele><time>2026-04-18T15:47:18Z</time></trkpt><trkpt lat="48.411468112370585" lon="-4.52997182784783"><ele>17.0</ele><time>2026-04-18T15:47:21Z</time></trkpt><trkpt lat="48.41144278257835" lon="-4.530120938972206"><ele>17.333333333333332</ele><time>2026-04-18T15:47:23Z</time></trkpt><trkpt lat="48.41141127560083" lon="-4.530258176883354"><ele>17.666666666666668</ele><time>2026-04-18T15:47:25Z</time></trkpt><trkpt lat="48.41138902384726" lon="-4.530391600641673"><ele>18.0</ele><time>2026-04-18T15:47:27Z</time></trkpt><trkpt lat="48.411361263498705" lon="-4.530509208183154"><ele>18.5</ele><time>2026-04-18T15:47:30Z</time></trkpt><trkpt lat="48.41133194464325" lon="-4.530600481120332"><ele>19.0</ele><time>2026-04-18T15:47:32Z</time></trkpt><trkpt lat="48.41128125287799" lon="-4.530729286185587"><ele>19.5</ele><time>2026-04-18T15:47:34Z</time></trkpt><trkpt lat="48.411243185843915" lon="-4.530822491903129"><ele>20.0</ele><time>2026-04-18T15:47:36Z</time></trkpt><trkpt lat="48.4111962646889" lon="-4.530909526198906"><ele>20.5</ele><time>2026-04-18T15:47:38Z</time></trkpt><trkpt lat="48.41114764953821" lon="-4.531003116188336"><ele>21.0</ele><time>2026-04-18T15:47:40Z</time></trkpt><trkpt lat="48.41109524246509" lon="-4.531089884586043"><ele>21.333333333333332</ele><time>2026-04-18T15:47:42Z</time></trkpt><trkpt lat="48.41104262735288" lon="-4.531183649297824"><ele>21.666666666666668</ele><time>2026-04-18T15:47:44Z</time></trkpt><trkpt lat="48.410988715499485" lon="-4.531274355368805"><ele>22.0</ele><time>2026-04-18T15:47:46Z</time></trkpt><trkpt lat="48.410937590213756" lon="-4.531368549943202"><ele>22.333333333333336</ele><time>2026-04-18T15:47:48Z</time></trkpt><trkpt lat="48.41088569751475" lon="-4.531462217951616"><ele>22.666666666666668</ele><time>2026-04-18T15:47:50Z</time></trkpt><trkpt lat="48.410833627313025" lon="-4.531550650743485"><ele>23.0</ele><time>2026-04-18T15:47:52Z</time></trkpt><trkpt lat="48.41077774793431" lon="-4.531638868794736"><ele>23.5</ele><time>2026-04-18T15:47:54Z</time></trkpt><trkpt lat="48.410727083775264" lon="-4.53173042920454"><ele>24.0</ele><time>2026-04-18T15:47:56Z</time></trkpt><trkpt lat="48.41068056331543" lon="-4.531814619570132"><ele>24.5</ele><time>2026-04-18T15:47:58Z</time></trkpt><trkpt lat="48.4106244519277" lon="-4.531937933290817"><ele>25.0</ele><time>2026-04-18T15:48:02Z</time></trkpt><trkpt lat="48.410557189615716" lon="-4.532055721025175"><ele>25.499999999999996</ele><time>2026-04-18T15:48:04.999Z</time></trkpt><trkpt lat="48.41049605541796" lon="-4.532145416574226"><ele>26.0</ele><time>2026-04-18T15:48:06.999Z</time></trkpt><trkpt lat="48.41044109166351" lon="-4.5322136924310445"><ele>26.166666666666664</ele><time>2026-04-18T15:48:09.999Z</time></trkpt><trkpt lat="48.410431194714164" lon="-4.532326315934208"><ele>26.333333333333332</ele><time>2026-04-18T15:48:12.999Z</time></trkpt><trkpt lat="48.41039098306814" lon="-4.532434430081307"><ele>26.5</ele><time>2026-04-18T15:48:15.999Z</time></trkpt><trkpt lat="48.410299364370935" lon="-4.532414852588539"><ele>26.666666666666664</ele><time>2026-04-18T15:48:27Z</time></trkpt><trkpt lat="48.41021222445065" lon="-4.532471083832252"><ele>26.833333333333332</ele><time>2026-04-18T15:48:29Z</time></trkpt><trkpt lat="48.410131140146845" lon="-4.53250655711067"><ele>27.0</ele><time>2026-04-18T15:48:31Z</time></trkpt><trkpt lat="48.41004644646339" lon="-4.532498655580025"><ele>27.0</ele><time>2026-04-18T15:48:33Z</time></trkpt><trkpt lat="48.4099626732112" lon="-4.5324540513936515"><ele>27.000000000000004</ele><time>2026-04-18T15:48:35Z</time></trkpt><trkpt lat="48.40988377405167" lon="-4.532382764917843"><ele>27.000000000000004</ele><time>2026-04-18T15:48:37Z</time></trkpt><trkpt lat="48.409757565151565" lon="-4.532385472839781"><ele>27.0</ele><time>2026-04-18T15:48:40Z</time></trkpt><trkpt lat="48.40968805305045" lon="-4.5324444348214"><ele>27.0</ele><time>2026-04-18T15:48:42Z</time></trkpt><trkpt lat="48.409648854588916" lon="-4.532531086408892"><ele>26.666666666666668</ele><time>2026-04-18T15:48:44Z</time></trkpt><trkpt lat="48.40961879715292" lon="-4.532617831013862"><ele>26.333333333333336</ele><time>2026-04-18T15:48:48Z</time></trkpt><trkpt lat="48.40956389594127" lon="-4.532748369427099"><ele>26.0</ele><time>2026-04-18T15:48:51Z</time></trkpt><trkpt lat="48.409506689174236" lon="-4.532909930615609"><ele>25.666666666666668</ele><time>2026-04-18T15:48:53Z</time></trkpt><trkpt lat="48.40947129301627" lon="-4.533006823350286"><ele>25.333333333333336</ele><time>2026-04-18T15:48:54Z</time></trkpt><trkpt lat="48.409438319500005" lon="-4.533104445471856"><ele>25.0</ele><time>2026-04-18T15:48:55Z</time></trkpt><trkpt lat="48.40943084019231" lon="-4.533225460943414"><ele>24.833333333333336</ele><time>2026-04-18T15:48:56Z</time></trkpt><trkpt lat="48.40938697346003" lon="-4.533347554853233"><ele>24.666666666666668</ele><time>2026-04-18T15:48:57Z</time></trkpt><trkpt lat="48.409348683103985" lon="-4.533454128280086"><ele>24.5</ele><time>2026-04-18T15:48:58Z</time></trkpt><trkpt lat="48.409308479450765" lon="-4.533568786494376"><ele>24.333333333333336</ele><time>2026-04-18T15:48:59Z</time></trkpt><trkpt lat="48.40926894215189" lon="-4.533682856799844"><ele>24.166666666666668</ele><time>2026-04-18T15:49:00Z</time></trkpt><trkpt lat="48.409229036113146" lon="-4.533801658554477"><ele>24.0</ele><time>2026-04-18T15:49:01Z</time></trkpt><trkpt lat="48.40920139852422" lon="-4.53391666033782"><ele>24.0</ele><time>2026-04-18T15:49:02Z</time></trkpt><trkpt lat="48.409179514960684" lon="-4.534032963610314"><ele>24.0</ele><time>2026-04-18T15:49:03Z</time></trkpt><trkpt lat="48.40916470212377" lon="-4.5341464830251725"><ele>24.0</ele><time>2026-04-18T15:49:04Z</time></trkpt><trkpt lat="48.40914849787507" lon="-4.534266157167131"><ele>24.0</ele><time>2026-04-18T15:49:05Z</time></trkpt><trkpt lat="48.40913241335698" lon="-4.534383759621865"><ele>24.0</ele><time>2026-04-18T15:49:06Z</time></trkpt><trkpt lat="48.40911338601689" lon="-4.534506741216416"><ele>24.0</ele><time>2026-04-18T15:49:07Z</time></trkpt><trkpt lat="48.40909158420568" lon="-4.534620045893641"><ele>24.333333333333332</ele><time>2026-04-18T15:49:08Z</time></trkpt><trkpt lat="48.40906474032404" lon="-4.534735856721529"><ele>24.666666666666664</ele><time>2026-04-18T15:49:09Z</time></trkpt><trkpt lat="48.40902974702597" lon="-4.5348449752066555"><ele>25.0</ele><time>2026-04-18T15:49:10Z</time></trkpt><trkpt lat="48.40898910730423" lon="-4.534947848733585"><ele>25.333333333333332</ele><time>2026-04-18T15:49:11Z</time></trkpt><trkpt lat="48.408938057490126" lon="-4.535051063351123"><ele>25.666666666666664</ele><time>2026-04-18T15:49:12Z</time></trkpt><trkpt lat="48.408880187404066" lon="-4.535144364859535"><ele>26.0</ele><time>2026-04-18T15:49:13Z</time></trkpt><trkpt lat="48.408813861708154" lon="-4.535201195026955"><ele>25.999999999999996</ele><time>2026-04-18T15:49:14Z</time></trkpt><trkpt lat="48.40875032284988" lon="-4.535274875035811"><ele>26.0</ele><time>2026-04-18T15:49:15Z</time></trkpt><trkpt lat="48.40868884746982" lon="-4.535360310535101"><ele>26.0</ele><time>2026-04-18T15:49:16Z</time></trkpt><trkpt lat="48.408628895056964" lon="-4.535415122011696"><ele>26.0</ele><time>2026-04-18T15:49:17Z</time></trkpt><trkpt lat="48.40856181807408" lon="-4.535464009198428"><ele>25.999999999999996</ele><time>2026-04-18T15:49:18Z</time></trkpt><trkpt lat="48.40848660037776" lon="-4.535500908799653"><ele>26.0</ele><time>2026-04-18T15:49:19Z</time></trkpt><trkpt lat="48.40839989181036" lon="-4.535560091924969"><ele>26.200000000000003</ele><time>2026-04-18T15:49:20Z</time></trkpt><trkpt lat="48.40832353662001" lon="-4.535634893459275"><ele>26.400000000000002</ele><time>2026-04-18T15:49:21Z</time></trkpt><trkpt lat="48.408237439239336" lon="-4.535701143819709"><ele>26.6</ele><time>2026-04-18T15:49:22Z</time></trkpt><trkpt lat="48.4081543224288" lon="-4.535784541298437"><ele>26.8</ele><time>2026-04-18T15:49:23Z</time></trkpt><trkpt lat="48.40808474547908" lon="-4.535883888091253"><ele>27.0</ele><time>2026-04-18T15:49:24Z</time></trkpt><trkpt lat="48.4080332727165" lon="-4.536009466940922"><ele>27.6</ele><time>2026-04-18T15:49:25Z</time></trkpt><trkpt lat="48.407987371324026" lon="-4.536136367054672"><ele>28.200000000000003</ele><time>2026-04-18T15:49:26Z</time></trkpt><trkpt lat="48.40793241807654" lon="-4.536251635171228"><ele>28.8</ele><time>2026-04-18T15:49:27Z</time></trkpt><trkpt lat="48.40789728409233" lon="-4.536378092790563"><ele>29.4</ele><time>2026-04-18T15:49:28Z</time></trkpt><trkpt lat="48.40784458960478" lon="-4.53649358591396"><ele>30.0</ele><time>2026-04-18T15:49:29Z</time></trkpt><trkpt lat="48.407800736687385" lon="-4.536617502745731"><ele>30.0</ele><time>2026-04-18T15:49:30Z</time></trkpt><trkpt lat="48.407753805985024" lon="-4.5367396657576124"><ele>30.0</ele><time>2026-04-18T15:49:31Z</time></trkpt><trkpt lat="48.40770342630361" lon="-4.536857353492506"><ele>30.0</ele><time>2026-04-18T15:49:32Z</time></trkpt><trkpt lat="48.40765077510629" lon="-4.536978153437966"><ele>30.0</ele><time>2026-04-18T15:49:33Z</time></trkpt><trkpt lat="48.407618375801114" lon="-4.537110044621048"><ele>30.0</ele><time>2026-04-18T15:49:34Z</time></trkpt><trkpt lat="48.40757544511809" lon="-4.537231815615602"><ele>30.0</ele><time>2026-04-18T15:49:35Z</time></trkpt><trkpt lat="48.407513789256" lon="-4.537339805320966"><ele>30.0</ele><time>2026-04-18T15:49:36Z</time></trkpt><trkpt lat="48.40747242060453" lon="-4.5374690338309245"><ele>30.0</ele><time>2026-04-18T15:49:37Z</time></trkpt><trkpt lat="48.407441704693944" lon="-4.53760299752247"><ele>30.0</ele><time>2026-04-18T15:49:38Z</time></trkpt><trkpt lat="48.40742535028927" lon="-4.537733576534058"><ele>30.0</ele><time>2026-04-18T15:49:39Z</time></trkpt><trkpt lat="48.40741808011572" lon="-4.53785909278303"><ele>30.0</ele><time>2026-04-18T15:49:40Z</time></trkpt><trkpt lat="48.40741631491786" lon="-4.53797036959861"><ele>30.0</ele><time>2026-04-18T15:49:41Z</time></trkpt><trkpt lat="48.40740818015503" lon="-4.538071673667074"><ele>30.0</ele><time>2026-04-18T15:49:42Z</time></trkpt><trkpt lat="48.4073954464977" lon="-4.5381647098302835"><ele>30.0</ele><time>2026-04-18T15:49:43Z</time></trkpt><trkpt lat="48.40739411163576" lon="-4.53834071994051"><ele>30.0</ele><time>2026-04-18T15:49:44.999Z</time></trkpt><trkpt lat="48.40738590474995" lon="-4.53848241659489"><ele>30.0</ele><time>2026-04-18T15:49:46.999Z</time></trkpt><trkpt lat="48.407369392031185" lon="-4.538597958889347"><ele>30.0</ele><time>2026-04-18T15:49:48.999Z</time></trkpt><trkpt lat="48.407369351000085" lon="-4.53869531512834"><ele>30.0</ele><time>2026-04-18T15:49:50.999Z</time></trkpt><trkpt lat="48.40735863777334" lon="-4.5388438904414325"><ele>30.0</ele><time>2026-04-18T15:49:54.999Z</time></trkpt><trkpt lat="48.40736481556938" lon="-4.538944044008235"><ele>30.0</ele><time>2026-04-18T15:49:57.999Z</time></trkpt><trkpt lat="48.40736897067441" lon="-4.539061717157194"><ele>30.0</ele><time>2026-04-18T15:50:02.999Z</time></trkpt><trkpt lat="48.40738277048687" lon="-4.53917943533243"><ele>30.0</ele><time>2026-04-18T15:50:05.999Z</time></trkpt><trkpt lat="48.4073649692059" lon="-4.539289704129914"><ele>30.42857142857143</ele><time>2026-04-18T15:50:08.999Z</time></trkpt><trkpt lat="48.40735289889394" lon="-4.539411102389537"><ele>30.857142857142854</ele><time>2026-04-18T15:50:11.999Z</time></trkpt><trkpt lat="48.40734336260519" lon="-4.539506815270121"><ele>31.285714285714285</ele><time>2026-04-18T15:50:13.999Z</time></trkpt><trkpt lat="48.40733270018982" lon="-4.539613597979758"><ele>31.714285714285715</ele><time>2026-04-18T15:50:16.999Z</time></trkpt><trkpt lat="48.407332671689254" lon="-4.539711334359199"><ele>32.142857142857146</ele><time>2026-04-18T15:50:18.999Z</time></trkpt><trkpt lat="48.40730368051343" lon="-4.539836229188641"><ele>32.57142857142857</ele><time>2026-04-18T15:50:21.999Z</time></trkpt><trkpt lat="48.40726906527356" lon="-4.53994372471713"><ele>33.0</ele><time>2026-04-18T15:50:24.999Z</time></trkpt><trkpt lat="48.407242128235154" lon="-4.540031588886391"><ele>33.14285714285714</ele><time>2026-04-18T15:50:27Z</time></trkpt><trkpt lat="48.407208659923405" lon="-4.540125050441487"><ele>33.285714285714285</ele><time>2026-04-18T15:50:29Z</time></trkpt><trkpt lat="48.4071673722582" lon="-4.54021022207424"><ele>33.42857142857143</ele><time>2026-04-18T15:50:31Z</time></trkpt><trkpt lat="48.407149737245625" lon="-4.540304783567007"><ele>33.57142857142857</ele><time>2026-04-18T15:50:33Z</time></trkpt><trkpt lat="48.40712309980396" lon="-4.540393602053665"><ele>33.714285714285715</ele><time>2026-04-18T15:50:35Z</time></trkpt><trkpt lat="48.407089528742254" lon="-4.540508793634859"><ele>33.857142857142854</ele><time>2026-04-18T15:50:37Z</time></trkpt><trkpt lat="48.407058066045096" lon="-4.5406315414199545"><ele>34.0</ele><time>2026-04-18T15:50:39Z</time></trkpt><trkpt lat="48.407027365214425" lon="-4.540756123737102"><ele>34.0</ele><time>2026-04-18T15:50:41Z</time></trkpt><trkpt lat="48.40699672409473" lon="-4.5408742760660115"><ele>34.0</ele><time>2026-04-18T15:50:43Z</time></trkpt><trkpt lat="48.406954818781436" lon="-4.541009792444382"><ele>34.0</ele><time>2026-04-18T15:50:45Z</time></trkpt><trkpt lat="48.40690507416141" lon="-4.541147837327359"><ele>34.0</ele><time>2026-04-18T15:50:47Z</time></trkpt><trkpt lat="48.40688574779731" lon="-4.541304568262878"><ele>34.0</ele><time>2026-04-18T15:50:49Z</time></trkpt><trkpt lat="48.40683036200988" lon="-4.541467174573793"><ele>33.8</ele><time>2026-04-18T15:50:51Z</time></trkpt><trkpt lat="48.406768057841774" lon="-4.5416228476136675"><ele>33.599999999999994</ele><time>2026-04-18T15:50:53Z</time></trkpt><trkpt lat="48.406730558247915" lon="-4.541705315687897"><ele>33.4</ele><time>2026-04-18T15:50:54Z</time></trkpt><trkpt lat="48.406655832202496" lon="-4.541853863896179"><ele>33.199999999999996</ele><time>2026-04-18T15:50:56Z</time></trkpt><trkpt lat="48.406562068328846" lon="-4.542006083392678"><ele>33.0</ele><time>2026-04-18T15:50:58Z</time></trkpt><trkpt lat="48.40651256887135" lon="-4.542073105166853"><ele>33.0</ele><time>2026-04-18T15:50:59Z</time></trkpt><trkpt lat="48.40645277291767" lon="-4.542115835721076"><ele>33.0</ele><time>2026-04-18T15:51:00Z</time></trkpt><trkpt lat="48.40635454667166" lon="-4.5422344419421306"><ele>33.0</ele><time>2026-04-18T15:51:02Z</time></trkpt><trkpt lat="48.40626539104356" lon="-4.5423563584599025"><ele>33.0</ele><time>2026-04-18T15:51:04Z</time></trkpt><trkpt lat="48.406214082378455" lon="-4.542506702529032"><ele>33.0</ele><time>2026-04-18T15:51:06Z</time></trkpt><trkpt lat="48.40616099925518" lon="-4.542665051406307"><ele>33.0</ele><time>2026-04-18T15:51:08Z</time></trkpt><trkpt lat="48.40613680817766" lon="-4.542753383692671"><ele>33.0</ele><time>2026-04-18T15:51:09Z</time></trkpt><trkpt lat="48.40609826052569" lon="-4.54292318082167"><ele>33.0</ele><time>2026-04-18T15:51:11Z</time></trkpt><trkpt lat="48.406077290425145" lon="-4.543019030335874"><ele>33.0</ele><time>2026-04-18T15:51:12Z</time></trkpt><trkpt lat="48.406056978162034" lon="-4.543111872940297"><ele>33.0</ele><time>2026-04-18T15:51:13Z</time></trkpt><trkpt lat="48.40603654777348" lon="-4.543205255538641"><ele>33.0</ele><time>2026-04-18T15:51:14Z</time></trkpt><trkpt lat="48.40599815669689" lon="-4.543380732288984"><ele>33.4</ele><time>2026-04-18T15:51:16Z</time></trkpt><trkpt lat="48.4059620600347" lon="-4.543540198202451"><ele>33.8</ele><time>2026-04-18T15:51:18Z</time></trkpt><trkpt lat="48.40592316335683" lon="-4.543705616402563"><ele>34.2</ele><time>2026-04-18T15:51:20Z</time></trkpt><trkpt lat="48.405890287754346" lon="-4.543856689940224"><ele>34.6</ele><time>2026-04-18T15:51:22Z</time></trkpt><trkpt lat="48.4058548225109" lon="-4.54401072806579"><ele>35.0</ele><time>2026-04-18T15:51:24Z</time></trkpt><trkpt lat="48.405808573722524" lon="-4.544153521164559"><ele>35.0</ele><time>2026-04-18T15:51:26Z</time></trkpt><trkpt lat="48.405764787146744" lon="-4.544282356379573"><ele>35.0</ele><time>2026-04-18T15:51:28Z</time></trkpt><trkpt lat="48.405724271624514" lon="-4.544405937588042"><ele>35.0</ele><time>2026-04-18T15:51:30Z</time></trkpt><trkpt lat="48.405688330534204" lon="-4.544517130625995"><ele>35.0</ele><time>2026-04-18T15:51:34Z</time></trkpt><trkpt lat="48.4056598616274" lon="-4.544608068353674"><ele>35.0</ele><time>2026-04-18T15:51:35.999Z</time></trkpt><trkpt lat="48.40562544972316" lon="-4.544717506473843"><ele>35.0</ele><time>2026-04-18T15:51:36.999Z</time></trkpt><trkpt lat="48.40559931929461" lon="-4.544811100115422"><ele>34.8</ele><time>2026-04-18T15:51:37.999Z</time></trkpt><trkpt lat="48.40556423535902" lon="-4.544951266195635"><ele>34.6</ele><time>2026-04-18T15:51:39.999Z</time></trkpt><trkpt lat="48.405531689605" lon="-4.545107311184277"><ele>34.4</ele><time>2026-04-18T15:51:41.999Z</time></trkpt><trkpt lat="48.405503991059554" lon="-4.545276261634422"><ele>34.2</ele><time>2026-04-18T15:51:43.999Z</time></trkpt><trkpt lat="48.40547867322879" lon="-4.545454713590119"><ele>34.0</ele><time>2026-04-18T15:51:45.999Z</time></trkpt><trkpt lat="48.40545400256786" lon="-4.54562860399586"><ele>33.75</ele><time>2026-04-18T15:51:47.999Z</time></trkpt><trkpt lat="48.405428927103245" lon="-4.545798278681563"><ele>33.5</ele><time>2026-04-18T15:51:49.999Z</time></trkpt><trkpt lat="48.405400623733684" lon="-4.545966962347399"><ele>33.25</ele><time>2026-04-18T15:51:51.999Z</time></trkpt><trkpt lat="48.40536629116831" lon="-4.546132377903455"><ele>33.0</ele><time>2026-04-18T15:51:53.999Z</time></trkpt><trkpt lat="48.40532695093347" lon="-4.546297221739918"><ele>33.0</ele><time>2026-04-18T15:51:55.999Z</time></trkpt><trkpt lat="48.40526877988761" lon="-4.5464737689906025"><ele>33.0</ele><time>2026-04-18T15:51:57.999Z</time></trkpt><trkpt lat="48.405181439436646" lon="-4.546615020440133"><ele>33.0</ele><time>2026-04-18T15:51:59.999Z</time></trkpt><trkpt lat="48.40511284102939" lon="-4.546658770375269"><ele>33.0</ele><time>2026-04-18T15:52:00.999Z</time></trkpt><trkpt lat="48.4050425379304" lon="-4.546664977299167"><ele>33.0</ele><time>2026-04-18T15:52:01.999Z</time></trkpt><trkpt lat="48.40504413531878" lon="-4.546836134805213"><ele>33.0</ele><time>2026-04-18T15:52:03.999Z</time></trkpt><trkpt lat="48.405062624637935" lon="-4.547002417605498"><ele>33.0</ele><time>2026-04-18T15:52:05.999Z</time></trkpt><trkpt lat="48.40505103027547" lon="-4.547147719460874"><ele>33.0</ele><time>2026-04-18T15:52:07.999Z</time></trkpt><trkpt lat="48.40505364749774" lon="-4.547289273694674"><ele>33.0</ele><time>2026-04-18T15:52:09.999Z</time></trkpt><trkpt lat="48.40503066845608" lon="-4.547422995319511"><ele>33.0</ele><time>2026-04-18T15:52:11.999Z</time></trkpt><trkpt lat="48.40499899830948" lon="-4.54755219907905"><ele>33.0</ele><time>2026-04-18T15:52:13.999Z</time></trkpt><trkpt lat="48.40496446895423" lon="-4.5476775475323565"><ele>33.0</ele><time>2026-04-18T15:52:15.999Z</time></trkpt><trkpt lat="48.40492903152239" lon="-4.547763723541389"><ele>33.0</ele><time>2026-04-18T15:52:18.999Z</time></trkpt><trkpt lat="48.40488669250581" lon="-4.547928091241766"><ele>33.0</ele><time>2026-04-18T15:52:21.999Z</time></trkpt><trkpt lat="48.404834323610864" lon="-4.548036911248161"><ele>33.0</ele><time>2026-04-18T15:52:23.999Z</time></trkpt><trkpt lat="48.404804536371664" lon="-4.548123494558631"><ele>33.0</ele><time>2026-04-18T15:52:26.999Z</time></trkpt><trkpt lat="48.40478075850073" lon="-4.5482197587997675"><ele>33.666666666666664</ele><time>2026-04-18T15:52:29.999Z</time></trkpt><trkpt lat="48.404745021777" lon="-4.54832965355638"><ele>34.333333333333336</ele><time>2026-04-18T15:52:33Z</time></trkpt><trkpt lat="48.40473143886066" lon="-4.548430997355897"><ele>35.0</ele><time>2026-04-18T15:52:35Z</time></trkpt><trkpt lat="48.40472102600029" lon="-4.5485491748069125"><ele>35.66666666666667</ele><time>2026-04-18T15:52:37Z</time></trkpt><trkpt lat="48.404716497557516" lon="-4.54866965430983"><ele>36.333333333333336</ele><time>2026-04-18T15:52:39Z</time></trkpt><trkpt lat="48.40471258221587" lon="-4.548779282493634"><ele>37.0</ele><time>2026-04-18T15:52:41Z</time></trkpt><trkpt lat="48.404716902581754" lon="-4.54888996306999"><ele>37.5</ele><time>2026-04-18T15:52:43Z</time></trkpt><trkpt lat="48.40472647990086" lon="-4.548995746820503"><ele>38.0</ele><time>2026-04-18T15:52:46Z</time></trkpt><trkpt lat="48.40473351446942" lon="-4.549119885185505"><ele>38.5</ele><time>2026-04-18T15:52:49Z</time></trkpt><trkpt lat="48.40475249339378" lon="-4.549253195475839"><ele>39.0</ele><time>2026-04-18T15:52:51Z</time></trkpt><trkpt lat="48.40477242571493" lon="-4.549384986747615"><ele>39.5</ele><time>2026-04-18T15:52:54Z</time></trkpt><trkpt lat="48.40478675809446" lon="-4.549483056670677"><ele>40.0</ele><time>2026-04-18T15:52:56Z</time></trkpt><trkpt lat="48.404805273941925" lon="-4.549618391488051"><ele>40.333333333333336</ele><time>2026-04-18T15:52:59Z</time></trkpt><trkpt lat="48.404824600032505" lon="-4.549710283963725"><ele>40.66666666666667</ele><time>2026-04-18T15:53:01Z</time></trkpt><trkpt lat="48.4048471411849" lon="-4.549826890949158"><ele>41.0</ele><time>2026-04-18T15:53:03Z</time></trkpt><trkpt lat="48.404862218515305" lon="-4.549921309616187"><ele>41.333333333333336</ele><time>2026-04-18T15:53:05Z</time></trkpt><trkpt lat="48.40488690278787" lon="-4.550055351262559"><ele>41.666666666666664</ele><time>2026-04-18T15:53:08Z</time></trkpt><trkpt lat="48.40490817102228" lon="-4.550186160520421"><ele>42.0</ele><time>2026-04-18T15:53:11Z</time></trkpt><trkpt lat="48.4049274443047" lon="-4.550319273986199"><ele>42.166666666666664</ele><time>2026-04-18T15:53:14Z</time></trkpt><trkpt lat="48.40493645677281" lon="-4.550417734825864"><ele>42.333333333333336</ele><time>2026-04-18T15:53:16Z</time></trkpt><trkpt lat="48.404961296458865" lon="-4.55055318037093"><ele>42.5</ele><time>2026-04-18T15:53:19Z</time></trkpt><trkpt lat="48.40498985337967" lon="-4.550686241255568"><ele>42.66666666666667</ele><time>2026-04-18T15:53:22Z</time></trkpt><trkpt lat="48.40501277515937" lon="-4.550808184050624"><ele>42.833333333333336</ele><time>2026-04-18T15:53:25Z</time></trkpt><trkpt lat="48.40504928664949" lon="-4.550937808537988"><ele>43.0</ele><time>2026-04-18T15:53:28Z</time></trkpt><trkpt lat="48.405090852949776" lon="-4.551056758996523"><ele>43.0</ele><time>2026-04-18T15:53:31Z</time></trkpt><trkpt lat="48.40513961531063" lon="-4.551160722309264"><ele>43.0</ele><time>2026-04-18T15:53:34Z</time></trkpt><trkpt lat="48.405187264373836" lon="-4.5512411924524825"><ele>43.0</ele><time>2026-04-18T15:53:36Z</time></trkpt><trkpt lat="48.40525846778738" lon="-4.551338542772712"><ele>43.0</ele><time>2026-04-18T15:53:37.999Z</time></trkpt><trkpt lat="48.40533598580659" lon="-4.551395293794595"><ele>43.0</ele><time>2026-04-18T15:53:39.999Z</time></trkpt><trkpt lat="48.405410516553026" lon="-4.551420266065831"><ele>43.0</ele><time>2026-04-18T15:53:41.999Z</time></trkpt><trkpt lat="48.405473293601574" lon="-4.551444027700343"><ele>43.714285714285715</ele><time>2026-04-18T15:53:43.999Z</time></trkpt><trkpt lat="48.40553478672238" lon="-4.551467468653577"><ele>44.42857142857143</ele><time>2026-04-18T15:53:45.999Z</time></trkpt><trkpt lat="48.405597406537325" lon="-4.551496508452977"><ele>45.14285714285714</ele><time>2026-04-18T15:53:47.999Z</time></trkpt><trkpt lat="48.40566001363066" lon="-4.551514652836184"><ele>45.85714285714286</ele><time>2026-04-18T15:53:49.999Z</time></trkpt><trkpt lat="48.4057234526155" lon="-4.551536395199654"><ele>46.57142857142857</ele><time>2026-04-18T15:53:51.999Z</time></trkpt><trkpt lat="48.405789481802806" lon="-4.551547066912593"><ele>47.285714285714285</ele><time>2026-04-18T15:53:53.999Z</time></trkpt><trkpt lat="48.40585246451187" lon="-4.551564672643013"><ele>48.0</ele><time>2026-04-18T15:53:55.999Z</time></trkpt><trkpt lat="48.405925527838164" lon="-4.55157271702012"><ele>48.0</ele><time>2026-04-18T15:53:57.999Z</time></trkpt><trkpt lat="48.40602095421069" lon="-4.5516071376799765"><ele>48.0</ele><time>2026-04-18T15:54:00.999Z</time></trkpt><trkpt lat="48.406099736837994" lon="-4.55161890072774"><ele>48.0</ele><time>2026-04-18T15:54:02.999Z</time></trkpt><trkpt lat="48.40616727085699" lon="-4.5516305183901205"><ele>48.0</ele><time>2026-04-18T15:54:04.999Z</time></trkpt><trkpt lat="48.40624523371195" lon="-4.551621296774113"><ele>48.0</ele><time>2026-04-18T15:54:06.999Z</time></trkpt><trkpt lat="48.406311153383484" lon="-4.551624114289547"><ele>48.0</ele><time>2026-04-18T15:54:08.999Z</time></trkpt><trkpt lat="48.40637454376063" lon="-4.55163106888199"><ele>48.857142857142854</ele><time>2026-04-18T15:54:11.999Z</time></trkpt><trkpt lat="48.406478564363574" lon="-4.551633319497241"><ele>49.714285714285715</ele><time>2026-04-18T15:54:14.999Z</time></trkpt><trkpt lat="48.40654350648673" lon="-4.551628169639184"><ele>50.57142857142857</ele><time>2026-04-18T15:54:17.999Z</time></trkpt><trkpt lat="48.40660660269663" lon="-4.551642294721159"><ele>51.42857142857143</ele><time>2026-04-18T15:54:19.999Z</time></trkpt><trkpt lat="48.40668274763252" lon="-4.551661497216059"><ele>52.285714285714285</ele><time>2026-04-18T15:54:21.999Z</time></trkpt><trkpt lat="48.40674893663976" lon="-4.551681959021467"><ele>53.14285714285714</ele><time>2026-04-18T15:54:23.999Z</time></trkpt><trkpt lat="48.40681935926454" lon="-4.55167030663765"><ele>54.0</ele><time>2026-04-18T15:54:25.999Z</time></trkpt><trkpt lat="48.40691586883118" lon="-4.551693106582636"><ele>54.0</ele><time>2026-04-18T15:54:28.999Z</time></trkpt><trkpt lat="48.40699492895741" lon="-4.551731990323846"><ele>54.0</ele><time>2026-04-18T15:54:31.999Z</time></trkpt><trkpt lat="48.40706150648553" lon="-4.551774512463059"><ele>54.0</ele><time>2026-04-18T15:54:33.999Z</time></trkpt><trkpt lat="48.407153165872224" lon="-4.5518126021917"><ele>54.0</ele><time>2026-04-18T15:54:35.999Z</time></trkpt><trkpt lat="48.40721369078167" lon="-4.551858970032121"><ele>54.0</ele><time>2026-04-18T15:54:37.999Z</time></trkpt><trkpt lat="48.40729289043553" lon="-4.55192270699952"><ele>54.0</ele><time>2026-04-18T15:54:41Z</time></trkpt><trkpt lat="48.40737617618353" lon="-4.55198326552844"><ele>54.57142857142857</ele><time>2026-04-18T15:54:45Z</time></trkpt><trkpt lat="48.407455627624245" lon="-4.552052855527336"><ele>55.14285714285714</ele><time>2026-04-18T15:54:48Z</time></trkpt><trkpt lat="48.407522040966235" lon="-4.552104998701563"><ele>55.71428571428572</ele><time>2026-04-18T15:54:51Z</time></trkpt><trkpt lat="48.407583036938355" lon="-4.552140284223523"><ele>56.28571428571429</ele><time>2026-04-18T15:54:53Z</time></trkpt><trkpt lat="48.40764337065463" lon="-4.552176752273218"><ele>56.85714285714286</ele><time>2026-04-18T15:54:56Z</time></trkpt><trkpt lat="48.40770671402627" lon="-4.5522261018972765"><ele>57.42857142857144</ele><time>2026-04-18T15:54:59Z</time></trkpt><trkpt lat="48.40777587720887" lon="-4.552250218785277"><ele>58.00000000000001</ele><time>2026-04-18T15:55:02Z</time></trkpt><trkpt lat="48.40785343335362" lon="-4.55228477111686"><ele>57.99999999999999</ele><time>2026-04-18T15:55:05Z</time></trkpt><trkpt lat="48.40792388369506" lon="-4.552314124663397"><ele>58.0</ele><time>2026-04-18T15:55:08Z</time></trkpt><trkpt lat="48.40800069950197" lon="-4.552355099253497"><ele>58.0</ele><time>2026-04-18T15:55:11Z</time></trkpt><trkpt lat="48.408060622943374" lon="-4.552384836801339"><ele>58.0</ele><time>2026-04-18T15:55:13Z</time></trkpt><trkpt lat="48.40814627801977" lon="-4.552418221213549"><ele>57.99999999999999</ele><time>2026-04-18T15:55:16Z</time></trkpt><trkpt lat="48.408235318270684" lon="-4.552459308063767"><ele>58.0</ele><time>2026-04-18T15:55:19Z</time></trkpt><trkpt lat="48.4083094648658" lon="-4.552484196849603"><ele>59.166666666666664</ele><time>2026-04-18T15:55:23Z</time></trkpt><trkpt lat="48.40837376612129" lon="-4.5524931131721456"><ele>60.33333333333333</ele><time>2026-04-18T15:55:26Z</time></trkpt><trkpt lat="48.40847602321628" lon="-4.552519670992371"><ele>61.5</ele><time>2026-04-18T15:55:29Z</time></trkpt><trkpt lat="48.40856238447669" lon="-4.55254183748649"><ele>62.66666666666667</ele><time>2026-04-18T15:55:31Z</time></trkpt><trkpt lat="48.40865192318232" lon="-4.552570887286168"><ele>63.833333333333336</ele><time>2026-04-18T15:55:35Z</time></trkpt><trkpt lat="48.408724077717515" lon="-4.55259056530359"><ele>65.0</ele><time>2026-04-18T15:55:38Z</time></trkpt><trkpt lat="48.408796647870844" lon="-4.552615521805355"><ele>65.83333333333334</ele><time>2026-04-18T15:55:41Z</time></trkpt><trkpt lat="48.408870723937135" lon="-4.55263967512905"><ele>66.66666666666667</ele><time>2026-04-18T15:55:44Z</time></trkpt><trkpt lat="48.40895041821955" lon="-4.552662305075499"><ele>67.5</ele><time>2026-04-18T15:55:46.999Z</time></trkpt><trkpt lat="48.409028870266546" lon="-4.552667427862142"><ele>68.33333333333333</ele><time>2026-04-18T15:55:49.999Z</time></trkpt><trkpt lat="48.409113015912816" lon="-4.552699938913703"><ele>69.16666666666666</ele><time>2026-04-18T15:55:52.999Z</time></trkpt><trkpt lat="48.40917849198734" lon="-4.552702326838208"><ele>70.0</ele><time>2026-04-18T15:55:54.999Z</time></trkpt><trkpt lat="48.40926769557246" lon="-4.55271457798565"><ele>70.0</ele><time>2026-04-18T15:55:57.999Z</time></trkpt><trkpt lat="48.409369348291015" lon="-4.552738155858941"><ele>70.0</ele><time>2026-04-18T15:56:00.999Z</time></trkpt><trkpt lat="48.40945008613719" lon="-4.5527716164350736"><ele>70.0</ele><time>2026-04-18T15:56:02.999Z</time></trkpt><trkpt lat="48.409517407630034" lon="-4.552807026113223"><ele>70.0</ele><time>2026-04-18T15:56:04.999Z</time></trkpt><trkpt lat="48.409587463782984" lon="-4.552835449279829"><ele>70.0</ele><time>2026-04-18T15:56:06.999Z</time></trkpt><trkpt lat="48.40967196895926" lon="-4.5528789819957165"><ele>70.0</ele><time>2026-04-18T15:56:09.999Z</time></trkpt><trkpt lat="48.409736221701884" lon="-4.552904091439418"><ele>70.85714285714286</ele><time>2026-04-18T15:56:12.999Z</time></trkpt><trkpt lat="48.409781867647894" lon="-4.5529924066114855"><ele>71.71428571428572</ele><time>2026-04-18T15:56:18.999Z</time></trkpt><trkpt lat="48.40983613668592" lon="-4.553055935415432"><ele>72.57142857142857</ele><time>2026-04-18T15:56:21.999Z</time></trkpt><trkpt lat="48.409899577193436" lon="-4.553131948206268"><ele>73.42857142857143</ele><time>2026-04-18T15:56:24.999Z</time></trkpt><trkpt lat="48.40996151439652" lon="-4.553210313927508"><ele>74.28571428571429</ele><time>2026-04-18T15:56:27.999Z</time></trkpt><trkpt lat="48.41001537171639" lon="-4.553268108169786"><ele>75.14285714285714</ele><time>2026-04-18T15:56:30.999Z</time></trkpt><trkpt lat="48.4100418086056" lon="-4.553358124282089"><ele>76.0</ele><time>2026-04-18T15:56:35.999Z</time></trkpt><trkpt lat="48.410071535763755" lon="-4.553466014418366"><ele>76.0</ele><time>2026-04-18T15:56:42.999Z</time></trkpt><trkpt lat="48.41010395571855" lon="-4.553566239307762"><ele>76.0</ele><time>2026-04-18T15:56:46Z</time></trkpt><trkpt lat="48.41013491933503" lon="-4.553666757872127"><ele>76.0</ele><time>2026-04-18T15:56:48Z</time></trkpt><trkpt lat="48.41016566277703" lon="-4.55376949432193"><ele>76.0</ele><time>2026-04-18T15:56:50Z</time></trkpt><trkpt lat="48.41019603485153" lon="-4.553871597217413"><ele>76.0</ele><time>2026-04-18T15:56:52Z</time></trkpt><trkpt lat="48.41022749749497" lon="-4.553979127751315"><ele>76.0</ele><time>2026-04-18T15:56:54Z</time></trkpt><trkpt lat="48.41025870507191" lon="-4.554088342877679"><ele>75.83333333333333</ele><time>2026-04-18T15:56:56Z</time></trkpt><trkpt lat="48.41028858706425" lon="-4.554181501526893"><ele>75.66666666666666</ele><time>2026-04-18T15:56:58Z</time></trkpt><trkpt lat="48.41032502435094" lon="-4.554279925918135"><ele>75.5</ele><time>2026-04-18T15:57:00Z</time></trkpt><trkpt lat="48.410357000634114" lon="-4.554388814286086"><ele>75.33333333333333</ele><time>2026-04-18T15:57:02Z</time></trkpt><trkpt lat="48.41038673520955" lon="-4.554494569856343"><ele>75.16666666666667</ele><time>2026-04-18T15:57:04Z</time></trkpt><trkpt lat="48.41041634408446" lon="-4.55460007842683"><ele>75.0</ele><time>2026-04-18T15:57:06Z</time></trkpt><trkpt lat="48.410451009968696" lon="-4.554713353312617"><ele>75.0</ele><time>2026-04-18T15:57:08Z</time></trkpt><trkpt lat="48.410477615541105" lon="-4.554829165529954"><ele>75.0</ele><time>2026-04-18T15:57:10Z</time></trkpt><trkpt lat="48.41050439450583" lon="-4.554949588212542"><ele>75.0</ele><time>2026-04-18T15:57:12Z</time></trkpt><trkpt lat="48.410529368928614" lon="-4.555066102636424"><ele>75.0</ele><time>2026-04-18T15:57:14Z</time></trkpt><trkpt lat="48.410545096058264" lon="-4.555187350909605"><ele>75.0</ele><time>2026-04-18T15:57:16Z</time></trkpt><trkpt lat="48.41056387896507" lon="-4.555305835052097"><ele>75.0</ele><time>2026-04-18T15:57:18Z</time></trkpt><trkpt lat="48.41057796300893" lon="-4.555430278932834"><ele>75.0</ele><time>2026-04-18T15:57:20Z</time></trkpt><trkpt lat="48.4105946031904" lon="-4.5555573684093025"><ele>75.0</ele><time>2026-04-18T15:57:22Z</time></trkpt><trkpt lat="48.41061120506659" lon="-4.555684430537784"><ele>75.0</ele><time>2026-04-18T15:57:24Z</time></trkpt><trkpt lat="48.41063374468896" lon="-4.555808716533897"><ele>75.0</ele><time>2026-04-18T15:57:26Z</time></trkpt><trkpt lat="48.41064342129146" lon="-4.555935271035093"><ele>75.0</ele><time>2026-04-18T15:57:28Z</time></trkpt><trkpt lat="48.410669028148256" lon="-4.556055845387305"><ele>75.0</ele><time>2026-04-18T15:57:30Z</time></trkpt><trkpt lat="48.41068731116556" lon="-4.556167833286083"><ele>75.0</ele><time>2026-04-18T15:57:32Z</time></trkpt><trkpt lat="48.41070655521708" lon="-4.556285854186804"><ele>75.0</ele><time>2026-04-18T15:57:34Z</time></trkpt><trkpt lat="48.41072861303336" lon="-4.556411472720832"><ele>75.0</ele><time>2026-04-18T15:57:36Z</time></trkpt><trkpt lat="48.41074747669227" lon="-4.556532985443464"><ele>75.0</ele><time>2026-04-18T15:57:38Z</time></trkpt><trkpt lat="48.410769119165614" lon="-4.556650580377107"><ele>75.0</ele><time>2026-04-18T15:57:40Z</time></trkpt><trkpt lat="48.41078657854081" lon="-4.556777450923811"><ele>75.0</ele><time>2026-04-18T15:57:42Z</time></trkpt><trkpt lat="48.41080409572182" lon="-4.556909051580851"><ele>75.2</ele><time>2026-04-18T15:57:44Z</time></trkpt><trkpt lat="48.41083445353434" lon="-4.557036857321939"><ele>75.4</ele><time>2026-04-18T15:57:46Z</time></trkpt><trkpt lat="48.41086265074618" lon="-4.557165253579807"><ele>75.6</ele><time>2026-04-18T15:57:48Z</time></trkpt><trkpt lat="48.41089164146705" lon="-4.557297810595716"><ele>75.8</ele><time>2026-04-18T15:57:50Z</time></trkpt><trkpt lat="48.410921270258655" lon="-4.557429203336673"><ele>76.0</ele><time>2026-04-18T15:57:51.999Z</time></trkpt><trkpt lat="48.41095211459341" lon="-4.55754860188662"><ele>76.0</ele><time>2026-04-18T15:57:53.999Z</time></trkpt><trkpt lat="48.41097279272547" lon="-4.557687038838042"><ele>76.0</ele><time>2026-04-18T15:57:55.999Z</time></trkpt><trkpt lat="48.41100627086985" lon="-4.557871708141874"><ele>76.0</ele><time>2026-04-18T15:57:58.999Z</time></trkpt><trkpt lat="48.41104137020566" lon="-4.557996695255269"><ele>76.0</ele><time>2026-04-18T15:58:00.999Z</time></trkpt><trkpt lat="48.4110731532399" lon="-4.558123330781602"><ele>76.0</ele><time>2026-04-18T15:58:02.999Z</time></trkpt><trkpt lat="48.411102747058806" lon="-4.558238852037861"><ele>76.0</ele><time>2026-04-18T15:58:04.999Z</time></trkpt><trkpt lat="48.41113411010889" lon="-4.5583584937532"><ele>76.0</ele><time>2026-04-18T15:58:06.999Z</time></trkpt><trkpt lat="48.41116045449031" lon="-4.558475447356821"><ele>76.0</ele><time>2026-04-18T15:58:08.999Z</time></trkpt><trkpt lat="48.411185298117026" lon="-4.5585978153139814"><ele>76.0</ele><time>2026-04-18T15:58:10.999Z</time></trkpt><trkpt lat="48.411214575447914" lon="-4.558713659932694"><ele>76.0</ele><time>2026-04-18T15:58:12.999Z</time></trkpt><trkpt lat="48.41125460896663" lon="-4.558840664996379"><ele>76.0</ele><time>2026-04-18T15:58:15.999Z</time></trkpt><trkpt lat="48.41131287837299" lon="-4.559089892606142"><ele>76.39999999999999</ele><time>2026-04-18T15:58:18.999Z</time></trkpt><trkpt lat="48.411350847407256" lon="-4.559235603635029"><ele>76.8</ele><time>2026-04-18T15:58:20.999Z</time></trkpt><trkpt lat="48.41138319271112" lon="-4.559387688526674"><ele>77.19999999999999</ele><time>2026-04-18T15:58:22.999Z</time></trkpt><trkpt lat="48.41143009170722" lon="-4.559539460358766"><ele>77.6</ele><time>2026-04-18T15:58:24.999Z</time></trkpt><trkpt lat="48.41147840961391" lon="-4.559695319110469"><ele>78.0</ele><time>2026-04-18T15:58:26.999Z</time></trkpt><trkpt lat="48.41154164841349" lon="-4.559829882624156"><ele>78.2</ele><time>2026-04-18T15:58:28.999Z</time></trkpt><trkpt lat="48.41160990957687" lon="-4.559953576838347"><ele>78.4</ele><time>2026-04-18T15:58:30.999Z</time></trkpt><trkpt lat="48.41168104284961" lon="-4.560059453234698"><ele>78.60000000000001</ele><time>2026-04-18T15:58:32.999Z</time></trkpt><trkpt lat="48.41173763854354" lon="-4.5601652940995"><ele>78.8</ele><time>2026-04-18T15:58:34.999Z</time></trkpt><trkpt lat="48.41179245725601" lon="-4.560247033410027"><ele>79.0</ele><time>2026-04-18T15:58:36.999Z</time></trkpt><trkpt lat="48.41186735449586" lon="-4.560297814998425"><ele>79.0</ele><time>2026-04-18T15:58:39.999Z</time></trkpt><trkpt lat="48.41192441767234" lon="-4.560358401400238"><ele>79.0</ele><time>2026-04-18T15:58:42.999Z</time></trkpt><trkpt lat="48.412025000733536" lon="-4.560398588802828"><ele>79.0</ele><time>2026-04-18T15:58:43.999Z</time></trkpt><trkpt lat="48.41188625973867" lon="-4.560625611394853"><ele>79.0</ele><time>2026-04-18T15:58:47.999Z</time></trkpt><trkpt lat="48.411781172759895" lon="-4.560603882364409"><ele>79.0</ele><time>2026-04-18T15:58:49.999Z</time></trkpt><trkpt lat="48.4117263387442" lon="-4.560670763002409"><ele>79.0</ele><time>2026-04-18T15:58:51Z</time></trkpt><trkpt lat="48.411681721784596" lon="-4.56079803703632"><ele>79.0</ele><time>2026-04-18T15:58:52Z</time></trkpt><trkpt lat="48.41172079904192" lon="-4.5609095631398695"><ele>79.0</ele><time>2026-04-18T15:58:53Z</time></trkpt><trkpt lat="48.411723620159606" lon="-4.561017305354091"><ele>79.0</ele><time>2026-04-18T15:58:54Z</time></trkpt><trkpt lat="48.411756980147295" lon="-4.561107114306799"><ele>79.0</ele><time>2026-04-18T15:58:55Z</time></trkpt><trkpt lat="48.41179301403722" lon="-4.5612405183359055"><ele>79.0</ele><time>2026-04-18T15:58:57Z</time></trkpt><trkpt lat="48.41182720151823" lon="-4.5613646444799"><ele>79.0</ele><time>2026-04-18T15:58:59Z</time></trkpt><trkpt lat="48.41185981595904" lon="-4.561487082175518"><ele>79.0</ele><time>2026-04-18T15:59:01Z</time></trkpt><trkpt lat="48.41188978435909" lon="-4.561599586795785"><ele>79.0</ele><time>2026-04-18T15:59:03Z</time></trkpt><trkpt lat="48.411924058398924" lon="-4.561725174023036"><ele>79.0</ele><time>2026-04-18T15:59:06Z</time></trkpt><trkpt lat="48.41193942708583" lon="-4.561831615787265"><ele>79.0</ele><time>2026-04-18T15:59:09Z</time></trkpt><trkpt lat="48.41197631981255" lon="-4.561915728033225"><ele>79.00000000000001</ele><time>2026-04-18T15:59:12Z</time></trkpt><trkpt lat="48.41199187281803" lon="-4.562017683444678"><ele>79.0</ele><time>2026-04-18T15:59:14Z</time></trkpt><trkpt lat="48.41201785759149" lon="-4.562124621955641"><ele>79.0</ele><time>2026-04-18T15:59:16Z</time></trkpt><trkpt lat="48.412062700286434" lon="-4.562221832107316"><ele>79.0</ele><time>2026-04-18T15:59:18Z</time></trkpt><trkpt lat="48.4120919096592" lon="-4.562318001418402"><ele>79.0</ele><time>2026-04-18T15:59:20Z</time></trkpt><trkpt lat="48.41210785650106" lon="-4.562430905606406"><ele>79.00000000000001</ele><time>2026-04-18T15:59:22Z</time></trkpt><trkpt lat="48.41214672952345" lon="-4.562520264252908"><ele>79.0</ele><time>2026-04-18T15:59:24Z</time></trkpt><trkpt lat="48.4121975889846" lon="-4.562582383110451"><ele>79.57142857142858</ele><time>2026-04-18T15:59:27Z</time></trkpt><trkpt lat="48.41217804730708" lon="-4.562688158643658"><ele>80.14285714285714</ele><time>2026-04-18T15:59:47Z</time></trkpt><trkpt lat="48.412211762977485" lon="-4.562786959974982"><ele>80.71428571428572</ele><time>2026-04-18T15:59:51Z</time></trkpt><trkpt lat="48.41223570986393" lon="-4.562880998696497"><ele>81.28571428571429</ele><time>2026-04-18T15:59:55Z</time></trkpt><trkpt lat="48.412282955914314" lon="-4.5629606951839"><ele>81.85714285714286</ele><time>2026-04-18T15:59:58.999Z</time></trkpt><trkpt lat="48.412329292409275" lon="-4.563082857788234"><ele>82.42857142857143</ele><time>2026-04-18T16:00:01.999Z</time></trkpt><trkpt lat="48.412362577417326" lon="-4.5631638368108485"><ele>83.0</ele><time>2026-04-18T16:00:03.999Z</time></trkpt><trkpt lat="48.41240043403882" lon="-4.56324420361684"><ele>83.0</ele><time>2026-04-18T16:00:05.999Z</time></trkpt><trkpt lat="48.412424535406934" lon="-4.563335853707754"><ele>83.0</ele><time>2026-04-18T16:00:07.999Z</time></trkpt><trkpt lat="48.41245325298608" lon="-4.563428287691182"><ele>83.0</ele><time>2026-04-18T16:00:09.999Z</time></trkpt><trkpt lat="48.41247388398566" lon="-4.563531303123164"><ele>83.0</ele><time>2026-04-18T16:00:11.999Z</time></trkpt><trkpt lat="48.4125287456552" lon="-4.563698071279416"><ele>83.0</ele><time>2026-04-18T16:00:13.999Z</time></trkpt><trkpt lat="48.41256926360231" lon="-4.563789893566112"><ele>83.0</ele><time>2026-04-18T16:00:14.999Z</time></trkpt><trkpt lat="48.41264826519681" lon="-4.56386010381363"><ele>83.0</ele><time>2026-04-18T16:00:15.999Z</time></trkpt><trkpt lat="48.41268771241485" lon="-4.5639736764888506"><ele>83.0</ele><time>2026-04-18T16:00:16.999Z</time></trkpt><trkpt lat="48.412715246196726" lon="-4.564091637752726"><ele>83.0</ele><time>2026-04-18T16:00:17.999Z</time></trkpt><trkpt lat="48.41276400428808" lon="-4.564194351931347"><ele>83.0</ele><time>2026-04-18T16:00:18.999Z</time></trkpt><trkpt lat="48.41278419326469" lon="-4.564329969248256"><ele>83.0</ele><time>2026-04-18T16:00:19.999Z</time></trkpt><trkpt lat="48.412831106787586" lon="-4.56444747316672"><ele>83.0</ele><time>2026-04-18T16:00:20.999Z</time></trkpt><trkpt lat="48.412877881641336" lon="-4.564580384880081"><ele>83.0</ele><time>2026-04-18T16:00:21.999Z</time></trkpt><trkpt lat="48.41292142829074" lon="-4.564720552623307"><ele>83.0</ele><time>2026-04-18T16:00:22.999Z</time></trkpt><trkpt lat="48.412962551593864" lon="-4.564862488332735"><ele>83.0</ele><time>2026-04-18T16:00:23.999Z</time></trkpt><trkpt lat="48.413004238078834" lon="-4.565002639624287"><ele>83.0</ele><time>2026-04-18T16:00:24.999Z</time></trkpt><trkpt lat="48.41304267520062" lon="-4.565141537858241"><ele>83.0</ele><time>2026-04-18T16:00:25.999Z</time></trkpt><trkpt lat="48.41307969592491" lon="-4.565284504631379"><ele>83.4</ele><time>2026-04-18T16:00:26.999Z</time></trkpt><trkpt lat="48.41311421753354" lon="-4.565418925520235"><ele>83.80000000000001</ele><time>2026-04-18T16:00:27.999Z</time></trkpt><trkpt lat="48.413134553459884" lon="-4.565559390693488"><ele>84.2</ele><time>2026-04-18T16:00:28.999Z</time></trkpt><trkpt lat="48.413150336147346" lon="-4.565702388018763"><ele>84.6</ele><time>2026-04-18T16:00:29.999Z</time></trkpt><trkpt lat="48.41315685297682" lon="-4.5658475556082365"><ele>85.0</ele><time>2026-04-18T16:00:30.999Z</time></trkpt><trkpt lat="48.41315366158615" lon="-4.565996418415069"><ele>85.0</ele><time>2026-04-18T16:00:31.999Z</time></trkpt><trkpt lat="48.41315107781306" lon="-4.566142754785517"><ele>85.0</ele><time>2026-04-18T16:00:32.999Z</time></trkpt><trkpt lat="48.413149293860805" lon="-4.566288423133395"><ele>85.0</ele><time>2026-04-18T16:00:33.999Z</time></trkpt><trkpt lat="48.41315335486803" lon="-4.566432236366637"><ele>85.0</ele><time>2026-04-18T16:00:34.999Z</time></trkpt><trkpt lat="48.4131616696949" lon="-4.5665673088642755"><ele>85.0</ele><time>2026-04-18T16:00:35.999Z</time></trkpt><trkpt lat="48.41316536043359" lon="-4.566703598507108"><ele>85.0</ele><time>2026-04-18T16:00:36.999Z</time></trkpt><trkpt lat="48.4131599816366" lon="-4.56683335162607"><ele>85.0</ele><time>2026-04-18T16:00:37.999Z</time></trkpt><trkpt lat="48.413139742827326" lon="-4.566941081473521"><ele>85.0</ele><time>2026-04-18T16:00:38.999Z</time></trkpt><trkpt lat="48.41312071019468" lon="-4.567046284413625"><ele>85.0</ele><time>2026-04-18T16:00:39.999Z</time></trkpt><trkpt lat="48.413108973203286" lon="-4.567146809178474"><ele>85.0</ele><time>2026-04-18T16:00:40.999Z</time></trkpt><trkpt lat="48.41310626377732" lon="-4.567251675179269"><ele>85.0</ele><time>2026-04-18T16:00:41.999Z</time></trkpt><trkpt lat="48.413093492577396" lon="-4.567447981203133"><ele>85.0</ele><time>2026-04-18T16:00:43.999Z</time></trkpt><trkpt lat="48.41308197951022" lon="-4.56758148713957"><ele>85.0</ele><time>2026-04-18T16:00:45.999Z</time></trkpt><trkpt lat="48.41307804156823" lon="-4.56768377179165"><ele>85.0</ele><time>2026-04-18T16:00:48.999Z</time></trkpt><trkpt lat="48.4130371414029" lon="-4.567808050389919"><ele>85.0</ele><time>2026-04-18T16:01:20Z</time></trkpt><trkpt lat="48.413028133224444" lon="-4.567981476434901"><ele>85.0</ele><time>2026-04-18T16:01:22Z</time></trkpt><trkpt lat="48.41299241041138" lon="-4.568163023484415"><ele>84.28571428571429</ele><time>2026-04-18T16:01:24Z</time></trkpt><trkpt lat="48.41297668761476" lon="-4.568255433051861"><ele>83.57142857142857</ele><time>2026-04-18T16:01:25Z</time></trkpt><trkpt lat="48.41295254764838" lon="-4.568353006208189"><ele>82.85714285714286</ele><time>2026-04-18T16:01:26Z</time></trkpt><trkpt lat="48.41292512861657" lon="-4.568449082525556"><ele>82.14285714285714</ele><time>2026-04-18T16:01:27Z</time></trkpt><trkpt lat="48.4128956150983" lon="-4.568544067979873"><ele>81.42857142857143</ele><time>2026-04-18T16:01:28Z</time></trkpt><trkpt lat="48.41287047332128" lon="-4.568654375927996"><ele>80.71428571428571</ele><time>2026-04-18T16:01:29Z</time></trkpt><trkpt lat="48.41284795154175" lon="-4.568765641870342"><ele>80.0</ele><time>2026-04-18T16:01:30Z</time></trkpt><trkpt lat="48.41281678309459" lon="-4.56888529765832"><ele>79.6</ele><time>2026-04-18T16:01:31Z</time></trkpt><trkpt lat="48.41278612168511" lon="-4.5690100653933605"><ele>79.2</ele><time>2026-04-18T16:01:32Z</time></trkpt><trkpt lat="48.412744318709045" lon="-4.569124754209234"><ele>78.8</ele><time>2026-04-18T16:01:33Z</time></trkpt><trkpt lat="48.4127310320649" lon="-4.569265708551095"><ele>78.4</ele><time>2026-04-18T16:01:34Z</time></trkpt><trkpt lat="48.41269426028693" lon="-4.569394379307082"><ele>78.0</ele><time>2026-04-18T16:01:35Z</time></trkpt><trkpt lat="48.41266325867595" lon="-4.56953176608881"><ele>77.0</ele><time>2026-04-18T16:01:36Z</time></trkpt><trkpt lat="48.412633663905794" lon="-4.5696844109897565"><ele>76.0</ele><time>2026-04-18T16:01:37Z</time></trkpt><trkpt lat="48.412605702856844" lon="-4.5698377584460195"><ele>75.0</ele><time>2026-04-18T16:01:38Z</time></trkpt><trkpt lat="48.412578796868644" lon="-4.569993156013649"><ele>74.0</ele><time>2026-04-18T16:01:39Z</time></trkpt><trkpt lat="48.412554678111526" lon="-4.5701401904532455"><ele>73.0</ele><time>2026-04-18T16:01:40Z</time></trkpt><trkpt lat="48.41253239909641" lon="-4.570307217970427"><ele>71.75</ele><time>2026-04-18T16:01:41Z</time></trkpt><trkpt lat="48.4125112306014" lon="-4.5704898822560684"><ele>70.5</ele><time>2026-04-18T16:01:42Z</time></trkpt><trkpt lat="48.41248786315297" lon="-4.570663501768294"><ele>69.25</ele><time>2026-04-18T16:01:43Z</time></trkpt><trkpt lat="48.41246306366854" lon="-4.570844753113872"><ele>68.0</ele><time>2026-04-18T16:01:44Z</time></trkpt><trkpt lat="48.412437318642304" lon="-4.57102531380542"><ele>67.25</ele><time>2026-04-18T16:01:45Z</time></trkpt><trkpt lat="48.41240906524464" lon="-4.571216428866097"><ele>66.5</ele><time>2026-04-18T16:01:46Z</time></trkpt><trkpt lat="48.41238100170462" lon="-4.571414550460637"><ele>65.75</ele><time>2026-04-18T16:01:47Z</time></trkpt><trkpt lat="48.41235610935975" lon="-4.571609098140348"><ele>65.0</ele><time>2026-04-18T16:01:48Z</time></trkpt><trkpt lat="48.41233608214039" lon="-4.5718148614293375"><ele>65.0</ele><time>2026-04-18T16:01:49Z</time></trkpt><trkpt lat="48.41232546671583" lon="-4.572014204638979"><ele>65.0</ele><time>2026-04-18T16:01:50Z</time></trkpt><trkpt lat="48.412313566814454" lon="-4.572223571832473"><ele>65.0</ele><time>2026-04-18T16:01:51Z</time></trkpt><trkpt lat="48.4123102741013" lon="-4.572420709454766"><ele>65.0</ele><time>2026-04-18T16:01:52Z</time></trkpt><trkpt lat="48.41231259883027" lon="-4.572609392811013"><ele>64.4</ele><time>2026-04-18T16:01:53Z</time></trkpt><trkpt lat="48.41233115959719" lon="-4.572783832614192"><ele>63.8</ele><time>2026-04-18T16:01:54Z</time></trkpt><trkpt lat="48.41235851278403" lon="-4.572955178963891"><ele>63.2</ele><time>2026-04-18T16:01:55Z</time></trkpt><trkpt lat="48.41238802548659" lon="-4.573108127370973"><ele>62.6</ele><time>2026-04-18T16:01:56Z</time></trkpt><trkpt lat="48.41241976706734" lon="-4.573249844323043"><ele>62.0</ele><time>2026-04-18T16:01:57Z</time></trkpt><trkpt lat="48.412451711858424" lon="-4.573377606326225"><ele>62.00000000000001</ele><time>2026-04-18T16:01:58Z</time></trkpt><trkpt lat="48.41247032066504" lon="-4.573511346899047"><ele>62.0</ele><time>2026-04-18T16:01:59Z</time></trkpt><trkpt lat="48.41250677198802" lon="-4.573627976669528"><ele>62.0</ele><time>2026-04-18T16:02:00Z</time></trkpt><trkpt lat="48.412559272319704" lon="-4.573735405012813"><ele>62.0</ele><time>2026-04-18T16:02:01Z</time></trkpt><trkpt lat="48.4125881119709" lon="-4.573857985533934"><ele>62.00000000000001</ele><time>2026-04-18T16:02:02Z</time></trkpt><trkpt lat="48.41262972315802" lon="-4.573960970755194"><ele>62.0</ele><time>2026-04-18T16:02:03Z</time></trkpt><trkpt lat="48.412672909200346" lon="-4.574064654769226"><ele>62.16666666666667</ele><time>2026-04-18T16:02:04Z</time></trkpt><trkpt lat="48.4127188931696" lon="-4.574150801452317"><ele>62.333333333333336</ele><time>2026-04-18T16:02:05Z</time></trkpt><trkpt lat="48.412759377369554" lon="-4.574235017925596"><ele>62.5</ele><time>2026-04-18T16:02:05.999Z</time></trkpt><trkpt lat="48.41279636939265" lon="-4.574312533814079"><ele>62.66666666666667</ele><time>2026-04-18T16:02:06.999Z</time></trkpt><trkpt lat="48.4128724059972" lon="-4.574444826465367"><ele>62.833333333333336</ele><time>2026-04-18T16:02:08.999Z</time></trkpt><trkpt lat="48.412938056757106" lon="-4.574564272968936"><ele>63.0</ele><time>2026-04-18T16:02:10.999Z</time></trkpt><trkpt lat="48.41299157913371" lon="-4.574685407691463"><ele>63.5</ele><time>2026-04-18T16:02:12.999Z</time></trkpt><trkpt lat="48.413053109568246" lon="-4.574773886341023"><ele>64.0</ele><time>2026-04-18T16:02:14.999Z</time></trkpt><trkpt lat="48.41309888983552" lon="-4.574873544262693"><ele>64.5</ele><time>2026-04-18T16:02:17.999Z</time></trkpt><trkpt lat="48.413139836865625" lon="-4.5749678592563265"><ele>65.0</ele><time>2026-04-18T16:02:19.999Z</time></trkpt><trkpt lat="48.41317440487633" lon="-4.575056026899528"><ele>65.5</ele><time>2026-04-18T16:02:20.999Z</time></trkpt><trkpt lat="48.41321477765969" lon="-4.575180803361138"><ele>66.0</ele><time>2026-04-18T16:02:22.999Z</time></trkpt><trkpt lat="48.413245620460124" lon="-4.575279881368787"><ele>66.33333333333333</ele><time>2026-04-18T16:02:24.999Z</time></trkpt><trkpt lat="48.41327306091203" lon="-4.575367740325667"><ele>66.66666666666667</ele><time>2026-04-18T16:02:26.999Z</time></trkpt><trkpt lat="48.413310971484485" lon="-4.575497985933324"><ele>67.0</ele><time>2026-04-18T16:02:29.999Z</time></trkpt><trkpt lat="48.41331580819843" lon="-4.575606519811695"><ele>67.33333333333334</ele><time>2026-04-18T16:02:31.999Z</time></trkpt><trkpt lat="48.413357206604964" lon="-4.575741529956423"><ele>67.66666666666667</ele><time>2026-04-18T16:02:33.999Z</time></trkpt><trkpt lat="48.41338114916208" lon="-4.575830973630445"><ele>68.0</ele><time>2026-04-18T16:02:35.999Z</time></trkpt><trkpt lat="48.41340894726137" lon="-4.575917798456981"><ele>67.99999999999999</ele><time>2026-04-18T16:02:37.999Z</time></trkpt><trkpt lat="48.4134307933058" lon="-4.576007321326327"><ele>68.0</ele><time>2026-04-18T16:02:39.999Z</time></trkpt><trkpt lat="48.41345684022064" lon="-4.576131513224933"><ele>68.0</ele><time>2026-04-18T16:02:42.999Z</time></trkpt><trkpt lat="48.41347265520302" lon="-4.576245298873824"><ele>68.0</ele><time>2026-04-18T16:02:45.999Z</time></trkpt><trkpt lat="48.413484571492546" lon="-4.576351523041218"><ele>68.0</ele><time>2026-04-18T16:02:48.999Z</time></trkpt><trkpt lat="48.41350137019611" lon="-4.5764579518422135"><ele>67.99999999999999</ele><time>2026-04-18T16:02:51.999Z</time></trkpt><trkpt lat="48.41352481763522" lon="-4.576552842019882"><ele>68.0</ele><time>2026-04-18T16:02:54.999Z</time></trkpt><trkpt lat="48.413543568287665" lon="-4.576650965372052"><ele>68.0</ele><time>2026-04-18T16:02:57.999Z</time></trkpt><trkpt lat="48.4135733290726" lon="-4.5767804641724235"><ele>68.0</ele><time>2026-04-18T16:03:00.999Z</time></trkpt><trkpt lat="48.413601866255384" lon="-4.576903838965201"><ele>68.0</ele><time>2026-04-18T16:03:04Z</time></trkpt><trkpt lat="48.413624603551824" lon="-4.5770323414196055"><ele>68.0</ele><time>2026-04-18T16:03:07Z</time></trkpt><trkpt lat="48.41364594704612" lon="-4.5771529522014776"><ele>68.0</ele><time>2026-04-18T16:03:10Z</time></trkpt><trkpt lat="48.413676812560865" lon="-4.577270215453212"><ele>68.0</ele><time>2026-04-18T16:03:13Z</time></trkpt><trkpt lat="48.41370208490631" lon="-4.577369939285529"><ele>68.0</ele><time>2026-04-18T16:03:16Z</time></trkpt><trkpt lat="48.41373568898117" lon="-4.577469413698778"><ele>68.0</ele><time>2026-04-18T16:03:19Z</time></trkpt><trkpt lat="48.41375950236373" lon="-4.577585223432402"><ele>68.0</ele><time>2026-04-18T16:03:22Z</time></trkpt><trkpt lat="48.41380400594971" lon="-4.5777101273320655"><ele>68.0</ele><time>2026-04-18T16:03:25Z</time></trkpt><trkpt lat="48.41383865119788" lon="-4.5778037125615745"><ele>68.0</ele><time>2026-04-18T16:03:27Z</time></trkpt><trkpt lat="48.4138559204924" lon="-4.577900351868411"><ele>68.0</ele><time>2026-04-18T16:03:29Z</time></trkpt><trkpt lat="48.413884913139206" lon="-4.577989722065334"><ele>67.57142857142857</ele><time>2026-04-18T16:03:31Z</time></trkpt><trkpt lat="48.4139127655132" lon="-4.578079135723028"><ele>67.14285714285714</ele><time>2026-04-18T16:03:33Z</time></trkpt><trkpt lat="48.41394579960945" lon="-4.578209191207087"><ele>66.71428571428572</ele><time>2026-04-18T16:03:36Z</time></trkpt><trkpt lat="48.4139724590244" lon="-4.578306962793043"><ele>66.28571428571428</ele><time>2026-04-18T16:03:38Z</time></trkpt><trkpt lat="48.413991294801775" lon="-4.578404538128145"><ele>65.85714285714286</ele><time>2026-04-18T16:03:40Z</time></trkpt><trkpt lat="48.41401318590442" lon="-4.578506294126831"><ele>65.42857142857143</ele><time>2026-04-18T16:03:42Z</time></trkpt><trkpt lat="48.41405069192068" lon="-4.578585730587423"><ele>65.0</ele><time>2026-04-18T16:03:44Z</time></trkpt><trkpt lat="48.414082851590216" lon="-4.578688111813332"><ele>64.8</ele><time>2026-04-18T16:03:46Z</time></trkpt><trkpt lat="48.4141286221615" lon="-4.578793423349633"><ele>64.6</ele><time>2026-04-18T16:03:48Z</time></trkpt><trkpt lat="48.41417970760798" lon="-4.578914676782234"><ele>64.4</ele><time>2026-04-18T16:03:50Z</time></trkpt><trkpt lat="48.41422296301001" lon="-4.579059143482433"><ele>64.2</ele><time>2026-04-18T16:03:52Z</time></trkpt><trkpt lat="48.414309336922685" lon="-4.579210826629157"><ele>64.0</ele><time>2026-04-18T16:03:54Z</time></trkpt><trkpt lat="48.41433589132234" lon="-4.579300745523144"><ele>63.99999999999999</ele><time>2026-04-18T16:03:55Z</time></trkpt><trkpt lat="48.41436418201355" lon="-4.5794016132807505"><ele>64.0</ele><time>2026-04-18T16:03:56Z</time></trkpt><trkpt lat="48.414393069191306" lon="-4.5795113958481055"><ele>64.0</ele><time>2026-04-18T16:03:57Z</time></trkpt><trkpt lat="48.414416647401836" lon="-4.5796245904316075"><ele>64.0</ele><time>2026-04-18T16:03:58Z</time></trkpt><trkpt lat="48.414421861079404" lon="-4.5797544325429485"><ele>63.99999999999999</ele><time>2026-04-18T16:03:59Z</time></trkpt><trkpt lat="48.41443326689315" lon="-4.579882874086426"><ele>64.0</ele><time>2026-04-18T16:04:00Z</time></trkpt><trkpt lat="48.4144625889906" lon="-4.5800177553014265"><ele>63.2</ele><time>2026-04-18T16:04:01Z</time></trkpt><trkpt lat="48.414473826070115" lon="-4.580157655073349"><ele>62.400000000000006</ele><time>2026-04-18T16:04:02Z</time></trkpt><trkpt lat="48.414484133756616" lon="-4.580292531252508"><ele>61.6</ele><time>2026-04-18T16:04:03Z</time></trkpt><trkpt lat="48.41449454743918" lon="-4.580411271731568"><ele>60.8</ele><time>2026-04-18T16:04:04Z</time></trkpt><trkpt lat="48.41451047604009" lon="-4.580592895663353"><ele>60.0</ele><time>2026-04-18T16:04:06Z</time></trkpt><trkpt lat="48.414524137831584" lon="-4.580748672106906"><ele>59.0</ele><time>2026-04-18T16:04:08Z</time></trkpt><trkpt lat="48.414525928418215" lon="-4.580898064767629"><ele>58.0</ele><time>2026-04-18T16:04:10Z</time></trkpt><trkpt lat="48.41454611986726" lon="-4.581082041714867"><ele>57.0</ele><time>2026-04-18T16:04:12Z</time></trkpt><trkpt lat="48.41454849487832" lon="-4.581185111422565"><ele>56.0</ele><time>2026-04-18T16:04:13Z</time></trkpt><trkpt lat="48.41457139249528" lon="-4.581279829130715"><ele>55.0</ele><time>2026-04-18T16:04:13.999Z</time></trkpt><trkpt lat="48.41458245880115" lon="-4.581385834850406"><ele>54.0</ele><time>2026-04-18T16:04:14.999Z</time></trkpt><trkpt lat="48.414594554009916" lon="-4.581498923368631"><ele>53.333333333333336</ele><time>2026-04-18T16:04:15.999Z</time></trkpt><trkpt lat="48.414590695167085" lon="-4.581609063441542"><ele>52.66666666666667</ele><time>2026-04-18T16:04:16.999Z</time></trkpt><trkpt lat="48.41461780085725" lon="-4.581720825809781"><ele>52.0</ele><time>2026-04-18T16:04:17.999Z</time></trkpt><trkpt lat="48.41462897949302" lon="-4.581833077237927"><ele>51.333333333333336</ele><time>2026-04-18T16:04:18.999Z</time></trkpt><trkpt lat="48.414637799707286" lon="-4.5819497774383535"><ele>50.66666666666667</ele><time>2026-04-18T16:04:19.999Z</time></trkpt><trkpt lat="48.41464455091795" lon="-4.582060437237651"><ele>50.0</ele><time>2026-04-18T16:04:20.999Z</time></trkpt><trkpt lat="48.4146503706151" lon="-4.582168330577223"><ele>49.714285714285715</ele><time>2026-04-18T16:04:21.999Z</time></trkpt><trkpt lat="48.41465464002537" lon="-4.5822796392732"><ele>49.42857142857143</ele><time>2026-04-18T16:04:22.999Z</time></trkpt><trkpt lat="48.41464133495466" lon="-4.582389698364538"><ele>49.14285714285714</ele><time>2026-04-18T16:04:23.999Z</time></trkpt><trkpt lat="48.4146453540332" lon="-4.582494912604608"><ele>48.85714285714286</ele><time>2026-04-18T16:04:24.999Z</time></trkpt><trkpt lat="48.414645592975546" lon="-4.582599044908462"><ele>48.57142857142857</ele><time>2026-04-18T16:04:25.999Z</time></trkpt><trkpt lat="48.41464501587735" lon="-4.58270728994124"><ele>48.285714285714285</ele><time>2026-04-18T16:04:26.999Z</time></trkpt><trkpt lat="48.414659959057786" lon="-4.582816366336085"><ele>48.0</ele><time>2026-04-18T16:04:27.999Z</time></trkpt><trkpt lat="48.414659989069605" lon="-4.58291187546022"><ele>47.833333333333336</ele><time>2026-04-18T16:04:28.999Z</time></trkpt><trkpt lat="48.41465916414235" lon="-4.583013062160686"><ele>47.666666666666664</ele><time>2026-04-18T16:04:29.999Z</time></trkpt><trkpt lat="48.41465829718979" lon="-4.583119403737969"><ele>47.5</ele><time>2026-04-18T16:04:30.999Z</time></trkpt><trkpt lat="48.41465742083775" lon="-4.583226898409306"><ele>47.33333333333333</ele><time>2026-04-18T16:04:31.999Z</time></trkpt><trkpt lat="48.414656608625215" lon="-4.583326525378001"><ele>47.166666666666664</ele><time>2026-04-18T16:04:32.999Z</time></trkpt><trkpt lat="48.414655811002625" lon="-4.5834243628471665"><ele>47.0</ele><time>2026-04-18T16:04:33.999Z</time></trkpt><trkpt lat="48.414654317702244" lon="-4.583607533297876"><ele>46.33333333333333</ele><time>2026-04-18T16:04:35.999Z</time></trkpt><trkpt lat="48.41465024954182" lon="-4.583786237632851"><ele>45.666666666666664</ele><time>2026-04-18T16:04:37.999Z</time></trkpt><trkpt lat="48.41464350102475" lon="-4.583966797845564"><ele>45.0</ele><time>2026-04-18T16:04:39.999Z</time></trkpt><trkpt lat="48.414637475814146" lon="-4.584066376863143"><ele>44.333333333333336</ele><time>2026-04-18T16:04:40.999Z</time></trkpt><trkpt lat="48.41462975714322" lon="-4.584160877225958"><ele>43.66666666666667</ele><time>2026-04-18T16:04:41.999Z</time></trkpt><trkpt lat="48.41462037978948" lon="-4.584256911800884"><ele>43.0</ele><time>2026-04-18T16:04:42.999Z</time></trkpt><trkpt lat="48.41460891846757" lon="-4.584354932816736"><ele>42.833333333333336</ele><time>2026-04-18T16:04:43.999Z</time></trkpt><trkpt lat="48.41458622341072" lon="-4.584535293539496"><ele>42.66666666666667</ele><time>2026-04-18T16:04:45.999Z</time></trkpt><trkpt lat="48.414573939833566" lon="-4.584632912855638"><ele>42.5</ele><time>2026-04-18T16:04:46.999Z</time></trkpt><trkpt lat="48.41456233311784" lon="-4.584732281480947"><ele>42.333333333333336</ele><time>2026-04-18T16:04:47.999Z</time></trkpt><trkpt lat="48.41455068952369" lon="-4.584840737983797"><ele>42.166666666666664</ele><time>2026-04-18T16:04:48.999Z</time></trkpt><trkpt lat="48.41454004565062" lon="-4.584944186795245"><ele>42.0</ele><time>2026-04-18T16:04:49.999Z</time></trkpt><trkpt lat="48.41452914979122" lon="-4.585050084774139"><ele>42.0</ele><time>2026-04-18T16:04:50.999Z</time></trkpt><trkpt lat="48.41451880320318" lon="-4.585150644855402"><ele>42.0</ele><time>2026-04-18T16:04:51.999Z</time></trkpt><trkpt lat="48.41450822866212" lon="-4.585253419373797"><ele>42.0</ele><time>2026-04-18T16:04:52.999Z</time></trkpt><trkpt lat="48.41448425017862" lon="-4.585359157024695"><ele>42.0</ele><time>2026-04-18T16:04:53.999Z</time></trkpt><trkpt lat="48.41447379173674" lon="-4.585459363802648"><ele>42.0</ele><time>2026-04-18T16:04:54.999Z</time></trkpt><trkpt lat="48.41447460373788" lon="-4.585561553000593"><ele>42.0</ele><time>2026-04-18T16:04:55.999Z</time></trkpt><trkpt lat="48.414463774067514" lon="-4.585659768817273"><ele>42.0</ele><time>2026-04-18T16:04:56.999Z</time></trkpt><trkpt lat="48.41445285574003" lon="-4.585768483798759"><ele>42.166666666666664</ele><time>2026-04-18T16:04:57.999Z</time></trkpt><trkpt lat="48.414427535477635" lon="-4.585865953154457"><ele>42.333333333333336</ele><time>2026-04-18T16:04:58.999Z</time></trkpt><trkpt lat="48.414436449441446" lon="-4.585967774782533"><ele>42.5</ele><time>2026-04-18T16:04:59.999Z</time></trkpt><trkpt lat="48.4144304058219" lon="-4.5860702606752906"><ele>42.66666666666667</ele><time>2026-04-18T16:05:00.999Z</time></trkpt><trkpt lat="48.41442325478106" lon="-4.586258873826926"><ele>42.833333333333336</ele><time>2026-04-18T16:05:02.999Z</time></trkpt><trkpt lat="48.414417717357416" lon="-4.58642995800919"><ele>43.0</ele><time>2026-04-18T16:05:04.999Z</time></trkpt><trkpt lat="48.414412788499774" lon="-4.586600717509661"><ele>43.2</ele><time>2026-04-18T16:05:06.999Z</time></trkpt><trkpt lat="48.414412736817944" lon="-4.586757423804123"><ele>43.4</ele><time>2026-04-18T16:05:09Z</time></trkpt><trkpt lat="48.41441273681835" lon="-4.586899683595762"><ele>43.6</ele><time>2026-04-18T16:05:11Z</time></trkpt><trkpt lat="48.414411981608" lon="-4.587035734819931"><ele>43.800000000000004</ele><time>2026-04-18T16:05:13Z</time></trkpt><trkpt lat="48.41440824255215" lon="-4.587188783029952"><ele>44.0</ele><time>2026-04-18T16:05:15Z</time></trkpt><trkpt lat="48.41439991819921" lon="-4.587346013393661"><ele>44.0</ele><time>2026-04-18T16:05:17Z</time></trkpt><trkpt lat="48.41438899925287" lon="-4.587521029365782"><ele>44.0</ele><time>2026-04-18T16:05:19Z</time></trkpt><trkpt lat="48.4143744321756" lon="-4.587700564109315"><ele>44.0</ele><time>2026-04-18T16:05:21Z</time></trkpt><trkpt lat="48.41436540584787" lon="-4.587798839895738"><ele>44.0</ele><time>2026-04-18T16:05:22Z</time></trkpt><trkpt lat="48.41435634145711" lon="-4.587897530163745"><ele>44.0</ele><time>2026-04-18T16:05:23Z</time></trkpt><trkpt lat="48.41433069257207" lon="-4.587997186572548"><ele>44.0</ele><time>2026-04-18T16:05:24Z</time></trkpt><trkpt lat="48.41432823692837" lon="-4.588189090558584"><ele>44.0</ele><time>2026-04-18T16:05:26Z</time></trkpt><trkpt lat="48.414318365222314" lon="-4.588289528715547"><ele>44.0</ele><time>2026-04-18T16:05:27Z</time></trkpt><trkpt lat="48.41428498451874" lon="-4.5884754005698785"><ele>44.0</ele><time>2026-04-18T16:05:29Z</time></trkpt><trkpt lat="48.41427598141337" lon="-4.58857272413866"><ele>44.0</ele><time>2026-04-18T16:05:30Z</time></trkpt><trkpt lat="48.414281115725586" lon="-4.588668518238891"><ele>44.0</ele><time>2026-04-18T16:05:31Z</time></trkpt><trkpt lat="48.41426274807155" lon="-4.588855397198271"><ele>44.0</ele><time>2026-04-18T16:05:33Z</time></trkpt><trkpt lat="48.41424040339005" lon="-4.588947734926216"><ele>44.0</ele><time>2026-04-18T16:05:34Z</time></trkpt><trkpt lat="48.4142301290235" lon="-4.589041314852756"><ele>44.0</ele><time>2026-04-18T16:05:35Z</time></trkpt><trkpt lat="48.41422116311844" lon="-4.589142282797852"><ele>44.0</ele><time>2026-04-18T16:05:36Z</time></trkpt><trkpt lat="48.414215253830506" lon="-4.58924109852783"><ele>44.0</ele><time>2026-04-18T16:05:37Z</time></trkpt><trkpt lat="48.414204398283054" lon="-4.5893387231223555"><ele>44.0</ele><time>2026-04-18T16:05:38Z</time></trkpt><trkpt lat="48.41418537779649" lon="-4.589519614254187"><ele>44.0</ele><time>2026-04-18T16:05:40Z</time></trkpt><trkpt lat="48.414176972155424" lon="-4.589708266619044"><ele>43.5</ele><time>2026-04-18T16:05:42Z</time></trkpt><trkpt lat="48.41417307641596" lon="-4.589808576643345"><ele>43.0</ele><time>2026-04-18T16:05:43Z</time></trkpt><trkpt lat="48.41417221467017" lon="-4.5899140127493165"><ele>42.5</ele><time>2026-04-18T16:05:44Z</time></trkpt><trkpt lat="48.41416110097625" lon="-4.590010100375084"><ele>42.0</ele><time>2026-04-18T16:05:45Z</time></trkpt><trkpt lat="48.414136045039285" lon="-4.590192971477632"><ele>41.5</ele><time>2026-04-18T16:05:47Z</time></trkpt><trkpt lat="48.41411788562622" lon="-4.590374794469239"><ele>41.0</ele><time>2026-04-18T16:05:49Z</time></trkpt><trkpt lat="48.41410863547387" lon="-4.590468852394358"><ele>40.599999999999994</ele><time>2026-04-18T16:05:50Z</time></trkpt><trkpt lat="48.4140835596976" lon="-4.5906452147454235"><ele>40.199999999999996</ele><time>2026-04-18T16:05:52Z</time></trkpt><trkpt lat="48.41408116562828" lon="-4.590742304823143"><ele>39.8</ele><time>2026-04-18T16:05:53Z</time></trkpt><trkpt lat="48.41406898022677" lon="-4.590926262372371"><ele>39.4</ele><time>2026-04-18T16:05:55Z</time></trkpt><trkpt lat="48.414038373551996" lon="-4.591103671999511"><ele>39.0</ele><time>2026-04-18T16:05:57Z</time></trkpt><trkpt lat="48.41402593211767" lon="-4.591197512224185"><ele>38.8</ele><time>2026-04-18T16:05:58Z</time></trkpt><trkpt lat="48.41403393239386" lon="-4.591296400479021"><ele>38.599999999999994</ele><time>2026-04-18T16:05:59Z</time></trkpt><trkpt lat="48.41402043872899" lon="-4.591474125458249"><ele>38.4</ele><time>2026-04-18T16:06:01Z</time></trkpt><trkpt lat="48.41399957833829" lon="-4.59156575573431"><ele>38.199999999999996</ele><time>2026-04-18T16:06:02Z</time></trkpt><trkpt lat="48.41399370443691" lon="-4.591744747381572"><ele>38.0</ele><time>2026-04-18T16:06:04Z</time></trkpt><trkpt lat="48.414009445404886" lon="-4.591931299344003"><ele>38.0</ele><time>2026-04-18T16:06:06Z</time></trkpt><trkpt lat="48.41402892379626" lon="-4.592098914713686"><ele>38.0</ele><time>2026-04-18T16:06:08Z</time></trkpt><trkpt lat="48.41407051303087" lon="-4.592273640956629"><ele>38.0</ele><time>2026-04-18T16:06:10Z</time></trkpt><trkpt lat="48.414123549659905" lon="-4.592445814156313"><ele>38.0</ele><time>2026-04-18T16:06:12Z</time></trkpt><trkpt lat="48.41415763552063" lon="-4.592552875330169"><ele>38.0</ele><time>2026-04-18T16:06:13Z</time></trkpt><trkpt lat="48.41420315556336" lon="-4.592653773116714"><ele>38.0</ele><time>2026-04-18T16:06:14Z</time></trkpt><trkpt lat="48.414261886693694" lon="-4.592759730322951"><ele>38.0</ele><time>2026-04-18T16:06:15Z</time></trkpt><trkpt lat="48.41433947483023" lon="-4.592854968541364"><ele>38.0</ele><time>2026-04-18T16:06:16Z</time></trkpt><trkpt lat="48.41441147770205" lon="-4.592954546424147"><ele>38.0</ele><time>2026-04-18T16:06:17Z</time></trkpt><trkpt lat="48.41448997764425" lon="-4.593053796415576"><ele>38.0</ele><time>2026-04-18T16:06:18Z</time></trkpt><trkpt lat="48.41456589274139" lon="-4.593168418413635"><ele>38.199999999999996</ele><time>2026-04-18T16:06:18.999Z</time></trkpt><trkpt lat="48.41466237814838" lon="-4.59324827662834"><ele>38.4</ele><time>2026-04-18T16:06:19.999Z</time></trkpt><trkpt lat="48.41475561365692" lon="-4.593337690834777"><ele>38.599999999999994</ele><time>2026-04-18T16:06:20.999Z</time></trkpt><trkpt lat="48.41484768659576" lon="-4.593434825635971"><ele>38.8</ele><time>2026-04-18T16:06:21.999Z</time></trkpt><trkpt lat="48.41494455764202" lon="-4.593501814173677"><ele>39.0</ele><time>2026-04-18T16:06:22.999Z</time></trkpt><trkpt lat="48.41502702866326" lon="-4.593604420195443"><ele>38.6</ele><time>2026-04-18T16:06:23.999Z</time></trkpt><trkpt lat="48.4151148752653" lon="-4.593697961290349"><ele>38.2</ele><time>2026-04-18T16:06:24.999Z</time></trkpt><trkpt lat="48.41519978433728" lon="-4.593806667712415"><ele>37.800000000000004</ele><time>2026-04-18T16:06:25.999Z</time></trkpt><trkpt lat="48.41527557540101" lon="-4.59393221330018"><ele>37.4</ele><time>2026-04-18T16:06:26.999Z</time></trkpt><trkpt lat="48.41533955662405" lon="-4.594054591664423"><ele>37.0</ele><time>2026-04-18T16:06:27.999Z</time></trkpt><trkpt lat="48.41539736300355" lon="-4.5942026738440696"><ele>37.0</ele><time>2026-04-18T16:06:28.999Z</time></trkpt><trkpt lat="48.41545614934039" lon="-4.594338503330424"><ele>37.0</ele><time>2026-04-18T16:06:29.999Z</time></trkpt><trkpt lat="48.415501982059425" lon="-4.5944837212498975"><ele>37.0</ele><time>2026-04-18T16:06:30.999Z</time></trkpt><trkpt lat="48.41558126216776" lon="-4.594762926783793"><ele>37.0</ele><time>2026-04-18T16:06:32.999Z</time></trkpt><trkpt lat="48.415605545457375" lon="-4.594889101325108"><ele>37.16666666666667</ele><time>2026-04-18T16:06:33.999Z</time></trkpt><trkpt lat="48.41561946996539" lon="-4.595013567525032"><ele>37.333333333333336</ele><time>2026-04-18T16:06:34.999Z</time></trkpt><trkpt lat="48.41563622562983" lon="-4.595122683622288"><ele>37.5</ele><time>2026-04-18T16:06:35.999Z</time></trkpt><trkpt lat="48.41564292476235" lon="-4.595229848825864"><ele>37.666666666666664</ele><time>2026-04-18T16:06:36.999Z</time></trkpt><trkpt lat="48.41564442736002" lon="-4.595325001002205"><ele>37.83333333333333</ele><time>2026-04-18T16:06:37.999Z</time></trkpt><trkpt lat="48.41564888924467" lon="-4.595487183005981"><ele>38.0</ele><time>2026-04-18T16:06:39.999Z</time></trkpt><trkpt lat="48.41566337383695" lon="-4.595651029512776"><ele>38.0</ele><time>2026-04-18T16:06:41.999Z</time></trkpt><trkpt lat="48.41569009524927" lon="-4.595797801737497"><ele>38.0</ele><time>2026-04-18T16:06:43.999Z</time></trkpt><trkpt lat="48.41567517458162" lon="-4.595930595383389"><ele>38.0</ele><time>2026-04-18T16:06:45.999Z</time></trkpt><trkpt lat="48.4157377849917" lon="-4.59598237971908"><ele>38.0</ele><time>2026-04-18T16:06:46.999Z</time></trkpt><trkpt lat="48.41566459407056" lon="-4.59605942349559"><ele>38.0</ele><time>2026-04-18T16:06:48.999Z</time></trkpt><trkpt lat="48.415596328675825" lon="-4.595982557931029"><ele>38.0</ele><time>2026-04-18T16:06:50.999Z</time></trkpt><trkpt lat="48.415634119532186" lon="-4.595850275695665"><ele>38.0</ele><time>2026-04-18T16:06:52.999Z</time></trkpt><trkpt lat="48.415635117882175" lon="-4.595735231393886"><ele>38.0</ele><time>2026-04-18T16:06:54.999Z</time></trkpt><trkpt lat="48.41568200276272" lon="-4.595632945254109"><ele>38.0</ele><time>2026-04-18T16:06:57.999Z</time></trkpt><trkpt lat="48.41574481855325" lon="-4.595666538588008"><ele>38.0</ele><time>2026-04-18T16:06:59.999Z</time></trkpt><trkpt lat="48.41573242708458" lon="-4.595778397169785"><ele>38.0</ele><time>2026-04-18T16:07:01.999Z</time></trkpt><trkpt lat="48.41571825603875" lon="-4.595891709211852"><ele>38.0</ele><time>2026-04-18T16:07:04.999Z</time></trkpt><trkpt lat="48.41570661078358" lon="-4.595990507053446"><ele>38.0</ele><time>2026-04-18T16:07:07.999Z</time></trkpt><trkpt lat="48.41566009092357" lon="-4.59606969670772"><ele>38.199999999999996</ele><time>2026-04-18T16:07:10.999Z</time></trkpt><trkpt lat="48.41563454222029" lon="-4.59620777950368"><ele>38.4</ele><time>2026-04-18T16:07:13.999Z</time></trkpt><trkpt lat="48.41564573940916" lon="-4.5963332414917035"><ele>38.599999999999994</ele><time>2026-04-18T16:07:16Z</time></trkpt><trkpt lat="48.4156449516317" lon="-4.596460879012394"><ele>38.8</ele><time>2026-04-18T16:07:18Z</time></trkpt><trkpt lat="48.415641786353184" lon="-4.596612406412373"><ele>39.0</ele><time>2026-04-18T16:07:20Z</time></trkpt><trkpt lat="48.41563365402257" lon="-4.596768530103314"><ele>39.0</ele><time>2026-04-18T16:07:22Z</time></trkpt><trkpt lat="48.41564017165333" lon="-4.596929558893285"><ele>39.0</ele><time>2026-04-18T16:07:24Z</time></trkpt><trkpt lat="48.415622151678576" lon="-4.597071900688144"><ele>39.0</ele><time>2026-04-18T16:07:26Z</time></trkpt><trkpt lat="48.41559945613104" lon="-4.597221571955831"><ele>39.0</ele><time>2026-04-18T16:07:28Z</time></trkpt><trkpt lat="48.415571403339094" lon="-4.59736754098534"><ele>39.0</ele><time>2026-04-18T16:07:30Z</time></trkpt><trkpt lat="48.415540568233276" lon="-4.597501981346143"><ele>39.0</ele><time>2026-04-18T16:07:32Z</time></trkpt><trkpt lat="48.41550921670776" lon="-4.597633275826519"><ele>39.0</ele><time>2026-04-18T16:07:34Z</time></trkpt><trkpt lat="48.41546996707445" lon="-4.597780311205778"><ele>39.0</ele><time>2026-04-18T16:07:37Z</time></trkpt><trkpt lat="48.41543034830183" lon="-4.5978669065415705"><ele>39.0</ele><time>2026-04-18T16:07:38Z</time></trkpt><trkpt lat="48.4153958004804" lon="-4.598060342911533"><ele>39.0</ele><time>2026-04-18T16:07:42Z</time></trkpt><trkpt lat="48.415359114453395" lon="-4.598161989581555"><ele>39.5</ele><time>2026-04-18T16:07:44Z</time></trkpt><trkpt lat="48.41531594954139" lon="-4.598301930453721"><ele>40.0</ele><time>2026-04-18T16:07:46Z</time></trkpt><trkpt lat="48.41530330539404" lon="-4.598398300404795"><ele>40.5</ele><time>2026-04-18T16:07:48Z</time></trkpt><trkpt lat="48.41525622059309" lon="-4.5985053036636145"><ele>41.0</ele><time>2026-04-18T16:07:51Z</time></trkpt><trkpt lat="48.41522471972604" lon="-4.598608664673607"><ele>41.5</ele><time>2026-04-18T16:07:54Z</time></trkpt><trkpt lat="48.415141367845024" lon="-4.598659179397199"><ele>42.0</ele><time>2026-04-18T16:07:59Z</time></trkpt><trkpt lat="48.41506418040679" lon="-4.598590988711778"><ele>42.0</ele><time>2026-04-18T16:08:01Z</time></trkpt><trkpt lat="48.41497487844799" lon="-4.598512697599502"><ele>42.0</ele><time>2026-04-18T16:08:03Z</time></trkpt><trkpt lat="48.41488450103064" lon="-4.598436672407602"><ele>42.0</ele><time>2026-04-18T16:08:05Z</time></trkpt><trkpt lat="48.414775899385056" lon="-4.598375602417735"><ele>42.0</ele><time>2026-04-18T16:08:07Z</time></trkpt><trkpt lat="48.41468483694529" lon="-4.5982998598522995"><ele>42.0</ele><time>2026-04-18T16:08:09Z</time></trkpt><trkpt lat="48.41459354930234" lon="-4.598224027235848"><ele>42.400000000000006</ele><time>2026-04-18T16:08:11Z</time></trkpt><trkpt lat="48.414507126221245" lon="-4.598152637187814"><ele>42.800000000000004</ele><time>2026-04-18T16:08:13Z</time></trkpt><trkpt lat="48.414416196637596" lon="-4.5980675201486605"><ele>43.2</ele><time>2026-04-18T16:08:15Z</time></trkpt><trkpt lat="48.41431893968141" lon="-4.597990713809964"><ele>43.6</ele><time>2026-04-18T16:08:17Z</time></trkpt><trkpt lat="48.41422182121572" lon="-4.597912945169832"><ele>44.0</ele><time>2026-04-18T16:08:19Z</time></trkpt><trkpt lat="48.41412997637982" lon="-4.597826339205227"><ele>43.800000000000004</ele><time>2026-04-18T16:08:21Z</time></trkpt><trkpt lat="48.41403410211076" lon="-4.597745059500631"><ele>43.6</ele><time>2026-04-18T16:08:23Z</time></trkpt><trkpt lat="48.413935947341145" lon="-4.597663950590414"><ele>43.4</ele><time>2026-04-18T16:08:24.999Z</time></trkpt><trkpt lat="48.41383789581204" lon="-4.597576698085632"><ele>43.2</ele><time>2026-04-18T16:08:26.999Z</time></trkpt><trkpt lat="48.41374551437846" lon="-4.59749919527894"><ele>43.0</ele><time>2026-04-18T16:08:28.999Z</time></trkpt><trkpt lat="48.41363019407034" lon="-4.5974270000841795"><ele>43.00000000000001</ele><time>2026-04-18T16:08:30.999Z</time></trkpt><trkpt lat="48.41356080383852" lon="-4.597371796609586"><ele>43.0</ele><time>2026-04-18T16:08:31.999Z</time></trkpt><trkpt lat="48.41349439333024" lon="-4.59731941154121"><ele>43.0</ele><time>2026-04-18T16:08:32.999Z</time></trkpt><trkpt lat="48.41343092036101" lon="-4.5972708602834755"><ele>43.0</ele><time>2026-04-18T16:08:33.999Z</time></trkpt><trkpt lat="48.4133656582474" lon="-4.597222395438068"><ele>43.0</ele><time>2026-04-18T16:08:34.999Z</time></trkpt><trkpt lat="48.4132981745641" lon="-4.597174320786835"><ele>43.00000000000001</ele><time>2026-04-18T16:08:35.999Z</time></trkpt><trkpt lat="48.41323003615067" lon="-4.597126654936591"><ele>43.0</ele><time>2026-04-18T16:08:36.999Z</time></trkpt><trkpt lat="48.41316298397922" lon="-4.597080047365117"><ele>43.0</ele><time>2026-04-18T16:08:37.999Z</time></trkpt><trkpt lat="48.413095773311206" lon="-4.597033329623701"><ele>43.0</ele><time>2026-04-18T16:08:38.999Z</time></trkpt><trkpt lat="48.41304094993046" lon="-4.596967701675793"><ele>43.0</ele><time>2026-04-18T16:08:39.999Z</time></trkpt><trkpt lat="48.41297881359414" lon="-4.5969343379470615"><ele>43.0</ele><time>2026-04-18T16:08:40.999Z</time></trkpt><trkpt lat="48.41286784293671" lon="-4.596849615210657"><ele>43.0</ele><time>2026-04-18T16:08:42.999Z</time></trkpt><trkpt lat="48.41281446473581" lon="-4.596797758272512"><ele>43.0</ele><time>2026-04-18T16:08:43.999Z</time></trkpt><trkpt lat="48.412701646670605" lon="-4.596729051415878"><ele>43.5</ele><time>2026-04-18T16:08:45.999Z</time></trkpt><trkpt lat="48.41259883985817" lon="-4.596644793904527"><ele>44.0</ele><time>2026-04-18T16:08:47.999Z</time></trkpt><trkpt lat="48.412501368423065" lon="-4.59655575581174"><ele>44.5</ele><time>2026-04-18T16:08:49.999Z</time></trkpt><trkpt lat="48.41239201587603" lon="-4.596497083526427"><ele>45.0</ele><time>2026-04-18T16:08:51.999Z</time></trkpt><trkpt lat="48.412296566354" lon="-4.596413483508291"><ele>45.0</ele><time>2026-04-18T16:08:53.999Z</time></trkpt><trkpt lat="48.4121963905238" lon="-4.596324126639228"><ele>45.0</ele><time>2026-04-18T16:08:55.999Z</time></trkpt><trkpt lat="48.41209674182506" lon="-4.596252177107584"><ele>45.0</ele><time>2026-04-18T16:08:57.999Z</time></trkpt><trkpt lat="48.41199724671453" lon="-4.596176973363423"><ele>45.0</ele><time>2026-04-18T16:08:59.999Z</time></trkpt><trkpt lat="48.411890816656125" lon="-4.596107297718217"><ele>44.8</ele><time>2026-04-18T16:09:01.999Z</time></trkpt><trkpt lat="48.41183388075062" lon="-4.596059763585293"><ele>44.6</ele><time>2026-04-18T16:09:02.999Z</time></trkpt><trkpt lat="48.41171797526403" lon="-4.596003215212566"><ele>44.400000000000006</ele><time>2026-04-18T16:09:04.999Z</time></trkpt><trkpt lat="48.41162318513583" lon="-4.5959169066417855"><ele>44.2</ele><time>2026-04-18T16:09:06.999Z</time></trkpt><trkpt lat="48.411522101884046" lon="-4.595843737506363"><ele>44.0</ele><time>2026-04-18T16:09:08.999Z</time></trkpt><trkpt lat="48.411421256459185" lon="-4.595803021295784"><ele>43.800000000000004</ele><time>2026-04-18T16:09:10.999Z</time></trkpt><trkpt lat="48.4113042394881" lon="-4.595727902395901"><ele>43.6</ele><time>2026-04-18T16:09:12.999Z</time></trkpt><trkpt lat="48.41125136083612" lon="-4.595671262547367"><ele>43.4</ele><time>2026-04-18T16:09:13.999Z</time></trkpt><trkpt lat="48.41113706368493" lon="-4.595613859527137"><ele>43.2</ele><time>2026-04-18T16:09:15.999Z</time></trkpt><trkpt lat="48.41107899161506" lon="-4.595570870341847"><ele>43.0</ele><time>2026-04-18T16:09:16.999Z</time></trkpt><trkpt lat="48.41097897272555" lon="-4.595464027923034"><ele>43.00000000000001</ele><time>2026-04-18T16:09:18.999Z</time></trkpt><trkpt lat="48.41091584529185" lon="-4.595413409583623"><ele>43.0</ele><time>2026-04-18T16:09:19.999Z</time></trkpt><trkpt lat="48.41085909470629" lon="-4.595357891465663"><ele>43.0</ele><time>2026-04-18T16:09:21Z</time></trkpt><trkpt lat="48.410802849674326" lon="-4.595291446837126"><ele>43.0</ele><time>2026-04-18T16:09:22Z</time></trkpt><trkpt lat="48.41074494746644" lon="-4.595236074378889"><ele>43.0</ele><time>2026-04-18T16:09:23Z</time></trkpt><trkpt lat="48.41069521447008" lon="-4.595168749879376"><ele>43.00000000000001</ele><time>2026-04-18T16:09:24Z</time></trkpt><trkpt lat="48.41064474549177" lon="-4.595095944727111"><ele>43.0</ele><time>2026-04-18T16:09:25Z</time></trkpt><trkpt lat="48.410604599757626" lon="-4.5950104783911305"><ele>42.66666666666667</ele><time>2026-04-18T16:09:26Z</time></trkpt><trkpt lat="48.410539894619234" lon="-4.594940647188375"><ele>42.333333333333336</ele><time>2026-04-18T16:09:27Z</time></trkpt><trkpt lat="48.41044065351963" lon="-4.5948139110609025"><ele>42.0</ele><time>2026-04-18T16:09:29Z</time></trkpt><trkpt lat="48.41038152721349" lon="-4.594757136488982"><ele>41.666666666666664</ele><time>2026-04-18T16:09:30Z</time></trkpt><trkpt lat="48.41032411406622" lon="-4.594711179470527"><ele>41.33333333333333</ele><time>2026-04-18T16:09:31Z</time></trkpt><trkpt lat="48.41026175114892" lon="-4.594660660331468"><ele>41.0</ele><time>2026-04-18T16:09:32Z</time></trkpt><trkpt lat="48.41019282223547" lon="-4.594623717521206"><ele>40.71428571428571</ele><time>2026-04-18T16:09:33Z</time></trkpt><trkpt lat="48.410131495405636" lon="-4.594576873443845"><ele>40.42857142857143</ele><time>2026-04-18T16:09:34Z</time></trkpt><trkpt lat="48.4100755014412" lon="-4.594532225823405"><ele>40.14285714285714</ele><time>2026-04-18T16:09:35Z</time></trkpt><trkpt lat="48.41001001029575" lon="-4.594490672414895"><ele>39.857142857142854</ele><time>2026-04-18T16:09:36Z</time></trkpt><trkpt lat="48.409947036396865" lon="-4.594454102855592"><ele>39.57142857142857</ele><time>2026-04-18T16:09:37Z</time></trkpt><trkpt lat="48.40987968900544" lon="-4.59442045484962"><ele>39.285714285714285</ele><time>2026-04-18T16:09:38Z</time></trkpt><trkpt lat="48.40981792314483" lon="-4.594385867503685"><ele>39.0</ele><time>2026-04-18T16:09:39Z</time></trkpt><trkpt lat="48.409753909610366" lon="-4.59435017431277"><ele>39.0</ele><time>2026-04-18T16:09:40Z</time></trkpt><trkpt lat="48.40968635665526" lon="-4.594314196356951"><ele>39.0</ele><time>2026-04-18T16:09:41Z</time></trkpt><trkpt lat="48.40962277548337" lon="-4.594274691739514"><ele>39.0</ele><time>2026-04-18T16:09:42Z</time></trkpt><trkpt lat="48.409561543783205" lon="-4.594235920780708"><ele>39.0</ele><time>2026-04-18T16:09:43Z</time></trkpt><trkpt lat="48.40944420517813" lon="-4.594178545313043"><ele>39.0</ele><time>2026-04-18T16:09:45Z</time></trkpt><trkpt lat="48.40934389952804" lon="-4.594128451153994"><ele>39.0</ele><time>2026-04-18T16:09:47Z</time></trkpt><trkpt lat="48.40923742610988" lon="-4.594070576005836"><ele>39.6</ele><time>2026-04-18T16:09:49Z</time></trkpt><trkpt lat="48.409125615755144" lon="-4.594023411814626"><ele>40.2</ele><time>2026-04-18T16:09:51Z</time></trkpt><trkpt lat="48.409023369174335" lon="-4.593972818620151"><ele>40.800000000000004</ele><time>2026-04-18T16:09:53Z</time></trkpt><trkpt lat="48.40892441861136" lon="-4.5939150710843215"><ele>41.4</ele><time>2026-04-18T16:09:55Z</time></trkpt><trkpt lat="48.40882327737699" lon="-4.593864599976998"><ele>42.0</ele><time>2026-04-18T16:09:57Z</time></trkpt><trkpt lat="48.40872076197268" lon="-4.593809026990458"><ele>42.2</ele><time>2026-04-18T16:09:59Z</time></trkpt><trkpt lat="48.40862055499965" lon="-4.593756864089654"><ele>42.400000000000006</ele><time>2026-04-18T16:10:01Z</time></trkpt><trkpt lat="48.408525968763556" lon="-4.593693813947048"><ele>42.599999999999994</ele><time>2026-04-18T16:10:03Z</time></trkpt><trkpt lat="48.408420453282794" lon="-4.59364706682846"><ele>42.8</ele><time>2026-04-18T16:10:05Z</time></trkpt><trkpt lat="48.408327014520545" lon="-4.593566789450558"><ele>43.0</ele><time>2026-04-18T16:10:07Z</time></trkpt><trkpt lat="48.408236458076104" lon="-4.593493907531021"><ele>43.0</ele><time>2026-04-18T16:10:09Z</time></trkpt><trkpt lat="48.40814717829716" lon="-4.593409343906317"><ele>43.0</ele><time>2026-04-18T16:10:11Z</time></trkpt><trkpt lat="48.4080958452246" lon="-4.593351969408976"><ele>43.0</ele><time>2026-04-18T16:10:12Z</time></trkpt><trkpt lat="48.40799671121627" lon="-4.593238057656007"><ele>43.0</ele><time>2026-04-18T16:10:14Z</time></trkpt><trkpt lat="48.40795709261487" lon="-4.593138237038018"><ele>43.0</ele><time>2026-04-18T16:10:15Z</time></trkpt><trkpt lat="48.40791295312649" lon="-4.593026975677433"><ele>43.8</ele><time>2026-04-18T16:10:16Z</time></trkpt><trkpt lat="48.40785137237532" lon="-4.592928236321656"><ele>44.599999999999994</ele><time>2026-04-18T16:10:17Z</time></trkpt><trkpt lat="48.407804833903796" lon="-4.5928219934887915"><ele>45.400000000000006</ele><time>2026-04-18T16:10:18Z</time></trkpt><trkpt lat="48.40774884408845" lon="-4.592708397744703"><ele>46.2</ele><time>2026-04-18T16:10:19Z</time></trkpt><trkpt lat="48.407682220478755" lon="-4.592604890672786"><ele>47.0</ele><time>2026-04-18T16:10:20Z</time></trkpt><trkpt lat="48.40761032042954" lon="-4.592512773412067"><ele>47.0</ele><time>2026-04-18T16:10:21Z</time></trkpt><trkpt lat="48.40752889838736" lon="-4.592416946336371"><ele>47.0</ele><time>2026-04-18T16:10:22Z</time></trkpt><trkpt lat="48.40745232488811" lon="-4.5923739457949475"><ele>47.0</ele><time>2026-04-18T16:10:23Z</time></trkpt><trkpt lat="48.40736868466503" lon="-4.592306290462903"><ele>47.0</ele><time>2026-04-18T16:10:24Z</time></trkpt><trkpt lat="48.40728554193187" lon="-4.59221667150912"><ele>47.0</ele><time>2026-04-18T16:10:25Z</time></trkpt><trkpt lat="48.407207346619" lon="-4.592172116924969"><ele>47.166666666666664</ele><time>2026-04-18T16:10:26Z</time></trkpt><trkpt lat="48.40713207043389" lon="-4.592122689184546"><ele>47.33333333333333</ele><time>2026-04-18T16:10:27Z</time></trkpt><trkpt lat="48.40705945230294" lon="-4.5920735454575965"><ele>47.5</ele><time>2026-04-18T16:10:28Z</time></trkpt><trkpt lat="48.4069818432832" lon="-4.592033321433759"><ele>47.666666666666664</ele><time>2026-04-18T16:10:29Z</time></trkpt><trkpt lat="48.40690181359862" lon="-4.591991257222303"><ele>47.833333333333336</ele><time>2026-04-18T16:10:30Z</time></trkpt><trkpt lat="48.40681987758842" lon="-4.591952297538815"><ele>48.0</ele><time>2026-04-18T16:10:30.999Z</time></trkpt><trkpt lat="48.40673487414202" lon="-4.591910974990968"><ele>47.4</ele><time>2026-04-18T16:10:31.999Z</time></trkpt><trkpt lat="48.406649071714575" lon="-4.591850663608525"><ele>46.8</ele><time>2026-04-18T16:10:32.999Z</time></trkpt><trkpt lat="48.40656320044987" lon="-4.591777762663383"><ele>46.2</ele><time>2026-04-18T16:10:33.999Z</time></trkpt><trkpt lat="48.4064872479616" lon="-4.591699717299832"><ele>45.6</ele><time>2026-04-18T16:10:34.999Z</time></trkpt><trkpt lat="48.40641034777043" lon="-4.591606113142225"><ele>45.0</ele><time>2026-04-18T16:10:35.999Z</time></trkpt><trkpt lat="48.406330596650925" lon="-4.5915015901617995"><ele>44.6</ele><time>2026-04-18T16:10:36.999Z</time></trkpt><trkpt lat="48.40625185981379" lon="-4.59139832387136"><ele>44.2</ele><time>2026-04-18T16:10:37.999Z</time></trkpt><trkpt lat="48.406158732294855" lon="-4.591315325773345"><ele>43.8</ele><time>2026-04-18T16:10:38.999Z</time></trkpt><trkpt lat="48.40605391355413" lon="-4.591264800089915"><ele>43.4</ele><time>2026-04-18T16:10:39.999Z</time></trkpt><trkpt lat="48.40593831898643" lon="-4.591277312553847"><ele>43.0</ele><time>2026-04-18T16:10:40.999Z</time></trkpt><trkpt lat="48.405828919438626" lon="-4.591341275584397"><ele>43.0</ele><time>2026-04-18T16:10:41.999Z</time></trkpt><trkpt lat="48.40573286966744" lon="-4.5914094074901985"><ele>43.0</ele><time>2026-04-18T16:10:42.999Z</time></trkpt><trkpt lat="48.40564626757404" lon="-4.591483805026437"><ele>43.0</ele><time>2026-04-18T16:10:43.999Z</time></trkpt><trkpt lat="48.40555412961858" lon="-4.591544352378268"><ele>43.0</ele><time>2026-04-18T16:10:44.999Z</time></trkpt><trkpt lat="48.4054638048944" lon="-4.591615595009654"><ele>43.0</ele><time>2026-04-18T16:10:45.999Z</time></trkpt><trkpt lat="48.40540901750711" lon="-4.5916889127713025"><ele>43.16666666666667</ele><time>2026-04-18T16:10:46.999Z</time></trkpt><trkpt lat="48.40533901280953" lon="-4.591755286520178"><ele>43.333333333333336</ele><time>2026-04-18T16:10:47.999Z</time></trkpt><trkpt lat="48.40526638111435" lon="-4.591811209172148"><ele>43.5</ele><time>2026-04-18T16:10:48.999Z</time></trkpt><trkpt lat="48.40519620019583" lon="-4.591874368554727"><ele>43.666666666666664</ele><time>2026-04-18T16:10:49.999Z</time></trkpt><trkpt lat="48.40512047385845" lon="-4.591905269559047"><ele>43.83333333333333</ele><time>2026-04-18T16:10:50.999Z</time></trkpt><trkpt lat="48.405064496091235" lon="-4.591979994700377"><ele>44.0</ele><time>2026-04-18T16:10:51.999Z</time></trkpt><trkpt lat="48.405024636722594" lon="-4.592061981849448"><ele>44.2</ele><time>2026-04-18T16:10:52.999Z</time></trkpt><trkpt lat="48.40497232841332" lon="-4.592134281483073"><ele>44.400000000000006</ele><time>2026-04-18T16:10:53.999Z</time></trkpt><trkpt lat="48.40492986976562" lon="-4.592213011013331"><ele>44.6</ele><time>2026-04-18T16:10:54.999Z</time></trkpt><trkpt lat="48.4048695264121" lon="-4.592382491457908"><ele>44.8</ele><time>2026-04-18T16:10:56.999Z</time></trkpt><trkpt lat="48.40481341502109" lon="-4.592539111941478"><ele>45.0</ele><time>2026-04-18T16:10:58.999Z</time></trkpt><trkpt lat="48.40477422596731" lon="-4.592697712676315"><ele>45.4</ele><time>2026-04-18T16:11:00.999Z</time></trkpt><trkpt lat="48.404734714729585" lon="-4.592846913804824"><ele>45.8</ele><time>2026-04-18T16:11:02.999Z</time></trkpt><trkpt lat="48.404713352842656" lon="-4.592987864337606"><ele>46.2</ele><time>2026-04-18T16:11:04.999Z</time></trkpt><trkpt lat="48.40469124321623" lon="-4.593118962575806"><ele>46.6</ele><time>2026-04-18T16:11:06.999Z</time></trkpt><trkpt lat="48.40466444865887" lon="-4.593242046212648"><ele>47.0</ele><time>2026-04-18T16:11:08.999Z</time></trkpt><trkpt lat="48.40466450950819" lon="-4.593361496123312"><ele>47.166666666666664</ele><time>2026-04-18T16:11:10.999Z</time></trkpt><trkpt lat="48.40465067152188" lon="-4.5934650988428265"><ele>47.33333333333333</ele><time>2026-04-18T16:11:12.999Z</time></trkpt><trkpt lat="48.4046382247134" lon="-4.5935711795999525"><ele>47.5</ele><time>2026-04-18T16:11:14.999Z</time></trkpt><trkpt lat="48.40463907790872" lon="-4.593668823172865"><ele>47.666666666666664</ele><time>2026-04-18T16:11:16.999Z</time></trkpt><trkpt lat="48.4046535743927" lon="-4.593782239685627"><ele>47.833333333333336</ele><time>2026-04-18T16:11:19.999Z</time></trkpt><trkpt lat="48.40462864030421" lon="-4.593873846262433"><ele>48.0</ele><time>2026-04-18T16:11:44Z</time></trkpt><trkpt lat="48.40461794275227" lon="-4.594025446278747"><ele>48.2</ele><time>2026-04-18T16:11:47Z</time></trkpt><trkpt lat="48.404625985572686" lon="-4.5941425827862945"><ele>48.4</ele><time>2026-04-18T16:11:49Z</time></trkpt><trkpt lat="48.40462701744963" lon="-4.5942842641383566"><ele>48.6</ele><time>2026-04-18T16:11:51Z</time></trkpt><trkpt lat="48.40464950190115" lon="-4.594427914519563"><ele>48.800000000000004</ele><time>2026-04-18T16:11:53Z</time></trkpt><trkpt lat="48.40464261820154" lon="-4.5945745543907"><ele>49.0</ele><time>2026-04-18T16:11:55Z</time></trkpt><trkpt lat="48.40464823539673" lon="-4.594705967648508"><ele>49.33333333333333</ele><time>2026-04-18T16:11:57Z</time></trkpt><trkpt lat="48.404645603106886" lon="-4.594838046411402"><ele>49.666666666666664</ele><time>2026-04-18T16:11:59Z</time></trkpt><trkpt lat="48.404641814245565" lon="-4.594947134782619"><ele>50.0</ele><time>2026-04-18T16:12:01Z</time></trkpt><trkpt lat="48.404636459058814" lon="-4.595064273642485"><ele>50.33333333333333</ele><time>2026-04-18T16:12:03Z</time></trkpt><trkpt lat="48.40463395756231" lon="-4.595186412112592"><ele>50.666666666666664</ele><time>2026-04-18T16:12:05Z</time></trkpt><trkpt lat="48.404626842587476" lon="-4.595313632170202"><ele>51.0</ele><time>2026-04-18T16:12:07Z</time></trkpt><trkpt lat="48.404615043609596" lon="-4.595432933084409"><ele>51.599999999999994</ele><time>2026-04-18T16:12:09Z</time></trkpt><trkpt lat="48.40459799866854" lon="-4.595551293061548"><ele>52.2</ele><time>2026-04-18T16:12:11Z</time></trkpt><trkpt lat="48.40456930165631" lon="-4.595674358819177"><ele>52.800000000000004</ele><time>2026-04-18T16:12:13Z</time></trkpt><trkpt lat="48.40453957940845" lon="-4.595798953052588"><ele>53.400000000000006</ele><time>2026-04-18T16:12:15Z</time></trkpt><trkpt lat="48.40451025446276" lon="-4.595948155742496"><ele>54.0</ele><time>2026-04-18T16:12:17Z</time></trkpt><trkpt lat="48.40446546699868" lon="-4.596075138816885"><ele>54.400000000000006</ele><time>2026-04-18T16:12:19Z</time></trkpt><trkpt lat="48.404421172495915" lon="-4.59621235417554"><ele>54.800000000000004</ele><time>2026-04-18T16:12:21Z</time></trkpt><trkpt lat="48.40437803825799" lon="-4.596336386576665"><ele>55.199999999999996</ele><time>2026-04-18T16:12:23Z</time></trkpt><trkpt lat="48.404322592561826" lon="-4.596461953122119"><ele>55.599999999999994</ele><time>2026-04-18T16:12:25Z</time></trkpt><trkpt lat="48.404267651438516" lon="-4.596566369928974"><ele>56.0</ele><time>2026-04-18T16:12:27Z</time></trkpt><trkpt lat="48.40421031578804" lon="-4.596674404200158"><ele>56.0</ele><time>2026-04-18T16:12:29Z</time></trkpt><trkpt lat="48.40416547430864" lon="-4.596772365451941"><ele>56.0</ele><time>2026-04-18T16:12:31Z</time></trkpt><trkpt lat="48.40411634396954" lon="-4.596882015851377"><ele>56.0</ele><time>2026-04-18T16:12:33Z</time></trkpt><trkpt lat="48.404076889333304" lon="-4.596970453572031"><ele>56.0</ele><time>2026-04-18T16:12:34.999Z</time></trkpt><trkpt lat="48.404037915331536" lon="-4.597063453969162"><ele>56.0</ele><time>2026-04-18T16:12:36.999Z</time></trkpt><trkpt lat="48.4040015730431" lon="-4.597154481395303"><ele>56.0</ele><time>2026-04-18T16:12:38.999Z</time></trkpt><trkpt lat="48.40396589243844" lon="-4.597238928363026"><ele>56.0</ele><time>2026-04-18T16:12:40.999Z</time></trkpt><trkpt lat="48.403932737499744" lon="-4.597329045953862"><ele>56.16666666666667</ele><time>2026-04-18T16:12:42.999Z</time></trkpt><trkpt lat="48.40388265370799" lon="-4.597450136192343"><ele>56.333333333333336</ele><time>2026-04-18T16:12:45.999Z</time></trkpt><trkpt lat="48.40383801848006" lon="-4.597531958546011"><ele>56.5</ele><time>2026-04-18T16:12:47.999Z</time></trkpt><trkpt lat="48.403799051669" lon="-4.59761097529764"><ele>56.66666666666667</ele><time>2026-04-18T16:12:49.999Z</time></trkpt><trkpt lat="48.40375025819546" lon="-4.597726808285177"><ele>56.833333333333336</ele><time>2026-04-18T16:12:52.999Z</time></trkpt><trkpt lat="48.40369471696381" lon="-4.597844961494681"><ele>57.0</ele><time>2026-04-18T16:12:55.999Z</time></trkpt><trkpt lat="48.40365655483433" lon="-4.597925432027007"><ele>57.14285714285714</ele><time>2026-04-18T16:12:57.999Z</time></trkpt><trkpt lat="48.40361846951376" lon="-4.598010938533364"><ele>57.28571428571428</ele><time>2026-04-18T16:12:59.999Z</time></trkpt><trkpt lat="48.403576657423976" lon="-4.598093187080785"><ele>57.42857142857143</ele><time>2026-04-18T16:13:01.999Z</time></trkpt><trkpt lat="48.40354091459375" lon="-4.598177216049362"><ele>57.57142857142857</ele><time>2026-04-18T16:13:03.999Z</time></trkpt><trkpt lat="48.40349782808207" lon="-4.59829521400805"><ele>57.714285714285715</ele><time>2026-04-18T16:13:06.999Z</time></trkpt><trkpt lat="48.403451664218906" lon="-4.5983712173886735"><ele>57.85714285714286</ele><time>2026-04-18T16:13:08.999Z</time></trkpt><trkpt lat="48.40340580796022" lon="-4.598439928873057"><ele>58.00000000000001</ele><time>2026-04-18T16:13:10.999Z</time></trkpt><trkpt lat="48.40336287202335" lon="-4.598521853848998"><ele>57.99999999999999</ele><time>2026-04-18T16:13:12.999Z</time></trkpt><trkpt lat="48.40331799804537" lon="-4.598598516788763"><ele>58.0</ele><time>2026-04-18T16:13:14.999Z</time></trkpt><trkpt lat="48.4032726347639" lon="-4.598716471834786"><ele>58.0</ele><time>2026-04-18T16:13:18.999Z</time></trkpt><trkpt lat="48.40322828379316" lon="-4.598792382793576"><ele>58.0</ele><time>2026-04-18T16:13:20.999Z</time></trkpt><trkpt lat="48.40316970709809" lon="-4.598909405020483"><ele>57.99999999999999</ele><time>2026-04-18T16:13:22.999Z</time></trkpt><trkpt lat="48.40310480749112" lon="-4.599002457866025"><ele>58.0</ele><time>2026-04-18T16:13:24.999Z</time></trkpt><trkpt lat="48.403046676220356" lon="-4.599103128082528"><ele>57.99999999999999</ele><time>2026-04-18T16:13:26.999Z</time></trkpt><trkpt lat="48.40298728712816" lon="-4.59921027392108"><ele>58.0</ele><time>2026-04-18T16:13:28.999Z</time></trkpt><trkpt lat="48.40292641909981" lon="-4.599304432391458"><ele>58.0</ele><time>2026-04-18T16:13:30.999Z</time></trkpt><trkpt lat="48.40287346156431" lon="-4.5994046385847644"><ele>58.0</ele><time>2026-04-18T16:13:33Z</time></trkpt><trkpt lat="48.40281654847333" lon="-4.59951243537923"><ele>57.99999999999999</ele><time>2026-04-18T16:13:35Z</time></trkpt><trkpt lat="48.40274891394024" lon="-4.599605069315926"><ele>58.0</ele><time>2026-04-18T16:13:37Z</time></trkpt><trkpt lat="48.402691653659936" lon="-4.599715412291251"><ele>58.2</ele><time>2026-04-18T16:13:39Z</time></trkpt><trkpt lat="48.40263347774449" lon="-4.599816722341994"><ele>58.4</ele><time>2026-04-18T16:13:41Z</time></trkpt><trkpt lat="48.40257895364545" lon="-4.599923554696411"><ele>58.60000000000001</ele><time>2026-04-18T16:13:43Z</time></trkpt><trkpt lat="48.40251670789312" lon="-4.600028901921787"><ele>58.800000000000004</ele><time>2026-04-18T16:13:45Z</time></trkpt><trkpt lat="48.40245024003678" lon="-4.600135710501441"><ele>59.0</ele><time>2026-04-18T16:13:47Z</time></trkpt><trkpt lat="48.40238380150435" lon="-4.600241742634495"><ele>59.0</ele><time>2026-04-18T16:13:49Z</time></trkpt><trkpt lat="48.402321181515696" lon="-4.600343975232834"><ele>59.00000000000001</ele><time>2026-04-18T16:13:51Z</time></trkpt><trkpt lat="48.40224987412814" lon="-4.600451045046713"><ele>59.00000000000001</ele><time>2026-04-18T16:13:53Z</time></trkpt><trkpt lat="48.40218091443465" lon="-4.600548166937856"><ele>59.0</ele><time>2026-04-18T16:13:55Z</time></trkpt><trkpt lat="48.40210290812709" lon="-4.600618944573617"><ele>59.0</ele><time>2026-04-18T16:13:57Z</time></trkpt><trkpt lat="48.40202173651546" lon="-4.600679517690219"><ele>59.00000000000001</ele><time>2026-04-18T16:13:59Z</time></trkpt><trkpt lat="48.40193478789205" lon="-4.600732974594218"><ele>59.0</ele><time>2026-04-18T16:14:01Z</time></trkpt><trkpt lat="48.40184839636647" lon="-4.600799831124791"><ele>59.0</ele><time>2026-04-18T16:14:03Z</time></trkpt><trkpt lat="48.40176297220249" lon="-4.600853052784616"><ele>59.0</ele><time>2026-04-18T16:14:05Z</time></trkpt><trkpt lat="48.40168727321851" lon="-4.600916734553029"><ele>59.00000000000001</ele><time>2026-04-18T16:14:07Z</time></trkpt><trkpt lat="48.401625090531994" lon="-4.600964763029423"><ele>59.0</ele><time>2026-04-18T16:14:09Z</time></trkpt><trkpt lat="48.40154347718305" lon="-4.601015386453616"><ele>59.0</ele><time>2026-04-18T16:14:11Z</time></trkpt><trkpt lat="48.40146823371571" lon="-4.601056504770796"><ele>59.00000000000001</ele><time>2026-04-18T16:14:13Z</time></trkpt><trkpt lat="48.40138646499151" lon="-4.601093327220424"><ele>59.00000000000001</ele><time>2026-04-18T16:14:15Z</time></trkpt><trkpt lat="48.40127299083428" lon="-4.601174962522216"><ele>59.0</ele><time>2026-04-18T16:14:18Z</time></trkpt><trkpt lat="48.40121997237044" lon="-4.6012754877841475"><ele>59.0</ele><time>2026-04-18T16:14:20Z</time></trkpt><trkpt lat="48.401206941345" lon="-4.601408157021528"><ele>59.16666666666667</ele><time>2026-04-18T16:14:22Z</time></trkpt><trkpt lat="48.401216219522034" lon="-4.601541809240751"><ele>59.333333333333336</ele><time>2026-04-18T16:14:24Z</time></trkpt><trkpt lat="48.40122153251194" lon="-4.6016686982595925"><ele>59.5</ele><time>2026-04-18T16:14:26Z</time></trkpt><trkpt lat="48.40122942891732" lon="-4.6017925177603685"><ele>59.66666666666667</ele><time>2026-04-18T16:14:28Z</time></trkpt><trkpt lat="48.40122676024639" lon="-4.601905838587221"><ele>59.833333333333336</ele><time>2026-04-18T16:14:30Z</time></trkpt><trkpt lat="48.401225810165485" lon="-4.60201677699755"><ele>60.0</ele><time>2026-04-18T16:14:32Z</time></trkpt><trkpt lat="48.401227547962456" lon="-4.60212087846362"><ele>60.28571428571429</ele><time>2026-04-18T16:14:34Z</time></trkpt><trkpt lat="48.40123110232029" lon="-4.602226086088681"><ele>60.57142857142857</ele><time>2026-04-18T16:14:36Z</time></trkpt><trkpt lat="48.40123763013696" lon="-4.60233634141305"><ele>60.85714285714286</ele><time>2026-04-18T16:14:38Z</time></trkpt><trkpt lat="48.401227067430554" lon="-4.6024435063405456"><ele>61.142857142857146</ele><time>2026-04-18T16:14:40Z</time></trkpt><trkpt lat="48.401227912712365" lon="-4.6025487474818565"><ele>61.42857142857143</ele><time>2026-04-18T16:14:41.999Z</time></trkpt><trkpt lat="48.40122608546486" lon="-4.602660773238572"><ele>61.714285714285715</ele><time>2026-04-18T16:14:43.999Z</time></trkpt><trkpt lat="48.40122297290316" lon="-4.602769685974952"><ele>62.0</ele><time>2026-04-18T16:14:46.999Z</time></trkpt><trkpt lat="48.40122699806246" lon="-4.602879108448423"><ele>62.333333333333336</ele><time>2026-04-18T16:14:49.999Z</time></trkpt><trkpt lat="48.40122081269953" lon="-4.6029940009529025"><ele>62.66666666666667</ele><time>2026-04-18T16:14:52.999Z</time></trkpt><trkpt lat="48.40122628346635" lon="-4.603091813984014"><ele>63.0</ele><time>2026-04-18T16:14:54.999Z</time></trkpt><trkpt lat="48.40122380171968" lon="-4.603261067404593"><ele>63.33333333333333</ele><time>2026-04-18T16:14:56.999Z</time></trkpt><trkpt lat="48.40122827323458" lon="-4.6033859677919375"><ele>63.666666666666664</ele><time>2026-04-18T16:14:58.999Z</time></trkpt><trkpt lat="48.40123626428099" lon="-4.603508079924586"><ele>64.0</ele><time>2026-04-18T16:15:00.999Z</time></trkpt><trkpt lat="48.40123969018921" lon="-4.603628557281186"><ele>64.33333333333333</ele><time>2026-04-18T16:15:02.999Z</time></trkpt><trkpt lat="48.4012409177307" lon="-4.603756263648453"><ele>64.66666666666666</ele><time>2026-04-18T16:15:04.999Z</time></trkpt><trkpt lat="48.40123956400683" lon="-4.603875782570215"><ele>65.0</ele><time>2026-04-18T16:15:06.999Z</time></trkpt><trkpt lat="48.401243405286706" lon="-4.603986054493194"><ele>65.33333333333333</ele><time>2026-04-18T16:15:08.999Z</time></trkpt><trkpt lat="48.40124300650122" lon="-4.6041038593280135"><ele>65.66666666666667</ele><time>2026-04-18T16:15:10.999Z</time></trkpt><trkpt lat="48.401245301383035" lon="-4.6042066213575294"><ele>66.0</ele><time>2026-04-18T16:15:12.999Z</time></trkpt><trkpt lat="48.401247732843" lon="-4.604311602321151"><ele>66.0</ele><time>2026-04-18T16:15:14.999Z</time></trkpt><trkpt lat="48.40125188101238" lon="-4.604414599600833"><ele>66.0</ele><time>2026-04-18T16:15:16.999Z</time></trkpt><trkpt lat="48.40125526089184" lon="-4.604511568556477"><ele>66.0</ele><time>2026-04-18T16:15:18.999Z</time></trkpt><trkpt lat="48.40126196873931" lon="-4.604613015965373"><ele>66.0</ele><time>2026-04-18T16:15:20.999Z</time></trkpt><trkpt lat="48.40126905442379" lon="-4.604710058059458"><ele>66.0</ele><time>2026-04-18T16:15:22.999Z</time></trkpt><trkpt lat="48.401268813213306" lon="-4.604808605008517"><ele>66.0</ele><time>2026-04-18T16:15:24.999Z</time></trkpt><trkpt lat="48.40127329771517" lon="-4.6049136254250955"><ele>66.0</ele><time>2026-04-18T16:15:26.999Z</time></trkpt><trkpt lat="48.401274598885514" lon="-4.605013692121884"><ele>66.16666666666667</ele><time>2026-04-18T16:15:28.999Z</time></trkpt><trkpt lat="48.40128259471613" lon="-4.60515775421943"><ele>66.33333333333333</ele><time>2026-04-18T16:15:31.999Z</time></trkpt><trkpt lat="48.40129451725036" lon="-4.605301372647321"><ele>66.5</ele><time>2026-04-18T16:15:34.999Z</time></trkpt><trkpt lat="48.40129495890351" lon="-4.605396728574627"><ele>66.66666666666666</ele><time>2026-04-18T16:15:36.999Z</time></trkpt><trkpt lat="48.40129591172982" lon="-4.605499995735741"><ele>66.83333333333333</ele><time>2026-04-18T16:15:39Z</time></trkpt><trkpt lat="48.40130039027736" lon="-4.605596998651804"><ele>67.0</ele><time>2026-04-18T16:15:41Z</time></trkpt><trkpt lat="48.40130235237902" lon="-4.605738376961535"><ele>67.33333333333333</ele><time>2026-04-18T16:15:44Z</time></trkpt><trkpt lat="48.40129846867867" lon="-4.605873176288721"><ele>67.66666666666666</ele><time>2026-04-18T16:15:47Z</time></trkpt><trkpt lat="48.401311168722735" lon="-4.605978584208104"><ele>68.0</ele><time>2026-04-18T16:15:49Z</time></trkpt><trkpt lat="48.40130992692422" lon="-4.606084157931489"><ele>68.33333333333333</ele><time>2026-04-18T16:15:51Z</time></trkpt><trkpt lat="48.40131415107796" lon="-4.6062196665309925"><ele>68.66666666666667</ele><time>2026-04-18T16:15:54Z</time></trkpt><trkpt lat="48.40131956612495" lon="-4.606322782136342"><ele>69.0</ele><time>2026-04-18T16:15:56Z</time></trkpt><trkpt lat="48.40132015503409" lon="-4.606463340563898"><ele>69.16666666666667</ele><time>2026-04-18T16:15:59Z</time></trkpt><trkpt lat="48.4013369505053" lon="-4.60660233298799"><ele>69.33333333333333</ele><time>2026-04-18T16:16:02Z</time></trkpt><trkpt lat="48.40133042852316" lon="-4.60673693214869"><ele>69.5</ele><time>2026-04-18T16:16:05Z</time></trkpt><trkpt lat="48.40134966365447" lon="-4.606890570414105"><ele>69.66666666666666</ele><time>2026-04-18T16:16:08Z</time></trkpt><trkpt lat="48.401349399596604" lon="-4.607024403734428"><ele>69.83333333333333</ele><time>2026-04-18T16:16:11Z</time></trkpt><trkpt lat="48.40135471132467" lon="-4.607122289650884"><ele>70.0</ele><time>2026-04-18T16:16:13Z</time></trkpt><trkpt lat="48.40135411183247" lon="-4.6072584449065195"><ele>70.16666666666666</ele><time>2026-04-18T16:16:16Z</time></trkpt><trkpt lat="48.40136885272059" lon="-4.6073918074098055"><ele>70.33333333333333</ele><time>2026-04-18T16:16:19Z</time></trkpt><trkpt lat="48.40137236444934" lon="-4.607528062646242"><ele>70.5</ele><time>2026-04-18T16:16:22Z</time></trkpt><trkpt lat="48.40137512982063" lon="-4.607657575382838"><ele>70.66666666666667</ele><time>2026-04-18T16:16:25Z</time></trkpt><trkpt lat="48.40138226348341" lon="-4.607754421714117"><ele>70.83333333333334</ele><time>2026-04-18T16:16:27Z</time></trkpt><trkpt lat="48.40138276550067" lon="-4.607849447162914"><ele>71.0</ele><time>2026-04-18T16:16:29Z</time></trkpt><trkpt lat="48.401386962253895" lon="-4.607992264112776"><ele>71.16666666666667</ele><time>2026-04-18T16:16:32Z</time></trkpt><trkpt lat="48.40139401055412" lon="-4.608126919127204"><ele>71.33333333333334</ele><time>2026-04-18T16:16:35Z</time></trkpt><trkpt lat="48.401392088519216" lon="-4.608273379558331"><ele>71.5</ele><time>2026-04-18T16:16:38Z</time></trkpt><trkpt lat="48.40139217875414" lon="-4.608371550657534"><ele>71.66666666666667</ele><time>2026-04-18T16:16:40Z</time></trkpt><trkpt lat="48.40139822513277" lon="-4.6084715423803075"><ele>71.83333333333333</ele><time>2026-04-18T16:16:42Z</time></trkpt><trkpt lat="48.4013981785033" lon="-4.608612950463817"><ele>72.0</ele><time>2026-04-18T16:16:45Z</time></trkpt><trkpt lat="48.4014073613466" lon="-4.608708742124584"><ele>72.00000000000001</ele><time>2026-04-18T16:16:47Z</time></trkpt><trkpt lat="48.40140354838274" lon="-4.6088107491248"><ele>72.0</ele><time>2026-04-18T16:16:48.999Z</time></trkpt><trkpt lat="48.401410285649376" lon="-4.608916629528752"><ele>72.0</ele><time>2026-04-18T16:16:50.999Z</time></trkpt><trkpt lat="48.40141093867132" lon="-4.609015190215873"><ele>72.0</ele><time>2026-04-18T16:16:52.999Z</time></trkpt><trkpt lat="48.401415815847464" lon="-4.609113446605057"><ele>72.0</ele><time>2026-04-18T16:16:54.999Z</time></trkpt><trkpt lat="48.40142993512525" lon="-4.609256665568245"><ele>72.00000000000001</ele><time>2026-04-18T16:16:57.999Z</time></trkpt><trkpt lat="48.401430445279146" lon="-4.609359954813923"><ele>72.0</ele><time>2026-04-18T16:16:59.999Z</time></trkpt><trkpt lat="48.40143563134639" lon="-4.609463579056331"><ele>72.16666666666667</ele><time>2026-04-18T16:17:01.999Z</time></trkpt><trkpt lat="48.40143805781244" lon="-4.609607202134213"><ele>72.33333333333333</ele><time>2026-04-18T16:17:04.999Z</time></trkpt><trkpt lat="48.40145519042422" lon="-4.609723986797606"><ele>72.5</ele><time>2026-04-18T16:17:06.999Z</time></trkpt><trkpt lat="48.40145523081251" lon="-4.60982558632347"><ele>72.66666666666666</ele><time>2026-04-18T16:17:08.999Z</time></trkpt><trkpt lat="48.40145398616078" lon="-4.609922281609369"><ele>72.83333333333333</ele><time>2026-04-18T16:17:10.999Z</time></trkpt><trkpt lat="48.401462075732994" lon="-4.610035358116235"><ele>73.0</ele><time>2026-04-18T16:17:12.999Z</time></trkpt><trkpt lat="48.401470969740664" lon="-4.610141505103314"><ele>73.0</ele><time>2026-04-18T16:17:14.999Z</time></trkpt><trkpt lat="48.40147497815972" lon="-4.610250968282212"><ele>73.0</ele><time>2026-04-18T16:17:16.999Z</time></trkpt><trkpt lat="48.401489092218995" lon="-4.610349481721811"><ele>73.0</ele><time>2026-04-18T16:17:18.999Z</time></trkpt><trkpt lat="48.40150335327878" lon="-4.610463921067808"><ele>73.0</ele><time>2026-04-18T16:17:21.999Z</time></trkpt><trkpt lat="48.40150806626032" lon="-4.610566807242888"><ele>73.0</ele><time>2026-04-18T16:17:23.999Z</time></trkpt><trkpt lat="48.4015161836806" lon="-4.610677166592916"><ele>73.0</ele><time>2026-04-18T16:17:25.999Z</time></trkpt><trkpt lat="48.40153031026295" lon="-4.610779568497366"><ele>73.0</ele><time>2026-04-18T16:17:27.999Z</time></trkpt><trkpt lat="48.40155558567304" lon="-4.610879498684836"><ele>73.42857142857143</ele><time>2026-04-18T16:17:29.999Z</time></trkpt><trkpt lat="48.40158324909624" lon="-4.610984460549351"><ele>73.85714285714286</ele><time>2026-04-18T16:17:31.999Z</time></trkpt><trkpt lat="48.40160285975762" lon="-4.611084586711171"><ele>74.28571428571428</ele><time>2026-04-18T16:17:33.999Z</time></trkpt><trkpt lat="48.401617883837886" lon="-4.611182140884486"><ele>74.71428571428572</ele><time>2026-04-18T16:17:35.999Z</time></trkpt><trkpt lat="48.401643372006085" lon="-4.6112823534001945"><ele>75.14285714285715</ele><time>2026-04-18T16:17:37.999Z</time></trkpt><trkpt lat="48.40166224754598" lon="-4.611377150311759"><ele>75.57142857142857</ele><time>2026-04-18T16:17:39.999Z</time></trkpt><trkpt lat="48.40168294812154" lon="-4.611510636614488"><ele>76.0</ele><time>2026-04-18T16:17:42.999Z</time></trkpt><trkpt lat="48.40171140513352" lon="-4.611605824765415"><ele>76.5</ele><time>2026-04-18T16:17:45Z</time></trkpt><trkpt lat="48.40173093678032" lon="-4.61169716571877"><ele>77.0</ele><time>2026-04-18T16:17:47Z</time></trkpt><trkpt lat="48.4017452183337" lon="-4.611840076205249"><ele>77.5</ele><time>2026-04-18T16:17:50Z</time></trkpt><trkpt lat="48.401772902492894" lon="-4.611976708506309"><ele>78.0</ele><time>2026-04-18T16:17:53Z</time></trkpt><trkpt lat="48.40180129614652" lon="-4.612077405055923"><ele>78.5</ele><time>2026-04-18T16:17:55Z</time></trkpt><trkpt lat="48.40182575459141" lon="-4.61217271178036"><ele>79.0</ele><time>2026-04-18T16:17:57Z</time></trkpt><trkpt lat="48.40185295193441" lon="-4.612269742339034"><ele>79.16666666666666</ele><time>2026-04-18T16:17:59Z</time></trkpt><trkpt lat="48.401876479671685" lon="-4.612381172118069"><ele>79.33333333333333</ele><time>2026-04-18T16:18:01Z</time></trkpt><trkpt lat="48.40189587178667" lon="-4.612485969889817"><ele>79.5</ele><time>2026-04-18T16:18:03Z</time></trkpt><trkpt lat="48.401924314154456" lon="-4.6126267921490856"><ele>79.66666666666667</ele><time>2026-04-18T16:18:07Z</time></trkpt><trkpt lat="48.401948454934995" lon="-4.612776140508375"><ele>79.83333333333334</ele><time>2026-04-18T16:18:09Z</time></trkpt><trkpt lat="48.401966707809926" lon="-4.612881491482442"><ele>80.0</ele><time>2026-04-18T16:18:11Z</time></trkpt><trkpt lat="48.4019898963108" lon="-4.612975967050044"><ele>80.14285714285714</ele><time>2026-04-18T16:18:13Z</time></trkpt><trkpt lat="48.40200502849761" lon="-4.613068348484605"><ele>80.28571428571429</ele><time>2026-04-18T16:18:15Z</time></trkpt><trkpt lat="48.40203143965566" lon="-4.613170234873164"><ele>80.42857142857143</ele><time>2026-04-18T16:18:17Z</time></trkpt><trkpt lat="48.402053799730176" lon="-4.613272365601938"><ele>80.57142857142857</ele><time>2026-04-18T16:18:19Z</time></trkpt><trkpt lat="48.40207560782921" lon="-4.613369121870888"><ele>80.71428571428571</ele><time>2026-04-18T16:18:21Z</time></trkpt><trkpt lat="48.40210512111779" lon="-4.613472799614158"><ele>80.85714285714286</ele><time>2026-04-18T16:18:23Z</time></trkpt><trkpt lat="48.402131391917905" lon="-4.613573785220779"><ele>81.0</ele><time>2026-04-18T16:18:25Z</time></trkpt><trkpt lat="48.40215469854931" lon="-4.61367168532123"><ele>81.42857142857143</ele><time>2026-04-18T16:18:27Z</time></trkpt><trkpt lat="48.40217530270063" lon="-4.6137716718911195"><ele>81.85714285714286</ele><time>2026-04-18T16:18:29Z</time></trkpt><trkpt lat="48.40219538955186" lon="-4.613872111314826"><ele>82.28571428571428</ele><time>2026-04-18T16:18:31Z</time></trkpt><trkpt lat="48.402213466565684" lon="-4.61397436310237"><ele>82.71428571428572</ele><time>2026-04-18T16:18:33Z</time></trkpt><trkpt lat="48.40223945824293" lon="-4.61407305921034"><ele>83.14285714285714</ele><time>2026-04-18T16:18:35Z</time></trkpt><trkpt lat="48.4022551007404" lon="-4.614181464890491"><ele>83.57142857142857</ele><time>2026-04-18T16:18:37Z</time></trkpt><trkpt lat="48.402288128762706" lon="-4.6142829752095595"><ele>84.0</ele><time>2026-04-18T16:18:39Z</time></trkpt><trkpt lat="48.40230204209042" lon="-4.614402965218559"><ele>84.16666666666667</ele><time>2026-04-18T16:18:43Z</time></trkpt><trkpt lat="48.402331381014484" lon="-4.614522679612348"><ele>84.33333333333333</ele><time>2026-04-18T16:18:46Z</time></trkpt><trkpt lat="48.40234454810752" lon="-4.614629031847528"><ele>84.5</ele><time>2026-04-18T16:18:48Z</time></trkpt><trkpt lat="48.40235556182798" lon="-4.614737857948406"><ele>84.66666666666666</ele><time>2026-04-18T16:18:51Z</time></trkpt><trkpt lat="48.40239373150968" lon="-4.61485800731847"><ele>84.83333333333333</ele><time>2026-04-18T16:18:53.999Z</time></trkpt><trkpt lat="48.4024112035277" lon="-4.6149876914480075"><ele>85.0</ele><time>2026-04-18T16:18:55.999Z</time></trkpt><trkpt lat="48.402440233861235" lon="-4.61511066826289"><ele>85.0</ele><time>2026-04-18T16:18:57.999Z</time></trkpt><trkpt lat="48.402467131989795" lon="-4.615213625971098"><ele>85.0</ele><time>2026-04-18T16:18:59.999Z</time></trkpt><trkpt lat="48.402494202835804" lon="-4.615328624208433"><ele>85.0</ele><time>2026-04-18T16:19:01.999Z</time></trkpt><trkpt lat="48.40251607352579" lon="-4.615439663642659"><ele>85.0</ele><time>2026-04-18T16:19:03.999Z</time></trkpt><trkpt lat="48.40254924995055" lon="-4.615540850541465"><ele>85.0</ele><time>2026-04-18T16:19:05.999Z</time></trkpt><trkpt lat="48.40256016338794" lon="-4.61567816932041"><ele>85.0</ele><time>2026-04-18T16:19:08.999Z</time></trkpt><trkpt lat="48.40260058347143" lon="-4.615792034551113"><ele>84.83333333333333</ele><time>2026-04-18T16:19:11.999Z</time></trkpt><trkpt lat="48.402615484586484" lon="-4.615893572327631"><ele>84.66666666666666</ele><time>2026-04-18T16:19:13.999Z</time></trkpt><trkpt lat="48.402636842746965" lon="-4.616000569086579"><ele>84.5</ele><time>2026-04-18T16:19:15.999Z</time></trkpt><trkpt lat="48.40265606718816" lon="-4.616112420870226"><ele>84.33333333333333</ele><time>2026-04-18T16:19:17.999Z</time></trkpt><trkpt lat="48.40268173003401" lon="-4.6162196979676695"><ele>84.16666666666667</ele><time>2026-04-18T16:19:19.999Z</time></trkpt><trkpt lat="48.4027104472087" lon="-4.616336242621961"><ele>84.0</ele><time>2026-04-18T16:19:21.999Z</time></trkpt><trkpt lat="48.402738681776604" lon="-4.61646442032119"><ele>83.83333333333333</ele><time>2026-04-18T16:19:23.999Z</time></trkpt><trkpt lat="48.402745239732894" lon="-4.616588283183287"><ele>83.66666666666667</ele><time>2026-04-18T16:19:25.999Z</time></trkpt><trkpt lat="48.40277172683267" lon="-4.616704965038531"><ele>83.5</ele><time>2026-04-18T16:19:27.999Z</time></trkpt><trkpt lat="48.402787582219666" lon="-4.616837997463297"><ele>83.33333333333334</ele><time>2026-04-18T16:19:29.999Z</time></trkpt><trkpt lat="48.40279160832237" lon="-4.616972032372755"><ele>83.16666666666667</ele><time>2026-04-18T16:19:31.999Z</time></trkpt><trkpt lat="48.402785625998185" lon="-4.617098133005151"><ele>83.0</ele><time>2026-04-18T16:19:33.999Z</time></trkpt><trkpt lat="48.40279612024914" lon="-4.6172262365848225"><ele>82.4</ele><time>2026-04-18T16:19:35.999Z</time></trkpt><trkpt lat="48.40279144188363" lon="-4.617372616518056"><ele>81.80000000000001</ele><time>2026-04-18T16:19:37.999Z</time></trkpt><trkpt lat="48.402787091329415" lon="-4.617521581526537"><ele>81.2</ele><time>2026-04-18T16:19:39.999Z</time></trkpt><trkpt lat="48.40278514986716" lon="-4.617675068345832"><ele>80.6</ele><time>2026-04-18T16:19:41.999Z</time></trkpt><trkpt lat="48.40279428056287" lon="-4.617822535460281"><ele>80.0</ele><time>2026-04-18T16:19:43.999Z</time></trkpt><trkpt lat="48.402840116372026" lon="-4.617899390394364"><ele>79.6</ele><time>2026-04-18T16:19:44.999Z</time></trkpt><trkpt lat="48.40283803989958" lon="-4.618064923508806"><ele>79.2</ele><time>2026-04-18T16:19:46.999Z</time></trkpt><trkpt lat="48.40283579498062" lon="-4.618243884778604"><ele>78.8</ele><time>2026-04-18T16:19:48.999Z</time></trkpt><trkpt lat="48.40283447085566" lon="-4.618349441756086"><ele>78.4</ele><time>2026-04-18T16:19:51Z</time></trkpt><trkpt lat="48.40276429430871" lon="-4.618415760396675"><ele>78.0</ele><time>2026-04-18T16:20:12Z</time></trkpt><trkpt lat="48.40268292595544" lon="-4.61845612395237"><ele>78.0</ele><time>2026-04-18T16:20:15Z</time></trkpt><trkpt lat="48.40259794643449" lon="-4.618416061908056"><ele>78.0</ele><time>2026-04-18T16:20:18Z</time></trkpt><trkpt lat="48.402531341116344" lon="-4.61840237543415"><ele>78.0</ele><time>2026-04-18T16:20:20Z</time></trkpt><trkpt lat="48.402453614099564" lon="-4.6183879595419155"><ele>78.0</ele><time>2026-04-18T16:20:22Z</time></trkpt><trkpt lat="48.40238057296013" lon="-4.6183827193624705"><ele>78.0</ele><time>2026-04-18T16:20:24Z</time></trkpt><trkpt lat="48.402297938475456" lon="-4.618376150436958"><ele>78.0</ele><time>2026-04-18T16:20:26Z</time></trkpt><trkpt lat="48.402212159662746" lon="-4.61837252334606"><ele>78.0</ele><time>2026-04-18T16:20:28Z</time></trkpt><trkpt lat="48.40212173650754" lon="-4.61837269597858"><ele>78.0</ele><time>2026-04-18T16:20:30Z</time></trkpt><trkpt lat="48.40202616613196" lon="-4.61836870389707"><ele>78.0</ele><time>2026-04-18T16:20:32Z</time></trkpt><trkpt lat="48.40192857421654" lon="-4.618357196145543"><ele>78.0</ele><time>2026-04-18T16:20:34Z</time></trkpt><trkpt lat="48.401837718339124" lon="-4.618352481929192"><ele>78.0</ele><time>2026-04-18T16:20:36Z</time></trkpt><trkpt lat="48.40173557859114" lon="-4.618350168939175"><ele>78.0</ele><time>2026-04-18T16:20:38Z</time></trkpt><trkpt lat="48.40163680942628" lon="-4.618351781611286"><ele>78.0</ele><time>2026-04-18T16:20:40Z</time></trkpt><trkpt lat="48.40153114367084" lon="-4.618345860584685"><ele>78.0</ele><time>2026-04-18T16:20:42Z</time></trkpt><trkpt lat="48.40143228676668" lon="-4.618350097017672"><ele>78.0</ele><time>2026-04-18T16:20:44Z</time></trkpt><trkpt lat="48.40133181198192" lon="-4.618354685695529"><ele>78.0</ele><time>2026-04-18T16:20:46Z</time></trkpt><trkpt lat="48.401238506055584" lon="-4.6183471824090025"><ele>77.8</ele><time>2026-04-18T16:20:48Z</time></trkpt><trkpt lat="48.40113186750923" lon="-4.618346952594059"><ele>77.6</ele><time>2026-04-18T16:20:50Z</time></trkpt><trkpt lat="48.4010233252827" lon="-4.6183355309127565"><ele>77.4</ele><time>2026-04-18T16:20:52Z</time></trkpt><trkpt lat="48.40091136636903" lon="-4.618330822673088"><ele>77.2</ele><time>2026-04-18T16:20:54Z</time></trkpt><trkpt lat="48.40079619722664" lon="-4.6183251791110695"><ele>77.0</ele><time>2026-04-18T16:20:56Z</time></trkpt><trkpt lat="48.400684812798985" lon="-4.618319267783945"><ele>77.0</ele><time>2026-04-18T16:20:57.999Z</time></trkpt><trkpt lat="48.40056841660595" lon="-4.61831819114317"><ele>77.0</ele><time>2026-04-18T16:20:59.999Z</time></trkpt><trkpt lat="48.400455101271326" lon="-4.618319447394846"><ele>77.0</ele><time>2026-04-18T16:21:01.999Z</time></trkpt><trkpt lat="48.40033832284152" lon="-4.61831763759209"><ele>77.0</ele><time>2026-04-18T16:21:03.999Z</time></trkpt><trkpt lat="48.400214016056985" lon="-4.61831667048575"><ele>76.8</ele><time>2026-04-18T16:21:05.999Z</time></trkpt><trkpt lat="48.400087122369925" lon="-4.618307862307776"><ele>76.6</ele><time>2026-04-18T16:21:07.999Z</time></trkpt><trkpt lat="48.399957949395926" lon="-4.618302468671148"><ele>76.39999999999999</ele><time>2026-04-18T16:21:09.999Z</time></trkpt><trkpt lat="48.399894801625535" lon="-4.618289122270068"><ele>76.2</ele><time>2026-04-18T16:21:10.999Z</time></trkpt><trkpt lat="48.39983001136843" lon="-4.618280575019019"><ele>76.0</ele><time>2026-04-18T16:21:11.999Z</time></trkpt><trkpt lat="48.39976449353326" lon="-4.618269739163322"><ele>76.0</ele><time>2026-04-18T16:21:12.999Z</time></trkpt><trkpt lat="48.3997004086192" lon="-4.618251488247814"><ele>76.0</ele><time>2026-04-18T16:21:13.999Z</time></trkpt><trkpt lat="48.39963257918702" lon="-4.618238427060798"><ele>76.0</ele><time>2026-04-18T16:21:14.999Z</time></trkpt><trkpt lat="48.39956544722399" lon="-4.618221922590075"><ele>76.0</ele><time>2026-04-18T16:21:15.999Z</time></trkpt><trkpt lat="48.39949947250227" lon="-4.618207102512084"><ele>76.0</ele><time>2026-04-18T16:21:16.999Z</time></trkpt><trkpt lat="48.39943321991795" lon="-4.61818592216567"><ele>76.0</ele><time>2026-04-18T16:21:17.999Z</time></trkpt><trkpt lat="48.399363653295005" lon="-4.618162360709111"><ele>76.0</ele><time>2026-04-18T16:21:18.999Z</time></trkpt><trkpt lat="48.39930142407682" lon="-4.618136163798878"><ele>75.85714285714285</ele><time>2026-04-18T16:21:19.999Z</time></trkpt><trkpt lat="48.39922986965741" lon="-4.618121393329702"><ele>75.71428571428572</ele><time>2026-04-18T16:21:20.999Z</time></trkpt><trkpt lat="48.399162933422204" lon="-4.618096747728867"><ele>75.57142857142857</ele><time>2026-04-18T16:21:21.999Z</time></trkpt><trkpt lat="48.39909328565026" lon="-4.618069214108891"><ele>75.42857142857142</ele><time>2026-04-18T16:21:22.999Z</time></trkpt><trkpt lat="48.399025636041976" lon="-4.618044045386566"><ele>75.28571428571428</ele><time>2026-04-18T16:21:23.999Z</time></trkpt><trkpt lat="48.39895803536819" lon="-4.618018430094083"><ele>75.14285714285714</ele><time>2026-04-18T16:21:24.999Z</time></trkpt><trkpt lat="48.398891018327056" lon="-4.617991350788099"><ele>75.0</ele><time>2026-04-18T16:21:25.999Z</time></trkpt><trkpt lat="48.39881234341929" lon="-4.617964130525638"><ele>74.83333333333333</ele><time>2026-04-18T16:21:26.999Z</time></trkpt><trkpt lat="48.39874009835011" lon="-4.6179374529681425"><ele>74.66666666666667</ele><time>2026-04-18T16:21:27.999Z</time></trkpt><trkpt lat="48.39866697331191" lon="-4.617902666198042"><ele>74.5</ele><time>2026-04-18T16:21:28.999Z</time></trkpt><trkpt lat="48.398589298190196" lon="-4.617871338142"><ele>74.33333333333334</ele><time>2026-04-18T16:21:29.999Z</time></trkpt><trkpt lat="48.39850867571292" lon="-4.6178476381666185"><ele>74.16666666666667</ele><time>2026-04-18T16:21:30.999Z</time></trkpt><trkpt lat="48.3984300662786" lon="-4.617821162334948"><ele>74.0</ele><time>2026-04-18T16:21:31.999Z</time></trkpt><trkpt lat="48.39835482389497" lon="-4.6177892069274815"><ele>74.0</ele><time>2026-04-18T16:21:32.999Z</time></trkpt><trkpt lat="48.39827827131163" lon="-4.617760048200701"><ele>74.0</ele><time>2026-04-18T16:21:33.999Z</time></trkpt><trkpt lat="48.3981985243032" lon="-4.617729010167422"><ele>74.0</ele><time>2026-04-18T16:21:34.999Z</time></trkpt><trkpt lat="48.39811689994222" lon="-4.6176940595664435"><ele>74.0</ele><time>2026-04-18T16:21:35.999Z</time></trkpt><trkpt lat="48.398038556016154" lon="-4.6176699554844545"><ele>74.0</ele><time>2026-04-18T16:21:36.999Z</time></trkpt><trkpt lat="48.39795316008016" lon="-4.617637049096979"><ele>74.0</ele><time>2026-04-18T16:21:37.999Z</time></trkpt><trkpt lat="48.397871913136335" lon="-4.617607859707847"><ele>73.33333333333334</ele><time>2026-04-18T16:21:38.999Z</time></trkpt><trkpt lat="48.39778896910172" lon="-4.617582697619135"><ele>72.66666666666667</ele><time>2026-04-18T16:21:39.999Z</time></trkpt><trkpt lat="48.3977132224652" lon="-4.6175511526623065"><ele>72.0</ele><time>2026-04-18T16:21:40.999Z</time></trkpt><trkpt lat="48.39762782064362" lon="-4.617524428155377"><ele>71.33333333333333</ele><time>2026-04-18T16:21:41.999Z</time></trkpt><trkpt lat="48.397551039246345" lon="-4.617502201877408"><ele>70.66666666666666</ele><time>2026-04-18T16:21:42.999Z</time></trkpt><trkpt lat="48.39747733000847" lon="-4.617471455106689"><ele>70.0</ele><time>2026-04-18T16:21:43.999Z</time></trkpt><trkpt lat="48.39740235013604" lon="-4.617449629617603"><ele>70.0</ele><time>2026-04-18T16:21:44.999Z</time></trkpt><trkpt lat="48.39732668553489" lon="-4.617420688169554"><ele>70.0</ele><time>2026-04-18T16:21:45.999Z</time></trkpt><trkpt lat="48.39725008063574" lon="-4.617397806247779"><ele>70.0</ele><time>2026-04-18T16:21:46.999Z</time></trkpt><trkpt lat="48.397172587592465" lon="-4.6173694441608895"><ele>70.0</ele><time>2026-04-18T16:21:47.999Z</time></trkpt><trkpt lat="48.39709842642867" lon="-4.617340838318517"><ele>70.0</ele><time>2026-04-18T16:21:48.999Z</time></trkpt><trkpt lat="48.39702020773541" lon="-4.617313537164081"><ele>70.0</ele><time>2026-04-18T16:21:49.999Z</time></trkpt><trkpt lat="48.39694343132399" lon="-4.617286293169612"><ele>69.83333333333333</ele><time>2026-04-18T16:21:50.999Z</time></trkpt><trkpt lat="48.396867453054035" lon="-4.617258212502474"><ele>69.66666666666666</ele><time>2026-04-18T16:21:51.999Z</time></trkpt><trkpt lat="48.396788776319475" lon="-4.617235509939519"><ele>69.5</ele><time>2026-04-18T16:21:52.999Z</time></trkpt><trkpt lat="48.396710948843825" lon="-4.617212002327792"><ele>69.33333333333333</ele><time>2026-04-18T16:21:53.999Z</time></trkpt><trkpt lat="48.396635971109895" lon="-4.6171719182426845"><ele>69.16666666666667</ele><time>2026-04-18T16:21:54.999Z</time></trkpt><trkpt lat="48.39656546891315" lon="-4.617143236274608"><ele>69.0</ele><time>2026-04-18T16:21:55.999Z</time></trkpt><trkpt lat="48.396490552732146" lon="-4.617125007805828"><ele>69.0</ele><time>2026-04-18T16:21:57Z</time></trkpt><trkpt lat="48.39641666384109" lon="-4.617092830153808"><ele>69.0</ele><time>2026-04-18T16:21:58Z</time></trkpt><trkpt lat="48.3963408023716" lon="-4.617066419751638"><ele>69.0</ele><time>2026-04-18T16:21:59Z</time></trkpt><trkpt lat="48.39626686660197" lon="-4.617033119959048"><ele>69.0</ele><time>2026-04-18T16:22:00Z</time></trkpt><trkpt lat="48.39618862885538" lon="-4.617009472596493"><ele>69.0</ele><time>2026-04-18T16:22:01Z</time></trkpt><trkpt lat="48.39610894370629" lon="-4.61698455051235"><ele>69.0</ele><time>2026-04-18T16:22:02Z</time></trkpt><trkpt lat="48.39603677495032" lon="-4.6169528829933535"><ele>69.28571428571429</ele><time>2026-04-18T16:22:03Z</time></trkpt><trkpt lat="48.39596315605489" lon="-4.616924372988825"><ele>69.57142857142858</ele><time>2026-04-18T16:22:04Z</time></trkpt><trkpt lat="48.39588935227905" lon="-4.616897575849111"><ele>69.85714285714286</ele><time>2026-04-18T16:22:05Z</time></trkpt><trkpt lat="48.39581753303918" lon="-4.616868776479571"><ele>70.14285714285714</ele><time>2026-04-18T16:22:06Z</time></trkpt><trkpt lat="48.39574774847474" lon="-4.6168389174866045"><ele>70.42857142857142</ele><time>2026-04-18T16:22:07Z</time></trkpt><trkpt lat="48.395683251848546" lon="-4.616802778638442"><ele>70.71428571428571</ele><time>2026-04-18T16:22:08Z</time></trkpt><trkpt lat="48.39561166941042" lon="-4.616771873651221"><ele>71.0</ele><time>2026-04-18T16:22:09Z</time></trkpt><trkpt lat="48.39554069778829" lon="-4.616740253171924"><ele>71.14285714285714</ele><time>2026-04-18T16:22:10Z</time></trkpt><trkpt lat="48.39547419429949" lon="-4.61671586139157"><ele>71.28571428571428</ele><time>2026-04-18T16:22:11Z</time></trkpt><trkpt lat="48.395407335269624" lon="-4.616682709443297"><ele>71.42857142857143</ele><time>2026-04-18T16:22:12Z</time></trkpt><trkpt lat="48.395338930020976" lon="-4.616642696826583"><ele>71.57142857142857</ele><time>2026-04-18T16:22:13Z</time></trkpt><trkpt lat="48.395276625603294" lon="-4.61660938605423"><ele>71.71428571428572</ele><time>2026-04-18T16:22:14Z</time></trkpt><trkpt lat="48.39520761855354" lon="-4.616572613067709"><ele>71.85714285714286</ele><time>2026-04-18T16:22:15Z</time></trkpt><trkpt lat="48.39514284968895" lon="-4.616537253750693"><ele>72.0</ele><time>2026-04-18T16:22:16Z</time></trkpt><trkpt lat="48.39508104855134" lon="-4.616496556775516"><ele>72.0</ele><time>2026-04-18T16:22:17Z</time></trkpt><trkpt lat="48.39496438043149" lon="-4.616436282380161"><ele>72.0</ele><time>2026-04-18T16:22:19Z</time></trkpt><trkpt lat="48.39489931813371" lon="-4.616404492437496"><ele>72.0</ele><time>2026-04-18T16:22:20Z</time></trkpt><trkpt lat="48.39478474144361" lon="-4.616343466852471"><ele>72.0</ele><time>2026-04-18T16:22:22Z</time></trkpt><trkpt lat="48.39472366479164" lon="-4.616315144518966"><ele>72.0</ele><time>2026-04-18T16:22:23Z</time></trkpt><trkpt lat="48.39462075868962" lon="-4.616239437974553"><ele>72.4</ele><time>2026-04-18T16:22:25Z</time></trkpt><trkpt lat="48.394521357998784" lon="-4.6161771698395615"><ele>72.80000000000001</ele><time>2026-04-18T16:22:27Z</time></trkpt><trkpt lat="48.39441074932472" lon="-4.616125389354248"><ele>73.2</ele><time>2026-04-18T16:22:29Z</time></trkpt><trkpt lat="48.394309660873475" lon="-4.61606327748307"><ele>73.60000000000001</ele><time>2026-04-18T16:22:31Z</time></trkpt><trkpt lat="48.39420613001664" lon="-4.6160196866167125"><ele>74.0</ele><time>2026-04-18T16:22:33Z</time></trkpt><trkpt lat="48.39410936236936" lon="-4.615969894704897"><ele>74.2</ele><time>2026-04-18T16:22:35Z</time></trkpt><trkpt lat="48.394014283607994" lon="-4.615920217377152"><ele>74.4</ele><time>2026-04-18T16:22:37Z</time></trkpt><trkpt lat="48.39392605710994" lon="-4.61587165744053"><ele>74.6</ele><time>2026-04-18T16:22:39Z</time></trkpt><trkpt lat="48.393838484517" lon="-4.6158357834326145"><ele>74.8</ele><time>2026-04-18T16:22:41Z</time></trkpt><trkpt lat="48.39374893471897" lon="-4.615801461677064"><ele>75.0</ele><time>2026-04-18T16:22:43Z</time></trkpt><trkpt lat="48.39365287865545" lon="-4.61576154063281"><ele>75.2</ele><time>2026-04-18T16:22:45Z</time></trkpt><trkpt lat="48.39354406416737" lon="-4.615729324753455"><ele>75.4</ele><time>2026-04-18T16:22:47Z</time></trkpt><trkpt lat="48.39344538077471" lon="-4.615698725310025"><ele>75.6</ele><time>2026-04-18T16:22:49Z</time></trkpt><trkpt lat="48.3933430196036" lon="-4.615671158103154"><ele>75.8</ele><time>2026-04-18T16:22:51Z</time></trkpt><trkpt lat="48.39324127666814" lon="-4.61564335507507"><ele>76.0</ele><time>2026-04-18T16:22:53Z</time></trkpt><trkpt lat="48.393145616447825" lon="-4.615619072717915"><ele>76.0</ele><time>2026-04-18T16:22:55Z</time></trkpt><trkpt lat="48.39304675443886" lon="-4.6155997336282875"><ele>76.0</ele><time>2026-04-18T16:22:57Z</time></trkpt><trkpt lat="48.39294299977306" lon="-4.615591250016634"><ele>76.0</ele><time>2026-04-18T16:22:59Z</time></trkpt><trkpt lat="48.392840800694124" lon="-4.615589048701284"><ele>76.0</ele><time>2026-04-18T16:23:01Z</time></trkpt><trkpt lat="48.39273672284804" lon="-4.615584368524629"><ele>76.0</ele><time>2026-04-18T16:23:03Z</time></trkpt><trkpt lat="48.39263676774233" lon="-4.615584795166844"><ele>76.2</ele><time>2026-04-18T16:23:04.999Z</time></trkpt><trkpt lat="48.39252928409632" lon="-4.615593535390252"><ele>76.39999999999999</ele><time>2026-04-18T16:23:06.999Z</time></trkpt><trkpt lat="48.39242307373257" lon="-4.615607393800299"><ele>76.6</ele><time>2026-04-18T16:23:08.999Z</time></trkpt><trkpt lat="48.39232326082088" lon="-4.615620609081193"><ele>76.8</ele><time>2026-04-18T16:23:10.999Z</time></trkpt><trkpt lat="48.392222692511645" lon="-4.6156343453610775"><ele>77.0</ele><time>2026-04-18T16:23:12.999Z</time></trkpt><trkpt lat="48.39211865300436" lon="-4.61565125070681"><ele>77.4</ele><time>2026-04-18T16:23:14.999Z</time></trkpt><trkpt lat="48.39201388664127" lon="-4.615679592892459"><ele>77.80000000000001</ele><time>2026-04-18T16:23:16.999Z</time></trkpt><trkpt lat="48.39191021003465" lon="-4.615707165512948"><ele>78.2</ele><time>2026-04-18T16:23:18.999Z</time></trkpt><trkpt lat="48.39184700132458" lon="-4.615732292776174"><ele>78.60000000000001</ele><time>2026-04-18T16:23:19.999Z</time></trkpt><trkpt lat="48.39174220956176" lon="-4.615762739013938"><ele>79.0</ele><time>2026-04-18T16:23:21.999Z</time></trkpt><trkpt lat="48.391644619179395" lon="-4.615799611854262"><ele>79.0</ele><time>2026-04-18T16:23:23.999Z</time></trkpt><trkpt lat="48.39154141886224" lon="-4.615846732040705"><ele>79.0</ele><time>2026-04-18T16:23:25.999Z</time></trkpt><trkpt lat="48.39144265338865" lon="-4.615896578231525"><ele>79.0</ele><time>2026-04-18T16:23:27.999Z</time></trkpt><trkpt lat="48.3913324640587" lon="-4.6159516277427315"><ele>79.0</ele><time>2026-04-18T16:23:29.999Z</time></trkpt><trkpt lat="48.39121694871518" lon="-4.616008165620048"><ele>79.0</ele><time>2026-04-18T16:23:31.999Z</time></trkpt><trkpt lat="48.39110015276994" lon="-4.616077397112682"><ele>79.0</ele><time>2026-04-18T16:23:33.999Z</time></trkpt><trkpt lat="48.39103925322605" lon="-4.616102086116297"><ele>79.0</ele><time>2026-04-18T16:23:34.999Z</time></trkpt><trkpt lat="48.39092289581195" lon="-4.616163251686443"><ele>79.0</ele><time>2026-04-18T16:23:36.999Z</time></trkpt><trkpt lat="48.39080860141334" lon="-4.6162278712595395"><ele>79.0</ele><time>2026-04-18T16:23:38.999Z</time></trkpt><trkpt lat="48.39074368601919" lon="-4.616257921475648"><ele>79.0</ele><time>2026-04-18T16:23:39.999Z</time></trkpt><trkpt lat="48.390624209231596" lon="-4.616345670222804"><ele>79.0</ele><time>2026-04-18T16:23:41.999Z</time></trkpt><trkpt lat="48.39056165642575" lon="-4.616369989316733"><ele>79.0</ele><time>2026-04-18T16:23:42.999Z</time></trkpt><trkpt lat="48.39050251712519" lon="-4.616403371878229"><ele>79.0</ele><time>2026-04-18T16:23:43.999Z</time></trkpt><trkpt lat="48.39038514337131" lon="-4.616470027527575"><ele>79.0</ele><time>2026-04-18T16:23:45.999Z</time></trkpt><trkpt lat="48.39032584898812" lon="-4.616513250005274"><ele>78.33333333333333</ele><time>2026-04-18T16:23:46.999Z</time></trkpt><trkpt lat="48.39020246241516" lon="-4.616580386895941"><ele>77.66666666666666</ele><time>2026-04-18T16:23:48.999Z</time></trkpt><trkpt lat="48.390088760540785" lon="-4.616643015356363"><ele>77.0</ele><time>2026-04-18T16:23:50.999Z</time></trkpt><trkpt lat="48.390033516811016" lon="-4.616689038168665"><ele>76.33333333333333</ele><time>2026-04-18T16:23:51.999Z</time></trkpt><trkpt lat="48.389974066919436" lon="-4.616725407384285"><ele>75.66666666666667</ele><time>2026-04-18T16:23:52.999Z</time></trkpt><trkpt lat="48.389912529836955" lon="-4.616756970650696"><ele>75.0</ele><time>2026-04-18T16:23:53.999Z</time></trkpt><trkpt lat="48.38985143271064" lon="-4.616796820287242"><ele>74.99999999999999</ele><time>2026-04-18T16:23:54.999Z</time></trkpt><trkpt lat="48.38979367588627" lon="-4.616836016788474"><ele>75.0</ele><time>2026-04-18T16:23:55.999Z</time></trkpt><trkpt lat="48.38973484102705" lon="-4.616874185525224"><ele>75.0</ele><time>2026-04-18T16:23:56.999Z</time></trkpt><trkpt lat="48.38967591534822" lon="-4.616916766965789"><ele>75.0</ele><time>2026-04-18T16:23:57.999Z</time></trkpt><trkpt lat="48.38961309504301" lon="-4.616963292155607"><ele>75.0</ele><time>2026-04-18T16:23:58.999Z</time></trkpt><trkpt lat="48.389552142356344" lon="-4.617003079118154"><ele>74.99999999999999</ele><time>2026-04-18T16:23:59.999Z</time></trkpt><trkpt lat="48.38948964407041" lon="-4.617050050807722"><ele>75.0</ele><time>2026-04-18T16:24:00.999Z</time></trkpt><trkpt lat="48.38942568242329" lon="-4.617100698577861"><ele>74.99999999999999</ele><time>2026-04-18T16:24:01.999Z</time></trkpt><trkpt lat="48.3893628329085" lon="-4.6171505794559025"><ele>75.0</ele><time>2026-04-18T16:24:03Z</time></trkpt><trkpt lat="48.389299952065194" lon="-4.617203710098045"><ele>75.0</ele><time>2026-04-18T16:24:04Z</time></trkpt><trkpt lat="48.38923952983559" lon="-4.617257759949247"><ele>75.0</ele><time>2026-04-18T16:24:05Z</time></trkpt><trkpt lat="48.389174393302355" lon="-4.617308342258292"><ele>75.0</ele><time>2026-04-18T16:24:06Z</time></trkpt><trkpt lat="48.38910630707138" lon="-4.617359878557447"><ele>74.99999999999999</ele><time>2026-04-18T16:24:07Z</time></trkpt><trkpt lat="48.389043577276" lon="-4.617417167350586"><ele>75.0</ele><time>2026-04-18T16:24:08Z</time></trkpt><trkpt lat="48.38898121324211" lon="-4.617476533987282"><ele>74.99999999999999</ele><time>2026-04-18T16:24:09Z</time></trkpt><trkpt lat="48.38892288408268" lon="-4.617528832347335"><ele>75.0</ele><time>2026-04-18T16:24:10Z</time></trkpt><trkpt lat="48.388858780111114" lon="-4.617582964519273"><ele>75.0</ele><time>2026-04-18T16:24:11Z</time></trkpt><trkpt lat="48.38879684735638" lon="-4.617633028962089"><ele>75.0</ele><time>2026-04-18T16:24:12Z</time></trkpt><trkpt lat="48.38873950295349" lon="-4.617685695780369"><ele>75.0</ele><time>2026-04-18T16:24:13Z</time></trkpt><trkpt lat="48.388678706466536" lon="-4.6177512660811555"><ele>74.99999999999999</ele><time>2026-04-18T16:24:14Z</time></trkpt><trkpt lat="48.38861364152549" lon="-4.617815222473684"><ele>75.0</ele><time>2026-04-18T16:24:15Z</time></trkpt><trkpt lat="48.38855682626122" lon="-4.617881965083531"><ele>75.14285714285714</ele><time>2026-04-18T16:24:16Z</time></trkpt><trkpt lat="48.38850260491323" lon="-4.617936980554612"><ele>75.28571428571428</ele><time>2026-04-18T16:24:17Z</time></trkpt><trkpt lat="48.388449399839224" lon="-4.617997192344101"><ele>75.42857142857142</ele><time>2026-04-18T16:24:18Z</time></trkpt><trkpt lat="48.38839439192092" lon="-4.618057787417104"><ele>75.57142857142857</ele><time>2026-04-18T16:24:19Z</time></trkpt><trkpt lat="48.388342382290176" lon="-4.618117882152317"><ele>75.71428571428572</ele><time>2026-04-18T16:24:20Z</time></trkpt><trkpt lat="48.388290254900326" lon="-4.61817570510605"><ele>75.85714285714285</ele><time>2026-04-18T16:24:21Z</time></trkpt><trkpt lat="48.388237033106876" lon="-4.618236958698482"><ele>76.0</ele><time>2026-04-18T16:24:22Z</time></trkpt><trkpt lat="48.388181970615626" lon="-4.618289699726607"><ele>76.0</ele><time>2026-04-18T16:24:23Z</time></trkpt><trkpt lat="48.388129477254296" lon="-4.618343270825342"><ele>76.0</ele><time>2026-04-18T16:24:24Z</time></trkpt><trkpt lat="48.38807951664458" lon="-4.618405892616959"><ele>76.0</ele><time>2026-04-18T16:24:25Z</time></trkpt><trkpt lat="48.38802947385872" lon="-4.618469063142415"><ele>76.0</ele><time>2026-04-18T16:24:26Z</time></trkpt><trkpt lat="48.387926967524585" lon="-4.618595465648235"><ele>76.0</ele><time>2026-04-18T16:24:28Z</time></trkpt><trkpt lat="48.38782488443287" lon="-4.6187111922180835"><ele>76.5</ele><time>2026-04-18T16:24:30Z</time></trkpt><trkpt lat="48.3877319930584" lon="-4.618824642300123"><ele>77.0</ele><time>2026-04-18T16:24:32Z</time></trkpt><trkpt lat="48.38763958937732" lon="-4.618944647712408"><ele>77.5</ele><time>2026-04-18T16:24:34Z</time></trkpt><trkpt lat="48.3875489768505" lon="-4.619049483018098"><ele>78.0</ele><time>2026-04-18T16:24:36Z</time></trkpt><trkpt lat="48.38745881444905" lon="-4.619157346245622"><ele>78.0</ele><time>2026-04-18T16:24:38Z</time></trkpt><trkpt lat="48.38736726677946" lon="-4.619255021446247"><ele>78.0</ele><time>2026-04-18T16:24:40Z</time></trkpt><trkpt lat="48.38726691671976" lon="-4.619351552024027"><ele>78.0</ele><time>2026-04-18T16:24:42Z</time></trkpt><trkpt lat="48.38717731855399" lon="-4.619452663837911"><ele>78.0</ele><time>2026-04-18T16:24:44Z</time></trkpt><trkpt lat="48.38708378823072" lon="-4.61955999195208"><ele>78.4</ele><time>2026-04-18T16:24:48Z</time></trkpt><trkpt lat="48.386994165182685" lon="-4.61964401019037"><ele>78.8</ele><time>2026-04-18T16:24:50Z</time></trkpt><trkpt lat="48.38692743626728" lon="-4.619701556706293"><ele>79.2</ele><time>2026-04-18T16:24:51Z</time></trkpt><trkpt lat="48.38682490403683" lon="-4.619777139363301"><ele>79.6</ele><time>2026-04-18T16:24:53Z</time></trkpt><trkpt lat="48.386738095792005" lon="-4.619854845438004"><ele>80.0</ele><time>2026-04-18T16:24:55Z</time></trkpt><trkpt lat="48.38663977491873" lon="-4.619931192344616"><ele>80.0</ele><time>2026-04-18T16:24:57Z</time></trkpt><trkpt lat="48.38653506153734" lon="-4.6200096450958705"><ele>80.0</ele><time>2026-04-18T16:24:59Z</time></trkpt><trkpt lat="48.38644197134832" lon="-4.620072829266012"><ele>80.0</ele><time>2026-04-18T16:25:01Z</time></trkpt><trkpt lat="48.38634205640941" lon="-4.620144872100911"><ele>80.0</ele><time>2026-04-18T16:25:03Z</time></trkpt><trkpt lat="48.386234131702764" lon="-4.620196153794643"><ele>80.0</ele><time>2026-04-18T16:25:05Z</time></trkpt><trkpt lat="48.38612322380646" lon="-4.62024815344326"><ele>80.0</ele><time>2026-04-18T16:25:07Z</time></trkpt><trkpt lat="48.386012873617545" lon="-4.620312125281296"><ele>80.0</ele><time>2026-04-18T16:25:09Z</time></trkpt><trkpt lat="48.385956380587324" lon="-4.620358681495474"><ele>80.0</ele><time>2026-04-18T16:25:10Z</time></trkpt><trkpt lat="48.385837763668434" lon="-4.620396269781829"><ele>80.0</ele><time>2026-04-18T16:25:11.999Z</time></trkpt><trkpt lat="48.385732449556386" lon="-4.620479629391012"><ele>80.0</ele><time>2026-04-18T16:25:13.999Z</time></trkpt><trkpt lat="48.38562680655784" lon="-4.620536481424665"><ele>79.8</ele><time>2026-04-18T16:25:15.999Z</time></trkpt><trkpt lat="48.38551300664487" lon="-4.620597345079265"><ele>79.6</ele><time>2026-04-18T16:25:17.999Z</time></trkpt><trkpt lat="48.3854041100507" lon="-4.620655958189251"><ele>79.4</ele><time>2026-04-18T16:25:19.999Z</time></trkpt><trkpt lat="48.385319230125866" lon="-4.620786498117133"><ele>79.2</ele><time>2026-04-18T16:25:21.999Z</time></trkpt><trkpt lat="48.38525318548855" lon="-4.620797157270462"><ele>79.0</ele><time>2026-04-18T16:25:22.999Z</time></trkpt><trkpt lat="48.3851490334629" lon="-4.620851755779017"><ele>78.60000000000001</ele><time>2026-04-18T16:25:24.999Z</time></trkpt><trkpt lat="48.38503239668996" lon="-4.620840050304928"><ele>78.2</ele><time>2026-04-18T16:25:26.999Z</time></trkpt><trkpt lat="48.384916929070144" lon="-4.620899556398928"><ele>77.80000000000001</ele><time>2026-04-18T16:25:28.999Z</time></trkpt><trkpt lat="48.384849409195816" lon="-4.62093317186211"><ele>77.4</ele><time>2026-04-18T16:25:29.999Z</time></trkpt><trkpt lat="48.384740289954976" lon="-4.621008421084347"><ele>77.0</ele><time>2026-04-18T16:25:31.999Z</time></trkpt><trkpt lat="48.38462826611665" lon="-4.621069371919283"><ele>76.8</ele><time>2026-04-18T16:25:33.999Z</time></trkpt><trkpt lat="48.384561685409906" lon="-4.621104916841195"><ele>76.6</ele><time>2026-04-18T16:25:34.999Z</time></trkpt><trkpt lat="48.38444336152029" lon="-4.621165623375862"><ele>76.39999999999999</ele><time>2026-04-18T16:25:36.999Z</time></trkpt><trkpt lat="48.384329752405094" lon="-4.621221456967524"><ele>76.2</ele><time>2026-04-18T16:25:38.999Z</time></trkpt><trkpt lat="48.38426871120645" lon="-4.621251089353463"><ele>76.0</ele><time>2026-04-18T16:25:39.999Z</time></trkpt><trkpt lat="48.384150741434006" lon="-4.621308357619134"><ele>75.6</ele><time>2026-04-18T16:25:41.999Z</time></trkpt><trkpt lat="48.38403189134565" lon="-4.621366053250709"><ele>75.19999999999999</ele><time>2026-04-18T16:25:43.999Z</time></trkpt><trkpt lat="48.3839167924151" lon="-4.621421927432236"><ele>74.80000000000001</ele><time>2026-04-18T16:25:45.999Z</time></trkpt><trkpt lat="48.38385110203716" lon="-4.621414411981177"><ele>74.4</ele><time>2026-04-18T16:25:46.999Z</time></trkpt><trkpt lat="48.38373984833972" lon="-4.621474857227155"><ele>74.0</ele><time>2026-04-18T16:25:48.999Z</time></trkpt><trkpt lat="48.383631010946594" lon="-4.6215351594376335"><ele>74.0</ele><time>2026-04-18T16:25:50.999Z</time></trkpt><trkpt lat="48.38352393174758" lon="-4.621589604887216"><ele>74.0</ele><time>2026-04-18T16:25:52.999Z</time></trkpt><trkpt lat="48.38341525475443" lon="-4.621650578195484"><ele>74.0</ele><time>2026-04-18T16:25:54.999Z</time></trkpt><trkpt lat="48.383313619012505" lon="-4.6216859181752294"><ele>74.0</ele><time>2026-04-18T16:25:56.999Z</time></trkpt><trkpt lat="48.38321215326566" lon="-4.621718012630799"><ele>74.0</ele><time>2026-04-18T16:25:58.999Z</time></trkpt><trkpt lat="48.3831169640853" lon="-4.6217465623729135"><ele>74.0</ele><time>2026-04-18T16:26:00.999Z</time></trkpt><trkpt lat="48.38302809298089" lon="-4.621751898929325"><ele>74.0</ele><time>2026-04-18T16:26:02.999Z</time></trkpt><trkpt lat="48.38295343660737" lon="-4.621795608565141"><ele>74.0</ele><time>2026-04-18T16:26:04.999Z</time></trkpt><trkpt lat="48.38287043712733" lon="-4.621820502288234"><ele>74.0</ele><time>2026-04-18T16:26:06.999Z</time></trkpt><trkpt lat="48.38277115041705" lon="-4.621806706105464"><ele>74.0</ele><time>2026-04-18T16:26:09Z</time></trkpt><trkpt lat="48.382665988842014" lon="-4.621847221763173"><ele>73.8</ele><time>2026-04-18T16:26:11Z</time></trkpt><trkpt lat="48.38256083757935" lon="-4.621920290376454"><ele>73.60000000000001</ele><time>2026-04-18T16:26:13Z</time></trkpt><trkpt lat="48.38246991554458" lon="-4.621950894634566"><ele>73.4</ele><time>2026-04-18T16:26:15Z</time></trkpt><trkpt lat="48.38243889174366" lon="-4.622063325802923"><ele>73.2</ele><time>2026-04-18T16:26:17Z</time></trkpt><trkpt lat="48.38239344356741" lon="-4.622130967327725"><ele>73.0</ele><time>2026-04-18T16:26:18Z</time></trkpt><trkpt lat="48.38234120222375" lon="-4.622255547191925"><ele>72.83333333333333</ele><time>2026-04-18T16:26:20Z</time></trkpt><trkpt lat="48.38225662146285" lon="-4.622294994321798"><ele>72.66666666666666</ele><time>2026-04-18T16:26:22Z</time></trkpt><trkpt lat="48.382171070835895" lon="-4.622279441517411"><ele>72.5</ele><time>2026-04-18T16:26:24Z</time></trkpt><trkpt lat="48.38209536862839" lon="-4.6222651897777505"><ele>72.33333333333333</ele><time>2026-04-18T16:26:26Z</time></trkpt><trkpt lat="48.38201187488448" lon="-4.622249667520143"><ele>72.16666666666667</ele><time>2026-04-18T16:26:28Z</time></trkpt><trkpt lat="48.38192185266967" lon="-4.622242384665238"><ele>72.0</ele><time>2026-04-18T16:26:30Z</time></trkpt><trkpt lat="48.38183392132145" lon="-4.62223916545953"><ele>71.5</ele><time>2026-04-18T16:26:32Z</time></trkpt><trkpt lat="48.38174898360938" lon="-4.622241057067781"><ele>71.0</ele><time>2026-04-18T16:26:34Z</time></trkpt><trkpt lat="48.3816829412083" lon="-4.62219621220127"><ele>70.5</ele><time>2026-04-18T16:26:36Z</time></trkpt><trkpt lat="48.38163853785356" lon="-4.622114994153028"><ele>70.0</ele><time>2026-04-18T16:26:38Z</time></trkpt><trkpt lat="48.38159501492507" lon="-4.621992805073411"><ele>69.5</ele><time>2026-04-18T16:26:40Z</time></trkpt><trkpt lat="48.38154765656248" lon="-4.621845041832683"><ele>69.0</ele><time>2026-04-18T16:26:42Z</time></trkpt><trkpt lat="48.38150921340469" lon="-4.6216907706809565"><ele>69.0</ele><time>2026-04-18T16:26:44Z</time></trkpt><trkpt lat="48.381497316407625" lon="-4.6215366308500885"><ele>69.0</ele><time>2026-04-18T16:26:46Z</time></trkpt><trkpt lat="48.38152020641571" lon="-4.621379193494606"><ele>69.0</ele><time>2026-04-18T16:26:48Z</time></trkpt><trkpt lat="48.38152337843718" lon="-4.621234733037975"><ele>69.0</ele><time>2026-04-18T16:26:50Z</time></trkpt><trkpt lat="48.38157793402181" lon="-4.6211133199982255"><ele>69.0</ele><time>2026-04-18T16:26:52Z</time></trkpt><trkpt lat="48.38161415561494" lon="-4.6210209095657016"><ele>69.16666666666667</ele><time>2026-04-18T16:26:54Z</time></trkpt><trkpt lat="48.381606289323095" lon="-4.620871189973156"><ele>69.33333333333333</ele><time>2026-04-18T16:26:56Z</time></trkpt><trkpt lat="48.38161100299073" lon="-4.620764382994159"><ele>69.5</ele><time>2026-04-18T16:26:58Z</time></trkpt><trkpt lat="48.38164393237596" lon="-4.620634711555846"><ele>69.66666666666666</ele><time>2026-04-18T16:27:00Z</time></trkpt><trkpt lat="48.38167111466493" lon="-4.6205300977614385"><ele>69.83333333333333</ele><time>2026-04-18T16:27:02Z</time></trkpt><trkpt lat="48.381703449799424" lon="-4.620447843955824"><ele>70.0</ele><time>2026-04-18T16:27:04Z</time></trkpt><trkpt lat="48.38171175763067" lon="-4.620324051974359"><ele>69.83333333333333</ele><time>2026-04-18T16:27:06Z</time></trkpt><trkpt lat="48.38172077277257" lon="-4.620182071123351"><ele>69.66666666666666</ele><time>2026-04-18T16:27:08Z</time></trkpt><trkpt lat="48.38170566315156" lon="-4.620054706243284"><ele>69.5</ele><time>2026-04-18T16:27:10Z</time></trkpt><trkpt lat="48.381738752117755" lon="-4.61992907658917"><ele>69.33333333333333</ele><time>2026-04-18T16:27:12Z</time></trkpt><trkpt lat="48.38174549168283" lon="-4.6198005338399835"><ele>69.16666666666667</ele><time>2026-04-18T16:27:14Z</time></trkpt><trkpt lat="48.381742512560955" lon="-4.619660052132616"><ele>69.0</ele><time>2026-04-18T16:27:16Z</time></trkpt><trkpt lat="48.381749370693115" lon="-4.619533018652458"><ele>68.83333333333333</ele><time>2026-04-18T16:27:17.999Z</time></trkpt><trkpt lat="48.3817491221688" lon="-4.619412593882296"><ele>68.66666666666667</ele><time>2026-04-18T16:27:19.999Z</time></trkpt><trkpt lat="48.38174391471907" lon="-4.619288029912645"><ele>68.5</ele><time>2026-04-18T16:27:21.999Z</time></trkpt><trkpt lat="48.381740857387804" lon="-4.619149983803546"><ele>68.33333333333334</ele><time>2026-04-18T16:27:23.999Z</time></trkpt><trkpt lat="48.38172741923259" lon="-4.619016690282088"><ele>68.16666666666667</ele><time>2026-04-18T16:27:25.999Z</time></trkpt><trkpt lat="48.38171693080529" lon="-4.618894370547667"><ele>68.0</ele><time>2026-04-18T16:27:27.999Z</time></trkpt><trkpt lat="48.38170388739287" lon="-4.618771205537431"><ele>68.0</ele><time>2026-04-18T16:27:29.999Z</time></trkpt><trkpt lat="48.38168734822522" lon="-4.618630273066454"><ele>68.0</ele><time>2026-04-18T16:27:31.999Z</time></trkpt><trkpt lat="48.38167353127456" lon="-4.6184972021973305"><ele>68.0</ele><time>2026-04-18T16:27:33.999Z</time></trkpt><trkpt lat="48.3816495744114" lon="-4.6183656262335955"><ele>68.0</ele><time>2026-04-18T16:27:35.999Z</time></trkpt><trkpt lat="48.38164030880122" lon="-4.618231100148689"><ele>68.0</ele><time>2026-04-18T16:27:37.999Z</time></trkpt><trkpt lat="48.38163384798079" lon="-4.618114552027695"><ele>68.0</ele><time>2026-04-18T16:27:39.999Z</time></trkpt><trkpt lat="48.381620222065955" lon="-4.617990512930805"><ele>68.0</ele><time>2026-04-18T16:27:41.999Z</time></trkpt><trkpt lat="48.381615738691835" lon="-4.617869242115839"><ele>68.0</ele><time>2026-04-18T16:27:43.999Z</time></trkpt><trkpt lat="48.38160234985674" lon="-4.617740186464337"><ele>68.0</ele><time>2026-04-18T16:27:45.999Z</time></trkpt><trkpt lat="48.38159220007381" lon="-4.6175385699906775"><ele>68.0</ele><time>2026-04-18T16:27:48.999Z</time></trkpt><trkpt lat="48.38159190897379" lon="-4.617408898038613"><ele>68.0</ele><time>2026-04-18T16:27:50.999Z</time></trkpt><trkpt lat="48.381579217905134" lon="-4.617283694810367"><ele>68.66666666666667</ele><time>2026-04-18T16:27:52.999Z</time></trkpt><trkpt lat="48.381564863311176" lon="-4.61714578077339"><ele>69.33333333333334</ele><time>2026-04-18T16:27:54.999Z</time></trkpt><trkpt lat="48.3815477753054" lon="-4.617016105879366"><ele>70.0</ele><time>2026-04-18T16:27:56.999Z</time></trkpt><trkpt lat="48.381531463779496" lon="-4.616896704516002"><ele>70.66666666666667</ele><time>2026-04-18T16:27:58.999Z</time></trkpt><trkpt lat="48.381516075944766" lon="-4.61676888155567"><ele>71.33333333333333</ele><time>2026-04-18T16:28:00.999Z</time></trkpt><trkpt lat="48.381506010891194" lon="-4.616653192445989"><ele>72.0</ele><time>2026-04-18T16:28:02.999Z</time></trkpt><trkpt lat="48.38149938892935" lon="-4.616541575984627"><ele>72.42857142857143</ele><time>2026-04-18T16:28:04.999Z</time></trkpt><trkpt lat="48.38149975569884" lon="-4.61644102933803"><ele>72.85714285714286</ele><time>2026-04-18T16:28:06.999Z</time></trkpt><trkpt lat="48.38148936001734" lon="-4.6163234776830535"><ele>73.28571428571428</ele><time>2026-04-18T16:28:09.999Z</time></trkpt><trkpt lat="48.38145785507183" lon="-4.616234188556864"><ele>73.71428571428572</ele><time>2026-04-18T16:29:05Z</time></trkpt><trkpt lat="48.3814557381208" lon="-4.616150798180913"><ele>74.14285714285714</ele><time>2026-04-18T16:33:46Z</time></trkpt><trkpt lat="48.38145560398325" lon="-4.616050380200921"><ele>74.57142857142857</ele><time>2026-04-18T16:33:51Z</time></trkpt><trkpt lat="48.38143936639786" lon="-4.615934336715282"><ele>75.0</ele><time>2026-04-18T16:33:56Z</time></trkpt><trkpt lat="48.38143725143438" lon="-4.6158352207639"><ele>75.6</ele><time>2026-04-18T16:34:00Z</time></trkpt><trkpt lat="48.38145008108312" lon="-4.615722877878556"><ele>76.2</ele><time>2026-04-18T16:34:07Z</time></trkpt><trkpt lat="48.38150033228351" lon="-4.6156012442099374"><ele>76.8</ele><time>2026-04-18T16:34:10Z</time></trkpt><trkpt lat="48.38149699719542" lon="-4.6154489476068274"><ele>77.4</ele><time>2026-04-18T16:34:12Z</time></trkpt><trkpt lat="48.38151351028603" lon="-4.615326283469931"><ele>78.0</ele><time>2026-04-18T16:34:14Z</time></trkpt><trkpt lat="48.38143192786458" lon="-4.615238964718042"><ele>78.16666666666667</ele><time>2026-04-18T16:34:17Z</time></trkpt><trkpt lat="48.381431222310425" lon="-4.615140108156341"><ele>78.33333333333333</ele><time>2026-04-18T16:34:21Z</time></trkpt><trkpt lat="48.381432699337" lon="-4.6150099494540875"><ele>78.5</ele><time>2026-04-18T16:34:34Z</time></trkpt><trkpt lat="48.381434651812704" lon="-4.614867162987738"><ele>78.66666666666666</ele><time>2026-04-18T16:34:36.999Z</time></trkpt><trkpt lat="48.38143725343073" lon="-4.6147593403496865"><ele>78.83333333333333</ele><time>2026-04-18T16:34:38.999Z</time></trkpt><trkpt lat="48.38144086831161" lon="-4.614648881705562"><ele>79.0</ele><time>2026-04-18T16:34:40.999Z</time></trkpt><trkpt lat="48.38153401175232" lon="-4.614542246102419"><ele>78.83333333333333</ele><time>2026-04-18T16:34:42.999Z</time></trkpt><trkpt lat="48.38154851565901" lon="-4.614418146190366"><ele>78.66666666666666</ele><time>2026-04-18T16:34:44.999Z</time></trkpt><trkpt lat="48.38158344574137" lon="-4.614305596421788"><ele>78.5</ele><time>2026-04-18T16:34:46.999Z</time></trkpt><trkpt lat="48.38161078700541" lon="-4.614214501548241"><ele>78.33333333333333</ele><time>2026-04-18T16:34:48.999Z</time></trkpt><trkpt lat="48.3816391979137" lon="-4.614113692058735"><ele>78.16666666666667</ele><time>2026-04-18T16:34:50.999Z</time></trkpt><trkpt lat="48.38167516986369" lon="-4.614033530692252"><ele>78.0</ele><time>2026-04-18T16:34:52.999Z</time></trkpt><trkpt lat="48.381709234988875" lon="-4.613919865488581"><ele>78.0</ele><time>2026-04-18T16:34:55.999Z</time></trkpt><trkpt lat="48.3817170745061" lon="-4.613802512244696"><ele>78.0</ele><time>2026-04-18T16:34:58.999Z</time></trkpt><trkpt lat="48.38171226862698" lon="-4.613669444077436"><ele>78.0</ele><time>2026-04-18T16:35:00.999Z</time></trkpt><trkpt lat="48.381749309851074" lon="-4.613525118968228"><ele>78.0</ele><time>2026-04-18T16:35:02.999Z</time></trkpt><trkpt lat="48.381755881490726" lon="-4.613371286000531"><ele>78.0</ele><time>2026-04-18T16:35:04.999Z</time></trkpt><trkpt lat="48.381782717515" lon="-4.613216078369661"><ele>78.2</ele><time>2026-04-18T16:35:06.999Z</time></trkpt><trkpt lat="48.381701555975226" lon="-4.613103852439369"><ele>78.4</ele><time>2026-04-18T16:35:07.999Z</time></trkpt><trkpt lat="48.38172930811114" lon="-4.612963696726651"><ele>78.60000000000001</ele><time>2026-04-18T16:35:09.999Z</time></trkpt><trkpt lat="48.38175412873695" lon="-4.6128383459630085"><ele>78.8</ele><time>2026-04-18T16:35:11.999Z</time></trkpt><trkpt lat="48.381778515961905" lon="-4.612714011298517"><ele>79.0</ele><time>2026-04-18T16:35:13.999Z</time></trkpt><trkpt lat="48.381801601395544" lon="-4.612590110266466"><ele>78.5</ele><time>2026-04-18T16:35:15.999Z</time></trkpt><trkpt lat="48.381824107592244" lon="-4.612469318029698"><ele>78.0</ele><time>2026-04-18T16:35:17.999Z</time></trkpt><trkpt lat="48.381848891638896" lon="-4.612336300436975"><ele>77.5</ele><time>2026-04-18T16:35:19.999Z</time></trkpt><trkpt lat="48.381873676442765" lon="-4.612203278797657"><ele>77.0</ele><time>2026-04-18T16:35:21.999Z</time></trkpt><trkpt lat="48.381897100995594" lon="-4.612074458454855"><ele>76.5</ele><time>2026-04-18T16:35:23.999Z</time></trkpt><trkpt lat="48.38191426154093" lon="-4.611978459441989"><ele>76.0</ele><time>2026-04-18T16:35:26.999Z</time></trkpt><trkpt lat="48.38193455579453" lon="-4.6118649297302285"><ele>75.66666666666666</ele><time>2026-04-18T16:35:30.999Z</time></trkpt><trkpt lat="48.38195742594346" lon="-4.611736989482874"><ele>75.33333333333333</ele><time>2026-04-18T16:35:35Z</time></trkpt><trkpt lat="48.382060371326986" lon="-4.611732778010529"><ele>75.0</ele><time>2026-04-18T16:35:36Z</time></trkpt><trkpt lat="48.38209212889442" lon="-4.611626564066292"><ele>74.66666666666667</ele><time>2026-04-18T16:35:38Z</time></trkpt><trkpt lat="48.382111977821154" lon="-4.611509259875076"><ele>74.33333333333334</ele><time>2026-04-18T16:35:40Z</time></trkpt><trkpt lat="48.38212837334874" lon="-4.611387521649882"><ele>74.0</ele><time>2026-04-18T16:35:42Z</time></trkpt><trkpt lat="48.38213239954788" lon="-4.611257181555276"><ele>73.66666666666667</ele><time>2026-04-18T16:35:44Z</time></trkpt><trkpt lat="48.38213375699786" lon="-4.611128791744962"><ele>73.33333333333334</ele><time>2026-04-18T16:35:46Z</time></trkpt><trkpt lat="48.382131546562896" lon="-4.611012625062222"><ele>73.0</ele><time>2026-04-18T16:35:48Z</time></trkpt><trkpt lat="48.38214729574142" lon="-4.610884310119392"><ele>72.66666666666667</ele><time>2026-04-18T16:35:50Z</time></trkpt><trkpt lat="48.38216512698894" lon="-4.610772420486732"><ele>72.33333333333333</ele><time>2026-04-18T16:35:52Z</time></trkpt><trkpt lat="48.38218617219836" lon="-4.6106546242602064"><ele>72.0</ele><time>2026-04-18T16:35:54Z</time></trkpt><trkpt lat="48.382196421566746" lon="-4.610519814692449"><ele>72.0</ele><time>2026-04-18T16:35:56Z</time></trkpt><trkpt lat="48.38217695383798" lon="-4.610381313951072"><ele>72.0</ele><time>2026-04-18T16:35:58Z</time></trkpt><trkpt lat="48.38216588852498" lon="-4.610234678767802"><ele>72.0</ele><time>2026-04-18T16:36:00Z</time></trkpt><trkpt lat="48.38214094430742" lon="-4.610087159337218"><ele>72.0</ele><time>2026-04-18T16:36:02Z</time></trkpt><trkpt lat="48.38211155698848" lon="-4.6099304081960755"><ele>72.0</ele><time>2026-04-18T16:36:04Z</time></trkpt><trkpt lat="48.38199154465316" lon="-4.609880718088051"><ele>72.00000000000001</ele><time>2026-04-18T16:36:05Z</time></trkpt><trkpt lat="48.38198723988591" lon="-4.609773600498119"><ele>72.0</ele><time>2026-04-18T16:36:06Z</time></trkpt><trkpt lat="48.382002145858806" lon="-4.609649406054155"><ele>72.0</ele><time>2026-04-18T16:36:08Z</time></trkpt><trkpt lat="48.38200013361668" lon="-4.609532472224251"><ele>72.0</ele><time>2026-04-18T16:36:10Z</time></trkpt><trkpt lat="48.38199843253376" lon="-4.6094336200527595"><ele>72.0</ele><time>2026-04-18T16:36:13Z</time></trkpt><trkpt lat="48.381996718055596" lon="-4.609333989230229"><ele>72.00000000000001</ele><time>2026-04-18T16:36:17Z</time></trkpt><trkpt lat="48.381995074103095" lon="-4.609238456808221"><ele>72.0</ele><time>2026-04-18T16:36:19Z</time></trkpt><trkpt lat="48.38196419343191" lon="-4.60914005640179"><ele>71.33333333333333</ele><time>2026-04-18T16:36:20Z</time></trkpt><trkpt lat="48.381932483364466" lon="-4.609380592358446"><ele>70.66666666666666</ele><time>2026-04-18T16:36:21Z</time></trkpt><trkpt lat="48.381911553901695" lon="-4.609121114777993"><ele>70.0</ele><time>2026-04-18T16:36:24Z</time></trkpt><trkpt lat="48.381855363600486" lon="-4.608972396528581"><ele>70.0</ele><time>2026-04-18T16:36:26Z</time></trkpt><trkpt lat="48.381827471574816" lon="-4.608872768819555"><ele>70.0</ele><time>2026-04-18T16:36:27Z</time></trkpt><trkpt lat="48.38180575101071" lon="-4.608752570175696"><ele>70.0</ele><time>2026-04-18T16:36:28Z</time></trkpt><trkpt lat="48.381786432901016" lon="-4.608653548288979"><ele>70.0</ele><time>2026-04-18T16:36:29Z</time></trkpt><trkpt lat="48.38176414636386" lon="-4.608545165846464"><ele>70.0</ele><time>2026-04-18T16:36:30Z</time></trkpt><trkpt lat="48.381741247657466" lon="-4.6084384737057835"><ele>70.0</ele><time>2026-04-18T16:36:31Z</time></trkpt><trkpt lat="48.381720638766666" lon="-4.608342450517076"><ele>70.0</ele><time>2026-04-18T16:36:32Z</time></trkpt><trkpt lat="48.38169603634414" lon="-4.608227820234751"><ele>70.16666666666666</ele><time>2026-04-18T16:36:33Z</time></trkpt><trkpt lat="48.381673174300516" lon="-4.608121298896949"><ele>70.33333333333333</ele><time>2026-04-18T16:36:34Z</time></trkpt><trkpt lat="48.38164729055468" lon="-4.608007494229484"><ele>70.5</ele><time>2026-04-18T16:36:35Z</time></trkpt><trkpt lat="48.381620342688464" lon="-4.607897845445386"><ele>70.66666666666667</ele><time>2026-04-18T16:36:36Z</time></trkpt><trkpt lat="48.38159294584019" lon="-4.607789797200731"><ele>70.83333333333334</ele><time>2026-04-18T16:36:37Z</time></trkpt><trkpt lat="48.38156446434876" lon="-4.607681255483707"><ele>71.0</ele><time>2026-04-18T16:36:38Z</time></trkpt><trkpt lat="48.38153616365011" lon="-4.607574503622161"><ele>71.0</ele><time>2026-04-18T16:36:39Z</time></trkpt><trkpt lat="48.38150433860909" lon="-4.607462858480198"><ele>71.0</ele><time>2026-04-18T16:36:40Z</time></trkpt><trkpt lat="48.38147373190961" lon="-4.607356625854478"><ele>71.0</ele><time>2026-04-18T16:36:41Z</time></trkpt><trkpt lat="48.381445627940046" lon="-4.607259079944523"><ele>71.0</ele><time>2026-04-18T16:36:42Z</time></trkpt><trkpt lat="48.38141567348146" lon="-4.60715511077317"><ele>71.0</ele><time>2026-04-18T16:36:43Z</time></trkpt><trkpt lat="48.38138875393031" lon="-4.607061675357295"><ele>71.0</ele><time>2026-04-18T16:36:44Z</time></trkpt><trkpt lat="48.38130815843445" lon="-4.6069285651328356"><ele>71.0</ele><time>2026-04-18T16:36:46Z</time></trkpt><trkpt lat="48.3812317159288" lon="-4.6067765317297775"><ele>71.0</ele><time>2026-04-18T16:36:48Z</time></trkpt><trkpt lat="48.38116031519601" lon="-4.606640687743172"><ele>71.0</ele><time>2026-04-18T16:36:50Z</time></trkpt><trkpt lat="48.38109604570852" lon="-4.606522328768129"><ele>71.0</ele><time>2026-04-18T16:36:52Z</time></trkpt><trkpt lat="48.38104632462918" lon="-4.606436495749401"><ele>71.0</ele><time>2026-04-18T16:36:54Z</time></trkpt><trkpt lat="48.380991145439374" lon="-4.60634540121805"><ele>71.0</ele><time>2026-04-18T16:36:58.999Z</time></trkpt><trkpt lat="48.38094076360654" lon="-4.606267483693862"><ele>71.0</ele><time>2026-04-18T16:37:02.999Z</time></trkpt><trkpt lat="48.38110121484964" lon="-4.605991252360664"><ele>71.0</ele><time>2026-04-18T16:37:03.999Z</time></trkpt><trkpt lat="48.381122941794274" lon="-4.605876885080845"><ele>71.0</ele><time>2026-04-18T16:37:07.999Z</time></trkpt><trkpt lat="48.381183666573236" lon="-4.605774431374474"><ele>71.39999999999999</ele><time>2026-04-18T16:37:10.999Z</time></trkpt><trkpt lat="48.38119533705354" lon="-4.605640857237031"><ele>71.8</ele><time>2026-04-18T16:37:13.999Z</time></trkpt><trkpt lat="48.38116404519544" lon="-4.605510348841736"><ele>72.19999999999999</ele><time>2026-04-18T16:37:16.999Z</time></trkpt><trkpt lat="48.38112638557934" lon="-4.605401647168835"><ele>72.6</ele><time>2026-04-18T16:37:18.999Z</time></trkpt><trkpt lat="48.381087963500654" lon="-4.605260405580519"><ele>73.0</ele><time>2026-04-18T16:37:20.999Z</time></trkpt><trkpt lat="48.381046481088866" lon="-4.605098390199302"><ele>73.4</ele><time>2026-04-18T16:37:22.999Z</time></trkpt><trkpt lat="48.380942512694155" lon="-4.605061556383274"><ele>73.8</ele><time>2026-04-18T16:37:23.999Z</time></trkpt><trkpt lat="48.380910000099256" lon="-4.604913822807796"><ele>74.2</ele><time>2026-04-18T16:37:25.999Z</time></trkpt><trkpt lat="48.38087536478147" lon="-4.604751867826242"><ele>74.6</ele><time>2026-04-18T16:37:27.999Z</time></trkpt><trkpt lat="48.38084339305789" lon="-4.604603487072134"><ele>75.0</ele><time>2026-04-18T16:37:29.999Z</time></trkpt><trkpt lat="48.38080847236942" lon="-4.604438614770652"><ele>75.25</ele><time>2026-04-18T16:37:31.999Z</time></trkpt><trkpt lat="48.3807776315143" lon="-4.604281368984372"><ele>75.5</ele><time>2026-04-18T16:37:33.999Z</time></trkpt><trkpt lat="48.38074623667583" lon="-4.6041212986162625"><ele>75.75</ele><time>2026-04-18T16:37:35.999Z</time></trkpt><trkpt lat="48.38080755836784" lon="-4.603928927889849"><ele>76.0</ele><time>2026-04-18T16:37:37.999Z</time></trkpt><trkpt lat="48.38077596946368" lon="-4.603757333795614"><ele>76.33333333333333</ele><time>2026-04-18T16:37:39.999Z</time></trkpt><trkpt lat="48.380740591521906" lon="-4.603624939045004"><ele>76.66666666666666</ele><time>2026-04-18T16:37:42Z</time></trkpt><trkpt lat="48.38071185305226" lon="-4.603486481561926"><ele>77.0</ele><time>2026-04-18T16:37:44Z</time></trkpt><trkpt lat="48.38068757416674" lon="-4.603366154683918"><ele>77.33333333333333</ele><time>2026-04-18T16:37:46Z</time></trkpt><trkpt lat="48.38067785447009" lon="-4.603252774722943"><ele>77.66666666666667</ele><time>2026-04-18T16:37:48Z</time></trkpt><trkpt lat="48.380677357834294" lon="-4.603126296845298"><ele>78.0</ele><time>2026-04-18T16:37:51Z</time></trkpt><trkpt lat="48.38063738500158" lon="-4.603022019441363"><ele>78.0</ele><time>2026-04-18T16:37:53Z</time></trkpt><trkpt lat="48.380610378034106" lon="-4.602926722824471"><ele>78.0</ele><time>2026-04-18T16:37:55Z</time></trkpt><trkpt lat="48.38057878846854" lon="-4.60280636077988"><ele>78.0</ele><time>2026-04-18T16:37:57Z</time></trkpt><trkpt lat="48.38056641039712" lon="-4.60264440534474"><ele>78.0</ele><time>2026-04-18T16:37:59Z</time></trkpt><trkpt lat="48.38053287342859" lon="-4.602509770008353"><ele>78.0</ele><time>2026-04-18T16:38:01Z</time></trkpt><trkpt lat="48.38049720899585" lon="-4.602362602182211"><ele>77.5</ele><time>2026-04-18T16:38:03Z</time></trkpt><trkpt lat="48.38045662430825" lon="-4.602240122674194"><ele>77.0</ele><time>2026-04-18T16:38:05Z</time></trkpt><trkpt lat="48.380408211556706" lon="-4.602176416589582"><ele>76.5</ele><time>2026-04-18T16:38:06Z</time></trkpt><trkpt lat="48.380355319391825" lon="-4.602096298831979"><ele>76.0</ele><time>2026-04-18T16:38:07Z</time></trkpt><trkpt lat="48.380321828465135" lon="-4.601988091660003"><ele>75.5</ele><time>2026-04-18T16:38:08Z</time></trkpt><trkpt lat="48.38029532588253" lon="-4.601867977628356"><ele>75.0</ele><time>2026-04-18T16:38:09Z</time></trkpt><trkpt lat="48.380274302389104" lon="-4.601766919416375"><ele>75.0</ele><time>2026-04-18T16:38:10Z</time></trkpt><trkpt lat="48.38022869177474" lon="-4.601624019692069"><ele>75.0</ele><time>2026-04-18T16:38:12Z</time></trkpt><trkpt lat="48.38018688998782" lon="-4.601467120015522"><ele>75.0</ele><time>2026-04-18T16:38:14Z</time></trkpt><trkpt lat="48.380133118027416" lon="-4.601305617822689"><ele>75.0</ele><time>2026-04-18T16:38:16Z</time></trkpt><trkpt lat="48.38010443116758" lon="-4.601202035159799"><ele>75.0</ele><time>2026-04-18T16:38:17Z</time></trkpt><trkpt lat="48.38007097972861" lon="-4.601109731659789"><ele>75.2</ele><time>2026-04-18T16:38:18Z</time></trkpt><trkpt lat="48.38001538995997" lon="-4.600933235384101"><ele>75.4</ele><time>2026-04-18T16:38:20Z</time></trkpt><trkpt lat="48.37992834440654" lon="-4.600786789573924"><ele>75.6</ele><time>2026-04-18T16:38:22Z</time></trkpt><trkpt lat="48.37988653693039" lon="-4.6007022278506575"><ele>75.8</ele><time>2026-04-18T16:38:23Z</time></trkpt><trkpt lat="48.379838240574614" lon="-4.600625243053887"><ele>76.0</ele><time>2026-04-18T16:38:24Z</time></trkpt><trkpt lat="48.37979831120099" lon="-4.60054921907831"><ele>76.0</ele><time>2026-04-18T16:38:25Z</time></trkpt><trkpt lat="48.37969771681564" lon="-4.600500938602736"><ele>76.0</ele><time>2026-04-18T16:38:27Z</time></trkpt><trkpt lat="48.37961238860204" lon="-4.600555956370348"><ele>76.0</ele><time>2026-04-18T16:38:29Z</time></trkpt><trkpt lat="48.37956879352832" lon="-4.600473686391961"><ele>76.0</ele><time>2026-04-18T16:38:31Z</time></trkpt><trkpt lat="48.379515337672494" lon="-4.600381647440939"><ele>76.0</ele><time>2026-04-18T16:38:34Z</time></trkpt><trkpt lat="48.37945298663463" lon="-4.6002894238919705"><ele>76.0</ele><time>2026-04-18T16:38:37Z</time></trkpt><trkpt lat="48.379414935080284" lon="-4.600206031396374"><ele>76.33333333333333</ele><time>2026-04-18T16:38:40Z</time></trkpt><trkpt lat="48.37936328769424" lon="-4.600126267157184"><ele>76.66666666666666</ele><time>2026-04-18T16:38:44Z</time></trkpt><trkpt lat="48.37930202776321" lon="-4.6000718043870705"><ele>77.0</ele><time>2026-04-18T16:38:48Z</time></trkpt><trkpt lat="48.379254715850095" lon="-4.599996199788135"><ele>77.33333333333333</ele><time>2026-04-18T16:38:53Z</time></trkpt><trkpt lat="48.37920541433989" lon="-4.59993607473689"><ele>77.66666666666667</ele><time>2026-04-18T16:38:55Z</time></trkpt><trkpt lat="48.37913215858822" lon="-4.59987047733249"><ele>78.0</ele><time>2026-04-18T16:38:59Z</time></trkpt><trkpt lat="48.379045254698354" lon="-4.599816444453446"><ele>78.0</ele><time>2026-04-18T16:39:01Z</time></trkpt><trkpt lat="48.37898649067589" lon="-4.599740657712591"><ele>78.0</ele><time>2026-04-18T16:39:03Z</time></trkpt><trkpt lat="48.378907797955954" lon="-4.599653777522539"><ele>78.0</ele><time>2026-04-18T16:39:04.999Z</time></trkpt><trkpt lat="48.37883595195045" lon="-4.599577012160395"><ele>78.0</ele><time>2026-04-18T16:39:06.999Z</time></trkpt><trkpt lat="48.378787427785866" lon="-4.599495000256968"><ele>78.0</ele><time>2026-04-18T16:39:08.999Z</time></trkpt><trkpt lat="48.37875270576098" lon="-4.5993805974902715"><ele>78.0</ele><time>2026-04-18T16:39:10.999Z</time></trkpt><trkpt lat="48.378700705378016" lon="-4.599326747356075"><ele>77.66666666666667</ele><time>2026-04-18T16:39:11.999Z</time></trkpt><trkpt lat="48.37863882556443" lon="-4.5992635417137055"><ele>77.33333333333333</ele><time>2026-04-18T16:39:12.999Z</time></trkpt><trkpt lat="48.37856616033465" lon="-4.59920344377138"><ele>77.0</ele><time>2026-04-18T16:39:13.999Z</time></trkpt><trkpt lat="48.378486369626096" lon="-4.599153999122376"><ele>76.66666666666666</ele><time>2026-04-18T16:39:14.999Z</time></trkpt><trkpt lat="48.37845441212124" lon="-4.5990156683250385"><ele>76.33333333333333</ele><time>2026-04-18T16:39:15.999Z</time></trkpt><trkpt lat="48.37837920318588" lon="-4.5989174783469995"><ele>76.0</ele><time>2026-04-18T16:39:16.999Z</time></trkpt><trkpt lat="48.378305552843486" lon="-4.598821323239981"><ele>76.0</ele><time>2026-04-18T16:39:17.999Z</time></trkpt><trkpt lat="48.37816488317301" lon="-4.5988460423283"><ele>76.0</ele><time>2026-04-18T16:39:18.999Z</time></trkpt><trkpt lat="48.37808511170939" lon="-4.598766791263226"><ele>76.0</ele><time>2026-04-18T16:39:19.999Z</time></trkpt><trkpt lat="48.378021431167674" lon="-4.598659816976313"><ele>76.0</ele><time>2026-04-18T16:39:20.999Z</time></trkpt><trkpt lat="48.37780254162698" lon="-4.598728013565812"><ele>76.0</ele><time>2026-04-18T16:39:21.999Z</time></trkpt><trkpt lat="48.377735604955674" lon="-4.598613902525361"><ele>76.0</ele><time>2026-04-18T16:39:22.999Z</time></trkpt><trkpt lat="48.3776645156274" lon="-4.598497921901391"><ele>76.0</ele><time>2026-04-18T16:39:23.999Z</time></trkpt><trkpt lat="48.3776054168179" lon="-4.598408297760739"><ele>76.0</ele><time>2026-04-18T16:39:24.999Z</time></trkpt><trkpt lat="48.377544604206264" lon="-4.598324131516521"><ele>76.0</ele><time>2026-04-18T16:39:25.999Z</time></trkpt><trkpt lat="48.37748035613328" lon="-4.598245700017961"><ele>76.0</ele><time>2026-04-18T16:39:26.999Z</time></trkpt><trkpt lat="48.37739505685667" lon="-4.59815656579035"><ele>76.0</ele><time>2026-04-18T16:39:27.999Z</time></trkpt><trkpt lat="48.377310587055995" lon="-4.598075152773741"><ele>76.0</ele><time>2026-04-18T16:39:28.999Z</time></trkpt><trkpt lat="48.37722334712265" lon="-4.597999633681908"><ele>76.0</ele><time>2026-04-18T16:39:29.999Z</time></trkpt><trkpt lat="48.377134028373206" lon="-4.597926233625168"><ele>76.0</ele><time>2026-04-18T16:39:30.999Z</time></trkpt><trkpt lat="48.377056679905365" lon="-4.597864305159767"><ele>76.2</ele><time>2026-04-18T16:39:31.999Z</time></trkpt><trkpt lat="48.376963880733044" lon="-4.597791572536637"><ele>76.39999999999999</ele><time>2026-04-18T16:39:32.999Z</time></trkpt><trkpt lat="48.37687476808764" lon="-4.597725972213866"><ele>76.6</ele><time>2026-04-18T16:39:33.999Z</time></trkpt><trkpt lat="48.37678457686983" lon="-4.597660697636367"><ele>76.8</ele><time>2026-04-18T16:39:34.999Z</time></trkpt><trkpt lat="48.37669264244265" lon="-4.5975947712439575"><ele>77.0</ele><time>2026-04-18T16:39:35.999Z</time></trkpt><trkpt lat="48.37660225791591" lon="-4.597529956267489"><ele>77.0</ele><time>2026-04-18T16:39:36.999Z</time></trkpt><trkpt lat="48.37651399251224" lon="-4.597466749155846"><ele>77.0</ele><time>2026-04-18T16:39:37.999Z</time></trkpt><trkpt lat="48.376430092375756" lon="-4.597406780497529"><ele>77.0</ele><time>2026-04-18T16:39:38.999Z</time></trkpt><trkpt lat="48.376347823926956" lon="-4.597346353652643"><ele>77.0</ele><time>2026-04-18T16:39:39.999Z</time></trkpt><trkpt lat="48.3762633918394" lon="-4.597284337565627"><ele>77.0</ele><time>2026-04-18T16:39:40.999Z</time></trkpt><trkpt lat="48.37617049706185" lon="-4.597214218838287"><ele>77.0</ele><time>2026-04-18T16:39:41.999Z</time></trkpt><trkpt lat="48.37608397079958" lon="-4.597149100133721"><ele>77.0</ele><time>2026-04-18T16:39:42.999Z</time></trkpt><trkpt lat="48.3759117378323" lon="-4.597019773944706"><ele>77.0</ele><time>2026-04-18T16:39:44.999Z</time></trkpt><trkpt lat="48.37583902240193" lon="-4.596965173468372"><ele>77.0</ele><time>2026-04-18T16:39:45.999Z</time></trkpt><trkpt lat="48.37577159395176" lon="-4.596914542825946"><ele>77.0</ele><time>2026-04-18T16:39:47Z</time></trkpt><trkpt lat="48.375699565027965" lon="-4.596860457473003"><ele>77.16666666666667</ele><time>2026-04-18T16:39:48Z</time></trkpt><trkpt lat="48.375626551785835" lon="-4.596805407694636"><ele>77.33333333333334</ele><time>2026-04-18T16:39:49Z</time></trkpt><trkpt lat="48.37554915562571" lon="-4.596745099575834"><ele>77.5</ele><time>2026-04-18T16:39:50Z</time></trkpt><trkpt lat="48.37547210777354" lon="-4.596686687491403"><ele>77.66666666666667</ele><time>2026-04-18T16:39:51Z</time></trkpt><trkpt lat="48.37539230251637" lon="-4.596624702751868"><ele>77.83333333333333</ele><time>2026-04-18T16:39:52Z</time></trkpt><trkpt lat="48.37532013639919" lon="-4.596568448300804"><ele>78.0</ele><time>2026-04-18T16:39:53Z</time></trkpt><trkpt lat="48.37523164013764" lon="-4.5964994642836645"><ele>78.5</ele><time>2026-04-18T16:39:54Z</time></trkpt><trkpt lat="48.375164016126504" lon="-4.596446433810287"><ele>79.0</ele><time>2026-04-18T16:39:55Z</time></trkpt><trkpt lat="48.37509086313198" lon="-4.596388161422687"><ele>79.5</ele><time>2026-04-18T16:39:56Z</time></trkpt><trkpt lat="48.375010432728054" lon="-4.596319928750482"><ele>80.0</ele><time>2026-04-18T16:39:57Z</time></trkpt><trkpt lat="48.37494197148109" lon="-4.596259559186053"><ele>80.5</ele><time>2026-04-18T16:39:58Z</time></trkpt><trkpt lat="48.37486882403191" lon="-4.596193613958573"><ele>81.0</ele><time>2026-04-18T16:39:59Z</time></trkpt><trkpt lat="48.37479205245309" lon="-4.596123105304184"><ele>81.14285714285714</ele><time>2026-04-18T16:40:00Z</time></trkpt><trkpt lat="48.37472389952908" lon="-4.596053333096418"><ele>81.28571428571428</ele><time>2026-04-18T16:40:01Z</time></trkpt><trkpt lat="48.37466509024002" lon="-4.595989636602251"><ele>81.42857142857142</ele><time>2026-04-18T16:40:02Z</time></trkpt><trkpt lat="48.37460732312223" lon="-4.59592184876513"><ele>81.57142857142857</ele><time>2026-04-18T16:40:03Z</time></trkpt><trkpt lat="48.374551178548586" lon="-4.595851970842096"><ele>81.71428571428571</ele><time>2026-04-18T16:40:04Z</time></trkpt><trkpt lat="48.37449530958986" lon="-4.59578079587593"><ele>81.85714285714285</ele><time>2026-04-18T16:40:05Z</time></trkpt><trkpt lat="48.374447175139494" lon="-4.595714512359886"><ele>82.0</ele><time>2026-04-18T16:40:06Z</time></trkpt><trkpt lat="48.37435274242591" lon="-4.595580803723574"><ele>82.33333333333333</ele><time>2026-04-18T16:40:08Z</time></trkpt><trkpt lat="48.37429377603295" lon="-4.595492195357644"><ele>82.66666666666666</ele><time>2026-04-18T16:40:09Z</time></trkpt><trkpt lat="48.37423088652794" lon="-4.595388271527611"><ele>83.0</ele><time>2026-04-18T16:40:10Z</time></trkpt><trkpt lat="48.374183353564476" lon="-4.595310791299157"><ele>83.33333333333333</ele><time>2026-04-18T16:40:11Z</time></trkpt><trkpt lat="48.37414081671807" lon="-4.5952391113414"><ele>83.66666666666667</ele><time>2026-04-18T16:40:12Z</time></trkpt><trkpt lat="48.37407008984714" lon="-4.595119066094509"><ele>84.0</ele><time>2026-04-18T16:40:14Z</time></trkpt><trkpt lat="48.374000420306245" lon="-4.595000814472676"><ele>85.0</ele><time>2026-04-18T16:40:16Z</time></trkpt><trkpt lat="48.37374316209685" lon="-4.594689201976268"><ele>86.0</ele><time>2026-04-18T16:40:19Z</time></trkpt><trkpt lat="48.37372217837281" lon="-4.594564075494036"><ele>87.0</ele><time>2026-04-18T16:40:21Z</time></trkpt><trkpt lat="48.37400723502182" lon="-4.594428903147904"><ele>87.0</ele><time>2026-04-18T16:40:25Z</time></trkpt><trkpt lat="48.37406025403066" lon="-4.594357932319215"><ele>87.0</ele><time>2026-04-18T16:41:16.999Z</time></trkpt><trkpt lat="48.37408641954259" lon="-4.594263156553343"><ele>87.0</ele><time>2026-04-18T16:41:19.999Z</time></trkpt><trkpt lat="48.374058248130254" lon="-4.594115950939239"><ele>87.0</ele><time>2026-04-18T16:41:21.999Z</time></trkpt><trkpt lat="48.3740207905708" lon="-4.593957852098287"><ele>87.0</ele><time>2026-04-18T16:41:23.999Z</time></trkpt><trkpt lat="48.3738892688498" lon="-4.593937848715831"><ele>87.16666666666667</ele><time>2026-04-18T16:41:25.999Z</time></trkpt><trkpt lat="48.37384424193141" lon="-4.593859977233561"><ele>87.33333333333333</ele><time>2026-04-18T16:41:27.999Z</time></trkpt><trkpt lat="48.37379889359519" lon="-4.593784954135596"><ele>87.5</ele><time>2026-04-18T16:41:29.999Z</time></trkpt><trkpt lat="48.37374953726656" lon="-4.593703301095407"><ele>87.66666666666666</ele><time>2026-04-18T16:41:31.999Z</time></trkpt><trkpt lat="48.37369268421239" lon="-4.593609200722932"><ele>87.83333333333333</ele><time>2026-04-18T16:41:33.999Z</time></trkpt><trkpt lat="48.37363476063594" lon="-4.593511965479764"><ele>88.0</ele><time>2026-04-18T16:41:35.999Z</time></trkpt><trkpt lat="48.373586273192956" lon="-4.593430570498109"><ele>88.33333333333333</ele><time>2026-04-18T16:41:37.999Z</time></trkpt><trkpt lat="48.37353462985156" lon="-4.593343877751549"><ele>88.66666666666666</ele><time>2026-04-18T16:41:39.999Z</time></trkpt><trkpt lat="48.37348724267766" lon="-4.593263617057564"><ele>89.0</ele><time>2026-04-18T16:41:41.999Z</time></trkpt><trkpt lat="48.37341711962426" lon="-4.593140937791376"><ele>89.33333333333333</ele><time>2026-04-18T16:41:45.999Z</time></trkpt><trkpt lat="48.37336277358811" lon="-4.59304349502738"><ele>89.66666666666667</ele><time>2026-04-18T16:41:47.999Z</time></trkpt><trkpt lat="48.373311427373714" lon="-4.592951430941858"><ele>90.0</ele><time>2026-04-18T16:41:49.999Z</time></trkpt><trkpt lat="48.37325795138978" lon="-4.592855568050877"><ele>90.33333333333333</ele><time>2026-04-18T16:41:51.999Z</time></trkpt><trkpt lat="48.37342508681748" lon="-4.592488096997291"><ele>90.66666666666666</ele><time>2026-04-18T16:41:54Z</time></trkpt><trkpt lat="48.37335301637187" lon="-4.592426616691378"><ele>91.0</ele><time>2026-04-18T16:41:56Z</time></trkpt><trkpt lat="48.373283457423454" lon="-4.592373770728483"><ele>91.0</ele><time>2026-04-18T16:41:58Z</time></trkpt><trkpt lat="48.373208184731276" lon="-4.59231184850923"><ele>91.0</ele><time>2026-04-18T16:42:00Z</time></trkpt><trkpt lat="48.37313462098641" lon="-4.592262993991751"><ele>91.0</ele><time>2026-04-18T16:42:02Z</time></trkpt><trkpt lat="48.37306760009085" lon="-4.592202751545562"><ele>91.0</ele><time>2026-04-18T16:42:04Z</time></trkpt><trkpt lat="48.37299971025326" lon="-4.592160031116302"><ele>91.0</ele><time>2026-04-18T16:42:06Z</time></trkpt><trkpt lat="48.37293840391113" lon="-4.592123403724131"><ele>91.0</ele><time>2026-04-18T16:42:08Z</time></trkpt><trkpt lat="48.37286840620351" lon="-4.592071184721076"><ele>91.16666666666666</ele><time>2026-04-18T16:42:10Z</time></trkpt><trkpt lat="48.37281362166448" lon="-4.592021729338002"><ele>91.33333333333333</ele><time>2026-04-18T16:42:12Z</time></trkpt><trkpt lat="48.37275431698471" lon="-4.591978996192015"><ele>91.5</ele><time>2026-04-18T16:42:14Z</time></trkpt><trkpt lat="48.37268044184984" lon="-4.591920255862025"><ele>91.66666666666667</ele><time>2026-04-18T16:42:16Z</time></trkpt><trkpt lat="48.37259745333201" lon="-4.591859382321066"><ele>91.83333333333334</ele><time>2026-04-18T16:42:18Z</time></trkpt><trkpt lat="48.37251892580784" lon="-4.591785731977216"><ele>92.0</ele><time>2026-04-18T16:42:20Z</time></trkpt><trkpt lat="48.372431400605116" lon="-4.591755291815217"><ele>92.0</ele><time>2026-04-18T16:42:22Z</time></trkpt><trkpt lat="48.37235275587458" lon="-4.591703206640227"><ele>92.0</ele><time>2026-04-18T16:42:24Z</time></trkpt><trkpt lat="48.37229290872445" lon="-4.591640898747964"><ele>92.0</ele><time>2026-04-18T16:42:26Z</time></trkpt><trkpt lat="48.37226625532135" lon="-4.591546081796269"><ele>92.0</ele><time>2026-04-18T16:42:28Z</time></trkpt><trkpt lat="48.37225443159543" lon="-4.59142945105866"><ele>92.0</ele><time>2026-04-18T16:42:31Z</time></trkpt><trkpt lat="48.37218407088598" lon="-4.591472572042721"><ele>92.0</ele><time>2026-04-18T16:42:43Z</time></trkpt><trkpt lat="48.372140218330635" lon="-4.5915558701675625"><ele>92.16666666666667</ele><time>2026-04-18T16:42:46Z</time></trkpt><trkpt lat="48.372078310696416" lon="-4.591607593783686"><ele>92.33333333333334</ele><time>2026-04-18T16:42:48Z</time></trkpt><trkpt lat="48.3719955990838" lon="-4.591594870391256"><ele>92.5</ele><time>2026-04-18T16:42:50Z</time></trkpt><trkpt lat="48.37192651498287" lon="-4.59151889806171"><ele>92.66666666666667</ele><time>2026-04-18T16:42:52Z</time></trkpt><trkpt lat="48.37189843781785" lon="-4.591386083348494"><ele>92.83333333333333</ele><time>2026-04-18T16:42:54Z</time></trkpt><trkpt lat="48.37188145542375" lon="-4.591273416461755"><ele>93.0</ele><time>2026-04-18T16:42:56Z</time></trkpt><trkpt lat="48.37182372152547" lon="-4.591131219263364"><ele>93.0</ele><time>2026-04-18T16:42:58Z</time></trkpt><trkpt lat="48.37175932607409" lon="-4.591007732441005"><ele>93.0</ele><time>2026-04-18T16:43:00Z</time></trkpt><trkpt lat="48.371694686460586" lon="-4.590875088122507"><ele>93.0</ele><time>2026-04-18T16:43:02Z</time></trkpt><trkpt lat="48.37162204335254" lon="-4.5907587020476495"><ele>93.0</ele><time>2026-04-18T16:43:04Z</time></trkpt><trkpt lat="48.37153772202911" lon="-4.59065902198533"><ele>93.0</ele><time>2026-04-18T16:43:06Z</time></trkpt><trkpt lat="48.371470665965596" lon="-4.5905547127486965"><ele>93.0</ele><time>2026-04-18T16:43:08Z</time></trkpt><trkpt lat="48.37140062482636" lon="-4.590449045510611"><ele>93.0</ele><time>2026-04-18T16:43:09.999Z</time></trkpt><trkpt lat="48.37132677558428" lon="-4.590342826180236"><ele>93.0</ele><time>2026-04-18T16:43:11.999Z</time></trkpt><trkpt lat="48.37125110591251" lon="-4.590235927085152"><ele>93.0</ele><time>2026-04-18T16:43:13.999Z</time></trkpt><trkpt lat="48.37116906180056" lon="-4.590120955658472"><ele>93.0</ele><time>2026-04-18T16:43:15.999Z</time></trkpt><trkpt lat="48.371081508327855" lon="-4.589994897881112"><ele>92.5</ele><time>2026-04-18T16:43:17.999Z</time></trkpt><trkpt lat="48.371034989896614" lon="-4.58992921809096"><ele>92.0</ele><time>2026-04-18T16:43:18.999Z</time></trkpt><trkpt lat="48.370974278840706" lon="-4.589887763987544"><ele>91.5</ele><time>2026-04-18T16:43:19.999Z</time></trkpt><trkpt lat="48.3709220019768" lon="-4.58983332823459"><ele>91.0</ele><time>2026-04-18T16:43:20.999Z</time></trkpt><trkpt lat="48.37086690889037" lon="-4.589757812858583"><ele>90.5</ele><time>2026-04-18T16:43:21.999Z</time></trkpt><trkpt lat="48.37074724261176" lon="-4.589629182381894"><ele>90.0</ele><time>2026-04-18T16:43:23.999Z</time></trkpt><trkpt lat="48.37068071443312" lon="-4.589564187057867"><ele>90.0</ele><time>2026-04-18T16:43:24.999Z</time></trkpt><trkpt lat="48.37059780080704" lon="-4.589518060861084"><ele>90.0</ele><time>2026-04-18T16:43:25.999Z</time></trkpt><trkpt lat="48.37053371442675" lon="-4.58946544810745"><ele>90.0</ele><time>2026-04-18T16:43:26.999Z</time></trkpt><trkpt lat="48.37045056800982" lon="-4.589400668610821"><ele>90.0</ele><time>2026-04-18T16:43:27.999Z</time></trkpt><trkpt lat="48.370323583844744" lon="-4.589301287261842"><ele>90.0</ele><time>2026-04-18T16:43:29.999Z</time></trkpt><trkpt lat="48.370237832577224" lon="-4.589235055803492"><ele>89.66666666666667</ele><time>2026-04-18T16:43:30.999Z</time></trkpt><trkpt lat="48.370164553941976" lon="-4.589178519875926"><ele>89.33333333333333</ele><time>2026-04-18T16:43:31.999Z</time></trkpt><trkpt lat="48.370106527616635" lon="-4.589112384308082"><ele>89.0</ele><time>2026-04-18T16:43:32.999Z</time></trkpt><trkpt lat="48.37001187708862" lon="-4.589050702029942"><ele>88.66666666666666</ele><time>2026-04-18T16:43:33.999Z</time></trkpt><trkpt lat="48.369932897386306" lon="-4.588976974073421"><ele>88.33333333333333</ele><time>2026-04-18T16:43:34.999Z</time></trkpt><trkpt lat="48.36984606006937" lon="-4.588919021726607"><ele>88.0</ele><time>2026-04-18T16:43:35.999Z</time></trkpt><trkpt lat="48.36977028577394" lon="-4.588855272296241"><ele>88.0</ele><time>2026-04-18T16:43:36.999Z</time></trkpt><trkpt lat="48.36969451410033" lon="-4.58878963570314"><ele>88.0</ele><time>2026-04-18T16:43:37.999Z</time></trkpt><trkpt lat="48.369616052305254" lon="-4.588732812299554"><ele>88.0</ele><time>2026-04-18T16:43:38.999Z</time></trkpt><trkpt lat="48.369538287744966" lon="-4.588676089961772"><ele>88.0</ele><time>2026-04-18T16:43:39.999Z</time></trkpt><trkpt lat="48.36946516934848" lon="-4.588621387353269"><ele>88.0</ele><time>2026-04-18T16:43:40.999Z</time></trkpt><trkpt lat="48.36939897299959" lon="-4.588569839518249"><ele>88.0</ele><time>2026-04-18T16:43:41.999Z</time></trkpt><trkpt lat="48.369343234545205" lon="-4.5885177796847625"><ele>87.0</ele><time>2026-04-18T16:43:42.999Z</time></trkpt><trkpt lat="48.369240773898596" lon="-4.588439505097623"><ele>86.0</ele><time>2026-04-18T16:43:44.999Z</time></trkpt><trkpt lat="48.369114575988775" lon="-4.588360317985553"><ele>85.0</ele><time>2026-04-18T16:43:46.999Z</time></trkpt><trkpt lat="48.369048585454024" lon="-4.588347904010663"><ele>84.0</ele><time>2026-04-18T16:43:47.999Z</time></trkpt><trkpt lat="48.36898344716796" lon="-4.588347498971127"><ele>83.0</ele><time>2026-04-18T16:43:48.999Z</time></trkpt><trkpt lat="48.368877063138406" lon="-4.588285322136845"><ele>84.0</ele><time>2026-04-18T16:43:50.999Z</time></trkpt><trkpt lat="48.36872895603755" lon="-4.588372811165691"><ele>85.0</ele><time>2026-04-18T16:43:52.999Z</time></trkpt><trkpt lat="48.368627999830814" lon="-4.588446868486097"><ele>86.0</ele><time>2026-04-18T16:43:54.999Z</time></trkpt><trkpt lat="48.36846980045831" lon="-4.588297183511558"><ele>86.0</ele><time>2026-04-18T16:43:56.999Z</time></trkpt><trkpt lat="48.36841808367647" lon="-4.5882196102914845"><ele>86.0</ele><time>2026-04-18T16:43:57.999Z</time></trkpt><trkpt lat="48.36834327884306" lon="-4.588118126593407"><ele>86.0</ele><time>2026-04-18T16:44:00Z</time></trkpt><trkpt lat="48.36826330738997" lon="-4.5880279214409185"><ele>86.0</ele><time>2026-04-18T16:44:02Z</time></trkpt><trkpt lat="48.36819475533851" lon="-4.587970320714827"><ele>86.0</ele><time>2026-04-18T16:44:04Z</time></trkpt><trkpt lat="48.368137097218884" lon="-4.587879059747754"><ele>86.0</ele><time>2026-04-18T16:44:06Z</time></trkpt><trkpt lat="48.36806600192178" lon="-4.587813539126894"><ele>86.16666666666667</ele><time>2026-04-18T16:44:08Z</time></trkpt><trkpt lat="48.367998146600286" lon="-4.587737947131821"><ele>86.33333333333334</ele><time>2026-04-18T16:44:10Z</time></trkpt><trkpt lat="48.367929833556644" lon="-4.587672731131466"><ele>86.5</ele><time>2026-04-18T16:44:12Z</time></trkpt><trkpt lat="48.36787352217734" lon="-4.587607604725063"><ele>86.66666666666667</ele><time>2026-04-18T16:44:14Z</time></trkpt><trkpt lat="48.367817598091676" lon="-4.587551327643295"><ele>86.83333333333333</ele><time>2026-04-18T16:44:16Z</time></trkpt><trkpt lat="48.36773657949135" lon="-4.58748264930197"><ele>87.0</ele><time>2026-04-18T16:44:18Z</time></trkpt><trkpt lat="48.367649733740045" lon="-4.587404920125484"><ele>87.0</ele><time>2026-04-18T16:44:20Z</time></trkpt><trkpt lat="48.36756899932119" lon="-4.5873090426930565"><ele>87.0</ele><time>2026-04-18T16:44:22Z</time></trkpt><trkpt lat="48.36749330663292" lon="-4.587223055837695"><ele>87.0</ele><time>2026-04-18T16:44:24Z</time></trkpt><trkpt lat="48.367409358990166" lon="-4.587133242631992"><ele>87.0</ele><time>2026-04-18T16:44:26Z</time></trkpt><trkpt lat="48.36732253540797" lon="-4.587029775818918"><ele>87.0</ele><time>2026-04-18T16:44:28Z</time></trkpt><trkpt lat="48.36723294970153" lon="-4.5869196844199855"><ele>87.0</ele><time>2026-04-18T16:44:30Z</time></trkpt><trkpt lat="48.367150070997134" lon="-4.586803791040362"><ele>87.0</ele><time>2026-04-18T16:44:32Z</time></trkpt><trkpt lat="48.3670867022511" lon="-4.586666473772637"><ele>87.0</ele><time>2026-04-18T16:44:34Z</time></trkpt><trkpt lat="48.367014961359914" lon="-4.586544247325988"><ele>87.0</ele><time>2026-04-18T16:44:36Z</time></trkpt><trkpt lat="48.36694519626722" lon="-4.5863976882391855"><ele>87.0</ele><time>2026-04-18T16:44:38Z</time></trkpt><trkpt lat="48.366875682705206" lon="-4.586250027520581"><ele>87.0</ele><time>2026-04-18T16:44:40Z</time></trkpt><trkpt lat="48.36679412739755" lon="-4.586131306377285"><ele>87.0</ele><time>2026-04-18T16:44:42Z</time></trkpt><trkpt lat="48.36672737025376" lon="-4.5860107292239025"><ele>87.0</ele><time>2026-04-18T16:44:44Z</time></trkpt><trkpt lat="48.3666688006664" lon="-4.585892741823162"><ele>87.0</ele><time>2026-04-18T16:44:46Z</time></trkpt><trkpt lat="48.36658659766073" lon="-4.5857546553203985"><ele>86.8</ele><time>2026-04-18T16:44:48Z</time></trkpt><trkpt lat="48.366540590828286" lon="-4.585685041731435"><ele>86.6</ele><time>2026-04-18T16:44:49Z</time></trkpt><trkpt lat="48.3664578628711" lon="-4.585574844323687"><ele>86.39999999999999</ele><time>2026-04-18T16:44:51Z</time></trkpt><trkpt lat="48.366368178134955" lon="-4.585471519705651"><ele>86.19999999999999</ele><time>2026-04-18T16:44:53Z</time></trkpt><trkpt lat="48.366277368735" lon="-4.585373809162422"><ele>86.0</ele><time>2026-04-18T16:44:55Z</time></trkpt><trkpt lat="48.36616770698945" lon="-4.585299511457134"><ele>85.5</ele><time>2026-04-18T16:44:57Z</time></trkpt><trkpt lat="48.36607473829361" lon="-4.5852222943234295"><ele>85.0</ele><time>2026-04-18T16:44:59Z</time></trkpt><trkpt lat="48.365967998669035" lon="-4.585146771045438"><ele>84.5</ele><time>2026-04-18T16:45:01Z</time></trkpt><trkpt lat="48.36586715612169" lon="-4.585064873525765"><ele>84.0</ele><time>2026-04-18T16:45:03Z</time></trkpt><trkpt lat="48.36576745539422" lon="-4.584985041654682"><ele>84.0</ele><time>2026-04-18T16:45:05Z</time></trkpt><trkpt lat="48.365672970990374" lon="-4.584903283454055"><ele>84.0</ele><time>2026-04-18T16:45:07Z</time></trkpt><trkpt lat="48.36561199758707" lon="-4.58487559553366"><ele>84.0</ele><time>2026-04-18T16:45:07.999Z</time></trkpt><trkpt lat="48.365492125372064" lon="-4.584805058900058"><ele>84.0</ele><time>2026-04-18T16:45:09.999Z</time></trkpt><trkpt lat="48.36538274981488" lon="-4.584768607049768"><ele>84.0</ele><time>2026-04-18T16:45:11.999Z</time></trkpt><trkpt lat="48.365290241923105" lon="-4.584752109706228"><ele>84.4</ele><time>2026-04-18T16:45:13.999Z</time></trkpt><trkpt lat="48.36519092619611" lon="-4.584714420937559"><ele>84.80000000000001</ele><time>2026-04-18T16:45:15.999Z</time></trkpt><trkpt lat="48.3650178731947" lon="-4.584698035884877"><ele>85.19999999999999</ele><time>2026-04-18T16:45:18.999Z</time></trkpt><trkpt lat="48.364951523891094" lon="-4.58469291568599"><ele>85.6</ele><time>2026-04-18T16:45:19.999Z</time></trkpt><trkpt lat="48.364882566604095" lon="-4.58467836779213"><ele>86.0</ele><time>2026-04-18T16:45:20.999Z</time></trkpt><trkpt lat="48.364756896758976" lon="-4.584633416248116"><ele>86.33333333333334</ele><time>2026-04-18T16:45:22.999Z</time></trkpt><trkpt lat="48.36469222342084" lon="-4.5846437580612385"><ele>86.66666666666667</ele><time>2026-04-18T16:45:23.999Z</time></trkpt><trkpt lat="48.364626432204226" lon="-4.584621614414575"><ele>87.0</ele><time>2026-04-18T16:45:24.999Z</time></trkpt><trkpt lat="48.36456061891523" lon="-4.5846229015216"><ele>87.33333333333333</ele><time>2026-04-18T16:45:25.999Z</time></trkpt><trkpt lat="48.36443733616755" lon="-4.584631512533035"><ele>87.66666666666666</ele><time>2026-04-18T16:45:27.999Z</time></trkpt><trkpt lat="48.36431700016644" lon="-4.584629596727923"><ele>88.0</ele><time>2026-04-18T16:45:29.999Z</time></trkpt><trkpt lat="48.36422170092027" lon="-4.584675141640623"><ele>88.0</ele><time>2026-04-18T16:45:31.999Z</time></trkpt><trkpt lat="48.36412671495386" lon="-4.584727498698984"><ele>88.0</ele><time>2026-04-18T16:45:33.999Z</time></trkpt><trkpt lat="48.364030788777" lon="-4.584760939957479"><ele>88.0</ele><time>2026-04-18T16:45:35.999Z</time></trkpt><trkpt lat="48.3639287850236" lon="-4.584812681051764"><ele>88.0</ele><time>2026-04-18T16:45:37.999Z</time></trkpt><trkpt lat="48.36383842403223" lon="-4.584850326481732"><ele>88.0</ele><time>2026-04-18T16:45:39.999Z</time></trkpt><trkpt lat="48.36373959347764" lon="-4.584867453103659"><ele>88.4</ele><time>2026-04-18T16:45:41.999Z</time></trkpt><trkpt lat="48.3636404988302" lon="-4.584890184373152"><ele>88.80000000000001</ele><time>2026-04-18T16:45:43.999Z</time></trkpt><trkpt lat="48.363536520976055" lon="-4.584876289488029"><ele>89.2</ele><time>2026-04-18T16:45:45.999Z</time></trkpt><trkpt lat="48.363438060754035" lon="-4.584842787349477"><ele>89.6</ele><time>2026-04-18T16:45:47.999Z</time></trkpt><trkpt lat="48.363349162722145" lon="-4.584799298238645"><ele>90.0</ele><time>2026-04-18T16:45:49.999Z</time></trkpt><trkpt lat="48.36325376510763" lon="-4.584754722846233"><ele>90.0</ele><time>2026-04-18T16:45:51.999Z</time></trkpt><trkpt lat="48.363191426121055" lon="-4.584729776713153"><ele>90.0</ele><time>2026-04-18T16:45:52.999Z</time></trkpt><trkpt lat="48.36309088049232" lon="-4.584708321291127"><ele>90.0</ele><time>2026-04-18T16:45:54.999Z</time></trkpt><trkpt lat="48.363011636627114" lon="-4.584678063405636"><ele>90.0</ele><time>2026-04-18T16:45:56.999Z</time></trkpt><trkpt lat="48.36292282595004" lon="-4.584574560978894"><ele>90.0</ele><time>2026-04-18T16:45:58.999Z</time></trkpt><trkpt lat="48.3628561352017" lon="-4.5844461531017275"><ele>89.4</ele><time>2026-04-18T16:46:00.999Z</time></trkpt><trkpt lat="48.3627922802338" lon="-4.5843148566710585"><ele>88.8</ele><time>2026-04-18T16:46:02.999Z</time></trkpt><trkpt lat="48.36272845100544" lon="-4.584172792035748"><ele>88.19999999999999</ele><time>2026-04-18T16:46:05Z</time></trkpt><trkpt lat="48.362673248633754" lon="-4.584046038387153"><ele>87.6</ele><time>2026-04-18T16:46:07Z</time></trkpt><trkpt lat="48.36259971874751" lon="-4.583930315995857"><ele>87.0</ele><time>2026-04-18T16:46:09Z</time></trkpt><trkpt lat="48.36250946591309" lon="-4.583894642662593"><ele>87.0</ele><time>2026-04-18T16:46:11Z</time></trkpt><trkpt lat="48.36245577389937" lon="-4.583844329230075"><ele>87.0</ele><time>2026-04-18T16:46:12Z</time></trkpt><trkpt lat="48.36245778536526" lon="-4.583713304121604"><ele>87.0</ele><time>2026-04-18T16:46:13Z</time></trkpt><trkpt lat="48.3624677877294" lon="-4.583610347425151"><ele>87.0</ele><time>2026-04-18T16:46:14Z</time></trkpt><trkpt lat="48.362432978201774" lon="-4.583473435360467"><ele>87.0</ele><time>2026-04-18T16:46:16Z</time></trkpt><trkpt lat="48.36239552712401" lon="-4.583389147876535"><ele>87.0</ele><time>2026-04-18T16:46:17Z</time></trkpt><trkpt lat="48.36234914276736" lon="-4.583239934290885"><ele>87.0</ele><time>2026-04-18T16:46:19Z</time></trkpt><trkpt lat="48.36229835667338" lon="-4.583106689214709"><ele>87.0</ele><time>2026-04-18T16:46:21Z</time></trkpt><trkpt lat="48.36224196111567" lon="-4.582976856471151"><ele>87.0</ele><time>2026-04-18T16:46:23Z</time></trkpt><trkpt lat="48.362188013288254" lon="-4.582853935966186"><ele>87.0</ele><time>2026-04-18T16:46:25Z</time></trkpt><trkpt lat="48.362136473467565" lon="-4.582721171291188"><ele>87.0</ele><time>2026-04-18T16:46:27Z</time></trkpt><trkpt lat="48.36208544472606" lon="-4.582579633485871"><ele>86.75</ele><time>2026-04-18T16:46:29Z</time></trkpt><trkpt lat="48.362027299371185" lon="-4.582434090807213"><ele>86.5</ele><time>2026-04-18T16:46:31Z</time></trkpt><trkpt lat="48.36196469857845" lon="-4.582283956666137"><ele>86.25</ele><time>2026-04-18T16:46:33Z</time></trkpt><trkpt lat="48.36189845518996" lon="-4.582134385644043"><ele>86.0</ele><time>2026-04-18T16:46:35Z</time></trkpt><trkpt lat="48.361833931687045" lon="-4.581963009748139"><ele>86.00000000000001</ele><time>2026-04-18T16:46:37Z</time></trkpt><trkpt lat="48.36179842089461" lon="-4.581876069720508"><ele>86.0</ele><time>2026-04-18T16:46:38Z</time></trkpt><trkpt lat="48.3617605090785" lon="-4.5818001526781424"><ele>86.0</ele><time>2026-04-18T16:46:39Z</time></trkpt><trkpt lat="48.36172451092588" lon="-4.581717955039997"><ele>86.0</ele><time>2026-04-18T16:46:40Z</time></trkpt><trkpt lat="48.36168536209059" lon="-4.581635327401328"><ele>86.0</ele><time>2026-04-18T16:46:41Z</time></trkpt><trkpt lat="48.361640683580944" lon="-4.581556089904691"><ele>86.00000000000001</ele><time>2026-04-18T16:46:42Z</time></trkpt><trkpt lat="48.36159765568585" lon="-4.581469231904119"><ele>86.0</ele><time>2026-04-18T16:46:43Z</time></trkpt><trkpt lat="48.36155496637025" lon="-4.581385068597894"><ele>86.00000000000001</ele><time>2026-04-18T16:46:44Z</time></trkpt><trkpt lat="48.36151397560273" lon="-4.581299823224852"><ele>86.0</ele><time>2026-04-18T16:46:45Z</time></trkpt><trkpt lat="48.361470842963904" lon="-4.581213828056342"><ele>86.0</ele><time>2026-04-18T16:46:46Z</time></trkpt><trkpt lat="48.361426176280524" lon="-4.581125845171864"><ele>86.0</ele><time>2026-04-18T16:46:47Z</time></trkpt><trkpt lat="48.36138765570181" lon="-4.581036578158603"><ele>86.0</ele><time>2026-04-18T16:46:48Z</time></trkpt><trkpt lat="48.36135153584572" lon="-4.580945603680356"><ele>86.00000000000001</ele><time>2026-04-18T16:46:49Z</time></trkpt><trkpt lat="48.36131321035893" lon="-4.580857146464764"><ele>86.0</ele><time>2026-04-18T16:46:50Z</time></trkpt><trkpt lat="48.361267609813616" lon="-4.580768020855021"><ele>85.16666666666667</ele><time>2026-04-18T16:46:51Z</time></trkpt><trkpt lat="48.36122088318652" lon="-4.580681398366086"><ele>84.33333333333334</ele><time>2026-04-18T16:46:52Z</time></trkpt><trkpt lat="48.3611688529968" lon="-4.580587566089599"><ele>83.5</ele><time>2026-04-18T16:46:53Z</time></trkpt><trkpt lat="48.36112496385902" lon="-4.5804901799528395"><ele>82.66666666666667</ele><time>2026-04-18T16:46:54Z</time></trkpt><trkpt lat="48.36107648468314" lon="-4.580393511523741"><ele>81.83333333333333</ele><time>2026-04-18T16:46:55Z</time></trkpt><trkpt lat="48.36103007299516" lon="-4.5802910764449996"><ele>81.0</ele><time>2026-04-18T16:46:56Z</time></trkpt><trkpt lat="48.360982567906625" lon="-4.580185220489114"><ele>80.66666666666667</ele><time>2026-04-18T16:46:57Z</time></trkpt><trkpt lat="48.36092720326451" lon="-4.580079884636311"><ele>80.33333333333333</ele><time>2026-04-18T16:46:58Z</time></trkpt><trkpt lat="48.36087551489322" lon="-4.57997138490159"><ele>80.0</ele><time>2026-04-18T16:46:59Z</time></trkpt><trkpt lat="48.36083462324221" lon="-4.579864616720629"><ele>79.66666666666666</ele><time>2026-04-18T16:47:00Z</time></trkpt><trkpt lat="48.36079052122353" lon="-4.579750883843504"><ele>79.33333333333333</ele><time>2026-04-18T16:47:01Z</time></trkpt><trkpt lat="48.3607503834214" lon="-4.579635178644715"><ele>79.0</ele><time>2026-04-18T16:47:02Z</time></trkpt><trkpt lat="48.360709638510784" lon="-4.579523803283582"><ele>79.0</ele><time>2026-04-18T16:47:03Z</time></trkpt><trkpt lat="48.36068106884552" lon="-4.579410341502711"><ele>79.0</ele><time>2026-04-18T16:47:04Z</time></trkpt><trkpt lat="48.36065374726704" lon="-4.579295556529914"><ele>79.0</ele><time>2026-04-18T16:47:05Z</time></trkpt><trkpt lat="48.360618958297216" lon="-4.57917368708024"><ele>79.0</ele><time>2026-04-18T16:47:06Z</time></trkpt><trkpt lat="48.360590449063274" lon="-4.579037139495996"><ele>79.0</ele><time>2026-04-18T16:47:07Z</time></trkpt><trkpt lat="48.36056099391584" lon="-4.578890348674748"><ele>79.0</ele><time>2026-04-18T16:47:08Z</time></trkpt><trkpt lat="48.36052440336221" lon="-4.578742666583143"><ele>78.4</ele><time>2026-04-18T16:47:09Z</time></trkpt><trkpt lat="48.3604902207489" lon="-4.578592403750683"><ele>77.80000000000001</ele><time>2026-04-18T16:47:10Z</time></trkpt><trkpt lat="48.36046786269305" lon="-4.5784461313493185"><ele>77.19999999999999</ele><time>2026-04-18T16:47:11Z</time></trkpt><trkpt lat="48.36043479597425" lon="-4.578291836857093"><ele>76.6</ele><time>2026-04-18T16:47:12Z</time></trkpt><trkpt lat="48.36040112893401" lon="-4.578138896016113"><ele>76.0</ele><time>2026-04-18T16:47:13Z</time></trkpt><trkpt lat="48.36037258784256" lon="-4.577988720195908"><ele>76.25</ele><time>2026-04-18T16:47:14Z</time></trkpt><trkpt lat="48.36034585528822" lon="-4.577829022771724"><ele>76.5</ele><time>2026-04-18T16:47:15Z</time></trkpt><trkpt lat="48.36030511204535" lon="-4.577678112445826"><ele>76.75</ele><time>2026-04-18T16:47:16Z</time></trkpt><trkpt lat="48.36027852057593" lon="-4.577511121305913"><ele>77.0</ele><time>2026-04-18T16:47:16.999Z</time></trkpt><trkpt lat="48.360232911307804" lon="-4.5773460373259685"><ele>77.0</ele><time>2026-04-18T16:47:17.999Z</time></trkpt><trkpt lat="48.360197185755695" lon="-4.57718472940687"><ele>77.0</ele><time>2026-04-18T16:47:18.999Z</time></trkpt><trkpt lat="48.36016776049947" lon="-4.577017156087829"><ele>77.0</ele><time>2026-04-18T16:47:19.999Z</time></trkpt><trkpt lat="48.36014176671592" lon="-4.576853884906635"><ele>77.0</ele><time>2026-04-18T16:47:20.999Z</time></trkpt><trkpt lat="48.3601297683642" lon="-4.576687382265395"><ele>77.0</ele><time>2026-04-18T16:47:21.999Z</time></trkpt><trkpt lat="48.36012636886416" lon="-4.576522961142934"><ele>77.0</ele><time>2026-04-18T16:47:22.999Z</time></trkpt><trkpt lat="48.36012700018881" lon="-4.576358478592457"><ele>77.0</ele><time>2026-04-18T16:47:23.999Z</time></trkpt><trkpt lat="48.36013892341423" lon="-4.5762020481499865"><ele>77.0</ele><time>2026-04-18T16:47:24.999Z</time></trkpt><trkpt lat="48.360153817209984" lon="-4.576053128263135"><ele>77.0</ele><time>2026-04-18T16:47:25.999Z</time></trkpt><trkpt lat="48.36017800509716" lon="-4.575917742601378"><ele>76.66666666666667</ele><time>2026-04-18T16:47:26.999Z</time></trkpt><trkpt lat="48.360206194708304" lon="-4.575793290165129"><ele>76.33333333333334</ele><time>2026-04-18T16:47:27.999Z</time></trkpt><trkpt lat="48.36022764546507" lon="-4.575673725641876"><ele>76.0</ele><time>2026-04-18T16:47:28.999Z</time></trkpt><trkpt lat="48.36025273239003" lon="-4.575556012398045"><ele>75.66666666666667</ele><time>2026-04-18T16:47:29.999Z</time></trkpt><trkpt lat="48.36028088287298" lon="-4.575450221671105"><ele>75.33333333333333</ele><time>2026-04-18T16:47:30.999Z</time></trkpt><trkpt lat="48.36030037840362" lon="-4.575341878766368"><ele>75.0</ele><time>2026-04-18T16:47:31.999Z</time></trkpt><trkpt lat="48.360317100382495" lon="-4.575240432380628"><ele>74.66666666666667</ele><time>2026-04-18T16:47:32.999Z</time></trkpt><trkpt lat="48.360339942670976" lon="-4.575143274793146"><ele>74.33333333333333</ele><time>2026-04-18T16:47:33.999Z</time></trkpt><trkpt lat="48.36036043821594" lon="-4.575047395215784"><ele>74.0</ele><time>2026-04-18T16:47:34.999Z</time></trkpt><trkpt lat="48.36038143885415" lon="-4.574955110456554"><ele>73.66666666666666</ele><time>2026-04-18T16:47:35.999Z</time></trkpt><trkpt lat="48.36042311125007" lon="-4.5747859106055575"><ele>73.33333333333333</ele><time>2026-04-18T16:47:37.999Z</time></trkpt><trkpt lat="48.360442883833485" lon="-4.574600614126023"><ele>73.0</ele><time>2026-04-18T16:47:39.999Z</time></trkpt><trkpt lat="48.36046244994402" lon="-4.57442787201015"><ele>72.6</ele><time>2026-04-18T16:47:41.999Z</time></trkpt><trkpt lat="48.36047523522811" lon="-4.574260219614746"><ele>72.19999999999999</ele><time>2026-04-18T16:47:43.999Z</time></trkpt><trkpt lat="48.36048339563336" lon="-4.57410348921403"><ele>71.8</ele><time>2026-04-18T16:47:45.999Z</time></trkpt><trkpt lat="48.36048618476529" lon="-4.57395070331152"><ele>71.39999999999999</ele><time>2026-04-18T16:47:47.999Z</time></trkpt><trkpt lat="48.36048057646522" lon="-4.57379978341889"><ele>71.0</ele><time>2026-04-18T16:47:49.999Z</time></trkpt><trkpt lat="48.36048437066147" lon="-4.573639119501683"><ele>70.8</ele><time>2026-04-18T16:47:51.999Z</time></trkpt><trkpt lat="48.36047166600952" lon="-4.573473474006014"><ele>70.6</ele><time>2026-04-18T16:47:53.999Z</time></trkpt><trkpt lat="48.36045399015192" lon="-4.573297197337513"><ele>70.4</ele><time>2026-04-18T16:47:55.999Z</time></trkpt><trkpt lat="48.36044652724529" lon="-4.573129408973036"><ele>70.2</ele><time>2026-04-18T16:47:57.999Z</time></trkpt><trkpt lat="48.360429566691984" lon="-4.572979051724404"><ele>70.0</ele><time>2026-04-18T16:47:59.999Z</time></trkpt><trkpt lat="48.36041400585642" lon="-4.572833554337944"><ele>70.0</ele><time>2026-04-18T16:48:01.999Z</time></trkpt><trkpt lat="48.36040448211745" lon="-4.572679814916617"><ele>70.0</ele><time>2026-04-18T16:48:03.999Z</time></trkpt><trkpt lat="48.360390984593984" lon="-4.572528923909562"><ele>70.0</ele><time>2026-04-18T16:48:05.999Z</time></trkpt><trkpt lat="48.36037218895753" lon="-4.5723819044394345"><ele>70.0</ele><time>2026-04-18T16:48:07.999Z</time></trkpt><trkpt lat="48.36036552444922" lon="-4.572216147782623"><ele>70.0</ele><time>2026-04-18T16:48:09.999Z</time></trkpt><trkpt lat="48.360359589358936" lon="-4.57204492554012"><ele>70.2</ele><time>2026-04-18T16:48:12Z</time></trkpt><trkpt lat="48.36035172105429" lon="-4.571887027725121"><ele>70.4</ele><time>2026-04-18T16:48:14Z</time></trkpt><trkpt lat="48.36034159621181" lon="-4.571788222316491"><ele>70.6</ele><time>2026-04-18T16:48:15Z</time></trkpt><trkpt lat="48.36032919019608" lon="-4.5716103738596665"><ele>70.8</ele><time>2026-04-18T16:48:17Z</time></trkpt><trkpt lat="48.36032110500169" lon="-4.5714357714498135"><ele>71.0</ele><time>2026-04-18T16:48:19Z</time></trkpt><trkpt lat="48.36030543899524" lon="-4.571275417002185"><ele>70.8</ele><time>2026-04-18T16:48:21Z</time></trkpt><trkpt lat="48.36030262012115" lon="-4.571175532359021"><ele>70.6</ele><time>2026-04-18T16:48:22Z</time></trkpt><trkpt lat="48.360287458159654" lon="-4.571083329890715"><ele>70.4</ele><time>2026-04-18T16:48:23Z</time></trkpt><trkpt lat="48.36027529053245" lon="-4.570913877898264"><ele>70.2</ele><time>2026-04-18T16:48:25Z</time></trkpt><trkpt lat="48.360263527093885" lon="-4.57075768639865"><ele>70.0</ele><time>2026-04-18T16:48:27Z</time></trkpt><trkpt lat="48.360244169110906" lon="-4.570605354428054"><ele>70.0</ele><time>2026-04-18T16:48:29Z</time></trkpt><trkpt lat="48.360177449239025" lon="-4.570590674858828"><ele>70.0</ele><time>2026-04-18T16:48:30Z</time></trkpt><trkpt lat="48.36018560523303" lon="-4.570468075888752"><ele>70.0</ele><time>2026-04-18T16:48:31Z</time></trkpt><trkpt lat="48.36021411836594" lon="-4.57030013041178"><ele>70.0</ele><time>2026-04-18T16:48:33Z</time></trkpt><trkpt lat="48.36023344363995" lon="-4.570162695512798"><ele>70.0</ele><time>2026-04-18T16:48:35Z</time></trkpt><trkpt lat="48.3602664698016" lon="-4.57002021673256"><ele>69.83333333333333</ele><time>2026-04-18T16:48:37Z</time></trkpt><trkpt lat="48.36030593913895" lon="-4.569891393576053"><ele>69.66666666666666</ele><time>2026-04-18T16:48:39Z</time></trkpt><trkpt lat="48.36032374575858" lon="-4.569772042971558"><ele>69.5</ele><time>2026-04-18T16:48:41Z</time></trkpt><trkpt lat="48.36035187694655" lon="-4.569678423744768"><ele>69.33333333333333</ele><time>2026-04-18T16:48:43Z</time></trkpt><trkpt lat="48.360377848126504" lon="-4.569591992823818"><ele>69.16666666666667</ele><time>2026-04-18T16:48:45Z</time></trkpt><trkpt lat="48.36040504040672" lon="-4.5695047997419405"><ele>69.0</ele><time>2026-04-18T16:48:47Z</time></trkpt><trkpt lat="48.3604402699082" lon="-4.569391747579474"><ele>69.0</ele><time>2026-04-18T16:48:50Z</time></trkpt><trkpt lat="48.36047593603816" lon="-4.569277294194174"><ele>69.0</ele><time>2026-04-18T16:48:53Z</time></trkpt><trkpt lat="48.36050925008237" lon="-4.5691703887169846"><ele>69.0</ele><time>2026-04-18T16:48:56Z</time></trkpt><trkpt lat="48.36054339574235" lon="-4.569060814627115"><ele>69.0</ele><time>2026-04-18T16:48:58Z</time></trkpt><trkpt lat="48.360578946846516" lon="-4.568949716785025"><ele>69.0</ele><time>2026-04-18T16:49:00Z</time></trkpt><trkpt lat="48.360615240934244" lon="-4.568838735771851"><ele>69.0</ele><time>2026-04-18T16:49:02Z</time></trkpt><trkpt lat="48.36068547244273" lon="-4.568737091520956"><ele>68.5</ele><time>2026-04-18T16:49:04Z</time></trkpt><trkpt lat="48.36071096585742" lon="-4.5685870593841384"><ele>68.0</ele><time>2026-04-18T16:49:06Z</time></trkpt><trkpt lat="48.360746552412714" lon="-4.568419827385292"><ele>67.5</ele><time>2026-04-18T16:49:08Z</time></trkpt><trkpt lat="48.3607924126429" lon="-4.568256294366715"><ele>67.0</ele><time>2026-04-18T16:49:10Z</time></trkpt><trkpt lat="48.36083208506903" lon="-4.568070663173784"><ele>67.0</ele><time>2026-04-18T16:49:12Z</time></trkpt><trkpt lat="48.360852479779275" lon="-4.567980466559937"><ele>67.0</ele><time>2026-04-18T16:49:13Z</time></trkpt><trkpt lat="48.36087020115267" lon="-4.567803068091865"><ele>67.0</ele><time>2026-04-18T16:49:15Z</time></trkpt><trkpt lat="48.360880538395065" lon="-4.567613408464179"><ele>67.0</ele><time>2026-04-18T16:49:16.999Z</time></trkpt><trkpt lat="48.36088586353064" lon="-4.567425557487126"><ele>67.0</ele><time>2026-04-18T16:49:18.999Z</time></trkpt><trkpt lat="48.360898423587976" lon="-4.567329588112709"><ele>67.0</ele><time>2026-04-18T16:49:19.999Z</time></trkpt><trkpt lat="48.36089004604754" lon="-4.567224463850364"><ele>67.0</ele><time>2026-04-18T16:49:20.999Z</time></trkpt><trkpt lat="48.3609083440543" lon="-4.5671289268050375"><ele>67.0</ele><time>2026-04-18T16:49:21.999Z</time></trkpt><trkpt lat="48.3609107165491" lon="-4.567024819783144"><ele>67.0</ele><time>2026-04-18T16:49:22.999Z</time></trkpt><trkpt lat="48.360922054213354" lon="-4.56691780191246"><ele>67.0</ele><time>2026-04-18T16:49:23.999Z</time></trkpt><trkpt lat="48.36093154424216" lon="-4.566809545105739"><ele>67.0</ele><time>2026-04-18T16:49:24.999Z</time></trkpt><trkpt lat="48.36094097514683" lon="-4.566706485173709"><ele>67.0</ele><time>2026-04-18T16:49:25.999Z</time></trkpt><trkpt lat="48.36094085569172" lon="-4.566606198424862"><ele>67.0</ele><time>2026-04-18T16:49:26.999Z</time></trkpt><trkpt lat="48.36094706038227" lon="-4.566511762790807"><ele>67.0</ele><time>2026-04-18T16:49:27.999Z</time></trkpt><trkpt lat="48.360940628262206" lon="-4.56641581678838"><ele>67.0</ele><time>2026-04-18T16:49:28.999Z</time></trkpt><trkpt lat="48.36095183233262" lon="-4.566235049612995"><ele>67.0</ele><time>2026-04-18T16:49:30.999Z</time></trkpt><trkpt lat="48.36095785536304" lon="-4.566137873631231"><ele>67.0</ele><time>2026-04-18T16:49:31.999Z</time></trkpt><trkpt lat="48.36096891465942" lon="-4.565959415801446"><ele>67.0</ele><time>2026-04-18T16:49:33.999Z</time></trkpt><trkpt lat="48.36097956189777" lon="-4.56578704397495"><ele>67.33333333333333</ele><time>2026-04-18T16:49:35.999Z</time></trkpt><trkpt lat="48.36100556256383" lon="-4.565564271941518"><ele>67.66666666666667</ele><time>2026-04-18T16:49:38.999Z</time></trkpt><trkpt lat="48.36100443180136" lon="-4.565408714124356"><ele>68.0</ele><time>2026-04-18T16:49:40.999Z</time></trkpt><trkpt lat="48.36100014981609" lon="-4.56505843433458"><ele>67.5</ele><time>2026-04-18T16:49:46.999Z</time></trkpt><trkpt lat="48.36101588783613" lon="-4.564955366239486"><ele>67.0</ele><time>2026-04-18T16:49:47.999Z</time></trkpt><trkpt lat="48.36102715609113" lon="-4.564858533789474"><ele>66.5</ele><time>2026-04-18T16:49:48.999Z</time></trkpt><trkpt lat="48.36104792504007" lon="-4.564690956489767"><ele>66.0</ele><time>2026-04-18T16:49:50.999Z</time></trkpt><trkpt lat="48.361042070241126" lon="-4.564557342778098"><ele>65.5</ele><time>2026-04-18T16:49:52.999Z</time></trkpt><trkpt lat="48.3610489073887" lon="-4.564458279783246"><ele>65.0</ele><time>2026-04-18T16:49:54.999Z</time></trkpt><trkpt lat="48.361108176639455" lon="-4.564423314837144"><ele>64.83333333333334</ele><time>2026-04-18T16:50:48Z</time></trkpt><trkpt lat="48.36117399238939" lon="-4.56444562714371"><ele>64.66666666666667</ele><time>2026-04-18T16:50:50Z</time></trkpt><trkpt lat="48.36125947787641" lon="-4.564457127478245"><ele>64.5</ele><time>2026-04-18T16:50:52Z</time></trkpt><trkpt lat="48.3613259822889" lon="-4.564475377101081"><ele>64.33333333333333</ele><time>2026-04-18T16:50:53Z</time></trkpt><trkpt lat="48.36140095357217" lon="-4.564506490437466"><ele>64.16666666666666</ele><time>2026-04-18T16:50:54Z</time></trkpt><trkpt lat="48.36149415454365" lon="-4.5644611445621175"><ele>64.0</ele><time>2026-04-18T16:50:55Z</time></trkpt><trkpt lat="48.361576100691025" lon="-4.5644728546467555"><ele>63.33333333333333</ele><time>2026-04-18T16:50:56Z</time></trkpt><trkpt lat="48.3616644966965" lon="-4.5644725953018375"><ele>62.666666666666664</ele><time>2026-04-18T16:50:57Z</time></trkpt><trkpt lat="48.36173307129951" lon="-4.564453639221141"><ele>62.0</ele><time>2026-04-18T16:50:58Z</time></trkpt><trkpt lat="48.361817439677985" lon="-4.56441030565974"><ele>61.33333333333333</ele><time>2026-04-18T16:50:59Z</time></trkpt><trkpt lat="48.36188823239083" lon="-4.564339312984765"><ele>60.666666666666664</ele><time>2026-04-18T16:51:00Z</time></trkpt><trkpt lat="48.361966133575514" lon="-4.56423216975247"><ele>60.0</ele><time>2026-04-18T16:51:01Z</time></trkpt><trkpt lat="48.36202705605977" lon="-4.564137048834761"><ele>60.0</ele><time>2026-04-18T16:51:02Z</time></trkpt><trkpt lat="48.36208819915304" lon="-4.564041382384177"><ele>60.0</ele><time>2026-04-18T16:51:03Z</time></trkpt><trkpt lat="48.3621581430957" lon="-4.563930246758189"><ele>60.0</ele><time>2026-04-18T16:51:05Z</time></trkpt><trkpt lat="48.362217229703376" lon="-4.5638670815613525"><ele>60.0</ele><time>2026-04-18T16:51:07Z</time></trkpt><trkpt lat="48.362308591171335" lon="-4.563583895109645"><ele>59.333333333333336</ele><time>2026-04-18T16:52:02.999Z</time></trkpt><trkpt lat="48.362320957927125" lon="-4.56348698344978"><ele>58.66666666666667</ele><time>2026-04-18T16:52:03.999Z</time></trkpt><trkpt lat="48.36234661793819" lon="-4.563379472717204"><ele>58.0</ele><time>2026-04-18T16:52:04.999Z</time></trkpt><trkpt lat="48.36232814223593" lon="-4.563248759504663"><ele>57.333333333333336</ele><time>2026-04-18T16:52:05.999Z</time></trkpt><trkpt lat="48.362288787296905" lon="-4.563112986291723"><ele>56.66666666666667</ele><time>2026-04-18T16:52:06.999Z</time></trkpt><trkpt lat="48.36223234737591" lon="-4.5630016701511344"><ele>56.0</ele><time>2026-04-18T16:52:07.999Z</time></trkpt><trkpt lat="48.36217329744578" lon="-4.5628948317847975"><ele>55.4</ele><time>2026-04-18T16:52:08.999Z</time></trkpt><trkpt lat="48.36210856159707" lon="-4.5627745868873"><ele>54.8</ele><time>2026-04-18T16:52:09.999Z</time></trkpt><trkpt lat="48.36205228724444" lon="-4.5626475929743835"><ele>54.199999999999996</ele><time>2026-04-18T16:52:10.999Z</time></trkpt><trkpt lat="48.36199922190072" lon="-4.5625127807306605"><ele>53.599999999999994</ele><time>2026-04-18T16:52:11.999Z</time></trkpt><trkpt lat="48.36195434216127" lon="-4.5623671906736325"><ele>53.0</ele><time>2026-04-18T16:52:12.999Z</time></trkpt><trkpt lat="48.36192386517101" lon="-4.5622080115946515"><ele>53.0</ele><time>2026-04-18T16:52:13.999Z</time></trkpt><trkpt lat="48.36191313133256" lon="-4.562040800417652"><ele>53.0</ele><time>2026-04-18T16:52:14.999Z</time></trkpt><trkpt lat="48.361912238981496" lon="-4.561870903775404"><ele>53.0</ele><time>2026-04-18T16:52:15.999Z</time></trkpt><trkpt lat="48.361911712968904" lon="-4.5616977081624"><ele>53.0</ele><time>2026-04-18T16:52:16.999Z</time></trkpt><trkpt lat="48.36191663850209" lon="-4.561529105956092"><ele>52.5</ele><time>2026-04-18T16:52:17.999Z</time></trkpt><trkpt lat="48.36194370987322" lon="-4.5613599575640436"><ele>52.0</ele><time>2026-04-18T16:52:18.999Z</time></trkpt><trkpt lat="48.36195400354132" lon="-4.561185812449931"><ele>51.5</ele><time>2026-04-18T16:52:19.999Z</time></trkpt><trkpt lat="48.36198370493915" lon="-4.561012891416456"><ele>51.0</ele><time>2026-04-18T16:52:20.999Z</time></trkpt><trkpt lat="48.36199897017477" lon="-4.5608350664120385"><ele>50.75</ele><time>2026-04-18T16:52:21.999Z</time></trkpt><trkpt lat="48.36201068076424" lon="-4.560646976236337"><ele>50.5</ele><time>2026-04-18T16:52:23Z</time></trkpt><trkpt lat="48.3620304407075" lon="-4.560467074460451"><ele>50.25</ele><time>2026-04-18T16:52:24Z</time></trkpt><trkpt lat="48.36204938240683" lon="-4.5602838269410295"><ele>50.0</ele><time>2026-04-18T16:52:25Z</time></trkpt><trkpt lat="48.362064902106724" lon="-4.560097807577987"><ele>48.25</ele><time>2026-04-18T16:52:26Z</time></trkpt><trkpt lat="48.36207578882224" lon="-4.559917311249327"><ele>46.5</ele><time>2026-04-18T16:52:27Z</time></trkpt><trkpt lat="48.362083696425124" lon="-4.559736389382013"><ele>44.75</ele><time>2026-04-18T16:52:28Z</time></trkpt><trkpt lat="48.36205520236545" lon="-4.559560229477955"><ele>43.0</ele><time>2026-04-18T16:52:29Z</time></trkpt><trkpt lat="48.36202921172079" lon="-4.559375204122784"><ele>42.0</ele><time>2026-04-18T16:52:30Z</time></trkpt><trkpt lat="48.36198947262511" lon="-4.559182908231649"><ele>41.0</ele><time>2026-04-18T16:52:31Z</time></trkpt><trkpt lat="48.36193918920401" lon="-4.559001722247827"><ele>40.0</ele><time>2026-04-18T16:52:32Z</time></trkpt><trkpt lat="48.361875749558315" lon="-4.558822144500878"><ele>39.0</ele><time>2026-04-18T16:52:33Z</time></trkpt><trkpt lat="48.36181516443823" lon="-4.558653981171629"><ele>37.75</ele><time>2026-04-18T16:52:34Z</time></trkpt><trkpt lat="48.3617238943913" lon="-4.5585104055002885"><ele>36.5</ele><time>2026-04-18T16:52:35Z</time></trkpt><trkpt lat="48.36163401094933" lon="-4.558375347635777"><ele>35.25</ele><time>2026-04-18T16:52:36Z</time></trkpt><trkpt lat="48.36155623491064" lon="-4.558227494503696"><ele>34.0</ele><time>2026-04-18T16:52:37Z</time></trkpt><trkpt lat="48.36148347417911" lon="-4.558069147463275"><ele>34.0</ele><time>2026-04-18T16:52:38Z</time></trkpt><trkpt lat="48.36140052637292" lon="-4.557922997513654"><ele>34.0</ele><time>2026-04-18T16:52:39Z</time></trkpt><trkpt lat="48.36131302239977" lon="-4.557786525183529"><ele>34.0</ele><time>2026-04-18T16:52:40Z</time></trkpt><trkpt lat="48.3612325387893" lon="-4.5576380764351985"><ele>34.0</ele><time>2026-04-18T16:52:41Z</time></trkpt><trkpt lat="48.361170948568045" lon="-4.557488940567071"><ele>34.0</ele><time>2026-04-18T16:52:42Z</time></trkpt><trkpt lat="48.361133033578604" lon="-4.557336283273968"><ele>34.0</ele><time>2026-04-18T16:52:43Z</time></trkpt><trkpt lat="48.361119744443414" lon="-4.5571672213405865"><ele>34.0</ele><time>2026-04-18T16:52:44Z</time></trkpt><trkpt lat="48.361141228558715" lon="-4.557001722889643"><ele>34.0</ele><time>2026-04-18T16:52:45Z</time></trkpt><trkpt lat="48.36115739634867" lon="-4.556827940371776"><ele>34.0</ele><time>2026-04-18T16:52:46Z</time></trkpt><trkpt lat="48.36121867004355" lon="-4.556660751788277"><ele>34.0</ele><time>2026-04-18T16:52:47Z</time></trkpt><trkpt lat="48.36124148123046" lon="-4.556479641493151"><ele>34.0</ele><time>2026-04-18T16:52:48Z</time></trkpt><trkpt lat="48.36127572360301" lon="-4.556300622262157"><ele>34.0</ele><time>2026-04-18T16:52:49Z</time></trkpt><trkpt lat="48.361295342147066" lon="-4.556111985625052"><ele>33.5</ele><time>2026-04-18T16:52:50Z</time></trkpt><trkpt lat="48.361278497773306" lon="-4.555918905780565"><ele>33.0</ele><time>2026-04-18T16:52:51Z</time></trkpt><trkpt lat="48.36125736781044" lon="-4.555710859775179"><ele>32.5</ele><time>2026-04-18T16:52:52Z</time></trkpt><trkpt lat="48.36123273490184" lon="-4.555499650487059"><ele>32.0</ele><time>2026-04-18T16:52:53Z</time></trkpt><trkpt lat="48.36120967735601" lon="-4.555314345400728"><ele>29.400000000000002</ele><time>2026-04-18T16:52:54Z</time></trkpt><trkpt lat="48.36119173623791" lon="-4.55514673263733"><ele>26.800000000000004</ele><time>2026-04-18T16:52:55Z</time></trkpt><trkpt lat="48.36120295801143" lon="-4.554987059468442"><ele>24.2</ele><time>2026-04-18T16:52:56Z</time></trkpt><trkpt lat="48.361223274349435" lon="-4.554839572877912"><ele>21.6</ele><time>2026-04-18T16:52:57Z</time></trkpt><trkpt lat="48.361280120292435" lon="-4.5547098446670455"><ele>19.0</ele><time>2026-04-18T16:52:58Z</time></trkpt><trkpt lat="48.36137234576401" lon="-4.554596676729457"><ele>16.2</ele><time>2026-04-18T16:52:59Z</time></trkpt><trkpt lat="48.36147243805204" lon="-4.55452289817621"><ele>13.399999999999999</ele><time>2026-04-18T16:53:00Z</time></trkpt><trkpt lat="48.36157388613209" lon="-4.554474549487291"><ele>10.6</ele><time>2026-04-18T16:53:01Z</time></trkpt><trkpt lat="48.36167206023829" lon="-4.554417024095049"><ele>7.8</ele><time>2026-04-18T16:53:02Z</time></trkpt><trkpt lat="48.361762562084586" lon="-4.554343009637859"><ele>5.0</ele><time>2026-04-18T16:53:03Z</time></trkpt><trkpt lat="48.361857109817606" lon="-4.554267095071005"><ele>5.0</ele><time>2026-04-18T16:53:04Z</time></trkpt><trkpt lat="48.36194579774745" lon="-4.554192173828559"><ele>5.0</ele><time>2026-04-18T16:53:05Z</time></trkpt><trkpt lat="48.362019761432336" lon="-4.554087507086431"><ele>5.0</ele><time>2026-04-18T16:53:06Z</time></trkpt><trkpt lat="48.362069026202796" lon="-4.553955796290125"><ele>5.0</ele><time>2026-04-18T16:53:07Z</time></trkpt><trkpt lat="48.362089775850805" lon="-4.553808901701455"><ele>5.0</ele><time>2026-04-18T16:53:08Z</time></trkpt><trkpt lat="48.362139673659364" lon="-4.553697699905832"><ele>5.333333333333334</ele><time>2026-04-18T16:53:09Z</time></trkpt><trkpt lat="48.36217610359118" lon="-4.553587628890581"><ele>5.666666666666667</ele><time>2026-04-18T16:53:10Z</time></trkpt><trkpt lat="48.36221995902806" lon="-4.553484820721101"><ele>6.0</ele><time>2026-04-18T16:53:11Z</time></trkpt><trkpt lat="48.36227296978389" lon="-4.553379685687138"><ele>6.333333333333334</ele><time>2026-04-18T16:53:12Z</time></trkpt><trkpt lat="48.36228147023877" lon="-4.55327175307342"><ele>6.666666666666667</ele><time>2026-04-18T16:53:13Z</time></trkpt><trkpt lat="48.36233294858962" lon="-4.553105673451066"><ele>7.0</ele><time>2026-04-18T16:53:15Z</time></trkpt><trkpt lat="48.362381677368134" lon="-4.552945937885844"><ele>9.285714285714285</ele><time>2026-04-18T16:53:17Z</time></trkpt><trkpt lat="48.36241545723074" lon="-4.552832298229929"><ele>11.571428571428571</ele><time>2026-04-18T16:53:19Z</time></trkpt><trkpt lat="48.36244785299153" lon="-4.552716309062779"><ele>13.857142857142858</ele><time>2026-04-18T16:53:21Z</time></trkpt><trkpt lat="48.36246701317561" lon="-4.552620911372464"><ele>16.142857142857142</ele><time>2026-04-18T16:53:23Z</time></trkpt><trkpt lat="48.36246466296084" lon="-4.5525139245188875"><ele>18.428571428571427</ele><time>2026-04-18T16:53:25Z</time></trkpt><trkpt lat="48.362448208069985" lon="-4.552410445747836"><ele>20.714285714285715</ele><time>2026-04-18T16:53:27Z</time></trkpt><trkpt lat="48.362433534877425" lon="-4.552301205666493"><ele>23.0</ele><time>2026-04-18T16:53:29Z</time></trkpt><trkpt lat="48.362420590703245" lon="-4.552204837893479"><ele>23.0</ele><time>2026-04-18T16:53:31Z</time></trkpt><trkpt lat="48.3624019441017" lon="-4.552065916918813"><ele>23.0</ele><time>2026-04-18T16:53:34Z</time></trkpt><trkpt lat="48.36242413520562" lon="-4.551960929835113"><ele>23.0</ele><time>2026-04-18T16:53:36Z</time></trkpt><trkpt lat="48.362412147934855" lon="-4.551837334338344"><ele>23.0</ele><time>2026-04-18T16:53:38.999Z</time></trkpt><trkpt lat="48.36238659446719" lon="-4.551735741380488"><ele>23.0</ele><time>2026-04-18T16:53:41.999Z</time></trkpt><trkpt lat="48.36238668176933" lon="-4.551621754951562"><ele>23.0</ele><time>2026-04-18T16:53:43.999Z</time></trkpt><trkpt lat="48.362364857908666" lon="-4.551529762030498"><ele>23.0</ele><time>2026-04-18T16:53:45.999Z</time></trkpt><trkpt lat="48.362363882928854" lon="-4.551422291871387"><ele>23.0</ele><time>2026-04-18T16:53:47.999Z</time></trkpt><trkpt lat="48.362377215645196" lon="-4.551310878151922"><ele>23.0</ele><time>2026-04-18T16:53:49.999Z</time></trkpt><trkpt lat="48.36239569783231" lon="-4.551200674564824"><ele>23.0</ele><time>2026-04-18T16:53:51.999Z</time></trkpt><trkpt lat="48.36243092322656" lon="-4.551099101386529"><ele>23.0</ele><time>2026-04-18T16:53:53.999Z</time></trkpt><trkpt lat="48.36248594615685" lon="-4.551027878775099"><ele>23.0</ele><time>2026-04-18T16:53:55.999Z</time></trkpt><trkpt lat="48.36254521052704" lon="-4.550947075905097"><ele>22.799999999999997</ele><time>2026-04-18T16:53:57.999Z</time></trkpt><trkpt lat="48.36263978809183" lon="-4.550924332487817"><ele>22.6</ele><time>2026-04-18T16:53:59.999Z</time></trkpt><trkpt lat="48.36269425204659" lon="-4.550830261249702"><ele>22.4</ele><time>2026-04-18T16:54:02.999Z</time></trkpt><trkpt lat="48.36277250228424" lon="-4.5507880870148485"><ele>22.200000000000003</ele><time>2026-04-18T16:54:05.999Z</time></trkpt><trkpt lat="48.36291655607455" lon="-4.550771798103964"><ele>22.0</ele><time>2026-04-18T16:54:10.999Z</time></trkpt><trkpt lat="48.363001595255604" lon="-4.5507506945244804"><ele>25.333333333333332</ele><time>2026-04-18T16:54:13.999Z</time></trkpt><trkpt lat="48.363084935777636" lon="-4.550726848301279"><ele>28.666666666666664</ele><time>2026-04-18T16:54:17.999Z</time></trkpt><trkpt lat="48.36316629811509" lon="-4.550710341140433"><ele>32.0</ele><time>2026-04-18T16:54:22.999Z</time></trkpt><trkpt lat="48.36325068761558" lon="-4.550606217324867"><ele>35.333333333333336</ele><time>2026-04-18T16:54:25.999Z</time></trkpt><trkpt lat="48.36332598219599" lon="-4.550563835033999"><ele>38.666666666666664</ele><time>2026-04-18T16:54:27.999Z</time></trkpt><trkpt lat="48.36336434869602" lon="-4.550487172594216"><ele>42.0</ele><time>2026-04-18T16:54:29Z</time></trkpt><trkpt lat="48.363448235367606" lon="-4.550392026761334"><ele>42.2</ele><time>2026-04-18T16:54:31Z</time></trkpt><trkpt lat="48.363515111055335" lon="-4.550348914521895"><ele>42.400000000000006</ele><time>2026-04-18T16:54:33Z</time></trkpt><trkpt lat="48.36355525177682" lon="-4.550241612363483"><ele>42.599999999999994</ele><time>2026-04-18T16:54:35Z</time></trkpt><trkpt lat="48.36366402521649" lon="-4.550180279829946"><ele>42.8</ele><time>2026-04-18T16:54:37Z</time></trkpt><trkpt lat="48.363725278604434" lon="-4.550102763317691"><ele>43.0</ele><time>2026-04-18T16:54:39Z</time></trkpt><trkpt lat="48.363833781870646" lon="-4.550030658334017"><ele>44.16666666666667</ele><time>2026-04-18T16:54:41Z</time></trkpt><trkpt lat="48.36390456224426" lon="-4.549971033222394"><ele>45.333333333333336</ele><time>2026-04-18T16:54:43Z</time></trkpt><trkpt lat="48.36396797839109" lon="-4.549917535001429"><ele>46.5</ele><time>2026-04-18T16:54:45Z</time></trkpt><trkpt lat="48.36404449228796" lon="-4.549838249679928"><ele>47.66666666666667</ele><time>2026-04-18T16:54:47Z</time></trkpt><trkpt lat="48.36413625105695" lon="-4.5497966493671544"><ele>48.833333333333336</ele><time>2026-04-18T16:54:49Z</time></trkpt><trkpt lat="48.36421971592408" lon="-4.549733434172084"><ele>50.0</ele><time>2026-04-18T16:54:51Z</time></trkpt><trkpt lat="48.36429548064683" lon="-4.5496783153650036"><ele>50.00000000000001</ele><time>2026-04-18T16:54:54Z</time></trkpt><trkpt lat="48.36436032841848" lon="-4.549605942362795"><ele>50.0</ele><time>2026-04-18T16:54:57Z</time></trkpt><trkpt lat="48.36443037014273" lon="-4.549555518680466"><ele>50.0</ele><time>2026-04-18T16:55:00Z</time></trkpt><trkpt lat="48.364497809503426" lon="-4.5495130045402155"><ele>50.0</ele><time>2026-04-18T16:55:03Z</time></trkpt><trkpt lat="48.36456536776771" lon="-4.549442446928516"><ele>50.0</ele><time>2026-04-18T16:55:06Z</time></trkpt><trkpt lat="48.3646163652293" lon="-4.549379744202232"><ele>50.00000000000001</ele><time>2026-04-18T16:55:09Z</time></trkpt><trkpt lat="48.36466603502251" lon="-4.549319956458561"><ele>50.0</ele><time>2026-04-18T16:55:12Z</time></trkpt><trkpt lat="48.36472517387802" lon="-4.549222434086337"><ele>52.00000000000001</ele><time>2026-04-18T16:55:16Z</time></trkpt><trkpt lat="48.36478878578268" lon="-4.549155098894904"><ele>54.0</ele><time>2026-04-18T16:55:20Z</time></trkpt><trkpt lat="48.364833886326636" lon="-4.549062882489508"><ele>56.0</ele><time>2026-04-18T16:55:24Z</time></trkpt><trkpt lat="48.36489248061278" lon="-4.548980615709663"><ele>58.0</ele><time>2026-04-18T16:55:29Z</time></trkpt><trkpt lat="48.36496344495172" lon="-4.548917778118688"><ele>60.00000000000001</ele><time>2026-04-18T16:55:33Z</time></trkpt><trkpt lat="48.36504090908847" lon="-4.548864889401919"><ele>62.0</ele><time>2026-04-18T16:55:36Z</time></trkpt><trkpt lat="48.36509893063934" lon="-4.548814081061091"><ele>62.00000000000001</ele><time>2026-04-18T16:55:39Z</time></trkpt><trkpt lat="48.36514027014587" lon="-4.548718122965735"><ele>62.0</ele><time>2026-04-18T16:55:44Z</time></trkpt><trkpt lat="48.36519338133834" lon="-4.548640388869726"><ele>62.0</ele><time>2026-04-18T16:55:47.999Z</time></trkpt><trkpt lat="48.36526192133793" lon="-4.5485404189284635"><ele>62.0</ele><time>2026-04-18T16:55:51.999Z</time></trkpt><trkpt lat="48.365312052745175" lon="-4.548473666790234"><ele>62.00000000000001</ele><time>2026-04-18T16:55:54.999Z</time></trkpt><trkpt lat="48.36536832388044" lon="-4.548381620402734"><ele>62.0</ele><time>2026-04-18T16:55:58.999Z</time></trkpt><trkpt lat="48.365431333045734" lon="-4.548309368491269"><ele>61.714285714285715</ele><time>2026-04-18T16:56:02.999Z</time></trkpt><trkpt lat="48.36549586103831" lon="-4.548255324341072"><ele>61.42857142857143</ele><time>2026-04-18T16:56:06.999Z</time></trkpt><trkpt lat="48.365553793180425" lon="-4.548201388628691"><ele>61.142857142857146</ele><time>2026-04-18T16:56:09.999Z</time></trkpt><trkpt lat="48.36560667860468" lon="-4.548134641869536"><ele>60.85714285714286</ele><time>2026-04-18T16:56:12.999Z</time></trkpt><trkpt lat="48.3656738207534" lon="-4.54806601383971"><ele>60.57142857142857</ele><time>2026-04-18T16:56:15.999Z</time></trkpt><trkpt lat="48.36573589195255" lon="-4.548013048012099"><ele>60.28571428571429</ele><time>2026-04-18T16:56:18.999Z</time></trkpt><trkpt lat="48.3657660228818" lon="-4.5479164809686665"><ele>60.0</ele><time>2026-04-18T16:56:21.999Z</time></trkpt><trkpt lat="48.36587112743272" lon="-4.547912201887023"><ele>60.666666666666664</ele><time>2026-04-18T17:02:27.999Z</time></trkpt><trkpt lat="48.36593727006896" lon="-4.547846864329759"><ele>61.33333333333333</ele><time>2026-04-18T17:02:32Z</time></trkpt><trkpt lat="48.36600121386002" lon="-4.547785903243537"><ele>62.0</ele><time>2026-04-18T17:02:35Z</time></trkpt><trkpt lat="48.36605560688275" lon="-4.547710668950454"><ele>62.666666666666664</ele><time>2026-04-18T17:02:37Z</time></trkpt><trkpt lat="48.36610931843139" lon="-4.547655739894609"><ele>63.33333333333333</ele><time>2026-04-18T17:02:39Z</time></trkpt><trkpt lat="48.366180424423234" lon="-4.547596802987611"><ele>64.0</ele><time>2026-04-18T17:02:42Z</time></trkpt><trkpt lat="48.36626466483477" lon="-4.547519927842661"><ele>63.99999999999999</ele><time>2026-04-18T17:02:45Z</time></trkpt><trkpt lat="48.36633627879151" lon="-4.547453202297467"><ele>64.0</ele><time>2026-04-18T17:02:47Z</time></trkpt><trkpt lat="48.36639974267411" lon="-4.547398328303352"><ele>64.0</ele><time>2026-04-18T17:02:49Z</time></trkpt><trkpt lat="48.36644386210929" lon="-4.547303776692482"><ele>64.0</ele><time>2026-04-18T17:02:51Z</time></trkpt><trkpt lat="48.366479520165306" lon="-4.547199531830363"><ele>63.99999999999999</ele><time>2026-04-18T17:02:53Z</time></trkpt><trkpt lat="48.366502460251574" lon="-4.547082664649864"><ele>64.0</ele><time>2026-04-18T17:02:55Z</time></trkpt><trkpt lat="48.36650709127249" lon="-4.546968629004078"><ele>64.33333333333333</ele><time>2026-04-18T17:02:57Z</time></trkpt><trkpt lat="48.36648902098972" lon="-4.5468444585198675"><ele>64.66666666666666</ele><time>2026-04-18T17:02:59Z</time></trkpt><trkpt lat="48.366465113440704" lon="-4.546731335092965"><ele>65.0</ele><time>2026-04-18T17:03:01Z</time></trkpt><trkpt lat="48.36643741150918" lon="-4.546616152719396"><ele>65.33333333333333</ele><time>2026-04-18T17:03:03Z</time></trkpt><trkpt lat="48.366392924420644" lon="-4.546499599965025"><ele>65.66666666666667</ele><time>2026-04-18T17:03:05Z</time></trkpt><trkpt lat="48.36634995116005" lon="-4.54639862473428"><ele>66.0</ele><time>2026-04-18T17:03:07Z</time></trkpt><trkpt lat="48.36631039945266" lon="-4.5462992640005195"><ele>66.5</ele><time>2026-04-18T17:03:09Z</time></trkpt><trkpt lat="48.36625349080374" lon="-4.546200275415267"><ele>67.0</ele><time>2026-04-18T17:03:11Z</time></trkpt><trkpt lat="48.366209390021126" lon="-4.546092368944881"><ele>67.5</ele><time>2026-04-18T17:03:13Z</time></trkpt><trkpt lat="48.36617161807508" lon="-4.545988998564588"><ele>68.0</ele><time>2026-04-18T17:03:15Z</time></trkpt><trkpt lat="48.36613725332697" lon="-4.545893185140976"><ele>68.5</ele><time>2026-04-18T17:03:17Z</time></trkpt><trkpt lat="48.366097026268285" lon="-4.545810971775194"><ele>69.0</ele><time>2026-04-18T17:03:19Z</time></trkpt><trkpt lat="48.36604336265462" lon="-4.545695249298176"><ele>69.0</ele><time>2026-04-18T17:03:22Z</time></trkpt><trkpt lat="48.36600747317754" lon="-4.545599407773974"><ele>69.0</ele><time>2026-04-18T17:03:24Z</time></trkpt><trkpt lat="48.36597058144764" lon="-4.545511154366905"><ele>69.0</ele><time>2026-04-18T17:03:25.999Z</time></trkpt><trkpt lat="48.36592417063631" lon="-4.545407406120708"><ele>69.0</ele><time>2026-04-18T17:03:28.999Z</time></trkpt><trkpt lat="48.365887426541725" lon="-4.545313862535528"><ele>69.0</ele><time>2026-04-18T17:03:30.999Z</time></trkpt><trkpt lat="48.36585437748688" lon="-4.545228639943345"><ele>69.0</ele><time>2026-04-18T17:03:32.999Z</time></trkpt><trkpt lat="48.36580073117048" lon="-4.545113654903113"><ele>69.0</ele><time>2026-04-18T17:03:35.999Z</time></trkpt><trkpt lat="48.36577577008028" lon="-4.54502629339697"><ele>69.0</ele><time>2026-04-18T17:03:37.999Z</time></trkpt><trkpt lat="48.3657313539445" lon="-4.5449515481649385"><ele>69.0</ele><time>2026-04-18T17:03:39.999Z</time></trkpt><trkpt lat="48.365680677269154" lon="-4.544863159231843"><ele>69.0</ele><time>2026-04-18T17:03:41.999Z</time></trkpt><trkpt lat="48.36561781604667" lon="-4.54474944665615"><ele>69.0</ele><time>2026-04-18T17:03:43.999Z</time></trkpt><trkpt lat="48.36554475146309" lon="-4.5446289677156715"><ele>69.0</ele><time>2026-04-18T17:03:45.999Z</time></trkpt><trkpt lat="48.36545326110339" lon="-4.544509581175219"><ele>68.4</ele><time>2026-04-18T17:03:47.999Z</time></trkpt><trkpt lat="48.365347567460276" lon="-4.544369212037183"><ele>67.80000000000001</ele><time>2026-04-18T17:03:49.999Z</time></trkpt><trkpt lat="48.36527599653068" lon="-4.544278003625035"><ele>67.19999999999999</ele><time>2026-04-18T17:03:50.999Z</time></trkpt><trkpt lat="48.36519406455709" lon="-4.544173621618365"><ele>66.6</ele><time>2026-04-18T17:03:51.999Z</time></trkpt><trkpt lat="48.365120542920835" lon="-4.544079444353518"><ele>66.0</ele><time>2026-04-18T17:03:52.999Z</time></trkpt><trkpt lat="48.36505547746833" lon="-4.543995601045128"><ele>66.0</ele><time>2026-04-18T17:03:53.999Z</time></trkpt><trkpt lat="48.36500687127039" lon="-4.54393296711708"><ele>66.0</ele><time>2026-04-18T17:03:54.999Z</time></trkpt><trkpt lat="48.36495644570928" lon="-4.543867988786515"><ele>66.0</ele><time>2026-04-18T17:03:55.999Z</time></trkpt><trkpt lat="48.36490694078626" lon="-4.543804530659344"><ele>66.0</ele><time>2026-04-18T17:03:56.999Z</time></trkpt><trkpt lat="48.36483306555679" lon="-4.543710293141801"><ele>66.0</ele><time>2026-04-18T17:03:58.999Z</time></trkpt><trkpt lat="48.36477442017811" lon="-4.543607209433703"><ele>66.0</ele><time>2026-04-18T17:04:00.999Z</time></trkpt><trkpt lat="48.364704525970666" lon="-4.543528207398077"><ele>65.8</ele><time>2026-04-18T17:04:02.999Z</time></trkpt><trkpt lat="48.36462676226586" lon="-4.543436445349614"><ele>65.6</ele><time>2026-04-18T17:04:04.999Z</time></trkpt><trkpt lat="48.364545746689124" lon="-4.543340921191873"><ele>65.4</ele><time>2026-04-18T17:04:06.999Z</time></trkpt><trkpt lat="48.364458869348354" lon="-4.543268033624324"><ele>65.2</ele><time>2026-04-18T17:04:08.999Z</time></trkpt><trkpt lat="48.36438949581169" lon="-4.543176665171836"><ele>65.0</ele><time>2026-04-18T17:04:10.999Z</time></trkpt><trkpt lat="48.36431288338598" lon="-4.543133011241884"><ele>65.0</ele><time>2026-04-18T17:04:12.999Z</time></trkpt><trkpt lat="48.36426021695192" lon="-4.543057451775994"><ele>65.0</ele><time>2026-04-18T17:04:14.999Z</time></trkpt><trkpt lat="48.36419143770354" lon="-4.543001186116067"><ele>65.0</ele><time>2026-04-18T17:04:16.999Z</time></trkpt><trkpt lat="48.36411277749563" lon="-4.542930274756111"><ele>65.0</ele><time>2026-04-18T17:04:18.999Z</time></trkpt><trkpt lat="48.36403526357528" lon="-4.542855618810861"><ele>65.0</ele><time>2026-04-18T17:04:20.999Z</time></trkpt><trkpt lat="48.36396619095656" lon="-4.542768759477828"><ele>65.0</ele><time>2026-04-18T17:04:22.999Z</time></trkpt><trkpt lat="48.36389226884594" lon="-4.542684979404721"><ele>64.83333333333334</ele><time>2026-04-18T17:04:24.999Z</time></trkpt><trkpt lat="48.3638114879287" lon="-4.542600974213907"><ele>64.66666666666667</ele><time>2026-04-18T17:04:26.999Z</time></trkpt><trkpt lat="48.36373948889057" lon="-4.542515507849223"><ele>64.5</ele><time>2026-04-18T17:04:29Z</time></trkpt><trkpt lat="48.363672076019235" lon="-4.542459782507861"><ele>64.33333333333333</ele><time>2026-04-18T17:04:31Z</time></trkpt><trkpt lat="48.36361588953957" lon="-4.542385359916475"><ele>64.16666666666666</ele><time>2026-04-18T17:04:33Z</time></trkpt><trkpt lat="48.36356197216275" lon="-4.542315896767344"><ele>64.0</ele><time>2026-04-18T17:04:35Z</time></trkpt><trkpt lat="48.36350045782437" lon="-4.542257916558532"><ele>64.0</ele><time>2026-04-18T17:04:37Z</time></trkpt><trkpt lat="48.36344093296484" lon="-4.542168152710316"><ele>64.0</ele><time>2026-04-18T17:04:39Z</time></trkpt><trkpt lat="48.36338206414509" lon="-4.542070344422025"><ele>64.0</ele><time>2026-04-18T17:04:41Z</time></trkpt><trkpt lat="48.36331706600453" lon="-4.541974950088872"><ele>64.0</ele><time>2026-04-18T17:04:43Z</time></trkpt><trkpt lat="48.363262800899356" lon="-4.541869501937573"><ele>64.0</ele><time>2026-04-18T17:04:45Z</time></trkpt><trkpt lat="48.36317939300141" lon="-4.541725096979621"><ele>63.800000000000004</ele><time>2026-04-18T17:04:47Z</time></trkpt><trkpt lat="48.36313163657762" lon="-4.541625495794684"><ele>63.60000000000001</ele><time>2026-04-18T17:04:48Z</time></trkpt><trkpt lat="48.36308127543963" lon="-4.541515370948944"><ele>63.4</ele><time>2026-04-18T17:04:49Z</time></trkpt><trkpt lat="48.3630266630779" lon="-4.541402635158273"><ele>63.2</ele><time>2026-04-18T17:04:50Z</time></trkpt><trkpt lat="48.36297165762243" lon="-4.541272649671976"><ele>63.0</ele><time>2026-04-18T17:04:51Z</time></trkpt><trkpt lat="48.36291776210526" lon="-4.541149631603328"><ele>62.8</ele><time>2026-04-18T17:04:52Z</time></trkpt><trkpt lat="48.36285970562742" lon="-4.541035696376495"><ele>62.599999999999994</ele><time>2026-04-18T17:04:53Z</time></trkpt><trkpt lat="48.36281389784634" lon="-4.54092007923995"><ele>62.400000000000006</ele><time>2026-04-18T17:04:54Z</time></trkpt><trkpt lat="48.36277249359613" lon="-4.540804395607815"><ele>62.2</ele><time>2026-04-18T17:04:55Z</time></trkpt><trkpt lat="48.36272712298943" lon="-4.540682376500037"><ele>62.0</ele><time>2026-04-18T17:04:56Z</time></trkpt><trkpt lat="48.362678696227476" lon="-4.540559443974808"><ele>62.0</ele><time>2026-04-18T17:04:57Z</time></trkpt><trkpt lat="48.362627887945024" lon="-4.5404379457335295"><ele>62.0</ele><time>2026-04-18T17:04:58Z</time></trkpt><trkpt lat="48.362551194760016" lon="-4.540345824902398"><ele>62.0</ele><time>2026-04-18T17:04:59Z</time></trkpt><trkpt lat="48.36249363325515" lon="-4.540230274412146"><ele>62.0</ele><time>2026-04-18T17:05:00Z</time></trkpt><trkpt lat="48.362423408300096" lon="-4.540135006444497"><ele>62.0</ele><time>2026-04-18T17:05:01Z</time></trkpt><trkpt lat="48.36234869510481" lon="-4.540033824890118"><ele>61.8</ele><time>2026-04-18T17:05:02Z</time></trkpt><trkpt lat="48.36227890561105" lon="-4.539924662163944"><ele>61.6</ele><time>2026-04-18T17:05:03Z</time></trkpt><trkpt lat="48.36221244150004" lon="-4.539807284783118"><ele>61.39999999999999</ele><time>2026-04-18T17:05:04Z</time></trkpt><trkpt lat="48.36215730270464" lon="-4.539683275097146"><ele>61.199999999999996</ele><time>2026-04-18T17:05:05Z</time></trkpt><trkpt lat="48.362109953357034" lon="-4.539545783787004"><ele>61.0</ele><time>2026-04-18T17:05:06Z</time></trkpt><trkpt lat="48.3620841168483" lon="-4.539395278383065"><ele>60.8</ele><time>2026-04-18T17:05:07Z</time></trkpt><trkpt lat="48.362071125105395" lon="-4.539247664720425"><ele>60.599999999999994</ele><time>2026-04-18T17:05:08Z</time></trkpt><trkpt lat="48.36205220032034" lon="-4.53909202723278"><ele>60.4</ele><time>2026-04-18T17:05:09Z</time></trkpt><trkpt lat="48.36202825141772" lon="-4.538948880895406"><ele>60.2</ele><time>2026-04-18T17:05:10Z</time></trkpt><trkpt lat="48.3620088818717" lon="-4.538803509857742"><ele>60.0</ele><time>2026-04-18T17:05:11Z</time></trkpt><trkpt lat="48.361994467459084" lon="-4.538668287651855"><ele>60.0</ele><time>2026-04-18T17:05:12Z</time></trkpt><trkpt lat="48.36197128817258" lon="-4.538526764553476"><ele>60.0</ele><time>2026-04-18T17:05:13Z</time></trkpt><trkpt lat="48.361953356263626" lon="-4.538385478425449"><ele>60.0</ele><time>2026-04-18T17:05:14Z</time></trkpt><trkpt lat="48.361935985478574" lon="-4.5382418347858575"><ele>60.0</ele><time>2026-04-18T17:05:15Z</time></trkpt><trkpt lat="48.3619158234349" lon="-4.538096430492398"><ele>60.0</ele><time>2026-04-18T17:05:16Z</time></trkpt><trkpt lat="48.36189077874789" lon="-4.537955506781197"><ele>59.6</ele><time>2026-04-18T17:05:17Z</time></trkpt><trkpt lat="48.36182402029165" lon="-4.5378419954305995"><ele>59.2</ele><time>2026-04-18T17:05:18Z</time></trkpt><trkpt lat="48.36176494326078" lon="-4.537728127598793"><ele>58.8</ele><time>2026-04-18T17:05:19Z</time></trkpt><trkpt lat="48.36170848990434" lon="-4.537593275093368"><ele>58.4</ele><time>2026-04-18T17:05:20Z</time></trkpt><trkpt lat="48.36161871260503" lon="-4.537481057770332"><ele>58.0</ele><time>2026-04-18T17:05:21Z</time></trkpt><trkpt lat="48.36154137041434" lon="-4.537340334294879"><ele>58.0</ele><time>2026-04-18T17:05:22Z</time></trkpt><trkpt lat="48.361470857515116" lon="-4.537160809838859"><ele>58.0</ele><time>2026-04-18T17:05:23Z</time></trkpt><trkpt lat="48.36141484488618" lon="-4.537004433800668"><ele>58.0</ele><time>2026-04-18T17:05:24Z</time></trkpt><trkpt lat="48.36136424535463" lon="-4.536821000029816"><ele>58.0</ele><time>2026-04-18T17:05:25Z</time></trkpt><trkpt lat="48.361315765506504" lon="-4.53662602243959"><ele>56.5</ele><time>2026-04-18T17:05:26Z</time></trkpt><trkpt lat="48.36126835022835" lon="-4.536423448054849"><ele>55.0</ele><time>2026-04-18T17:05:27Z</time></trkpt><trkpt lat="48.36122755148484" lon="-4.536219143291556"><ele>53.5</ele><time>2026-04-18T17:05:28Z</time></trkpt><trkpt lat="48.361180619126614" lon="-4.5360145272259675"><ele>52.0</ele><time>2026-04-18T17:05:29Z</time></trkpt><trkpt lat="48.361126181033" lon="-4.535807455324478"><ele>50.33333333333333</ele><time>2026-04-18T17:05:30Z</time></trkpt><trkpt lat="48.36107249679316" lon="-4.535593025071169"><ele>48.666666666666664</ele><time>2026-04-18T17:05:31Z</time></trkpt><trkpt lat="48.361026956547065" lon="-4.535371976274402"><ele>47.0</ele><time>2026-04-18T17:05:32Z</time></trkpt><trkpt lat="48.3609816409905" lon="-4.535150986297038"><ele>45.666666666666664</ele><time>2026-04-18T17:05:33Z</time></trkpt><trkpt lat="48.360917721230706" lon="-4.53493002280478"><ele>44.333333333333336</ele><time>2026-04-18T17:05:34Z</time></trkpt><trkpt lat="48.36086495492247" lon="-4.534697039877116"><ele>43.0</ele><time>2026-04-18T17:05:35Z</time></trkpt><trkpt lat="48.360811721816276" lon="-4.5344578709169285"><ele>41.333333333333336</ele><time>2026-04-18T17:05:36Z</time></trkpt><trkpt lat="48.36075952690622" lon="-4.534222831248948"><ele>39.666666666666664</ele><time>2026-04-18T17:05:37Z</time></trkpt><trkpt lat="48.36071127403243" lon="-4.534003552267987"><ele>38.0</ele><time>2026-04-18T17:05:38Z</time></trkpt><trkpt lat="48.36066879292636" lon="-4.533807333871756"><ele>37.0</ele><time>2026-04-18T17:05:39Z</time></trkpt><trkpt lat="48.360625378492486" lon="-4.533606123483941"><ele>36.0</ele><time>2026-04-18T17:05:40Z</time></trkpt><trkpt lat="48.36060981061335" lon="-4.533411460615132"><ele>35.0</ele><time>2026-04-18T17:05:41Z</time></trkpt><trkpt lat="48.360598304715" lon="-4.533210228471198"><ele>34.0</ele><time>2026-04-18T17:05:42Z</time></trkpt><trkpt lat="48.360614147443606" lon="-4.5330247284452625"><ele>31.25</ele><time>2026-04-18T17:05:43Z</time></trkpt><trkpt lat="48.36067305743616" lon="-4.532836533175907"><ele>28.5</ele><time>2026-04-18T17:05:44Z</time></trkpt><trkpt lat="48.360757334538356" lon="-4.5327365478095745"><ele>25.75</ele><time>2026-04-18T17:05:45Z</time></trkpt><trkpt lat="48.360856218122784" lon="-4.532648043266524"><ele>23.0</ele><time>2026-04-18T17:05:46Z</time></trkpt><trkpt lat="48.360970766408194" lon="-4.532574897631732"><ele>23.0</ele><time>2026-04-18T17:05:47Z</time></trkpt><trkpt lat="48.36109623321066" lon="-4.532531614779876"><ele>23.0</ele><time>2026-04-18T17:05:48Z</time></trkpt><trkpt lat="48.36122470451868" lon="-4.532486847412419"><ele>23.0</ele><time>2026-04-18T17:05:49Z</time></trkpt><trkpt lat="48.36133853494987" lon="-4.532417472336072"><ele>23.0</ele><time>2026-04-18T17:05:50Z</time></trkpt><trkpt lat="48.361440849913556" lon="-4.532339866661897"><ele>22.5</ele><time>2026-04-18T17:05:51Z</time></trkpt><trkpt lat="48.3615306382374" lon="-4.532219046464844"><ele>22.0</ele><time>2026-04-18T17:05:51.999Z</time></trkpt><trkpt lat="48.3616280095151" lon="-4.532099465710387"><ele>21.5</ele><time>2026-04-18T17:05:52.999Z</time></trkpt><trkpt lat="48.36173039027301" lon="-4.53198480773084"><ele>21.0</ele><time>2026-04-18T17:05:53.999Z</time></trkpt><trkpt lat="48.36183079216059" lon="-4.531875290354438"><ele>21.0</ele><time>2026-04-18T17:05:54.999Z</time></trkpt><trkpt lat="48.36193141845117" lon="-4.531768113531905"><ele>21.0</ele><time>2026-04-18T17:05:55.999Z</time></trkpt><trkpt lat="48.36203060045813" lon="-4.531662526029656"><ele>21.0</ele><time>2026-04-18T17:05:56.999Z</time></trkpt><trkpt lat="48.362128264122525" lon="-4.531573754892523"><ele>21.0</ele><time>2026-04-18T17:05:57.999Z</time></trkpt><trkpt lat="48.36222270228495" lon="-4.5314776732228665"><ele>19.75</ele><time>2026-04-18T17:05:58.999Z</time></trkpt><trkpt lat="48.36232600565717" lon="-4.531386272869463"><ele>18.5</ele><time>2026-04-18T17:05:59.999Z</time></trkpt><trkpt lat="48.36243905735092" lon="-4.531313547737752"><ele>17.25</ele><time>2026-04-18T17:06:00.999Z</time></trkpt><trkpt lat="48.36252446437511" lon="-4.531216311397835"><ele>16.0</ele><time>2026-04-18T17:06:01.999Z</time></trkpt><trkpt lat="48.36261466566801" lon="-4.531120637116202"><ele>15.999999999999998</ele><time>2026-04-18T17:06:02.999Z</time></trkpt><trkpt lat="48.36265803904038" lon="-4.531013101771946"><ele>16.0</ele><time>2026-04-18T17:06:03.999Z</time></trkpt><trkpt lat="48.362709573477126" lon="-4.530916399555705"><ele>16.0</ele><time>2026-04-18T17:06:04.999Z</time></trkpt><trkpt lat="48.36277621152667" lon="-4.530828668983184"><ele>16.0</ele><time>2026-04-18T17:06:05.999Z</time></trkpt><trkpt lat="48.36283659734264" lon="-4.530728318444077"><ele>15.999999999999998</ele><time>2026-04-18T17:06:06.999Z</time></trkpt><trkpt lat="48.36290957482849" lon="-4.530650531395962"><ele>16.0</ele><time>2026-04-18T17:06:07.999Z</time></trkpt><trkpt lat="48.3629943333562" lon="-4.530601720135209"><ele>16.0</ele><time>2026-04-18T17:06:08.999Z</time></trkpt><trkpt lat="48.36309298238268" lon="-4.530592059970546"><ele>16.0</ele><time>2026-04-18T17:06:09.999Z</time></trkpt><trkpt lat="48.3632019981647" lon="-4.530668244200577"><ele>16.0</ele><time>2026-04-18T17:06:10.999Z</time></trkpt><trkpt lat="48.363314773057695" lon="-4.530743043632652"><ele>16.0</ele><time>2026-04-18T17:06:11.999Z</time></trkpt><trkpt lat="48.36340869235863" lon="-4.530824528978702"><ele>16.0</ele><time>2026-04-18T17:06:12.999Z</time></trkpt><trkpt lat="48.36352038478103" lon="-4.530849362774284"><ele>16.0</ele><time>2026-04-18T17:06:13.999Z</time></trkpt><trkpt lat="48.36364177567165" lon="-4.530859079630672"><ele>16.0</ele><time>2026-04-18T17:06:14.999Z</time></trkpt><trkpt lat="48.36375354922549" lon="-4.530864441691366"><ele>16.0</ele><time>2026-04-18T17:06:15.999Z</time></trkpt><trkpt lat="48.363863636883295" lon="-4.530830524199319"><ele>15.4</ele><time>2026-04-18T17:06:16.999Z</time></trkpt><trkpt lat="48.36397321871331" lon="-4.530828655809937"><ele>14.8</ele><time>2026-04-18T17:06:17.999Z</time></trkpt><trkpt lat="48.364064114657474" lon="-4.530776423256235"><ele>14.200000000000001</ele><time>2026-04-18T17:06:18.999Z</time></trkpt><trkpt lat="48.36413700692873" lon="-4.530672059960821"><ele>13.600000000000001</ele><time>2026-04-18T17:06:19.999Z</time></trkpt><trkpt lat="48.36417633818166" lon="-4.530539200323657"><ele>13.0</ele><time>2026-04-18T17:06:20.999Z</time></trkpt><trkpt lat="48.36413371692447" lon="-4.530412045223325"><ele>13.499999999999998</ele><time>2026-04-18T17:06:21.999Z</time></trkpt><trkpt lat="48.364114313594186" lon="-4.530315286252981"><ele>14.0</ele><time>2026-04-18T17:06:22.999Z</time></trkpt><trkpt lat="48.36409179762755" lon="-4.530220938977183"><ele>14.5</ele><time>2026-04-18T17:06:23.999Z</time></trkpt><trkpt lat="48.364067813366475" lon="-4.530121157703206"><ele>15.0</ele><time>2026-04-18T17:06:24.999Z</time></trkpt><trkpt lat="48.364045768602764" lon="-4.53000772421171"><ele>15.499999999999998</ele><time>2026-04-18T17:06:25.999Z</time></trkpt><trkpt lat="48.36404088014033" lon="-4.529882150946305"><ele>16.0</ele><time>2026-04-18T17:06:26.999Z</time></trkpt><trkpt lat="48.36403922298606" lon="-4.529752798613563"><ele>16.0</ele><time>2026-04-18T17:06:27.999Z</time></trkpt><trkpt lat="48.364042508867584" lon="-4.52963983312531"><ele>16.0</ele><time>2026-04-18T17:06:28.999Z</time></trkpt><trkpt lat="48.36406191768679" lon="-4.529477138182414"><ele>16.0</ele><time>2026-04-18T17:06:30.999Z</time></trkpt><trkpt lat="48.364091841796245" lon="-4.529325460285697"><ele>16.0</ele><time>2026-04-18T17:06:32.999Z</time></trkpt><trkpt lat="48.36413982899603" lon="-4.529164772993713"><ele>16.0</ele><time>2026-04-18T17:06:35Z</time></trkpt><trkpt lat="48.364172001953804" lon="-4.5290775011577535"><ele>16.0</ele><time>2026-04-18T17:06:36Z</time></trkpt><trkpt lat="48.36421382157126" lon="-4.528982427409653"><ele>15.999999999999998</ele><time>2026-04-18T17:06:37Z</time></trkpt><trkpt lat="48.36425661475592" lon="-4.528876288043169"><ele>16.0</ele><time>2026-04-18T17:06:38Z</time></trkpt><trkpt lat="48.36430185253874" lon="-4.528783585208262"><ele>16.0</ele><time>2026-04-18T17:06:39Z</time></trkpt><trkpt lat="48.36434887124946" lon="-4.52869837310358"><ele>15.999999999999998</ele><time>2026-04-18T17:06:40Z</time></trkpt><trkpt lat="48.364396508744775" lon="-4.528619680652995"><ele>16.0</ele><time>2026-04-18T17:06:41Z</time></trkpt><trkpt lat="48.36444015649851" lon="-4.528545201562839"><ele>16.0</ele><time>2026-04-18T17:06:42Z</time></trkpt><trkpt lat="48.36448163019166" lon="-4.5284715785241625"><ele>9.0</ele><time>2026-04-18T17:06:43Z</time></trkpt><trkpt lat="48.364512980388746" lon="-4.52832492524725"><ele>9.0</ele><time>2026-04-18T17:06:45Z</time></trkpt><trkpt lat="48.36455564680129" lon="-4.528238365823712"><ele>9.0</ele><time>2026-04-18T17:06:47Z</time></trkpt></trkseg><trkseg><trkpt lat="48.36489866104878" lon="-4.527695102557889"><ele>18.0</ele><time>2026-04-18T17:17:25Z</time></trkpt><trkpt lat="48.364966293257915" lon="-4.527608688346512"><ele>18.0</ele><time>2026-04-18T17:17:28Z</time></trkpt><trkpt lat="48.36502592215316" lon="-4.527494376476513"><ele>18.0</ele><time>2026-04-18T17:17:31Z</time></trkpt><trkpt lat="48.36507584215983" lon="-4.527410418857291"><ele>18.0</ele><time>2026-04-18T17:17:33Z</time></trkpt><trkpt lat="48.365127071111374" lon="-4.5273175910913634"><ele>18.0</ele><time>2026-04-18T17:17:35Z</time></trkpt><trkpt lat="48.36517216115206" lon="-4.527234085362551"><ele>18.0</ele><time>2026-04-18T17:17:37Z</time></trkpt><trkpt lat="48.365238062554134" lon="-4.527133353093623"><ele>18.333333333333332</ele><time>2026-04-18T17:17:40Z</time></trkpt><trkpt lat="48.365285372690586" lon="-4.527044357239232"><ele>18.666666666666668</ele><time>2026-04-18T17:17:42Z</time></trkpt><trkpt lat="48.36534065910084" lon="-4.526951845999146"><ele>19.0</ele><time>2026-04-18T17:17:44Z</time></trkpt><trkpt lat="48.36540066583428" lon="-4.52686877034382"><ele>19.333333333333336</ele><time>2026-04-18T17:17:46Z</time></trkpt><trkpt lat="48.365462534220576" lon="-4.5267923137812645"><ele>19.666666666666668</ele><time>2026-04-18T17:17:48Z</time></trkpt><trkpt lat="48.36553371849047" lon="-4.5266876928196345"><ele>20.0</ele><time>2026-04-18T17:17:50Z</time></trkpt><trkpt lat="48.36559446813303" lon="-4.526611529564414"><ele>20.0</ele><time>2026-04-18T17:17:52Z</time></trkpt><trkpt lat="48.365645524243064" lon="-4.5265086628402775"><ele>20.0</ele><time>2026-04-18T17:17:54Z</time></trkpt><trkpt lat="48.36571067656689" lon="-4.526402715658486"><ele>20.0</ele><time>2026-04-18T17:17:56Z</time></trkpt><trkpt lat="48.365770855968236" lon="-4.526284346823028"><ele>20.0</ele><time>2026-04-18T17:17:58Z</time></trkpt><trkpt lat="48.36585812469059" lon="-4.526149995996036"><ele>20.0</ele><time>2026-04-18T17:18:00Z</time></trkpt><trkpt lat="48.365924880130606" lon="-4.526095162463811"><ele>18.857142857142858</ele><time>2026-04-18T17:18:01Z</time></trkpt><trkpt lat="48.36598224767558" lon="-4.526015586317415"><ele>17.714285714285715</ele><time>2026-04-18T17:18:02Z</time></trkpt><trkpt lat="48.36604143233796" lon="-4.525940436444099"><ele>16.57142857142857</ele><time>2026-04-18T17:18:03Z</time></trkpt><trkpt lat="48.3660914043853" lon="-4.5258559446980415"><ele>15.428571428571427</ele><time>2026-04-18T17:18:04Z</time></trkpt><trkpt lat="48.36612368537468" lon="-4.525754223117137"><ele>14.285714285714285</ele><time>2026-04-18T17:18:05Z</time></trkpt><trkpt lat="48.36616605087522" lon="-4.525664396276079"><ele>13.142857142857142</ele><time>2026-04-18T17:18:06Z</time></trkpt><trkpt lat="48.36620778729579" lon="-4.525583382553919"><ele>12.0</ele><time>2026-04-18T17:18:07Z</time></trkpt><trkpt lat="48.36624403739697" lon="-4.525493743363857"><ele>12.399999999999999</ele><time>2026-04-18T17:18:08Z</time></trkpt><trkpt lat="48.366344307541546" lon="-4.525360598995985"><ele>12.799999999999999</ele><time>2026-04-18T17:18:10Z</time></trkpt><trkpt lat="48.36637408009702" lon="-4.52526735743784"><ele>13.2</ele><time>2026-04-18T17:18:11Z</time></trkpt><trkpt lat="48.36641571596174" lon="-4.525188565814065"><ele>13.6</ele><time>2026-04-18T17:18:12Z</time></trkpt><trkpt lat="48.3664469090179" lon="-4.525098061737326"><ele>14.0</ele><time>2026-04-18T17:18:13Z</time></trkpt><trkpt lat="48.366305834226516" lon="-4.524714744015074"><ele>13.399999999999999</ele><time>2026-04-18T17:18:15Z</time></trkpt><trkpt lat="48.366354733452845" lon="-4.524635547831197"><ele>12.799999999999999</ele><time>2026-04-18T17:18:16Z</time></trkpt><trkpt lat="48.366427222810984" lon="-4.524517973917843"><ele>12.2</ele><time>2026-04-18T17:18:18Z</time></trkpt><trkpt lat="48.366501344520024" lon="-4.524398879818377"><ele>11.600000000000001</ele><time>2026-04-18T17:18:20Z</time></trkpt><trkpt lat="48.366571097340454" lon="-4.524291163049518"><ele>11.0</ele><time>2026-04-18T17:18:22Z</time></trkpt><trkpt lat="48.366661755670165" lon="-4.524206482736399"><ele>14.0</ele><time>2026-04-18T17:18:24Z</time></trkpt><trkpt lat="48.3670713848272" lon="-4.524685462308169"><ele>14.0</ele><time>2026-04-18T17:18:25Z</time></trkpt><trkpt lat="48.36712284029904" lon="-4.524626670776547"><ele>14.0</ele><time>2026-04-18T17:18:26Z</time></trkpt><trkpt lat="48.36717114838659" lon="-4.524558360298685"><ele>14.0</ele><time>2026-04-18T17:18:27Z</time></trkpt><trkpt lat="48.36695878413341" lon="-4.524000936616331"><ele>13.0</ele><time>2026-04-18T17:18:29Z</time></trkpt><trkpt lat="48.367022362231516" lon="-4.523903815244978"><ele>12.0</ele><time>2026-04-18T17:18:31Z</time></trkpt><trkpt lat="48.36706711054406" lon="-4.523835458036189"><ele>11.0</ele><time>2026-04-18T17:18:34Z</time></trkpt><trkpt lat="48.36774220128319" lon="-4.523812387212291"><ele>13.0</ele><time>2026-04-18T17:18:44.999Z</time></trkpt><trkpt lat="48.367568570937635" lon="-4.5241077726716155"><ele>15.0</ele><time>2026-04-18T17:18:58.999Z</time></trkpt><trkpt lat="48.36758359008983" lon="-4.524013554188107"><ele>17.0</ele><time>2026-04-18T17:19:10.999Z</time></trkpt><trkpt lat="48.367618389587825" lon="-4.523919092101709"><ele>19.0</ele><time>2026-04-18T17:19:13.999Z</time></trkpt><trkpt lat="48.36767523258318" lon="-4.523846601742692"><ele>19.0</ele><time>2026-04-18T17:19:16.999Z</time></trkpt><trkpt lat="48.367723429528205" lon="-4.523778697681354"><ele>19.0</ele><time>2026-04-18T17:19:19.999Z</time></trkpt><trkpt lat="48.367768555201" lon="-4.523705271248575"><ele>19.0</ele><time>2026-04-18T17:19:22.999Z</time></trkpt><trkpt lat="48.36782039749488" lon="-4.523620857459509"><ele>19.0</ele><time>2026-04-18T17:19:25.999Z</time></trkpt><trkpt lat="48.367882779086536" lon="-4.5235299099340445"><ele>19.0</ele><time>2026-04-18T17:19:29Z</time></trkpt><trkpt lat="48.367935658003205" lon="-4.523460168602679"><ele>19.0</ele><time>2026-04-18T17:19:31Z</time></trkpt><trkpt lat="48.36797782831459" lon="-4.523358678265492"><ele>19.0</ele><time>2026-04-18T17:19:33Z</time></trkpt><trkpt lat="48.368030550895675" lon="-4.523228062111427"><ele>19.333333333333332</ele><time>2026-04-18T17:19:35Z</time></trkpt><trkpt lat="48.36809360029439" lon="-4.5230831040201425"><ele>19.666666666666664</ele><time>2026-04-18T17:19:37Z</time></trkpt><trkpt lat="48.368129262283254" lon="-4.523001248112545"><ele>20.0</ele><time>2026-04-18T17:19:38Z</time></trkpt><trkpt lat="48.36817261557979" lon="-4.522907373514748"><ele>20.333333333333332</ele><time>2026-04-18T17:19:39Z</time></trkpt><trkpt lat="48.368209029767144" lon="-4.522813803361348"><ele>20.666666666666668</ele><time>2026-04-18T17:19:40Z</time></trkpt><trkpt lat="48.36824418127224" lon="-4.522732425826381"><ele>21.0</ele><time>2026-04-18T17:19:41Z</time></trkpt><trkpt lat="48.368283727593024" lon="-4.522636896771683"><ele>21.0</ele><time>2026-04-18T17:19:42Z</time></trkpt><trkpt lat="48.36833968726355" lon="-4.522494892500622"><ele>21.0</ele><time>2026-04-18T17:19:44Z</time></trkpt><trkpt lat="48.36842817196258" lon="-4.522347561024965"><ele>21.0</ele><time>2026-04-18T17:19:46Z</time></trkpt><trkpt lat="48.36846995910535" lon="-4.52226081754832"><ele>21.0</ele><time>2026-04-18T17:19:47Z</time></trkpt><trkpt lat="48.36849744533883" lon="-4.522168764160251"><ele>21.0</ele><time>2026-04-18T17:19:48Z</time></trkpt><trkpt lat="48.368535032889255" lon="-4.522075037050782"><ele>20.166666666666668</ele><time>2026-04-18T17:19:49Z</time></trkpt><trkpt lat="48.3685674881238" lon="-4.521979513417994"><ele>19.333333333333332</ele><time>2026-04-18T17:19:50Z</time></trkpt><trkpt lat="48.368606920814116" lon="-4.521879805276969"><ele>18.5</ele><time>2026-04-18T17:19:51Z</time></trkpt><trkpt lat="48.36862101869532" lon="-4.521758105594218"><ele>17.666666666666664</ele><time>2026-04-18T17:19:52Z</time></trkpt><trkpt lat="48.36866003653368" lon="-4.521651162112816"><ele>16.833333333333332</ele><time>2026-04-18T17:19:53Z</time></trkpt><trkpt lat="48.36870932228617" lon="-4.521560577853933"><ele>16.0</ele><time>2026-04-18T17:19:54Z</time></trkpt><trkpt lat="48.368763088943915" lon="-4.521469125202658"><ele>16.0</ele><time>2026-04-18T17:19:55Z</time></trkpt><trkpt lat="48.368812355722824" lon="-4.5213823796383545"><ele>15.999999999999998</ele><time>2026-04-18T17:19:56Z</time></trkpt><trkpt lat="48.36885494457483" lon="-4.521293025975457"><ele>16.0</ele><time>2026-04-18T17:19:57Z</time></trkpt><trkpt lat="48.368898650878286" lon="-4.521211060834664"><ele>16.0</ele><time>2026-04-18T17:19:58Z</time></trkpt><trkpt lat="48.36893990679339" lon="-4.5211261519322825"><ele>15.999999999999998</ele><time>2026-04-18T17:19:59Z</time></trkpt><trkpt lat="48.36897274379334" lon="-4.521036391607176"><ele>16.0</ele><time>2026-04-18T17:20:00Z</time></trkpt><trkpt lat="48.3690059910856" lon="-4.5209543213844965"><ele>16.0</ele><time>2026-04-18T17:20:01Z</time></trkpt><trkpt lat="48.369046841422744" lon="-4.5208806883197825"><ele>14.4</ele><time>2026-04-18T17:20:02Z</time></trkpt><trkpt lat="48.3691470395333" lon="-4.5207544666861885"><ele>12.8</ele><time>2026-04-18T17:20:04Z</time></trkpt><trkpt lat="48.36921584959715" lon="-4.520704037594691"><ele>11.200000000000001</ele><time>2026-04-18T17:20:05Z</time></trkpt><trkpt lat="48.36928890677732" lon="-4.52065551852595"><ele>9.600000000000001</ele><time>2026-04-18T17:20:06Z</time></trkpt><trkpt lat="48.369368205269126" lon="-4.520605533969663"><ele>8.0</ele><time>2026-04-18T17:20:07Z</time></trkpt><trkpt lat="48.36945404747167" lon="-4.520569879036079"><ele>7.999999999999999</ele><time>2026-04-18T17:20:08Z</time></trkpt><trkpt lat="48.36953659516593" lon="-4.520520112403125"><ele>8.0</ele><time>2026-04-18T17:20:09Z</time></trkpt><trkpt lat="48.36962396526396" lon="-4.520472708764874"><ele>8.0</ele><time>2026-04-18T17:20:10Z</time></trkpt><trkpt lat="48.36970520506526" lon="-4.520445735771001"><ele>8.0</ele><time>2026-04-18T17:20:11Z</time></trkpt><trkpt lat="48.36979123345488" lon="-4.520398466145528"><ele>7.999999999999999</ele><time>2026-04-18T17:20:12Z</time></trkpt><trkpt lat="48.36987294360034" lon="-4.52034174342992"><ele>8.0</ele><time>2026-04-18T17:20:13Z</time></trkpt><trkpt lat="48.36995656758644" lon="-4.520267558753217"><ele>8.8</ele><time>2026-04-18T17:20:14Z</time></trkpt><trkpt lat="48.370031044278086" lon="-4.520180540994059"><ele>9.600000000000001</ele><time>2026-04-18T17:20:15Z</time></trkpt><trkpt lat="48.37010112622695" lon="-4.520084702292919"><ele>10.399999999999999</ele><time>2026-04-18T17:20:16Z</time></trkpt><trkpt lat="48.37016589338059" lon="-4.519979059944859"><ele>11.2</ele><time>2026-04-18T17:20:17Z</time></trkpt><trkpt lat="48.370220969526805" lon="-4.519875430741887"><ele>12.0</ele><time>2026-04-18T17:20:18Z</time></trkpt><trkpt lat="48.370266401417844" lon="-4.519765718597624"><ele>11.999999999999998</ele><time>2026-04-18T17:20:19Z</time></trkpt><trkpt lat="48.370311890956884" lon="-4.519673915644705"><ele>12.0</ele><time>2026-04-18T17:20:20Z</time></trkpt><trkpt lat="48.37037534964027" lon="-4.519597425563683"><ele>12.0</ele><time>2026-04-18T17:20:21Z</time></trkpt><trkpt lat="48.370431377668865" lon="-4.519531975807361"><ele>12.0</ele><time>2026-04-18T17:20:22Z</time></trkpt><trkpt lat="48.37048068646287" lon="-4.5194508267198765"><ele>12.0</ele><time>2026-04-18T17:20:23Z</time></trkpt><trkpt lat="48.37052135440454" lon="-4.519364044717612"><ele>11.999999999999998</ele><time>2026-04-18T17:20:24Z</time></trkpt><trkpt lat="48.37056926030446" lon="-4.519273147640021"><ele>12.0</ele><time>2026-04-18T17:20:25Z</time></trkpt><trkpt lat="48.37061655499498" lon="-4.519187584375181"><ele>11.5</ele><time>2026-04-18T17:20:26Z</time></trkpt><trkpt lat="48.37067252615403" lon="-4.5191159884504915"><ele>11.0</ele><time>2026-04-18T17:20:27Z</time></trkpt><trkpt lat="48.37072312479952" lon="-4.519040407475383"><ele>10.5</ele><time>2026-04-18T17:20:28Z</time></trkpt><trkpt lat="48.370769181275506" lon="-4.518962553611413"><ele>10.0</ele><time>2026-04-18T17:20:29Z</time></trkpt><trkpt lat="48.37081900832638" lon="-4.518888749962994"><ele>9.5</ele><time>2026-04-18T17:20:30Z</time></trkpt><trkpt lat="48.370871470910686" lon="-4.518832224508604"><ele>9.0</ele><time>2026-04-18T17:20:31Z</time></trkpt><trkpt lat="48.37082098271999" lon="-4.518604836059373"><ele>9.0</ele><time>2026-04-18T17:20:32Z</time></trkpt><trkpt lat="48.37090940177304" lon="-4.518491698300359"><ele>9.0</ele><time>2026-04-18T17:20:34Z</time></trkpt><trkpt lat="48.370992387359955" lon="-4.518385513629418"><ele>9.0</ele><time>2026-04-18T17:20:36Z</time></trkpt><trkpt lat="48.37115376687109" lon="-4.518550525168075"><ele>9.0</ele><time>2026-04-18T17:20:37Z</time></trkpt><trkpt lat="48.371238032533824" lon="-4.5184766779017025"><ele>9.0</ele><time>2026-04-18T17:20:38.999Z</time></trkpt><trkpt lat="48.37118066042805" lon="-4.518264862653898"><ele>9.0</ele><time>2026-04-18T17:20:39.999Z</time></trkpt><trkpt lat="48.371243000515584" lon="-4.518188865188862"><ele>9.0</ele><time>2026-04-18T17:20:41.999Z</time></trkpt><trkpt lat="48.37130525578403" lon="-4.518112970984472"><ele>9.0</ele><time>2026-04-18T17:20:43.999Z</time></trkpt><trkpt lat="48.37136135685659" lon="-4.518044579190502"><ele>9.0</ele><time>2026-04-18T17:20:45.999Z</time></trkpt><trkpt lat="48.37141307693409" lon="-4.51798152756968"><ele>9.0</ele><time>2026-04-18T17:20:47.999Z</time></trkpt><trkpt lat="48.371462235023365" lon="-4.517921599236507"><ele>9.0</ele><time>2026-04-18T17:20:50.999Z</time></trkpt><trkpt lat="48.37152376843478" lon="-4.517846584246834"><ele>9.0</ele><time>2026-04-18T17:20:54.999Z</time></trkpt><trkpt lat="48.371579005766954" lon="-4.51777924475816"><ele>9.0</ele><time>2026-04-18T17:20:58.999Z</time></trkpt><trkpt lat="48.37162903569937" lon="-4.51771825358043"><ele>9.0</ele><time>2026-04-18T17:21:02.999Z</time></trkpt><trkpt lat="48.37177952259218" lon="-4.517900612402836"><ele>9.000000000000002</ele><time>2026-04-18T17:21:05.999Z</time></trkpt><trkpt lat="48.37180521900678" lon="-4.517797857844447"><ele>9.0</ele><time>2026-04-18T17:21:09.999Z</time></trkpt><trkpt lat="48.371868901293176" lon="-4.51777481171638"><ele>9.0</ele><time>2026-04-18T17:21:31.999Z</time></trkpt><trkpt lat="48.37191728922349" lon="-4.517707376028853"><ele>9.0</ele><time>2026-04-18T17:21:36Z</time></trkpt><trkpt lat="48.371977286855916" lon="-4.517630419523919"><ele>9.0</ele><time>2026-04-18T17:21:39Z</time></trkpt><trkpt lat="48.37202677908317" lon="-4.517556211331802"><ele>9.000000000000002</ele><time>2026-04-18T17:21:41Z</time></trkpt><trkpt lat="48.372075623308504" lon="-4.517461728166418"><ele>9.0</ele><time>2026-04-18T17:21:43Z</time></trkpt><trkpt lat="48.37215074906453" lon="-4.517376073067962"><ele>10.5</ele><time>2026-04-18T17:21:45Z</time></trkpt><trkpt lat="48.372227611539614" lon="-4.517273167726161"><ele>12.0</ele><time>2026-04-18T17:21:47Z</time></trkpt><trkpt lat="48.37229318790861" lon="-4.517206940230584"><ele>13.5</ele><time>2026-04-18T17:21:49Z</time></trkpt><trkpt lat="48.37234815849159" lon="-4.51712416758574"><ele>15.0</ele><time>2026-04-18T17:21:51Z</time></trkpt><trkpt lat="48.37240192738309" lon="-4.517066570266245"><ele>16.5</ele><time>2026-04-18T17:21:53Z</time></trkpt><trkpt lat="48.372459055317904" lon="-4.5170087868192"><ele>18.0</ele><time>2026-04-18T17:21:55Z</time></trkpt><trkpt lat="48.37251474349843" lon="-4.516902098609576"><ele>18.0</ele><time>2026-04-18T17:21:58Z</time></trkpt><trkpt lat="48.37256303626804" lon="-4.516791450874965"><ele>18.0</ele><time>2026-04-18T17:22:01Z</time></trkpt><trkpt lat="48.372616266310565" lon="-4.5167374127152256"><ele>18.0</ele><time>2026-04-18T17:22:03Z</time></trkpt><trkpt lat="48.37265372900827" lon="-4.516639812754707"><ele>18.0</ele><time>2026-04-18T17:22:05Z</time></trkpt><trkpt lat="48.37270324510663" lon="-4.516537726902939"><ele>18.0</ele><time>2026-04-18T17:22:07Z</time></trkpt><trkpt lat="48.37274865420781" lon="-4.516391655354973"><ele>18.0</ele><time>2026-04-18T17:22:09Z</time></trkpt><trkpt lat="48.372797556540405" lon="-4.51627671153229"><ele>16.833333333333332</ele><time>2026-04-18T17:22:11Z</time></trkpt><trkpt lat="48.372851766607454" lon="-4.516158261027501"><ele>15.666666666666666</ele><time>2026-04-18T17:22:13Z</time></trkpt><trkpt lat="48.37291746007153" lon="-4.516047379390228"><ele>14.5</ele><time>2026-04-18T17:22:15Z</time></trkpt><trkpt lat="48.3729648792735" lon="-4.515938798891213"><ele>13.333333333333332</ele><time>2026-04-18T17:22:17Z</time></trkpt><trkpt lat="48.373003403908164" lon="-4.515858637153962"><ele>12.166666666666666</ele><time>2026-04-18T17:22:19Z</time></trkpt><trkpt lat="48.37305645299422" lon="-4.515755918768436"><ele>11.0</ele><time>2026-04-18T17:22:22Z</time></trkpt><trkpt lat="48.37308531498786" lon="-4.515663171292434"><ele>11.833333333333332</ele><time>2026-04-18T17:22:24Z</time></trkpt><trkpt lat="48.373122666532964" lon="-4.515584431613858"><ele>12.666666666666666</ele><time>2026-04-18T17:22:26Z</time></trkpt><trkpt lat="48.37317171929413" lon="-4.515472822164394"><ele>13.5</ele><time>2026-04-18T17:22:29Z</time></trkpt><trkpt lat="48.37319740192775" lon="-4.515383554596526"><ele>14.333333333333332</ele><time>2026-04-18T17:22:31Z</time></trkpt><trkpt lat="48.37323963716205" lon="-4.515276447676232"><ele>15.166666666666666</ele><time>2026-04-18T17:22:34Z</time></trkpt><trkpt lat="48.37328833930791" lon="-4.515177874875456"><ele>16.0</ele><time>2026-04-18T17:22:37Z</time></trkpt><trkpt lat="48.37332346012481" lon="-4.515085647024628"><ele>16.0</ele><time>2026-04-18T17:22:40Z</time></trkpt><trkpt lat="48.37336002170894" lon="-4.514970066575386"><ele>16.0</ele><time>2026-04-18T17:22:43Z</time></trkpt><trkpt lat="48.37339999692667" lon="-4.51488002715117"><ele>16.0</ele><time>2026-04-18T17:22:45Z</time></trkpt><trkpt lat="48.373450987991525" lon="-4.514741076716982"><ele>16.0</ele><time>2026-04-18T17:22:47Z</time></trkpt><trkpt lat="48.373500741041035" lon="-4.514568140583418"><ele>16.0</ele><time>2026-04-18T17:22:48.999Z</time></trkpt><trkpt lat="48.373532431811334" lon="-4.514478493466533"><ele>14.666666666666666</ele><time>2026-04-18T17:22:49.999Z</time></trkpt><trkpt lat="48.37356510378142" lon="-4.514372484971205"><ele>13.333333333333332</ele><time>2026-04-18T17:22:50.999Z</time></trkpt><trkpt lat="48.37361154149226" lon="-4.514256708702485"><ele>12.0</ele><time>2026-04-18T17:22:51.999Z</time></trkpt><trkpt lat="48.37366515486252" lon="-4.514165095348845"><ele>10.666666666666666</ele><time>2026-04-18T17:22:52.999Z</time></trkpt><trkpt lat="48.373733366117" lon="-4.514107258436291"><ele>9.333333333333332</ele><time>2026-04-18T17:22:53.999Z</time></trkpt><trkpt lat="48.3737984775719" lon="-4.514031803691472"><ele>8.0</ele><time>2026-04-18T17:22:54.999Z</time></trkpt><trkpt lat="48.373850888061156" lon="-4.5139359330650946"><ele>8.333333333333332</ele><time>2026-04-18T17:22:55.999Z</time></trkpt><trkpt lat="48.37390714404367" lon="-4.513844562371071"><ele>8.666666666666666</ele><time>2026-04-18T17:22:56.999Z</time></trkpt><trkpt lat="48.37394961307139" lon="-4.513740003876716"><ele>9.0</ele><time>2026-04-18T17:22:57.999Z</time></trkpt><trkpt lat="48.373991699823584" lon="-4.513657699490456"><ele>9.333333333333334</ele><time>2026-04-18T17:22:58.999Z</time></trkpt><trkpt lat="48.37402867941116" lon="-4.513578097149429"><ele>9.666666666666668</ele><time>2026-04-18T17:22:59.999Z</time></trkpt><trkpt lat="48.37411891753637" lon="-4.513483935345903"><ele>10.0</ele><time>2026-04-18T17:23:01.999Z</time></trkpt><trkpt lat="48.37421107595524" lon="-4.513456009363816"><ele>10.0</ele><time>2026-04-18T17:23:03.999Z</time></trkpt><trkpt lat="48.37431556283238" lon="-4.513547160412009"><ele>10.0</ele><time>2026-04-18T17:23:05.999Z</time></trkpt><trkpt lat="48.37438083112017" lon="-4.513572379090412"><ele>10.0</ele><time>2026-04-18T17:23:06.999Z</time></trkpt><trkpt lat="48.374465004926094" lon="-4.513538265819219"><ele>10.0</ele><time>2026-04-18T17:23:07.999Z</time></trkpt><trkpt lat="48.374540137108795" lon="-4.5134204955621655"><ele>10.0</ele><time>2026-04-18T17:23:08.999Z</time></trkpt><trkpt lat="48.37458205829819" lon="-4.5132828978503365"><ele>10.0</ele><time>2026-04-18T17:23:09.999Z</time></trkpt><trkpt lat="48.37459730522446" lon="-4.513129716265747"><ele>10.0</ele><time>2026-04-18T17:23:10.999Z</time></trkpt><trkpt lat="48.37466166271524" lon="-4.5130214023090875"><ele>10.0</ele><time>2026-04-18T17:23:11.999Z</time></trkpt><trkpt lat="48.37471598986183" lon="-4.512928665259329"><ele>10.0</ele><time>2026-04-18T17:23:12.999Z</time></trkpt><trkpt lat="48.37476783152686" lon="-4.512837218205203"><ele>10.0</ele><time>2026-04-18T17:23:13.999Z</time></trkpt><trkpt lat="48.374815733505635" lon="-4.512752720577089"><ele>10.0</ele><time>2026-04-18T17:23:14.999Z</time></trkpt><trkpt lat="48.374860368900336" lon="-4.512673985147508"><ele>11.428571428571429</ele><time>2026-04-18T17:23:15.999Z</time></trkpt><trkpt lat="48.37491032911131" lon="-4.512585873925162"><ele>12.857142857142858</ele><time>2026-04-18T17:23:16.999Z</time></trkpt><trkpt lat="48.3749544621111" lon="-4.512508195664847"><ele>14.285714285714285</ele><time>2026-04-18T17:23:17.999Z</time></trkpt><trkpt lat="48.374998310830186" lon="-4.512431017730165"><ele>15.714285714285715</ele><time>2026-04-18T17:23:18.999Z</time></trkpt><trkpt lat="48.37504230448191" lon="-4.512353584729577"><ele>17.142857142857142</ele><time>2026-04-18T17:23:19.999Z</time></trkpt><trkpt lat="48.37509495418329" lon="-4.512261116572966"><ele>18.57142857142857</ele><time>2026-04-18T17:23:20.999Z</time></trkpt><trkpt lat="48.375137934870686" lon="-4.512185884539157"><ele>20.0</ele><time>2026-04-18T17:23:21.999Z</time></trkpt><trkpt lat="48.375179880168716" lon="-4.51211246476119"><ele>18.6</ele><time>2026-04-18T17:23:22.999Z</time></trkpt><trkpt lat="48.37525819365511" lon="-4.511975387250577"><ele>17.2</ele><time>2026-04-18T17:23:24.999Z</time></trkpt><trkpt lat="48.37533415933895" lon="-4.511847856018515"><ele>15.8</ele><time>2026-04-18T17:23:26.999Z</time></trkpt><trkpt lat="48.37539664730636" lon="-4.511746712676994"><ele>14.4</ele><time>2026-04-18T17:23:28.999Z</time></trkpt><trkpt lat="48.375453794584686" lon="-4.511661372415247"><ele>13.0</ele><time>2026-04-18T17:23:30.999Z</time></trkpt><trkpt lat="48.37550742661437" lon="-4.511591620932336"><ele>13.2</ele><time>2026-04-18T17:23:32.999Z</time></trkpt><trkpt lat="48.37556569008288" lon="-4.5115198007266235"><ele>13.4</ele><time>2026-04-18T17:23:34.999Z</time></trkpt><trkpt lat="48.37563745361735" lon="-4.511432672542777"><ele>13.599999999999998</ele><time>2026-04-18T17:23:36.999Z</time></trkpt><trkpt lat="48.37572594224327" lon="-4.5113269485604475"><ele>13.799999999999999</ele><time>2026-04-18T17:23:38.999Z</time></trkpt><trkpt lat="48.375816487186526" lon="-4.511250680946269"><ele>14.0</ele><time>2026-04-18T17:23:41Z</time></trkpt><trkpt lat="48.37589887907243" lon="-4.511134933016569"><ele>14.000000000000002</ele><time>2026-04-18T17:23:43Z</time></trkpt><trkpt lat="48.37597313271039" lon="-4.511028115917314"><ele>14.0</ele><time>2026-04-18T17:23:45Z</time></trkpt><trkpt lat="48.37603047062769" lon="-4.510945629485606"><ele>14.0</ele><time>2026-04-18T17:23:47Z</time></trkpt><trkpt lat="48.3760860340738" lon="-4.510873916824704"><ele>14.0</ele><time>2026-04-18T17:23:49Z</time></trkpt><trkpt lat="48.37613396848585" lon="-4.5108101711469955"><ele>14.000000000000002</ele><time>2026-04-18T17:23:51Z</time></trkpt><trkpt lat="48.376194512723536" lon="-4.510705943961216"><ele>14.0</ele><time>2026-04-18T17:23:54Z</time></trkpt><trkpt lat="48.37623720315717" lon="-4.510627419730441"><ele>14.000000000000002</ele><time>2026-04-18T17:23:57Z</time></trkpt><trkpt lat="48.37628724536984" lon="-4.510542828403819"><ele>14.0</ele><time>2026-04-18T17:25:15.999Z</time></trkpt><trkpt lat="48.37634162896592" lon="-4.510452756633164"><ele>14.0</ele><time>2026-04-18T17:25:18.999Z</time></trkpt><trkpt lat="48.376388803173796" lon="-4.510372674083981"><ele>14.0</ele><time>2026-04-18T17:25:20.999Z</time></trkpt><trkpt lat="48.37644753994509" lon="-4.510268776488912"><ele>14.000000000000002</ele><time>2026-04-18T17:25:22.999Z</time></trkpt><trkpt lat="48.37651901718534" lon="-4.510155415167184"><ele>14.0</ele><time>2026-04-18T17:25:24.999Z</time></trkpt><trkpt lat="48.376585352266304" lon="-4.5100357011782215"><ele>13.399999999999999</ele><time>2026-04-18T17:25:26.999Z</time></trkpt><trkpt lat="48.37663492594943" lon="-4.509882641891681"><ele>12.799999999999999</ele><time>2026-04-18T17:25:28.999Z</time></trkpt><trkpt lat="48.37670485425101" lon="-4.50975337942559"><ele>12.2</ele><time>2026-04-18T17:25:30.999Z</time></trkpt><trkpt lat="48.37679308263663" lon="-4.509629176438558"><ele>11.600000000000001</ele><time>2026-04-18T17:25:32.999Z</time></trkpt><trkpt lat="48.37687887871021" lon="-4.509545073546328"><ele>11.0</ele><time>2026-04-18T17:25:34.999Z</time></trkpt><trkpt lat="48.37696578417573" lon="-4.5094652594969435"><ele>11.0</ele><time>2026-04-18T17:25:36.999Z</time></trkpt><trkpt lat="48.377050298106745" lon="-4.509411483711062"><ele>11.0</ele><time>2026-04-18T17:25:38.999Z</time></trkpt><trkpt lat="48.37712878016563" lon="-4.509336438638187"><ele>11.0</ele><time>2026-04-18T17:25:40.999Z</time></trkpt><trkpt lat="48.377197619174005" lon="-4.509252342026336"><ele>11.0</ele><time>2026-04-18T17:25:42.999Z</time></trkpt><trkpt lat="48.37727034505367" lon="-4.50918763736102"><ele>11.0</ele><time>2026-04-18T17:25:44.999Z</time></trkpt><trkpt lat="48.377340815083755" lon="-4.509125559168189"><ele>11.0</ele><time>2026-04-18T17:25:47Z</time></trkpt><trkpt lat="48.377409464002476" lon="-4.509061265227543"><ele>11.166666666666666</ele><time>2026-04-18T17:25:49Z</time></trkpt><trkpt lat="48.3774804029347" lon="-4.508994826556928"><ele>11.333333333333332</ele><time>2026-04-18T17:25:51Z</time></trkpt><trkpt lat="48.37758002880462" lon="-4.508901520793649"><ele>11.5</ele><time>2026-04-18T17:25:53Z</time></trkpt><trkpt lat="48.377664686899095" lon="-4.508873016850718"><ele>11.666666666666666</ele><time>2026-04-18T17:25:55Z</time></trkpt><trkpt lat="48.37771914081572" lon="-4.508825452733149"><ele>11.833333333333334</ele><time>2026-04-18T17:25:57Z</time></trkpt><trkpt lat="48.37777581805939" lon="-4.508759273449838"><ele>12.0</ele><time>2026-04-18T17:25:59Z</time></trkpt><trkpt lat="48.377837993952916" lon="-4.508742656400045"><ele>11.999999999999998</ele><time>2026-04-18T17:26:01Z</time></trkpt><trkpt lat="48.37791248125926" lon="-4.508699347730379"><ele>12.0</ele><time>2026-04-18T17:26:03Z</time></trkpt><trkpt lat="48.37796728440563" lon="-4.508650184946585"><ele>12.0</ele><time>2026-04-18T17:26:05Z</time></trkpt><trkpt lat="48.37802792348262" lon="-4.508599857297763"><ele>12.0</ele><time>2026-04-18T17:26:07Z</time></trkpt><trkpt lat="48.378098536870965" lon="-4.508565023082721"><ele>12.0</ele><time>2026-04-18T17:26:09Z</time></trkpt><trkpt lat="48.37816951137837" lon="-4.508499419741691"><ele>11.999999999999998</ele><time>2026-04-18T17:26:12Z</time></trkpt><trkpt lat="48.37822016049854" lon="-4.508426834630656"><ele>12.0</ele><time>2026-04-18T17:26:14Z</time></trkpt><trkpt lat="48.37829148597266" lon="-4.508355092496339"><ele>12.6</ele><time>2026-04-18T17:26:17Z</time></trkpt><trkpt lat="48.37836822491427" lon="-4.5082778484598975"><ele>13.2</ele><time>2026-04-18T17:26:20Z</time></trkpt><trkpt lat="48.37841199722276" lon="-4.508149270275891"><ele>13.8</ele><time>2026-04-18T17:26:23Z</time></trkpt><trkpt lat="48.37848562049075" lon="-4.5080635408435805"><ele>14.4</ele><time>2026-04-18T17:26:26Z</time></trkpt><trkpt lat="48.378541031736596" lon="-4.507961269103372"><ele>15.0</ele><time>2026-04-18T17:26:29Z</time></trkpt><trkpt lat="48.37860503200114" lon="-4.507887652723754"><ele>15.0</ele><time>2026-04-18T17:26:32Z</time></trkpt><trkpt lat="48.37866556833259" lon="-4.507800106201434"><ele>15.0</ele><time>2026-04-18T17:26:35Z</time></trkpt><trkpt lat="48.37873091746602" lon="-4.507735559584462"><ele>15.0</ele><time>2026-04-18T17:26:38Z</time></trkpt><trkpt lat="48.37879231452708" lon="-4.507651143506277"><ele>15.0</ele><time>2026-04-18T17:26:41Z</time></trkpt><trkpt lat="48.37885614318167" lon="-4.507571400415586"><ele>15.0</ele><time>2026-04-18T17:26:44Z</time></trkpt><trkpt lat="48.378924280980556" lon="-4.507516610561765"><ele>15.0</ele><time>2026-04-18T17:26:47Z</time></trkpt><trkpt lat="48.37900031622692" lon="-4.507490070203103"><ele>18.666666666666668</ele><time>2026-04-18T17:26:50Z</time></trkpt><trkpt lat="48.379084707343054" lon="-4.5074515351408575"><ele>22.333333333333336</ele><time>2026-04-18T17:26:53Z</time></trkpt><trkpt lat="48.37913396292929" lon="-4.5073813199976644"><ele>26.0</ele><time>2026-04-18T17:26:55.999Z</time></trkpt><trkpt lat="48.37920826712373" lon="-4.507317197032547"><ele>29.666666666666668</ele><time>2026-04-18T17:26:58.999Z</time></trkpt><trkpt lat="48.37927772402417" lon="-4.50722827871689"><ele>33.333333333333336</ele><time>2026-04-18T17:27:01.999Z</time></trkpt><trkpt lat="48.379334093483926" lon="-4.507161702215995"><ele>37.0</ele><time>2026-04-18T17:27:04.999Z</time></trkpt><trkpt lat="48.37938641753885" lon="-4.507098246189706"><ele>37.0</ele><time>2026-04-18T17:27:07.999Z</time></trkpt><trkpt lat="48.379448032702925" lon="-4.507038742266792"><ele>37.0</ele><time>2026-04-18T17:27:10.999Z</time></trkpt><trkpt lat="48.37950943210004" lon="-4.5069689837061"><ele>37.0</ele><time>2026-04-18T17:27:13.999Z</time></trkpt><trkpt lat="48.37954166115427" lon="-4.5068671825218285"><ele>37.0</ele><time>2026-04-18T17:27:16.999Z</time></trkpt><trkpt lat="48.379584490369496" lon="-4.506783887525664"><ele>37.0</ele><time>2026-04-18T17:27:19.999Z</time></trkpt><trkpt lat="48.3796573906642" lon="-4.506732422830673"><ele>37.0</ele><time>2026-04-18T17:27:23.999Z</time></trkpt><trkpt lat="48.3797167862468" lon="-4.506689212017055"><ele>37.0</ele><time>2026-04-18T17:27:26.999Z</time></trkpt><trkpt lat="48.37980583159429" lon="-4.506669794671496"><ele>37.0</ele><time>2026-04-18T17:27:29.999Z</time></trkpt><trkpt lat="48.37989081232095" lon="-4.50662098975331"><ele>37.0</ele><time>2026-04-18T17:27:31.999Z</time></trkpt><trkpt lat="48.380000934813495" lon="-4.506567313499761"><ele>37.0</ele><time>2026-04-18T17:27:33.999Z</time></trkpt><trkpt lat="48.3800651162565" lon="-4.506537173063895"><ele>37.0</ele><time>2026-04-18T17:27:34.999Z</time></trkpt><trkpt lat="48.380138261628716" lon="-4.506489289531435"><ele>37.0</ele><time>2026-04-18T17:27:35.999Z</time></trkpt><trkpt lat="48.38015077427087" lon="-4.506347332610151"><ele>37.0</ele><time>2026-04-18T17:27:36.999Z</time></trkpt><trkpt lat="48.38020772542204" lon="-4.506193537538086"><ele>33.6</ele><time>2026-04-18T17:27:38.999Z</time></trkpt><trkpt lat="48.38026594755497" lon="-4.506045016626854"><ele>30.200000000000003</ele><time>2026-04-18T17:27:40.999Z</time></trkpt><trkpt lat="48.380329541114754" lon="-4.505888643475083"><ele>26.8</ele><time>2026-04-18T17:27:42.999Z</time></trkpt><trkpt lat="48.38039142049528" lon="-4.505737177122439"><ele>23.4</ele><time>2026-04-18T17:27:44.999Z</time></trkpt><trkpt lat="48.38042795470506" lon="-4.505647749862078"><ele>20.0</ele><time>2026-04-18T17:27:45.999Z</time></trkpt><trkpt lat="48.38046657032594" lon="-4.50555322778921"><ele>20.0</ele><time>2026-04-18T17:27:46.999Z</time></trkpt><trkpt lat="48.38050310400391" lon="-4.505463801828697"><ele>20.0</ele><time>2026-04-18T17:27:47.999Z</time></trkpt><trkpt lat="48.38054340178828" lon="-4.5053668893311505"><ele>20.0</ele><time>2026-04-18T17:27:48.999Z</time></trkpt><trkpt lat="48.3805834440936" lon="-4.505270807411774"><ele>20.0</ele><time>2026-04-18T17:27:49.999Z</time></trkpt><trkpt lat="48.380622113252265" lon="-4.505178020410506"><ele>20.0</ele><time>2026-04-18T17:27:50.999Z</time></trkpt><trkpt lat="48.38066156206691" lon="-4.505083362663463"><ele>20.0</ele><time>2026-04-18T17:27:51.999Z</time></trkpt><trkpt lat="48.38072145901387" lon="-4.504939638887903"><ele>20.333333333333336</ele><time>2026-04-18T17:27:54Z</time></trkpt><trkpt lat="48.38076795997573" lon="-4.50482562457198"><ele>20.666666666666668</ele><time>2026-04-18T17:27:56Z</time></trkpt><trkpt lat="48.38081621144129" lon="-4.504701619073096"><ele>21.0</ele><time>2026-04-18T17:27:58Z</time></trkpt><trkpt lat="48.380858273423804" lon="-4.504581616820523"><ele>21.333333333333332</ele><time>2026-04-18T17:28:00Z</time></trkpt><trkpt lat="48.38089123715168" lon="-4.504475929022869"><ele>21.666666666666664</ele><time>2026-04-18T17:28:02Z</time></trkpt><trkpt lat="48.38094390285311" lon="-4.504423247421415"><ele>22.0</ele><time>2026-04-18T17:28:04Z</time></trkpt><trkpt lat="48.3809613569351" lon="-4.504330853237412"><ele>21.166666666666664</ele><time>2026-04-18T17:28:07Z</time></trkpt><trkpt lat="48.38093803309805" lon="-4.504236976786524"><ele>20.333333333333332</ele><time>2026-04-18T17:28:12Z</time></trkpt><trkpt lat="48.38094943628958" lon="-4.504116383920604"><ele>19.5</ele><time>2026-04-18T17:30:01Z</time></trkpt><trkpt lat="48.381020424330735" lon="-4.504099076107188"><ele>18.666666666666668</ele><time>2026-04-18T17:30:04Z</time></trkpt><trkpt lat="48.38109217495713" lon="-4.504064788181094"><ele>17.833333333333336</ele><time>2026-04-18T17:30:06Z</time></trkpt><trkpt lat="48.381173631863575" lon="-4.503986874283929"><ele>17.0</ele><time>2026-04-18T17:30:08Z</time></trkpt><trkpt lat="48.38124952846723" lon="-4.503897989890399"><ele>17.0</ele><time>2026-04-18T17:30:10Z</time></trkpt><trkpt lat="48.38133555390329" lon="-4.503819953414167"><ele>17.0</ele><time>2026-04-18T17:30:12Z</time></trkpt><trkpt lat="48.381433268983976" lon="-4.503737573548716"><ele>17.0</ele><time>2026-04-18T17:30:14Z</time></trkpt><trkpt lat="48.381536763013756" lon="-4.503664313191977"><ele>17.0</ele><time>2026-04-18T17:30:16Z</time></trkpt><trkpt lat="48.38164637432857" lon="-4.5035904230904"><ele>17.0</ele><time>2026-04-18T17:30:18Z</time></trkpt><trkpt lat="48.38174449398563" lon="-4.503497131639677"><ele>19.6</ele><time>2026-04-18T17:30:20Z</time></trkpt><trkpt lat="48.3818489096192" lon="-4.5034257432841365"><ele>22.2</ele><time>2026-04-18T17:30:22Z</time></trkpt><trkpt lat="48.381957332405065" lon="-4.503397304134123"><ele>24.8</ele><time>2026-04-18T17:30:24Z</time></trkpt><trkpt lat="48.38205261041635" lon="-4.50339729951105"><ele>27.4</ele><time>2026-04-18T17:30:26Z</time></trkpt><trkpt lat="48.38212885042378" lon="-4.503417383777396"><ele>30.0</ele><time>2026-04-18T17:30:28Z</time></trkpt><trkpt lat="48.3822120062555" lon="-4.503423070051816"><ele>31.142857142857146</ele><time>2026-04-18T17:30:32Z</time></trkpt><trkpt lat="48.382273851967355" lon="-4.503402403014958"><ele>32.285714285714285</ele><time>2026-04-18T17:30:38Z</time></trkpt><trkpt lat="48.3823054736301" lon="-4.503302204004865"><ele>33.42857142857143</ele><time>2026-04-18T17:30:42Z</time></trkpt><trkpt lat="48.38230044219096" lon="-4.503183960230443"><ele>34.57142857142857</ele><time>2026-04-18T17:30:46Z</time></trkpt><trkpt lat="48.382290244768605" lon="-4.50305724143589"><ele>35.714285714285715</ele><time>2026-04-18T17:30:49Z</time></trkpt><trkpt lat="48.38226579469766" lon="-4.50295679851453"><ele>36.857142857142854</ele><time>2026-04-18T17:30:52Z</time></trkpt><trkpt lat="48.38224629876121" lon="-4.502851400405145"><ele>38.0</ele><time>2026-04-18T17:30:57Z</time></trkpt><trkpt lat="48.382280162791794" lon="-4.502763152001067"><ele>38.0</ele><time>2026-04-18T17:31:15.999Z</time></trkpt><trkpt lat="48.38230059863143" lon="-4.502668059854578"><ele>38.0</ele><time>2026-04-18T17:31:17.999Z</time></trkpt><trkpt lat="48.38229658876591" lon="-4.502556377284237"><ele>38.0</ele><time>2026-04-18T17:31:19.999Z</time></trkpt><trkpt lat="48.382319287461016" lon="-4.502425499536995"><ele>38.0</ele><time>2026-04-18T17:31:21.999Z</time></trkpt><trkpt lat="48.38233339015898" lon="-4.502301395892969"><ele>38.0</ele><time>2026-04-18T17:31:23.999Z</time></trkpt><trkpt lat="48.3823114113818" lon="-4.502158511715222"><ele>38.0</ele><time>2026-04-18T17:31:25.999Z</time></trkpt><trkpt lat="48.382274086962234" lon="-4.502021617763195"><ele>37.8</ele><time>2026-04-18T17:31:27.999Z</time></trkpt><trkpt lat="48.38224642134487" lon="-4.50188531915774"><ele>37.599999999999994</ele><time>2026-04-18T17:31:29.999Z</time></trkpt><trkpt lat="48.38221769708131" lon="-4.5017313683921145"><ele>37.400000000000006</ele><time>2026-04-18T17:31:31.999Z</time></trkpt><trkpt lat="48.38218686765781" lon="-4.501559579717409"><ele>37.2</ele><time>2026-04-18T17:31:33.999Z</time></trkpt><trkpt lat="48.3821845246498" lon="-4.501456153996256"><ele>37.0</ele><time>2026-04-18T17:31:34.999Z</time></trkpt><trkpt lat="48.38216231502603" lon="-4.501255654463844"><ele>36.0</ele><time>2026-04-18T17:31:36.999Z</time></trkpt><trkpt lat="48.382169553235855" lon="-4.501141079408798"><ele>35.0</ele><time>2026-04-18T17:31:37.999Z</time></trkpt><trkpt lat="48.38214551965336" lon="-4.501033785890271"><ele>34.0</ele><time>2026-04-18T17:31:38.999Z</time></trkpt><trkpt lat="48.382138404115885" lon="-4.500920656060391"><ele>33.0</ele><time>2026-04-18T17:31:39.999Z</time></trkpt><trkpt lat="48.38214577841664" lon="-4.500811299697042"><ele>32.0</ele><time>2026-04-18T17:31:40.999Z</time></trkpt><trkpt lat="48.3821365259687" lon="-4.500695203252599"><ele>31.0</ele><time>2026-04-18T17:31:41.999Z</time></trkpt><trkpt lat="48.38213298020159" lon="-4.500578566244918"><ele>31.0</ele><time>2026-04-18T17:31:42.999Z</time></trkpt><trkpt lat="48.382110160249646" lon="-4.500481148673695"><ele>31.0</ele><time>2026-04-18T17:31:43.999Z</time></trkpt><trkpt lat="48.38210115775609" lon="-4.500338260255828"><ele>31.0</ele><time>2026-04-18T17:31:45.999Z</time></trkpt><trkpt lat="48.382095722177695" lon="-4.500240682980305"><ele>31.0</ele><time>2026-04-18T17:31:47.999Z</time></trkpt><trkpt lat="48.38223472478973" lon="-4.500201486946351"><ele>31.0</ele><time>2026-04-18T17:31:49.999Z</time></trkpt><trkpt lat="48.38230891579099" lon="-4.5001537800273885"><ele>31.4</ele><time>2026-04-18T17:31:52.999Z</time></trkpt><trkpt lat="48.382366912567306" lon="-4.500116486454823"><ele>31.8</ele><time>2026-04-18T17:31:54.999Z</time></trkpt><trkpt lat="48.38242555760329" lon="-4.50007877602772"><ele>32.199999999999996</ele><time>2026-04-18T17:31:56.999Z</time></trkpt><trkpt lat="48.38250367912654" lon="-4.500028541673193"><ele>32.6</ele><time>2026-04-18T17:31:59.999Z</time></trkpt><trkpt lat="48.382723569011574" lon="-4.499923644515504"><ele>33.0</ele><time>2026-04-18T17:32:05Z</time></trkpt><trkpt lat="48.38281763220107" lon="-4.499881581761875"><ele>33.0</ele><time>2026-04-18T17:32:07Z</time></trkpt><trkpt lat="48.38293372788062" lon="-4.499812738350841"><ele>33.0</ele><time>2026-04-18T17:32:09Z</time></trkpt><trkpt lat="48.38297921352791" lon="-4.499721781111362"><ele>33.0</ele><time>2026-04-18T17:32:10Z</time></trkpt><trkpt lat="48.3830612277959" lon="-4.499668869821959"><ele>33.0</ele><time>2026-04-18T17:32:12Z</time></trkpt><trkpt lat="48.383121908074166" lon="-4.499611014180068"><ele>33.0</ele><time>2026-04-18T17:32:15Z</time></trkpt><trkpt lat="48.38323722554937" lon="-4.499707026436765"><ele>32.0</ele><time>2026-04-18T17:32:29Z</time></trkpt><trkpt lat="48.383330251813426" lon="-4.499746560428061"><ele>30.999999999999996</ele><time>2026-04-18T17:32:31Z</time></trkpt><trkpt lat="48.38343640055815" lon="-4.499791671164634"><ele>29.999999999999996</ele><time>2026-04-18T17:32:33Z</time></trkpt><trkpt lat="48.38353662521878" lon="-4.499833025398839"><ele>29.0</ele><time>2026-04-18T17:32:35Z</time></trkpt><trkpt lat="48.38358841128452" lon="-4.499926350904667"><ele>28.0</ele><time>2026-04-18T17:32:37Z</time></trkpt><trkpt lat="48.3836579604102" lon="-4.499953836981318"><ele>28.0</ele><time>2026-04-18T17:32:39Z</time></trkpt><trkpt lat="48.38372654610967" lon="-4.49997823874685"><ele>28.0</ele><time>2026-04-18T17:32:42Z</time></trkpt><trkpt lat="48.38379844785049" lon="-4.499986553965773"><ele>28.0</ele><time>2026-04-18T17:32:45Z</time></trkpt><trkpt lat="48.383861784046495" lon="-4.500023287703447"><ele>28.0</ele><time>2026-04-18T17:32:48Z</time></trkpt><trkpt lat="48.38393161990255" lon="-4.5000812503624035"><ele>28.0</ele><time>2026-04-18T17:32:51Z</time></trkpt><trkpt lat="48.38400119379715" lon="-4.500069538846789"><ele>28.0</ele><time>2026-04-18T17:32:54Z</time></trkpt><trkpt lat="48.38404720597934" lon="-4.499956633912825"><ele>28.0</ele><time>2026-04-18T17:32:57Z</time></trkpt><trkpt lat="48.38402762047191" lon="-4.49984939437016"><ele>26.833333333333336</ele><time>2026-04-18T17:33:00Z</time></trkpt><trkpt lat="48.38403592091337" lon="-4.499731431569963"><ele>25.666666666666668</ele><time>2026-04-18T17:33:03Z</time></trkpt><trkpt lat="48.38404253046256" lon="-4.499630392522752"><ele>24.5</ele><time>2026-04-18T17:33:05Z</time></trkpt><trkpt lat="48.38402716914589" lon="-4.499499948257613"><ele>23.333333333333336</ele><time>2026-04-18T17:33:07Z</time></trkpt><trkpt lat="48.38402332857248" lon="-4.499386104986762"><ele>22.166666666666668</ele><time>2026-04-18T17:33:09Z</time></trkpt><trkpt lat="48.38400976843288" lon="-4.499288806241188"><ele>21.0</ele><time>2026-04-18T17:33:10.999Z</time></trkpt><trkpt lat="48.38405978901435" lon="-4.499159270230773"><ele>21.0</ele><time>2026-04-18T17:33:14.999Z</time></trkpt><trkpt lat="48.38405105889629" lon="-4.499021215952795"><ele>21.0</ele><time>2026-04-18T17:33:17.999Z</time></trkpt><trkpt lat="48.38404950476278" lon="-4.498914015884736"><ele>21.0</ele><time>2026-04-18T17:33:19.999Z</time></trkpt><trkpt lat="48.384023430178445" lon="-4.498822557605855"><ele>21.0</ele><time>2026-04-18T17:33:21.999Z</time></trkpt><trkpt lat="48.38407749335119" lon="-4.498722798812188"><ele>21.0</ele><time>2026-04-18T17:33:25.999Z</time></trkpt><trkpt lat="48.3841294797114" lon="-4.4986228988742445"><ele>21.0</ele><time>2026-04-18T17:33:28.999Z</time></trkpt><trkpt lat="48.38419161352893" lon="-4.4985679273040615"><ele>21.0</ele><time>2026-04-18T17:33:31.999Z</time></trkpt><trkpt lat="48.38423737457185" lon="-4.498456428254738"><ele>21.0</ele><time>2026-04-18T17:33:35.999Z</time></trkpt><trkpt lat="48.3842545734288" lon="-4.49831959997636"><ele>21.0</ele><time>2026-04-18T17:33:38.999Z</time></trkpt><trkpt lat="48.38428033198138" lon="-4.498192826085396"><ele>21.0</ele><time>2026-04-18T17:33:41.999Z</time></trkpt><trkpt lat="48.38423673793317" lon="-4.4980479278329035"><ele>21.0</ele><time>2026-04-18T17:33:43.999Z</time></trkpt><trkpt lat="48.38420728075453" lon="-4.497931416455255"><ele>19.5</ele><time>2026-04-18T17:33:45.999Z</time></trkpt><trkpt lat="48.3842154383328" lon="-4.4977889998968035"><ele>18.0</ele><time>2026-04-18T17:33:48.999Z</time></trkpt><trkpt lat="48.38421565265048" lon="-4.497687192788362"><ele>16.5</ele><time>2026-04-18T17:33:51.999Z</time></trkpt><trkpt lat="48.38422415977623" lon="-4.497586666600538"><ele>15.0</ele><time>2026-04-18T17:33:53.999Z</time></trkpt><trkpt lat="48.384224564889394" lon="-4.497449157275507"><ele>13.5</ele><time>2026-04-18T17:33:56.999Z</time></trkpt><trkpt lat="48.384228128561574" lon="-4.497320073925882"><ele>12.0</ele><time>2026-04-18T17:33:59.999Z</time></trkpt><trkpt lat="48.384228943752944" lon="-4.497217340274027"><ele>12.0</ele><time>2026-04-18T17:34:04.999Z</time></trkpt><trkpt lat="48.38423969445195" lon="-4.497123710566633"><ele>12.0</ele><time>2026-04-18T17:34:06.999Z</time></trkpt><trkpt lat="48.384228834856785" lon="-4.4970222807687525"><ele>12.0</ele><time>2026-04-18T17:34:08.999Z</time></trkpt><trkpt lat="48.38418112595318" lon="-4.496940112255436"><ele>12.0</ele><time>2026-04-18T17:34:11Z</time></trkpt><trkpt lat="48.38419158189757" lon="-4.496801033846217"><ele>12.0</ele><time>2026-04-18T17:34:14Z</time></trkpt><trkpt lat="48.38421469039973" lon="-4.496711744249759"><ele>12.0</ele><time>2026-04-18T17:34:16Z</time></trkpt><trkpt lat="48.384237467868374" lon="-4.496569352844058"><ele>11.0</ele><time>2026-04-18T17:34:19Z</time></trkpt><trkpt lat="48.38424513187128" lon="-4.4964510999723775"><ele>10.0</ele><time>2026-04-18T17:34:21Z</time></trkpt><trkpt lat="48.384258451353084" lon="-4.49634472742112"><ele>9.0</ele><time>2026-04-18T17:34:23Z</time></trkpt><trkpt lat="48.38426505604862" lon="-4.4962347665341715"><ele>8.0</ele><time>2026-04-18T17:34:25Z</time></trkpt><trkpt lat="48.38428133402336" lon="-4.496124681043609"><ele>7.0</ele><time>2026-04-18T17:34:27Z</time></trkpt><trkpt lat="48.384290712888856" lon="-4.495999682203491"><ele>6.0</ele><time>2026-04-18T17:34:29Z</time></trkpt><trkpt lat="48.38429897549531" lon="-4.4958742570792"><ele>6.0</ele><time>2026-04-18T17:34:31Z</time></trkpt><trkpt lat="48.38430857797453" lon="-4.49575554689113"><ele>6.0</ele><time>2026-04-18T17:34:33Z</time></trkpt><trkpt lat="48.3843102563529" lon="-4.49563533220294"><ele>6.0</ele><time>2026-04-18T17:34:35Z</time></trkpt><trkpt lat="48.38433128339779" lon="-4.495524772127245"><ele>6.0</ele><time>2026-04-18T17:34:37Z</time></trkpt><trkpt lat="48.38436238163483" lon="-4.495400619755064"><ele>6.0</ele><time>2026-04-18T17:34:40Z</time></trkpt><trkpt lat="48.38436846552699" lon="-4.495297098105663"><ele>6.0</ele><time>2026-04-18T17:34:42Z</time></trkpt><trkpt lat="48.384377576559686" lon="-4.4952027336702045"><ele>6.428571428571428</ele><time>2026-04-18T17:34:44Z</time></trkpt><trkpt lat="48.384395305312985" lon="-4.495107033743646"><ele>6.857142857142858</ele><time>2026-04-18T17:34:46Z</time></trkpt><trkpt lat="48.3844003568176" lon="-4.495004774988594"><ele>7.2857142857142865</ele><time>2026-04-18T17:34:48Z</time></trkpt><trkpt lat="48.384400121715736" lon="-4.494908005481156"><ele>7.714285714285714</ele><time>2026-04-18T17:34:50Z</time></trkpt><trkpt lat="48.38441705194355" lon="-4.494775033932728"><ele>8.142857142857142</ele><time>2026-04-18T17:34:53Z</time></trkpt><trkpt lat="48.38442844388266" lon="-4.494657467809086"><ele>8.571428571428573</ele><time>2026-04-18T17:34:56Z</time></trkpt><trkpt lat="48.38442040912429" lon="-4.494544544420857"><ele>9.0</ele><time>2026-04-18T17:34:59Z</time></trkpt><trkpt lat="48.3843437605732" lon="-4.494510224194357"><ele>11.166666666666666</ele><time>2026-04-18T17:35:01Z</time></trkpt><trkpt lat="48.38428249374182" lon="-4.4944639021180395"><ele>13.333333333333332</ele><time>2026-04-18T17:35:03Z</time></trkpt><trkpt lat="48.38421151989768" lon="-4.494416035033297"><ele>15.5</ele><time>2026-04-18T17:35:05Z</time></trkpt><trkpt lat="48.38414499696833" lon="-4.494340022633798"><ele>17.666666666666664</ele><time>2026-04-18T17:35:07Z</time></trkpt><trkpt lat="48.384087786733666" lon="-4.494243766055509"><ele>19.833333333333332</ele><time>2026-04-18T17:35:09Z</time></trkpt><trkpt lat="48.384029698032805" lon="-4.494149178423818"><ele>22.0</ele><time>2026-04-18T17:35:11Z</time></trkpt><trkpt lat="48.38396720655648" lon="-4.494048100370363"><ele>22.0</ele><time>2026-04-18T17:35:13Z</time></trkpt><trkpt lat="48.383909221905924" lon="-4.493936177795425"><ele>22.0</ele><time>2026-04-18T17:35:15Z</time></trkpt><trkpt lat="48.383864623781236" lon="-4.493825907654733"><ele>22.0</ele><time>2026-04-18T17:35:17Z</time></trkpt><trkpt lat="48.38379971280237" lon="-4.493722951973639"><ele>22.0</ele><time>2026-04-18T17:35:19Z</time></trkpt><trkpt lat="48.383731434247835" lon="-4.493620284927335"><ele>22.0</ele><time>2026-04-18T17:35:20.999Z</time></trkpt><trkpt lat="48.383682751706985" lon="-4.493542683098014"><ele>22.0</ele><time>2026-04-18T17:35:22.999Z</time></trkpt><trkpt lat="48.38362751668978" lon="-4.493479798015415"><ele>22.666666666666664</ele><time>2026-04-18T17:35:26.999Z</time></trkpt><trkpt lat="48.38355816193285" lon="-4.493400333029718"><ele>23.333333333333332</ele><time>2026-04-18T17:35:29.999Z</time></trkpt><trkpt lat="48.38350892671571" lon="-4.493328033243138"><ele>24.0</ele><time>2026-04-18T17:35:31.999Z</time></trkpt><trkpt lat="48.38345645058447" lon="-4.493247012070356"><ele>24.666666666666664</ele><time>2026-04-18T17:35:33.999Z</time></trkpt><trkpt lat="48.38339892135047" lon="-4.493170766411742"><ele>25.333333333333332</ele><time>2026-04-18T17:35:35.999Z</time></trkpt><trkpt lat="48.38334006614735" lon="-4.493095710202773"><ele>26.0</ele><time>2026-04-18T17:35:37.999Z</time></trkpt><trkpt lat="48.383285228658686" lon="-4.493006653715532"><ele>25.999999999999996</ele><time>2026-04-18T17:35:39.999Z</time></trkpt><trkpt lat="48.383229375955146" lon="-4.492924355045703"><ele>26.0</ele><time>2026-04-18T17:35:41.999Z</time></trkpt><trkpt lat="48.3831765225417" lon="-4.492844258331675"><ele>26.0</ele><time>2026-04-18T17:35:43.999Z</time></trkpt><trkpt lat="48.38312923863783" lon="-4.492761074415728"><ele>26.0</ele><time>2026-04-18T17:35:45.999Z</time></trkpt><trkpt lat="48.3830704255745" lon="-4.492671841116648"><ele>25.999999999999996</ele><time>2026-04-18T17:35:47.999Z</time></trkpt><trkpt lat="48.383009788062225" lon="-4.4925766846861785"><ele>26.0</ele><time>2026-04-18T17:35:49.999Z</time></trkpt><trkpt lat="48.38295399133694" lon="-4.492494085759172"><ele>25.999999999999996</ele><time>2026-04-18T17:35:51.999Z</time></trkpt><trkpt lat="48.382889851800115" lon="-4.492405859548727"><ele>26.0</ele><time>2026-04-18T17:35:53.999Z</time></trkpt><trkpt lat="48.38284673427488" lon="-4.492320352057883"><ele>26.0</ele><time>2026-04-18T17:35:55.999Z</time></trkpt><trkpt lat="48.382786287193284" lon="-4.492250522718049"><ele>26.0</ele><time>2026-04-18T17:35:57.999Z</time></trkpt><trkpt lat="48.38272816638088" lon="-4.492179773523791"><ele>25.999999999999996</ele><time>2026-04-18T17:35:59.999Z</time></trkpt><trkpt lat="48.382662132267754" lon="-4.492142964086561"><ele>26.0</ele><time>2026-04-18T17:36:01.999Z</time></trkpt><trkpt lat="48.3825795684986" lon="-4.492088323280564"><ele>25.999999999999996</ele><time>2026-04-18T17:36:04.999Z</time></trkpt><trkpt lat="48.38257369242862" lon="-4.491979440801481"><ele>26.0</ele><time>2026-04-18T17:36:06.999Z</time></trkpt><trkpt lat="48.382629384896624" lon="-4.491892265982284"><ele>26.0</ele><time>2026-04-18T17:36:08.999Z</time></trkpt><trkpt lat="48.38270341503582" lon="-4.491822950336342"><ele>26.0</ele><time>2026-04-18T17:36:10.999Z</time></trkpt><trkpt lat="48.38276400817105" lon="-4.491756640292512"><ele>25.999999999999996</ele><time>2026-04-18T17:36:12.999Z</time></trkpt><trkpt lat="48.382829841407485" lon="-4.491693247750984"><ele>26.0</ele><time>2026-04-18T17:36:14.999Z</time></trkpt><trkpt lat="48.3828867078982" lon="-4.491624891215817"><ele>26.0</ele><time>2026-04-18T17:36:17Z</time></trkpt><trkpt lat="48.38293843874529" lon="-4.49156381660917"><ele>26.0</ele><time>2026-04-18T17:36:19Z</time></trkpt><trkpt lat="48.38299255866502" lon="-4.491494501855168"><ele>26.0</ele><time>2026-04-18T17:36:21Z</time></trkpt><trkpt lat="48.38305136020388" lon="-4.491424509531422"><ele>26.0</ele><time>2026-04-18T17:36:23Z</time></trkpt><trkpt lat="48.383099350504594" lon="-4.491344025730831"><ele>26.0</ele><time>2026-04-18T17:36:25Z</time></trkpt><trkpt lat="48.383164360020025" lon="-4.491282261665869"><ele>26.0</ele><time>2026-04-18T17:36:27Z</time></trkpt><trkpt lat="48.38323560238829" lon="-4.491225717207984"><ele>26.0</ele><time>2026-04-18T17:36:29Z</time></trkpt><trkpt lat="48.383298811578776" lon="-4.491158205804413"><ele>26.428571428571427</ele><time>2026-04-18T17:36:31Z</time></trkpt><trkpt lat="48.38336196195616" lon="-4.491091187692137"><ele>26.85714285714286</ele><time>2026-04-18T17:36:33Z</time></trkpt><trkpt lat="48.38342644514845" lon="-4.4910285662039025"><ele>27.28571428571429</ele><time>2026-04-18T17:36:35Z</time></trkpt><trkpt lat="48.383493857270246" lon="-4.490972935433025"><ele>27.714285714285715</ele><time>2026-04-18T17:36:37Z</time></trkpt><trkpt lat="48.383556616426695" lon="-4.490922460383855"><ele>28.142857142857146</ele><time>2026-04-18T17:36:39Z</time></trkpt><trkpt lat="48.38362068346791" lon="-4.490875571381258"><ele>28.571428571428577</ele><time>2026-04-18T17:36:41Z</time></trkpt><trkpt lat="48.38368357173599" lon="-4.4908227470555415"><ele>29.000000000000004</ele><time>2026-04-18T17:36:43Z</time></trkpt><trkpt lat="48.38372396426492" lon="-4.490731039110539"><ele>28.999999999999996</ele><time>2026-04-18T17:36:45Z</time></trkpt><trkpt lat="48.38375708702134" lon="-4.490613351758362"><ele>29.0</ele><time>2026-04-18T17:36:47Z</time></trkpt><trkpt lat="48.383806393293604" lon="-4.490533998900052"><ele>29.0</ele><time>2026-04-18T17:36:49Z</time></trkpt><trkpt lat="48.38386729515038" lon="-4.490463399564606"><ele>29.0</ele><time>2026-04-18T17:36:51Z</time></trkpt><trkpt lat="48.38393668591935" lon="-4.49040073604857"><ele>28.999999999999996</ele><time>2026-04-18T17:36:53Z</time></trkpt><trkpt lat="48.38399684097513" lon="-4.4902967980375905"><ele>29.0</ele><time>2026-04-18T17:36:55Z</time></trkpt><trkpt lat="48.38406389624111" lon="-4.490200335055811"><ele>29.999999999999996</ele><time>2026-04-18T17:36:57Z</time></trkpt><trkpt lat="48.384136592614816" lon="-4.49009996939014"><ele>31.0</ele><time>2026-04-18T17:36:59Z</time></trkpt><trkpt lat="48.38419811792486" lon="-4.489993163292961"><ele>32.0</ele><time>2026-04-18T17:37:01Z</time></trkpt><trkpt lat="48.38424456715312" lon="-4.489923994757777"><ele>33.0</ele><time>2026-04-18T17:37:03Z</time></trkpt><trkpt lat="48.384307683942986" lon="-4.489845723743037"><ele>34.0</ele><time>2026-04-18T17:37:05Z</time></trkpt><trkpt lat="48.384376243557796" lon="-4.48977517732115"><ele>35.0</ele><time>2026-04-18T17:37:07Z</time></trkpt><trkpt lat="48.38444416240845" lon="-4.489707830601"><ele>35.0</ele><time>2026-04-18T17:37:09Z</time></trkpt><trkpt lat="48.38451643513535" lon="-4.489642447888827"><ele>35.0</ele><time>2026-04-18T17:37:11Z</time></trkpt><trkpt lat="48.384560373660506" lon="-4.489530735881587"><ele>35.0</ele><time>2026-04-18T17:37:15Z</time></trkpt><trkpt lat="48.38461344368397" lon="-4.489477720658659"><ele>35.0</ele><time>2026-04-18T17:37:17Z</time></trkpt><trkpt lat="48.38466404787367" lon="-4.489404092902669"><ele>35.0</ele><time>2026-04-18T17:37:18Z</time></trkpt><trkpt lat="48.38471804336376" lon="-4.489340583178843"><ele>35.0</ele><time>2026-04-18T17:37:21Z</time></trkpt><trkpt lat="48.384761576872" lon="-4.489271634619379"><ele>35.0</ele><time>2026-04-18T17:37:23Z</time></trkpt><trkpt lat="48.38479181986534" lon="-4.489184328351774"><ele>36.0</ele><time>2026-04-18T17:37:24.999Z</time></trkpt><trkpt lat="48.3848290355818" lon="-4.489102916562393"><ele>37.0</ele><time>2026-04-18T17:37:28.999Z</time></trkpt><trkpt lat="48.384891815662044" lon="-4.489083831085661"><ele>38.0</ele><time>2026-04-18T17:37:55.999Z</time></trkpt><trkpt lat="48.3849637559104" lon="-4.489033713408649"><ele>39.0</ele><time>2026-04-18T17:37:58.999Z</time></trkpt><trkpt lat="48.38503397379225" lon="-4.488950990992235"><ele>40.0</ele><time>2026-04-18T17:38:01.999Z</time></trkpt><trkpt lat="48.38511086263033" lon="-4.48889553814361"><ele>41.0</ele><time>2026-04-18T17:38:04.999Z</time></trkpt><trkpt lat="48.38519352260917" lon="-4.488862247516962"><ele>40.99999999999999</ele><time>2026-04-18T17:38:07.999Z</time></trkpt><trkpt lat="48.38525539608426" lon="-4.488809397539335"><ele>41.0</ele><time>2026-04-18T17:38:10.999Z</time></trkpt><trkpt lat="48.385307004588356" lon="-4.488748560690831"><ele>41.0</ele><time>2026-04-18T17:38:13.999Z</time></trkpt><trkpt lat="48.38535648806181" lon="-4.488685138038346"><ele>41.0</ele><time>2026-04-18T17:38:17.999Z</time></trkpt><trkpt lat="48.38540420886074" lon="-4.488621566414385"><ele>41.0</ele><time>2026-04-18T17:38:19.999Z</time></trkpt><trkpt lat="48.38545415685557" lon="-4.488526979353243"><ele>40.99999999999999</ele><time>2026-04-18T17:38:23Z</time></trkpt><trkpt lat="48.385505777916286" lon="-4.488464707468066"><ele>41.0</ele><time>2026-04-18T17:38:26Z</time></trkpt><trkpt lat="48.38552758444513" lon="-4.488330822783675"><ele>41.666666666666664</ele><time>2026-04-18T17:38:29Z</time></trkpt><trkpt lat="48.38559404365404" lon="-4.48826513192721"><ele>42.33333333333333</ele><time>2026-04-18T17:38:32Z</time></trkpt><trkpt lat="48.38564152227237" lon="-4.488173312599468"><ele>43.0</ele><time>2026-04-18T17:38:35Z</time></trkpt><trkpt lat="48.38569197012478" lon="-4.488073425399543"><ele>43.666666666666664</ele><time>2026-04-18T17:38:38Z</time></trkpt><trkpt lat="48.385735353031016" lon="-4.4879890849396356"><ele>44.333333333333336</ele><time>2026-04-18T17:38:41Z</time></trkpt><trkpt lat="48.38577851120322" lon="-4.487914777960927"><ele>45.0</ele><time>2026-04-18T17:38:44Z</time></trkpt><trkpt lat="48.38583379314492" lon="-4.487837330293374"><ele>45.0</ele><time>2026-04-18T17:38:47Z</time></trkpt><trkpt lat="48.38589065215361" lon="-4.487751482825434"><ele>45.0</ele><time>2026-04-18T17:38:50Z</time></trkpt><trkpt lat="48.385947463077954" lon="-4.487668874152638"><ele>45.0</ele><time>2026-04-18T17:38:53Z</time></trkpt><trkpt lat="48.38600101886997" lon="-4.487590087375571"><ele>45.0</ele><time>2026-04-18T17:38:56Z</time></trkpt><trkpt lat="48.38605458329717" lon="-4.487522465734641"><ele>45.0</ele><time>2026-04-18T17:38:59Z</time></trkpt><trkpt lat="48.3861159471642" lon="-4.487447797569911"><ele>45.0</ele><time>2026-04-18T17:39:02Z</time></trkpt><trkpt lat="48.386176657038426" lon="-4.487376437808989"><ele>45.0</ele><time>2026-04-18T17:39:05Z</time></trkpt><trkpt lat="48.386225817949274" lon="-4.487277100579415"><ele>45.0</ele><time>2026-04-18T17:39:08Z</time></trkpt><trkpt lat="48.38628026404991" lon="-4.4872056595437675"><ele>45.0</ele><time>2026-04-18T17:39:12Z</time></trkpt><trkpt lat="48.386356097438146" lon="-4.487116209764704"><ele>45.0</ele><time>2026-04-18T17:39:15Z</time></trkpt><trkpt lat="48.386425049236756" lon="-4.487048921380702"><ele>45.0</ele><time>2026-04-18T17:39:18Z</time></trkpt><trkpt lat="48.38649630604251" lon="-4.486995831523836"><ele>45.0</ele><time>2026-04-18T17:39:21Z</time></trkpt><trkpt lat="48.38655908808649" lon="-4.48695436739462"><ele>45.666666666666664</ele><time>2026-04-18T17:39:23Z</time></trkpt><trkpt lat="48.386635304675586" lon="-4.486917827630885"><ele>46.33333333333333</ele><time>2026-04-18T17:39:25Z</time></trkpt><trkpt lat="48.38670787626063" lon="-4.486881136854782"><ele>47.0</ele><time>2026-04-18T17:39:27Z</time></trkpt><trkpt lat="48.386761552495955" lon="-4.486812425271634"><ele>47.666666666666664</ele><time>2026-04-18T17:39:30Z</time></trkpt><trkpt lat="48.3868150040308" lon="-4.486714630236175"><ele>48.33333333333333</ele><time>2026-04-18T17:39:32.999Z</time></trkpt><trkpt lat="48.386857544606556" lon="-4.486589851719507"><ele>49.0</ele><time>2026-04-18T17:39:35.999Z</time></trkpt><trkpt lat="48.38693482110114" lon="-4.486523114853171"><ele>48.99999999999999</ele><time>2026-04-18T17:39:38.999Z</time></trkpt><trkpt lat="48.387003579521625" lon="-4.486452038570667"><ele>49.0</ele><time>2026-04-18T17:39:41.999Z</time></trkpt><trkpt lat="48.38706515764045" lon="-4.4863665348397275"><ele>49.0</ele><time>2026-04-18T17:39:44.999Z</time></trkpt><trkpt lat="48.387136812112914" lon="-4.486338364867884"><ele>49.0</ele><time>2026-04-18T17:39:47.999Z</time></trkpt><trkpt lat="48.3872016001656" lon="-4.486238560123798"><ele>48.99999999999999</ele><time>2026-04-18T17:39:50.999Z</time></trkpt><trkpt lat="48.38724940109051" lon="-4.486169343810421"><ele>49.0</ele><time>2026-04-18T17:39:52.999Z</time></trkpt><trkpt lat="48.38726897889846" lon="-4.486053804268816"><ele>49.99999999999999</ele><time>2026-04-18T17:39:54.999Z</time></trkpt><trkpt lat="48.387287211571945" lon="-4.485948626419365"><ele>51.0</ele><time>2026-04-18T17:39:56.999Z</time></trkpt><trkpt lat="48.38735534551985" lon="-4.4858726917517515"><ele>52.0</ele><time>2026-04-18T17:39:59.999Z</time></trkpt><trkpt lat="48.3874466514849" lon="-4.485814130016366"><ele>53.0</ele><time>2026-04-18T17:40:03.999Z</time></trkpt><trkpt lat="48.38751319708744" lon="-4.4857979484007195"><ele>53.99999999999999</ele><time>2026-04-18T17:40:06.999Z</time></trkpt><trkpt lat="48.387580730123474" lon="-4.485735423096053"><ele>55.0</ele><time>2026-04-18T17:40:09.999Z</time></trkpt><trkpt lat="48.38764650958704" lon="-4.485658389941016"><ele>54.99999999999999</ele><time>2026-04-18T17:40:13.999Z</time></trkpt><trkpt lat="48.38769893778518" lon="-4.48557100858617"><ele>55.0</ele><time>2026-04-18T17:40:16.999Z</time></trkpt><trkpt lat="48.38776094816614" lon="-4.485515613538729"><ele>55.0</ele><time>2026-04-18T17:40:20.999Z</time></trkpt><trkpt lat="48.387819313030306" lon="-4.485445390433964"><ele>55.0</ele><time>2026-04-18T17:40:23.999Z</time></trkpt><trkpt lat="48.38788424789575" lon="-4.4854021378111675"><ele>55.0</ele><time>2026-04-18T17:40:26.999Z</time></trkpt><trkpt lat="48.387881441988206" lon="-4.485289653785267"><ele>54.99999999999999</ele><time>2026-04-18T17:40:29Z</time></trkpt><trkpt lat="48.38787912485737" lon="-4.485184756540386"><ele>55.0</ele><time>2026-04-18T17:40:31Z</time></trkpt><trkpt lat="48.387933792076204" lon="-4.48512071255063"><ele>54.857142857142854</ele><time>2026-04-18T17:40:34Z</time></trkpt><trkpt lat="48.3879843960452" lon="-4.485054372079308"><ele>54.714285714285715</ele><time>2026-04-18T17:40:37Z</time></trkpt><trkpt lat="48.38803138569383" lon="-4.484982198145493"><ele>54.57142857142857</ele><time>2026-04-18T17:40:40Z</time></trkpt><trkpt lat="48.38807951999746" lon="-4.484909137191362"><ele>54.42857142857143</ele><time>2026-04-18T17:40:43Z</time></trkpt><trkpt lat="48.38814323060091" lon="-4.484821359912137"><ele>54.285714285714285</ele><time>2026-04-18T17:40:48Z</time></trkpt><trkpt lat="48.38820795648874" lon="-4.4847482421386315"><ele>54.14285714285714</ele><time>2026-04-18T17:40:51Z</time></trkpt><trkpt lat="48.38827450252328" lon="-4.484694542490343"><ele>54.0</ele><time>2026-04-18T17:40:54Z</time></trkpt><trkpt lat="48.388336954749875" lon="-4.484603508647397"><ele>54.42857142857143</ele><time>2026-04-18T17:40:58Z</time></trkpt><trkpt lat="48.38839276214994" lon="-4.484547950804941"><ele>54.857142857142854</ele><time>2026-04-18T17:41:01Z</time></trkpt><trkpt lat="48.38844250274853" lon="-4.484471529246986"><ele>55.285714285714285</ele><time>2026-04-18T17:41:04Z</time></trkpt><trkpt lat="48.38847489885552" lon="-4.4843767716439045"><ele>55.71428571428571</ele><time>2026-04-18T17:41:07Z</time></trkpt><trkpt lat="48.388530532663694" lon="-4.484297462854586"><ele>56.14285714285714</ele><time>2026-04-18T17:41:10Z</time></trkpt><trkpt lat="48.38857562186631" lon="-4.484224421733936"><ele>56.57142857142857</ele><time>2026-04-18T17:41:13Z</time></trkpt><trkpt lat="48.388619661003155" lon="-4.484149547654734"><ele>57.0</ele><time>2026-04-18T17:41:16Z</time></trkpt><trkpt lat="48.38866504700319" lon="-4.484079085732564"><ele>57.0</ele><time>2026-04-18T17:42:01.999Z</time></trkpt><trkpt lat="48.38870956584921" lon="-4.483998544561278"><ele>57.0</ele><time>2026-04-18T17:42:05.999Z</time></trkpt><trkpt lat="48.38877793545547" lon="-4.483925876347823"><ele>57.0</ele><time>2026-04-18T17:42:10.999Z</time></trkpt><trkpt lat="48.38885138521287" lon="-4.483864057292328"><ele>57.0</ele><time>2026-04-18T17:42:13.999Z</time></trkpt><trkpt lat="48.388910541518776" lon="-4.4838012453357745"><ele>57.0</ele><time>2026-04-18T17:42:15.999Z</time></trkpt><trkpt lat="48.38898393286115" lon="-4.483702672250506"><ele>57.0</ele><time>2026-04-18T17:42:18.999Z</time></trkpt><trkpt lat="48.38904039751654" lon="-4.483619727612861"><ele>57.333333333333336</ele><time>2026-04-18T17:42:21.999Z</time></trkpt><trkpt lat="48.38910742491293" lon="-4.483629736316044"><ele>57.66666666666667</ele><time>2026-04-18T17:42:22.999Z</time></trkpt><trkpt lat="48.38920783932212" lon="-4.483632595872814"><ele>58.0</ele><time>2026-04-18T17:42:24.999Z</time></trkpt><trkpt lat="48.38929031900451" lon="-4.4836071639553055"><ele>58.333333333333336</ele><time>2026-04-18T17:42:26.999Z</time></trkpt><trkpt lat="48.389361098274485" lon="-4.483529848139412"><ele>58.66666666666667</ele><time>2026-04-18T17:42:29.999Z</time></trkpt><trkpt lat="48.38943042187978" lon="-4.483478740663836"><ele>59.0</ele><time>2026-04-18T17:42:33.999Z</time></trkpt><trkpt lat="48.389482859511254" lon="-4.483403335174663"><ele>59.0</ele><time>2026-04-18T17:42:37Z</time></trkpt><trkpt lat="48.3894889395665" lon="-4.483281314382271"><ele>59.0</ele><time>2026-04-18T17:42:39Z</time></trkpt><trkpt lat="48.38952239035521" lon="-4.483174844215583"><ele>59.0</ele><time>2026-04-18T17:42:42Z</time></trkpt><trkpt lat="48.38957633214366" lon="-4.483118231686136"><ele>59.0</ele><time>2026-04-18T17:42:45Z</time></trkpt><trkpt lat="48.38962389150947" lon="-4.483047613100449"><ele>59.0</ele><time>2026-04-18T17:42:48Z</time></trkpt><trkpt lat="48.38967881322918" lon="-4.482980218118912"><ele>59.0</ele><time>2026-04-18T17:42:51Z</time></trkpt><trkpt lat="48.38974371203941" lon="-4.482904507792287"><ele>59.0</ele><time>2026-04-18T17:42:55Z</time></trkpt><trkpt lat="48.389808357732" lon="-4.482842226250513"><ele>59.66666666666667</ele><time>2026-04-18T17:42:58Z</time></trkpt><trkpt lat="48.38987590722446" lon="-4.482770082865686"><ele>60.333333333333336</ele><time>2026-04-18T17:43:01Z</time></trkpt><trkpt lat="48.38993137329983" lon="-4.482712372143343"><ele>61.0</ele><time>2026-04-18T17:43:04Z</time></trkpt><trkpt lat="48.389997756742034" lon="-4.482641445107471"><ele>61.66666666666667</ele><time>2026-04-18T17:43:07Z</time></trkpt><trkpt lat="48.39006614926697" lon="-4.482565625684995"><ele>62.333333333333336</ele><time>2026-04-18T17:43:10Z</time></trkpt><trkpt lat="48.39011691326401" lon="-4.482491969003154"><ele>63.0</ele><time>2026-04-18T17:43:13Z</time></trkpt><trkpt lat="48.390184128355976" lon="-4.48240584145348"><ele>63.0</ele><time>2026-04-18T17:43:16Z</time></trkpt><trkpt lat="48.39024053962124" lon="-4.482345847724365"><ele>63.0</ele><time>2026-04-18T17:43:19Z</time></trkpt><trkpt lat="48.39030397067431" lon="-4.48228127369223"><ele>63.0</ele><time>2026-04-18T17:43:22Z</time></trkpt><trkpt lat="48.390351872226454" lon="-4.482212922413768"><ele>63.0</ele><time>2026-04-18T17:43:26Z</time></trkpt><trkpt lat="48.39042824550155" lon="-4.4821728978873745"><ele>63.0</ele><time>2026-04-18T17:43:29Z</time></trkpt><trkpt lat="48.39049643634061" lon="-4.4821237498572755"><ele>63.0</ele><time>2026-04-18T17:43:32Z</time></trkpt><trkpt lat="48.390583219999385" lon="-4.482043158699899"><ele>63.666666666666664</ele><time>2026-04-18T17:43:35Z</time></trkpt><trkpt lat="48.39067167822675" lon="-4.4820119042063045"><ele>64.33333333333333</ele><time>2026-04-18T17:43:38Z</time></trkpt><trkpt lat="48.390749933904296" lon="-4.481929538003232"><ele>65.0</ele><time>2026-04-18T17:43:41Z</time></trkpt><trkpt lat="48.39081399967891" lon="-4.481932226114558"><ele>65.66666666666666</ele><time>2026-04-18T17:43:42.999Z</time></trkpt><trkpt lat="48.390851078898336" lon="-4.481837718494486"><ele>66.33333333333333</ele><time>2026-04-18T17:43:46.999Z</time></trkpt><trkpt lat="48.390896815014365" lon="-4.48175976618422"><ele>67.0</ele><time>2026-04-18T17:43:49.999Z</time></trkpt><trkpt lat="48.3909504691012" lon="-4.481699634574861"><ele>67.0</ele><time>2026-04-18T17:43:51.999Z</time></trkpt><trkpt lat="48.39101086163662" lon="-4.481648049589507"><ele>67.0</ele><time>2026-04-18T17:43:53.999Z</time></trkpt><trkpt lat="48.39110205230757" lon="-4.481610781791302"><ele>67.0</ele><time>2026-04-18T17:43:55.999Z</time></trkpt><trkpt lat="48.39114334445212" lon="-4.481525816581294"><ele>67.0</ele><time>2026-04-18T17:43:58.999Z</time></trkpt><trkpt lat="48.39119338707289" lon="-4.481465006969415"><ele>67.0</ele><time>2026-04-18T17:44:00.999Z</time></trkpt><trkpt lat="48.391259554943964" lon="-4.4813911958292705"><ele>67.0</ele><time>2026-04-18T17:44:02.999Z</time></trkpt><trkpt lat="48.39129643921595" lon="-4.48129625097684"><ele>67.0</ele><time>2026-04-18T17:44:06.999Z</time></trkpt><trkpt lat="48.39133540064241" lon="-4.481199720705539"><ele>67.0</ele><time>2026-04-18T17:44:08.999Z</time></trkpt><trkpt lat="48.39138512729373" lon="-4.481093375363756"><ele>67.0</ele><time>2026-04-18T17:44:11.999Z</time></trkpt><trkpt lat="48.39142454717812" lon="-4.480985090721985"><ele>67.0</ele><time>2026-04-18T17:44:14.999Z</time></trkpt><trkpt lat="48.39148087685119" lon="-4.480902710517634"><ele>67.0</ele><time>2026-04-18T17:44:17.999Z</time></trkpt><trkpt lat="48.39152288419045" lon="-4.480818443550597"><ele>67.0</ele><time>2026-04-18T17:44:20.999Z</time></trkpt><trkpt lat="48.39156121201183" lon="-4.480734204480838"><ele>67.42857142857143</ele><time>2026-04-18T17:44:25.999Z</time></trkpt><trkpt lat="48.39151962046636" lon="-4.480657248284072"><ele>67.85714285714286</ele><time>2026-04-18T17:44:36.999Z</time></trkpt><trkpt lat="48.391545599202296" lon="-4.480558558930204"><ele>68.28571428571428</ele><time>2026-04-18T17:44:39.999Z</time></trkpt><trkpt lat="48.391585498752804" lon="-4.480459619447538"><ele>68.71428571428572</ele><time>2026-04-18T17:44:43Z</time></trkpt><trkpt lat="48.391656344180845" lon="-4.480401264238322"><ele>69.14285714285714</ele><time>2026-04-18T17:44:46Z</time></trkpt><trkpt lat="48.391714125313115" lon="-4.480320765801495"><ele>69.57142857142857</ele><time>2026-04-18T17:44:49Z</time></trkpt><trkpt lat="48.39176071027781" lon="-4.480253250706903"><ele>70.0</ele><time>2026-04-18T17:44:52Z</time></trkpt><trkpt lat="48.3918251780973" lon="-4.480191223065092"><ele>70.66666666666666</ele><time>2026-04-18T17:44:56Z</time></trkpt><trkpt lat="48.39189135522939" lon="-4.480151387836294"><ele>71.33333333333333</ele><time>2026-04-18T17:45:01Z</time></trkpt><trkpt lat="48.39200361862314" lon="-4.480105522202404"><ele>72.0</ele><time>2026-04-18T17:46:35.999Z</time></trkpt><trkpt lat="48.39206279732359" lon="-4.4800480265947815"><ele>72.66666666666667</ele><time>2026-04-18T17:46:37.999Z</time></trkpt><trkpt lat="48.392142987968185" lon="-4.480013959582688"><ele>73.33333333333334</ele><time>2026-04-18T17:46:40.999Z</time></trkpt><trkpt lat="48.39220828476096" lon="-4.479979746612204"><ele>74.0</ele><time>2026-04-18T17:46:42.999Z</time></trkpt><trkpt lat="48.392288002766676" lon="-4.479921481383346"><ele>74.16666666666667</ele><time>2026-04-18T17:46:47Z</time></trkpt><trkpt lat="48.39235786770095" lon="-4.479858476794724"><ele>74.33333333333334</ele><time>2026-04-18T17:46:49Z</time></trkpt><trkpt lat="48.39239234057328" lon="-4.479769578183099"><ele>74.5</ele><time>2026-04-18T17:46:52Z</time></trkpt><trkpt lat="48.39245251001495" lon="-4.479734871835897"><ele>74.66666666666667</ele><time>2026-04-18T17:46:55Z</time></trkpt><trkpt lat="48.392529261696886" lon="-4.479681179808129"><ele>74.83333333333333</ele><time>2026-04-18T17:46:58Z</time></trkpt><trkpt lat="48.39260633306076" lon="-4.479645106275967"><ele>75.0</ele><time>2026-04-18T17:47:01Z</time></trkpt><trkpt lat="48.39268528192597" lon="-4.479581831207033"><ele>75.6</ele><time>2026-04-18T17:47:04Z</time></trkpt><trkpt lat="48.39274646490637" lon="-4.479511071567765"><ele>76.2</ele><time>2026-04-18T17:47:07Z</time></trkpt><trkpt lat="48.392911873357804" lon="-4.479462840328555"><ele>76.8</ele><time>2026-04-18T17:47:18Z</time></trkpt><trkpt lat="48.392980551679194" lon="-4.479430013634398"><ele>77.4</ele><time>2026-04-18T17:47:21Z</time></trkpt><trkpt lat="48.3930607593263" lon="-4.479369842137144"><ele>78.0</ele><time>2026-04-18T17:47:25Z</time></trkpt><trkpt lat="48.39313220429444" lon="-4.479311172458735"><ele>78.33333333333333</ele><time>2026-04-18T17:47:28Z</time></trkpt><trkpt lat="48.393214424216524" lon="-4.479260241764359"><ele>78.66666666666667</ele><time>2026-04-18T17:47:31Z</time></trkpt><trkpt lat="48.393301009888084" lon="-4.479204402323854"><ele>79.0</ele><time>2026-04-18T17:47:34Z</time></trkpt><trkpt lat="48.39336379728521" lon="-4.479141026221377"><ele>79.33333333333334</ele><time>2026-04-18T17:47:36Z</time></trkpt><trkpt lat="48.39342645346445" lon="-4.479057225819551"><ele>79.66666666666667</ele><time>2026-04-18T17:47:39Z</time></trkpt><trkpt lat="48.393489758725714" lon="-4.4789840034476525"><ele>80.0</ele><time>2026-04-18T17:47:42Z</time></trkpt><trkpt lat="48.39357054669241" lon="-4.478945936720834"><ele>80.0</ele><time>2026-04-18T17:47:45Z</time></trkpt><trkpt lat="48.39363240979554" lon="-4.478880857361705"><ele>80.0</ele><time>2026-04-18T17:47:48Z</time></trkpt><trkpt lat="48.39369654858883" lon="-4.47883859159595"><ele>80.0</ele><time>2026-04-18T17:47:51Z</time></trkpt><trkpt lat="48.39377686702946" lon="-4.478786168431964"><ele>80.0</ele><time>2026-04-18T17:47:55Z</time></trkpt><trkpt lat="48.39384683597527" lon="-4.4787482789306665"><ele>80.0</ele><time>2026-04-18T17:47:57.999Z</time></trkpt><trkpt lat="48.393911325982515" lon="-4.478697161757767"><ele>80.0</ele><time>2026-04-18T17:48:00.999Z</time></trkpt><trkpt lat="48.39397044216749" lon="-4.478650239021965"><ele>80.0</ele><time>2026-04-18T17:48:03.999Z</time></trkpt><trkpt lat="48.394043048862684" lon="-4.478593934343017"><ele>80.85714285714286</ele><time>2026-04-18T17:48:07.999Z</time></trkpt><trkpt lat="48.394111378011644" lon="-4.478556939184514"><ele>81.71428571428572</ele><time>2026-04-18T17:48:10.999Z</time></trkpt><trkpt lat="48.39417000493863" lon="-4.478513947363092"><ele>82.57142857142858</ele><time>2026-04-18T17:48:13.999Z</time></trkpt><trkpt lat="48.39422859409727" lon="-4.4784759598872315"><ele>83.42857142857143</ele><time>2026-04-18T17:48:16.999Z</time></trkpt><trkpt lat="48.39429027307904" lon="-4.478421541245812"><ele>84.28571428571429</ele><time>2026-04-18T17:48:19.999Z</time></trkpt><trkpt lat="48.39433492116001" lon="-4.478337758113532"><ele>85.14285714285715</ele><time>2026-04-18T17:48:22.999Z</time></trkpt><trkpt lat="48.3943886924965" lon="-4.478270163968481"><ele>86.0</ele><time>2026-04-18T17:48:25.999Z</time></trkpt><trkpt lat="48.394447909194355" lon="-4.4781884611682505"><ele>86.00000000000001</ele><time>2026-04-18T17:48:29.999Z</time></trkpt><trkpt lat="48.39452131596068" lon="-4.478139948341418"><ele>86.0</ele><time>2026-04-18T17:48:32.999Z</time></trkpt><trkpt lat="48.39459264596537" lon="-4.478099508916019"><ele>86.0</ele><time>2026-04-18T17:48:35.999Z</time></trkpt><trkpt lat="48.39465777445406" lon="-4.478056353536609"><ele>86.0</ele><time>2026-04-18T17:48:38.999Z</time></trkpt><trkpt lat="48.39472587694453" lon="-4.478012931995865"><ele>86.0</ele><time>2026-04-18T17:48:41.999Z</time></trkpt><trkpt lat="48.394785769634474" lon="-4.477958292100998"><ele>86.00000000000001</ele><time>2026-04-18T17:48:44.999Z</time></trkpt><trkpt lat="48.39484342432325" lon="-4.477879217674689"><ele>86.0</ele><time>2026-04-18T17:48:47.999Z</time></trkpt><trkpt lat="48.394907183112736" lon="-4.477809920063967"><ele>86.0</ele><time>2026-04-18T17:48:50.999Z</time></trkpt><trkpt lat="48.394964911355544" lon="-4.47774315679902"><ele>86.0</ele><time>2026-04-18T17:48:54Z</time></trkpt><trkpt lat="48.39500264570248" lon="-4.477633080217068"><ele>86.0</ele><time>2026-04-18T17:48:57Z</time></trkpt><trkpt lat="48.39505699324627" lon="-4.477541415543274"><ele>86.0</ele><time>2026-04-18T17:49:00Z</time></trkpt><trkpt lat="48.39511403941094" lon="-4.47747065795352"><ele>86.0</ele><time>2026-04-18T17:49:03Z</time></trkpt><trkpt lat="48.3951680725216" lon="-4.477369429513444"><ele>86.0</ele><time>2026-04-18T17:49:06Z</time></trkpt><trkpt lat="48.39523641426042" lon="-4.477307526457738"><ele>86.0</ele><time>2026-04-18T17:49:09Z</time></trkpt><trkpt lat="48.39529947516088" lon="-4.477245450356023"><ele>86.0</ele><time>2026-04-18T17:49:12Z</time></trkpt><trkpt lat="48.395371622609595" lon="-4.47720223911496"><ele>86.0</ele><time>2026-04-18T17:49:16Z</time></trkpt><trkpt lat="48.39547273462732" lon="-4.477174938909431"><ele>86.0</ele><time>2026-04-18T17:49:58.999Z</time></trkpt><trkpt lat="48.3954850698098" lon="-4.4770584222133865"><ele>86.0</ele><time>2026-04-18T17:50:20.999Z</time></trkpt><trkpt lat="48.39553599640002" lon="-4.476931816217959"><ele>86.0</ele><time>2026-04-18T17:50:24.999Z</time></trkpt><trkpt lat="48.3955946337334" lon="-4.476826580171774"><ele>86.33333333333334</ele><time>2026-04-18T17:50:27.999Z</time></trkpt><trkpt lat="48.39567085177889" lon="-4.476750999053823"><ele>86.66666666666667</ele><time>2026-04-18T17:50:30.999Z</time></trkpt><trkpt lat="48.395722165098256" lon="-4.4766347149883705"><ele>87.0</ele><time>2026-04-18T17:50:33.999Z</time></trkpt><trkpt lat="48.39576034654556" lon="-4.476527006640961"><ele>87.33333333333333</ele><time>2026-04-18T17:50:36.999Z</time></trkpt><trkpt lat="48.39581687910952" lon="-4.47642769304143"><ele>87.66666666666666</ele><time>2026-04-18T17:50:39.999Z</time></trkpt><trkpt lat="48.39588647147982" lon="-4.476331758845937"><ele>88.0</ele><time>2026-04-18T17:50:42.999Z</time></trkpt><trkpt lat="48.39593756316484" lon="-4.476225664081529"><ele>88.0</ele><time>2026-04-18T17:50:45.999Z</time></trkpt><trkpt lat="48.39598464055758" lon="-4.476149303389135"><ele>88.0</ele><time>2026-04-18T17:50:47.999Z</time></trkpt><trkpt lat="48.39603214592846" lon="-4.476047462196677"><ele>88.0</ele><time>2026-04-18T17:50:50.999Z</time></trkpt><trkpt lat="48.39606955747151" lon="-4.475969278223377"><ele>88.0</ele><time>2026-04-18T17:50:52.999Z</time></trkpt><trkpt lat="48.396111504209884" lon="-4.475893974999807"><ele>88.0</ele><time>2026-04-18T17:50:54.999Z</time></trkpt><trkpt lat="48.39618575629903" lon="-4.475795746419736"><ele>88.0</ele><time>2026-04-18T17:50:57.999Z</time></trkpt><trkpt lat="48.396229571667845" lon="-4.475715982757305"><ele>88.0</ele><time>2026-04-18T17:51:00Z</time></trkpt><trkpt lat="48.396296470869366" lon="-4.475616087405881"><ele>88.5</ele><time>2026-04-18T17:51:03Z</time></trkpt><trkpt lat="48.39634655530158" lon="-4.475541138557738"><ele>89.0</ele><time>2026-04-18T17:51:05Z</time></trkpt><trkpt lat="48.396371978882634" lon="-4.475445399221758"><ele>89.5</ele><time>2026-04-18T17:51:07Z</time></trkpt><trkpt lat="48.396439673274344" lon="-4.475353635868361"><ele>90.0</ele><time>2026-04-18T17:51:10Z</time></trkpt><trkpt lat="48.396470649393514" lon="-4.475259668213261"><ele>90.5</ele><time>2026-04-18T17:51:13Z</time></trkpt><trkpt lat="48.39654251538544" lon="-4.475194771410532"><ele>91.0</ele><time>2026-04-18T17:51:17Z</time></trkpt><trkpt lat="48.39661278422784" lon="-4.475123182680373"><ele>91.5</ele><time>2026-04-18T17:51:20Z</time></trkpt><trkpt lat="48.39667808142998" lon="-4.475044194790868"><ele>92.0</ele><time>2026-04-18T17:51:24Z</time></trkpt><trkpt lat="48.39673536419475" lon="-4.474949693057799"><ele>92.5</ele><time>2026-04-18T17:51:27Z</time></trkpt><trkpt lat="48.3967744923484" lon="-4.474857848718139"><ele>93.0</ele><time>2026-04-18T17:51:30Z</time></trkpt><trkpt lat="48.39681672394639" lon="-4.474759404000141"><ele>93.5</ele><time>2026-04-18T17:51:33Z</time></trkpt><trkpt lat="48.396850830622576" lon="-4.474658903871645"><ele>94.0</ele><time>2026-04-18T17:51:36Z</time></trkpt><trkpt lat="48.39689766764311" lon="-4.47455078028751"><ele>94.0</ele><time>2026-04-18T17:51:39Z</time></trkpt><trkpt lat="48.396943717871096" lon="-4.474462203642937"><ele>94.0</ele><time>2026-04-18T17:51:42Z</time></trkpt><trkpt lat="48.39698348938218" lon="-4.4743660972646975"><ele>94.0</ele><time>2026-04-18T17:51:45Z</time></trkpt><trkpt lat="48.39702780646116" lon="-4.474280236180736"><ele>94.0</ele><time>2026-04-18T17:51:48Z</time></trkpt><trkpt lat="48.39705969181677" lon="-4.474191018927197"><ele>94.0</ele><time>2026-04-18T17:51:51Z</time></trkpt><trkpt lat="48.39708398467149" lon="-4.474103087664176"><ele>94.0</ele><time>2026-04-18T17:51:54Z</time></trkpt><trkpt lat="48.397120022292924" lon="-4.4740192759273745"><ele>94.0</ele><time>2026-04-18T17:51:57Z</time></trkpt><trkpt lat="48.39715978199023" lon="-4.473924388218367"><ele>94.33333333333333</ele><time>2026-04-18T17:52:00Z</time></trkpt><trkpt lat="48.39718454538434" lon="-4.4738228122496"><ele>94.66666666666666</ele><time>2026-04-18T17:52:03Z</time></trkpt><trkpt lat="48.39718539181557" lon="-4.4737169728059225"><ele>95.0</ele><time>2026-04-18T17:52:07.999Z</time></trkpt><trkpt lat="48.39721301032695" lon="-4.4735970524554505"><ele>95.33333333333333</ele><time>2026-04-18T17:52:11.999Z</time></trkpt><trkpt lat="48.397247863731025" lon="-4.473512701055857"><ele>95.66666666666667</ele><time>2026-04-18T17:52:14.999Z</time></trkpt><trkpt lat="48.397301405980265" lon="-4.4734115034877275"><ele>96.0</ele><time>2026-04-18T17:52:17.999Z</time></trkpt><trkpt lat="48.3973652310928" lon="-4.4733189338057695"><ele>96.33333333333333</ele><time>2026-04-18T17:52:20.999Z</time></trkpt><trkpt lat="48.39743377561857" lon="-4.473218244195339"><ele>96.66666666666666</ele><time>2026-04-18T17:52:24.999Z</time></trkpt><trkpt lat="48.39748859293235" lon="-4.4731111020408445"><ele>97.0</ele><time>2026-04-18T17:52:27.999Z</time></trkpt><trkpt lat="48.39753894909389" lon="-4.473051199586782"><ele>97.33333333333333</ele><time>2026-04-18T17:52:29.999Z</time></trkpt><trkpt lat="48.39759386052152" lon="-4.472960420040218"><ele>97.66666666666666</ele><time>2026-04-18T17:52:32.999Z</time></trkpt><trkpt lat="48.397650896897744" lon="-4.472861979890908"><ele>98.0</ele><time>2026-04-18T17:52:35.999Z</time></trkpt><trkpt lat="48.39769764064494" lon="-4.472788098706099"><ele>98.0</ele><time>2026-04-18T17:52:38.999Z</time></trkpt><trkpt lat="48.39774391009247" lon="-4.4727161171937455"><ele>98.0</ele><time>2026-04-18T17:52:41.999Z</time></trkpt><trkpt lat="48.397794935618194" lon="-4.472648533948793"><ele>98.0</ele><time>2026-04-18T17:52:43.999Z</time></trkpt><trkpt lat="48.3978571346887" lon="-4.4725757776271085"><ele>98.0</ele><time>2026-04-18T17:52:47.999Z</time></trkpt><trkpt lat="48.39790873467682" lon="-4.472507900327215"><ele>98.0</ele><time>2026-04-18T17:52:49.999Z</time></trkpt><trkpt lat="48.39796843115988" lon="-4.4724435015901856"><ele>98.0</ele><time>2026-04-18T17:52:52.999Z</time></trkpt><trkpt lat="48.3980271184258" lon="-4.472379413133273"><ele>98.0</ele><time>2026-04-18T17:52:56.999Z</time></trkpt><trkpt lat="48.39810067764238" lon="-4.4723871099654575"><ele>98.16666666666666</ele><time>2026-04-18T17:52:58.999Z</time></trkpt><trkpt lat="48.398163695024216" lon="-4.47229424844722"><ele>98.33333333333333</ele><time>2026-04-18T17:53:01.999Z</time></trkpt><trkpt lat="48.39820167192467" lon="-4.472216584692677"><ele>98.5</ele><time>2026-04-18T17:53:05Z</time></trkpt><trkpt lat="48.398236879732984" lon="-4.472125623204287"><ele>98.66666666666666</ele><time>2026-04-18T17:53:07Z</time></trkpt><trkpt lat="48.39827214196212" lon="-4.472045372821222"><ele>98.83333333333333</ele><time>2026-04-18T17:53:09Z</time></trkpt><trkpt lat="48.39832510639385" lon="-4.471941964295564"><ele>99.0</ele><time>2026-04-18T17:53:12Z</time></trkpt><trkpt lat="48.39838752982496" lon="-4.471857324103625"><ele>99.83333333333333</ele><time>2026-04-18T17:53:15Z</time></trkpt><trkpt lat="48.398452560737645" lon="-4.471766878477191"><ele>100.66666666666666</ele><time>2026-04-18T17:53:18Z</time></trkpt><trkpt lat="48.398522356019996" lon="-4.4717007101053285"><ele>101.5</ele><time>2026-04-18T17:53:21Z</time></trkpt><trkpt lat="48.39857093139315" lon="-4.4716223696361475"><ele>102.33333333333333</ele><time>2026-04-18T17:53:23Z</time></trkpt><trkpt lat="48.398617723294926" lon="-4.471554307478564"><ele>103.16666666666666</ele><time>2026-04-18T17:53:25Z</time></trkpt><trkpt lat="48.3986873150846" lon="-4.471469577114873"><ele>104.0</ele><time>2026-04-18T17:53:28Z</time></trkpt><trkpt lat="48.39873745471476" lon="-4.471404163051101"><ele>103.99999999999999</ele><time>2026-04-18T17:53:30Z</time></trkpt><trkpt lat="48.39879719851672" lon="-4.471313095193685"><ele>104.0</ele><time>2026-04-18T17:53:33Z</time></trkpt><trkpt lat="48.39885503920743" lon="-4.4712325866004425"><ele>104.0</ele><time>2026-04-18T17:53:36Z</time></trkpt><trkpt lat="48.39891592809361" lon="-4.471150043253856"><ele>104.0</ele><time>2026-04-18T17:53:39Z</time></trkpt><trkpt lat="48.39896413299479" lon="-4.471076414885357"><ele>103.99999999999999</ele><time>2026-04-18T17:53:41Z</time></trkpt><trkpt lat="48.399027846397395" lon="-4.470991508532773"><ele>104.0</ele><time>2026-04-18T17:53:44Z</time></trkpt><trkpt lat="48.39907431770785" lon="-4.470927403706037"><ele>103.57142857142857</ele><time>2026-04-18T17:53:46Z</time></trkpt><trkpt lat="48.39912228740252" lon="-4.470857436613486"><ele>103.14285714285715</ele><time>2026-04-18T17:53:48Z</time></trkpt><trkpt lat="48.399170462950906" lon="-4.47078270421898"><ele>102.71428571428572</ele><time>2026-04-18T17:53:50Z</time></trkpt><trkpt lat="48.39922469003552" lon="-4.470706516197972"><ele>102.28571428571428</ele><time>2026-04-18T17:53:52Z</time></trkpt><trkpt lat="48.39928114360744" lon="-4.470634008529228"><ele>101.85714285714286</ele><time>2026-04-18T17:53:54Z</time></trkpt><trkpt lat="48.39933581531694" lon="-4.470563609991524"><ele>101.42857142857143</ele><time>2026-04-18T17:53:56Z</time></trkpt><trkpt lat="48.399385204783385" lon="-4.470491647785392"><ele>101.0</ele><time>2026-04-18T17:53:58Z</time></trkpt><trkpt lat="48.39943809142602" lon="-4.470419956746028"><ele>100.66666666666666</ele><time>2026-04-18T17:54:00Z</time></trkpt><trkpt lat="48.39951521382358" lon="-4.470334415926334"><ele>100.33333333333333</ele><time>2026-04-18T17:54:03Z</time></trkpt><trkpt lat="48.39956809184663" lon="-4.470270801499798"><ele>100.0</ele><time>2026-04-18T17:54:05Z</time></trkpt><trkpt lat="48.39962098914941" lon="-4.470198869536054"><ele>99.66666666666666</ele><time>2026-04-18T17:54:07Z</time></trkpt><trkpt lat="48.399697510300804" lon="-4.470117770495544"><ele>99.33333333333333</ele><time>2026-04-18T17:54:10Z</time></trkpt><trkpt lat="48.399748418215516" lon="-4.470039552395217"><ele>99.0</ele><time>2026-04-18T17:54:12Z</time></trkpt><trkpt lat="48.39979916536598" lon="-4.4699654219241385"><ele>99.0</ele><time>2026-04-18T17:54:13.999Z</time></trkpt><trkpt lat="48.39983609515543" lon="-4.469885593817351"><ele>99.0</ele><time>2026-04-18T17:54:15.999Z</time></trkpt><trkpt lat="48.39988859194371" lon="-4.469814628121656"><ele>99.0</ele><time>2026-04-18T17:54:17.999Z</time></trkpt><trkpt lat="48.39994090378913" lon="-4.469731868552963"><ele>99.0</ele><time>2026-04-18T17:54:19.999Z</time></trkpt><trkpt lat="48.40000047858217" lon="-4.469648452246432"><ele>99.0</ele><time>2026-04-18T17:54:21.999Z</time></trkpt><trkpt lat="48.4000554189544" lon="-4.469570695567604"><ele>99.0</ele><time>2026-04-18T17:54:23.999Z</time></trkpt><trkpt lat="48.40011763879285" lon="-4.469489138793214"><ele>99.0</ele><time>2026-04-18T17:54:25.999Z</time></trkpt><trkpt lat="48.40016313709577" lon="-4.46940588857548"><ele>99.0</ele><time>2026-04-18T17:54:27.999Z</time></trkpt><trkpt lat="48.40022019768543" lon="-4.469325940529618"><ele>99.0</ele><time>2026-04-18T17:54:29.999Z</time></trkpt><trkpt lat="48.40027528765245" lon="-4.4692387600258145"><ele>99.0</ele><time>2026-04-18T17:54:31.999Z</time></trkpt><trkpt lat="48.40030948215003" lon="-4.469133257471206"><ele>99.0</ele><time>2026-04-18T17:54:33.999Z</time></trkpt><trkpt lat="48.40037292869303" lon="-4.4690617691967125"><ele>99.0</ele><time>2026-04-18T17:54:35.999Z</time></trkpt><trkpt lat="48.40043077613992" lon="-4.4690020749266655"><ele>99.0</ele><time>2026-04-18T17:54:37.999Z</time></trkpt><trkpt lat="48.40049522694672" lon="-4.468945557600652"><ele>99.0</ele><time>2026-04-18T17:54:39.999Z</time></trkpt><trkpt lat="48.400551818650676" lon="-4.468879259763975"><ele>99.0</ele><time>2026-04-18T17:54:41.999Z</time></trkpt><trkpt lat="48.40060595038018" lon="-4.468819025508134"><ele>99.0</ele><time>2026-04-18T17:54:43.999Z</time></trkpt><trkpt lat="48.40065860851708" lon="-4.468749036458425"><ele>99.0</ele><time>2026-04-18T17:54:45.999Z</time></trkpt><trkpt lat="48.40071113661048" lon="-4.468687305121715"><ele>99.0</ele><time>2026-04-18T17:54:47.999Z</time></trkpt><trkpt lat="48.40076802259345" lon="-4.468617087432935"><ele>99.0</ele><time>2026-04-18T17:54:49.999Z</time></trkpt><trkpt lat="48.40082855234182" lon="-4.46854399923156"><ele>99.16666666666667</ele><time>2026-04-18T17:54:51.999Z</time></trkpt><trkpt lat="48.40088203275748" lon="-4.4684689713570425"><ele>99.33333333333334</ele><time>2026-04-18T17:54:53.999Z</time></trkpt><trkpt lat="48.400934850045154" lon="-4.468390831239274"><ele>99.5</ele><time>2026-04-18T17:54:55.999Z</time></trkpt><trkpt lat="48.40099269604437" lon="-4.468308719928588"><ele>99.66666666666667</ele><time>2026-04-18T17:54:57.999Z</time></trkpt><trkpt lat="48.40103729676963" lon="-4.4682378480788305"><ele>99.83333333333334</ele><time>2026-04-18T17:54:59.999Z</time></trkpt><trkpt lat="48.40110372707863" lon="-4.468146466800503"><ele>100.0</ele><time>2026-04-18T17:55:01.999Z</time></trkpt><trkpt lat="48.4011944264174" lon="-4.468018073171429"><ele>100.0</ele><time>2026-04-18T17:55:03.999Z</time></trkpt><trkpt lat="48.40124856285669" lon="-4.467940538278417"><ele>100.0</ele><time>2026-04-18T17:55:04.999Z</time></trkpt><trkpt lat="48.40131568600129" lon="-4.467842696607396"><ele>100.0</ele><time>2026-04-18T17:55:05.999Z</time></trkpt><trkpt lat="48.40138991637641" lon="-4.467737536033034"><ele>100.0</ele><time>2026-04-18T17:55:06.999Z</time></trkpt><trkpt lat="48.401453584754215" lon="-4.4676307089580485"><ele>100.0</ele><time>2026-04-18T17:55:07.999Z</time></trkpt><trkpt lat="48.40151765647098" lon="-4.467535290390441"><ele>100.16666666666667</ele><time>2026-04-18T17:55:08.999Z</time></trkpt><trkpt lat="48.40157284436568" lon="-4.4674585689756885"><ele>100.33333333333334</ele><time>2026-04-18T17:55:09.999Z</time></trkpt><trkpt lat="48.4016206978364" lon="-4.467379824699377"><ele>100.5</ele><time>2026-04-18T17:55:12Z</time></trkpt><trkpt lat="48.40166858069471" lon="-4.467267739009463"><ele>100.66666666666666</ele><time>2026-04-18T17:55:18Z</time></trkpt><trkpt lat="48.40162419583303" lon="-4.4671245664932835"><ele>100.83333333333333</ele><time>2026-04-18T17:55:20Z</time></trkpt><trkpt lat="48.401525932097194" lon="-4.467094467758688"><ele>101.0</ele><time>2026-04-18T17:55:22Z</time></trkpt><trkpt lat="48.40142423114904" lon="-4.467060407334614"><ele>100.4</ele><time>2026-04-18T17:55:24Z</time></trkpt><trkpt lat="48.4013005250025" lon="-4.466997376733523"><ele>99.8</ele><time>2026-04-18T17:55:26Z</time></trkpt><trkpt lat="48.40123793155597" lon="-4.466979333690864"><ele>99.2</ele><time>2026-04-18T17:55:27Z</time></trkpt><trkpt lat="48.40112840777672" lon="-4.466931146001853"><ele>98.60000000000001</ele><time>2026-04-18T17:55:29Z</time></trkpt><trkpt lat="48.40105768695719" lon="-4.466937430413295"><ele>98.0</ele><time>2026-04-18T17:55:31Z</time></trkpt><trkpt lat="48.40100403711882" lon="-4.466835191550542"><ele>97.99999999999999</ele><time>2026-04-18T17:55:33Z</time></trkpt><trkpt lat="48.400916450220244" lon="-4.466833765494529"><ele>98.0</ele><time>2026-04-18T17:55:36Z</time></trkpt><trkpt lat="48.40084310728624" lon="-4.466845896715669"><ele>98.0</ele><time>2026-04-18T17:55:38Z</time></trkpt><trkpt lat="48.400757427195444" lon="-4.466823804256413"><ele>98.0</ele><time>2026-04-18T17:55:40Z</time></trkpt><trkpt lat="48.40068866499344" lon="-4.46688949610169"><ele>97.99999999999999</ele><time>2026-04-18T17:56:01Z</time></trkpt><trkpt lat="48.400711469733565" lon="-4.46679015590177"><ele>98.0</ele><time>2026-04-18T17:56:13Z</time></trkpt><trkpt lat="48.40073780928482" lon="-4.466693811208308"><ele>98.0</ele><time>2026-04-18T17:56:18Z</time></trkpt><trkpt lat="48.40076940663067" lon="-4.466598159881637"><ele>98.0</ele><time>2026-04-18T17:56:23.999Z</time></trkpt></trkseg></trk></gpx>